<?xml version="1.0" encoding="UTF-8" standalone="no" ?>
<gpx xmlns="http://www.topografix.com/GPX/1/1" xmlns:xsi="http://www.w3.org/2001/XMLSchema-instance" xsi:schemaLocation="http://www.topografix.com/GPX/1/1 http://www.topografix.com/GPX/1/1/gpx.xsd" version="1.1" creator="VisuGPX - https://www.visugpx.com">
  <metadata>
    <name>2020-06-06 : Ville Jarnioux</name>
  </metadata>
  <trk>
    <name><![CDATA[2020-06-06 : Ville Jarnioux]]></name>
    <trkseg>
      <trkpt lat="45.9608" lon="4.60902">
        <ele>576.4</ele>
        <time>2020-06-06T06:42:16Z</time>
      </trkpt>
      <trkpt lat="45.9608" lon="4.60902">
        <ele>577</ele>
        <time>2020-06-06T06:42:20Z</time>
      </trkpt>
      <trkpt lat="45.96072" lon="4.609">
        <ele>577.6</ele>
        <time>2020-06-06T06:42:24Z</time>
      </trkpt>
      <trkpt lat="45.96064" lon="4.60898">
        <ele>578.8</ele>
        <time>2020-06-06T06:42:28Z</time>
      </trkpt>
      <trkpt lat="45.96056" lon="4.60897">
        <ele>578.8</ele>
        <time>2020-06-06T06:42:32Z</time>
      </trkpt>
      <trkpt lat="45.96048" lon="4.60895">
        <ele>580.4</ele>
        <time>2020-06-06T06:42:36Z</time>
      </trkpt>
      <trkpt lat="45.9604" lon="4.60893">
        <ele>580.6</ele>
        <time>2020-06-06T06:42:40Z</time>
      </trkpt>
      <trkpt lat="45.96034" lon="4.6089">
        <ele>580.6</ele>
        <time>2020-06-06T06:42:44Z</time>
      </trkpt>
      <trkpt lat="45.96019" lon="4.60888">
        <ele>581.8</ele>
        <time>2020-06-06T06:43:39Z</time>
      </trkpt>
      <trkpt lat="45.96009" lon="4.60889">
        <ele>582.2</ele>
        <time>2020-06-06T06:43:43Z</time>
      </trkpt>
      <trkpt lat="45.95999" lon="4.60889">
        <ele>583.2</ele>
        <time>2020-06-06T06:43:47Z</time>
      </trkpt>
      <trkpt lat="45.9599" lon="4.6089">
        <ele>583.6</ele>
        <time>2020-06-06T06:43:51Z</time>
      </trkpt>
      <trkpt lat="45.95979" lon="4.60895">
        <ele>584</ele>
        <time>2020-06-06T06:43:55Z</time>
      </trkpt>
      <trkpt lat="45.95968" lon="4.60898">
        <ele>584</ele>
        <time>2020-06-06T06:43:59Z</time>
      </trkpt>
      <trkpt lat="45.95957" lon="4.60904">
        <ele>583.2</ele>
        <time>2020-06-06T06:44:03Z</time>
      </trkpt>
      <trkpt lat="45.95944" lon="4.6091">
        <ele>582.4</ele>
        <time>2020-06-06T06:44:07Z</time>
      </trkpt>
      <trkpt lat="45.95926" lon="4.60913">
        <ele>580.6</ele>
        <time>2020-06-06T06:44:11Z</time>
      </trkpt>
      <trkpt lat="45.95907" lon="4.60916">
        <ele>579</ele>
        <time>2020-06-06T06:44:15Z</time>
      </trkpt>
      <trkpt lat="45.95882" lon="4.60922">
        <ele>576.8</ele>
        <time>2020-06-06T06:44:19Z</time>
      </trkpt>
      <trkpt lat="45.95852" lon="4.60925">
        <ele>574.6</ele>
        <time>2020-06-06T06:44:23Z</time>
      </trkpt>
      <trkpt lat="45.95821" lon="4.60926">
        <ele>573.6</ele>
        <time>2020-06-06T06:44:27Z</time>
      </trkpt>
      <trkpt lat="45.9579" lon="4.60925">
        <ele>572.8</ele>
        <time>2020-06-06T06:44:31Z</time>
      </trkpt>
      <trkpt lat="45.95761" lon="4.60923">
        <ele>572.4</ele>
        <time>2020-06-06T06:44:35Z</time>
      </trkpt>
      <trkpt lat="45.95736" lon="4.60915">
        <ele>572</ele>
        <time>2020-06-06T06:44:39Z</time>
      </trkpt>
      <trkpt lat="45.95714" lon="4.60907">
        <ele>572.2</ele>
        <time>2020-06-06T06:44:43Z</time>
      </trkpt>
      <trkpt lat="45.95695" lon="4.60902">
        <ele>573</ele>
        <time>2020-06-06T06:44:47Z</time>
      </trkpt>
      <trkpt lat="45.95673" lon="4.60899">
        <ele>572.2</ele>
        <time>2020-06-06T06:44:51Z</time>
      </trkpt>
      <trkpt lat="45.95652" lon="4.60897">
        <ele>570.8</ele>
        <time>2020-06-06T06:44:55Z</time>
      </trkpt>
      <trkpt lat="45.95629" lon="4.609">
        <ele>570.4</ele>
        <time>2020-06-06T06:44:59Z</time>
      </trkpt>
      <trkpt lat="45.95608" lon="4.60916">
        <ele>571.4</ele>
        <time>2020-06-06T06:45:03Z</time>
      </trkpt>
      <trkpt lat="45.95599" lon="4.60942">
        <ele>571</ele>
        <time>2020-06-06T06:45:07Z</time>
      </trkpt>
      <trkpt lat="45.95597" lon="4.60969">
        <ele>572.8</ele>
        <time>2020-06-06T06:45:11Z</time>
      </trkpt>
      <trkpt lat="45.95594" lon="4.60992">
        <ele>572.4</ele>
        <time>2020-06-06T06:45:15Z</time>
      </trkpt>
      <trkpt lat="45.95588" lon="4.6101">
        <ele>574</ele>
        <time>2020-06-06T06:45:19Z</time>
      </trkpt>
      <trkpt lat="45.9558" lon="4.61022">
        <ele>575.4</ele>
        <time>2020-06-06T06:45:23Z</time>
      </trkpt>
      <trkpt lat="45.95572" lon="4.61029">
        <ele>575.8</ele>
        <time>2020-06-06T06:45:27Z</time>
      </trkpt>
      <trkpt lat="45.95562" lon="4.61036">
        <ele>575.8</ele>
        <time>2020-06-06T06:45:31Z</time>
      </trkpt>
      <trkpt lat="45.95553" lon="4.61046">
        <ele>576.2</ele>
        <time>2020-06-06T06:45:35Z</time>
      </trkpt>
      <trkpt lat="45.95544" lon="4.6106">
        <ele>576.8</ele>
        <time>2020-06-06T06:45:39Z</time>
      </trkpt>
      <trkpt lat="45.95536" lon="4.61076">
        <ele>576.4</ele>
        <time>2020-06-06T06:45:43Z</time>
      </trkpt>
      <trkpt lat="45.95531" lon="4.61094">
        <ele>576.8</ele>
        <time>2020-06-06T06:45:47Z</time>
      </trkpt>
      <trkpt lat="45.95526" lon="4.61112">
        <ele>576.8</ele>
        <time>2020-06-06T06:45:51Z</time>
      </trkpt>
      <trkpt lat="45.95522" lon="4.6113">
        <ele>577.6</ele>
        <time>2020-06-06T06:45:55Z</time>
      </trkpt>
      <trkpt lat="45.9552" lon="4.61149">
        <ele>577.8</ele>
        <time>2020-06-06T06:45:59Z</time>
      </trkpt>
      <trkpt lat="45.95519" lon="4.61167">
        <ele>578.8</ele>
        <time>2020-06-06T06:46:03Z</time>
      </trkpt>
      <trkpt lat="45.95517" lon="4.61184">
        <ele>578.8</ele>
        <time>2020-06-06T06:46:07Z</time>
      </trkpt>
      <trkpt lat="45.95515" lon="4.61199">
        <ele>580</ele>
        <time>2020-06-06T06:46:11Z</time>
      </trkpt>
      <trkpt lat="45.95514" lon="4.61215">
        <ele>580.8</ele>
        <time>2020-06-06T06:46:15Z</time>
      </trkpt>
      <trkpt lat="45.95514" lon="4.61231">
        <ele>581.4</ele>
        <time>2020-06-06T06:46:19Z</time>
      </trkpt>
      <trkpt lat="45.95514" lon="4.61246">
        <ele>582.2</ele>
        <time>2020-06-06T06:46:23Z</time>
      </trkpt>
      <trkpt lat="45.95516" lon="4.61262">
        <ele>582.4</ele>
        <time>2020-06-06T06:46:27Z</time>
      </trkpt>
      <trkpt lat="45.9552" lon="4.61277">
        <ele>583.6</ele>
        <time>2020-06-06T06:46:31Z</time>
      </trkpt>
      <trkpt lat="45.95526" lon="4.61291">
        <ele>584.2</ele>
        <time>2020-06-06T06:46:35Z</time>
      </trkpt>
      <trkpt lat="45.95532" lon="4.61304">
        <ele>584.8</ele>
        <time>2020-06-06T06:46:39Z</time>
      </trkpt>
      <trkpt lat="45.9554" lon="4.61318">
        <ele>585.4</ele>
        <time>2020-06-06T06:46:43Z</time>
      </trkpt>
      <trkpt lat="45.95547" lon="4.61331">
        <ele>585.2</ele>
        <time>2020-06-06T06:46:47Z</time>
      </trkpt>
      <trkpt lat="45.95554" lon="4.61346">
        <ele>585.8</ele>
        <time>2020-06-06T06:46:51Z</time>
      </trkpt>
      <trkpt lat="45.95558" lon="4.61362">
        <ele>586.8</ele>
        <time>2020-06-06T06:46:55Z</time>
      </trkpt>
      <trkpt lat="45.95562" lon="4.61379">
        <ele>587.4</ele>
        <time>2020-06-06T06:46:59Z</time>
      </trkpt>
      <trkpt lat="45.95564" lon="4.61398">
        <ele>587.2</ele>
        <time>2020-06-06T06:47:03Z</time>
      </trkpt>
      <trkpt lat="45.95566" lon="4.61417">
        <ele>587</ele>
        <time>2020-06-06T06:47:07Z</time>
      </trkpt>
      <trkpt lat="45.95566" lon="4.61436">
        <ele>587</ele>
        <time>2020-06-06T06:47:11Z</time>
      </trkpt>
      <trkpt lat="45.95567" lon="4.61458">
        <ele>586.4</ele>
        <time>2020-06-06T06:47:15Z</time>
      </trkpt>
      <trkpt lat="45.95566" lon="4.61482">
        <ele>585.4</ele>
        <time>2020-06-06T06:47:19Z</time>
      </trkpt>
      <trkpt lat="45.95565" lon="4.61511">
        <ele>584.4</ele>
        <time>2020-06-06T06:47:23Z</time>
      </trkpt>
      <trkpt lat="45.95563" lon="4.61542">
        <ele>583.4</ele>
        <time>2020-06-06T06:47:27Z</time>
      </trkpt>
      <trkpt lat="45.95558" lon="4.61575">
        <ele>582.2</ele>
        <time>2020-06-06T06:47:31Z</time>
      </trkpt>
      <trkpt lat="45.95546" lon="4.61605">
        <ele>581</ele>
        <time>2020-06-06T06:47:35Z</time>
      </trkpt>
      <trkpt lat="45.95533" lon="4.61636">
        <ele>578.6</ele>
        <time>2020-06-06T06:47:39Z</time>
      </trkpt>
      <trkpt lat="45.95514" lon="4.61666">
        <ele>578</ele>
        <time>2020-06-06T06:47:43Z</time>
      </trkpt>
      <trkpt lat="45.95487" lon="4.61692">
        <ele>574.4</ele>
        <time>2020-06-06T06:47:47Z</time>
      </trkpt>
      <trkpt lat="45.95453" lon="4.61701">
        <ele>572</ele>
        <time>2020-06-06T06:47:51Z</time>
      </trkpt>
      <trkpt lat="45.95419" lon="4.61697">
        <ele>570</ele>
        <time>2020-06-06T06:47:55Z</time>
      </trkpt>
      <trkpt lat="45.95387" lon="4.61693">
        <ele>570</ele>
        <time>2020-06-06T06:47:59Z</time>
      </trkpt>
      <trkpt lat="45.95356" lon="4.61693">
        <ele>568.4</ele>
        <time>2020-06-06T06:48:03Z</time>
      </trkpt>
      <trkpt lat="45.95327" lon="4.61699">
        <ele>568.8</ele>
        <time>2020-06-06T06:48:07Z</time>
      </trkpt>
      <trkpt lat="45.95301" lon="4.6171">
        <ele>568.4</ele>
        <time>2020-06-06T06:48:11Z</time>
      </trkpt>
      <trkpt lat="45.9528" lon="4.61733">
        <ele>568.2</ele>
        <time>2020-06-06T06:48:15Z</time>
      </trkpt>
      <trkpt lat="45.95268" lon="4.61762">
        <ele>568.2</ele>
        <time>2020-06-06T06:48:19Z</time>
      </trkpt>
      <trkpt lat="45.95257" lon="4.61791">
        <ele>568.8</ele>
        <time>2020-06-06T06:48:23Z</time>
      </trkpt>
      <trkpt lat="45.95244" lon="4.61816">
        <ele>569.4</ele>
        <time>2020-06-06T06:48:27Z</time>
      </trkpt>
      <trkpt lat="45.9523" lon="4.61837">
        <ele>570.2</ele>
        <time>2020-06-06T06:48:31Z</time>
      </trkpt>
      <trkpt lat="45.95218" lon="4.61856">
        <ele>570.8</ele>
        <time>2020-06-06T06:48:35Z</time>
      </trkpt>
      <trkpt lat="45.95206" lon="4.61873">
        <ele>571</ele>
        <time>2020-06-06T06:48:39Z</time>
      </trkpt>
      <trkpt lat="45.95193" lon="4.61892">
        <ele>571.6</ele>
        <time>2020-06-06T06:48:43Z</time>
      </trkpt>
      <trkpt lat="45.9518" lon="4.61908">
        <ele>571.2</ele>
        <time>2020-06-06T06:48:47Z</time>
      </trkpt>
      <trkpt lat="45.95166" lon="4.61924">
        <ele>571.6</ele>
        <time>2020-06-06T06:48:51Z</time>
      </trkpt>
      <trkpt lat="45.95149" lon="4.61935">
        <ele>571.4</ele>
        <time>2020-06-06T06:48:55Z</time>
      </trkpt>
      <trkpt lat="45.9513" lon="4.61943">
        <ele>570.4</ele>
        <time>2020-06-06T06:48:59Z</time>
      </trkpt>
      <trkpt lat="45.95112" lon="4.61952">
        <ele>570.2</ele>
        <time>2020-06-06T06:49:03Z</time>
      </trkpt>
      <trkpt lat="45.95093" lon="4.61963">
        <ele>568.8</ele>
        <time>2020-06-06T06:49:07Z</time>
      </trkpt>
      <trkpt lat="45.95068" lon="4.61975">
        <ele>568.6</ele>
        <time>2020-06-06T06:49:11Z</time>
      </trkpt>
      <trkpt lat="45.95049" lon="4.61987">
        <ele>568.4</ele>
        <time>2020-06-06T06:49:15Z</time>
      </trkpt>
      <trkpt lat="45.9503" lon="4.61999">
        <ele>567</ele>
        <time>2020-06-06T06:49:19Z</time>
      </trkpt>
      <trkpt lat="45.95009" lon="4.62011">
        <ele>566.4</ele>
        <time>2020-06-06T06:49:23Z</time>
      </trkpt>
      <trkpt lat="45.94987" lon="4.62024">
        <ele>564.8</ele>
        <time>2020-06-06T06:49:27Z</time>
      </trkpt>
      <trkpt lat="45.94964" lon="4.62037">
        <ele>563.4</ele>
        <time>2020-06-06T06:49:31Z</time>
      </trkpt>
      <trkpt lat="45.9494" lon="4.62047">
        <ele>561.8</ele>
        <time>2020-06-06T06:49:35Z</time>
      </trkpt>
      <trkpt lat="45.94916" lon="4.62054">
        <ele>560.2</ele>
        <time>2020-06-06T06:49:39Z</time>
      </trkpt>
      <trkpt lat="45.94891" lon="4.62055">
        <ele>560.4</ele>
        <time>2020-06-06T06:49:43Z</time>
      </trkpt>
      <trkpt lat="45.94868" lon="4.62056">
        <ele>559.6</ele>
        <time>2020-06-06T06:49:47Z</time>
      </trkpt>
      <trkpt lat="45.94846" lon="4.62058">
        <ele>560.4</ele>
        <time>2020-06-06T06:49:51Z</time>
      </trkpt>
      <trkpt lat="45.94825" lon="4.62057">
        <ele>559.4</ele>
        <time>2020-06-06T06:49:55Z</time>
      </trkpt>
      <trkpt lat="45.94804" lon="4.62044">
        <ele>558.8</ele>
        <time>2020-06-06T06:49:59Z</time>
      </trkpt>
      <trkpt lat="45.94783" lon="4.62032">
        <ele>557.8</ele>
        <time>2020-06-06T06:50:03Z</time>
      </trkpt>
      <trkpt lat="45.9476" lon="4.62031">
        <ele>557</ele>
        <time>2020-06-06T06:50:07Z</time>
      </trkpt>
      <trkpt lat="45.94737" lon="4.62038">
        <ele>556.8</ele>
        <time>2020-06-06T06:50:11Z</time>
      </trkpt>
      <trkpt lat="45.94716" lon="4.62047">
        <ele>557.4</ele>
        <time>2020-06-06T06:50:15Z</time>
      </trkpt>
      <trkpt lat="45.94695" lon="4.62057">
        <ele>557.4</ele>
        <time>2020-06-06T06:50:19Z</time>
      </trkpt>
      <trkpt lat="45.94675" lon="4.62066">
        <ele>556</ele>
        <time>2020-06-06T06:50:23Z</time>
      </trkpt>
      <trkpt lat="45.94655" lon="4.62077">
        <ele>556.2</ele>
        <time>2020-06-06T06:50:27Z</time>
      </trkpt>
      <trkpt lat="45.94635" lon="4.62092">
        <ele>555.6</ele>
        <time>2020-06-06T06:50:31Z</time>
      </trkpt>
      <trkpt lat="45.94615" lon="4.6211">
        <ele>555</ele>
        <time>2020-06-06T06:50:35Z</time>
      </trkpt>
      <trkpt lat="45.94596" lon="4.6213">
        <ele>555</ele>
        <time>2020-06-06T06:50:39Z</time>
      </trkpt>
      <trkpt lat="45.9458" lon="4.62154">
        <ele>554</ele>
        <time>2020-06-06T06:50:43Z</time>
      </trkpt>
      <trkpt lat="45.94567" lon="4.62178">
        <ele>554</ele>
        <time>2020-06-06T06:50:47Z</time>
      </trkpt>
      <trkpt lat="45.94554" lon="4.622">
        <ele>554.6</ele>
        <time>2020-06-06T06:50:51Z</time>
      </trkpt>
      <trkpt lat="45.94541" lon="4.6222">
        <ele>555</ele>
        <time>2020-06-06T06:50:55Z</time>
      </trkpt>
      <trkpt lat="45.94529" lon="4.62235">
        <ele>555.2</ele>
        <time>2020-06-06T06:50:59Z</time>
      </trkpt>
      <trkpt lat="45.94517" lon="4.62246">
        <ele>555.2</ele>
        <time>2020-06-06T06:51:03Z</time>
      </trkpt>
      <trkpt lat="45.94506" lon="4.62253">
        <ele>556.2</ele>
        <time>2020-06-06T06:51:07Z</time>
      </trkpt>
      <trkpt lat="45.94494" lon="4.62258">
        <ele>556.4</ele>
        <time>2020-06-06T06:51:11Z</time>
      </trkpt>
      <trkpt lat="45.94485" lon="4.62258">
        <ele>556.8</ele>
        <time>2020-06-06T06:51:15Z</time>
      </trkpt>
      <trkpt lat="45.94479" lon="4.62259">
        <ele>558.4</ele>
        <time>2020-06-06T06:51:19Z</time>
      </trkpt>
      <trkpt lat="45.94481" lon="4.62264">
        <ele>558.2</ele>
        <time>2020-06-06T06:55:55Z</time>
      </trkpt>
      <trkpt lat="45.94493" lon="4.62262">
        <ele>558.6</ele>
        <time>2020-06-06T06:55:59Z</time>
      </trkpt>
      <trkpt lat="45.94507" lon="4.6227">
        <ele>557.6</ele>
        <time>2020-06-06T06:56:03Z</time>
      </trkpt>
      <trkpt lat="45.9452" lon="4.62289">
        <ele>555.8</ele>
        <time>2020-06-06T06:56:07Z</time>
      </trkpt>
      <trkpt lat="45.94533" lon="4.62314">
        <ele>555</ele>
        <time>2020-06-06T06:56:11Z</time>
      </trkpt>
      <trkpt lat="45.94548" lon="4.62343">
        <ele>553</ele>
        <time>2020-06-06T06:56:15Z</time>
      </trkpt>
      <trkpt lat="45.94566" lon="4.62376">
        <ele>550.8</ele>
        <time>2020-06-06T06:56:19Z</time>
      </trkpt>
      <trkpt lat="45.94585" lon="4.6241">
        <ele>550</ele>
        <time>2020-06-06T06:56:23Z</time>
      </trkpt>
      <trkpt lat="45.94606" lon="4.62445">
        <ele>549</ele>
        <time>2020-06-06T06:56:27Z</time>
      </trkpt>
      <trkpt lat="45.94629" lon="4.62478">
        <ele>546.4</ele>
        <time>2020-06-06T06:56:31Z</time>
      </trkpt>
      <trkpt lat="45.94656" lon="4.62507">
        <ele>546.2</ele>
        <time>2020-06-06T06:56:35Z</time>
      </trkpt>
      <trkpt lat="45.94684" lon="4.62531">
        <ele>544.2</ele>
        <time>2020-06-06T06:56:39Z</time>
      </trkpt>
      <trkpt lat="45.94708" lon="4.62547">
        <ele>543.8</ele>
        <time>2020-06-06T06:56:43Z</time>
      </trkpt>
      <trkpt lat="45.94719" lon="4.62555">
        <ele>543.6</ele>
        <time>2020-06-06T06:56:47Z</time>
      </trkpt>
      <trkpt lat="45.94736" lon="4.62564">
        <ele>542.2</ele>
        <time>2020-06-06T06:57:45Z</time>
      </trkpt>
      <trkpt lat="45.94754" lon="4.62573">
        <ele>541</ele>
        <time>2020-06-06T06:57:49Z</time>
      </trkpt>
      <trkpt lat="45.94775" lon="4.62588">
        <ele>539.6</ele>
        <time>2020-06-06T06:57:53Z</time>
      </trkpt>
      <trkpt lat="45.94799" lon="4.62604">
        <ele>538.2</ele>
        <time>2020-06-06T06:57:57Z</time>
      </trkpt>
      <trkpt lat="45.94827" lon="4.62623">
        <ele>535.6</ele>
        <time>2020-06-06T06:58:01Z</time>
      </trkpt>
      <trkpt lat="45.94858" lon="4.62645">
        <ele>533.6</ele>
        <time>2020-06-06T06:58:05Z</time>
      </trkpt>
      <trkpt lat="45.94884" lon="4.62679">
        <ele>531.2</ele>
        <time>2020-06-06T06:58:09Z</time>
      </trkpt>
      <trkpt lat="45.94904" lon="4.62725">
        <ele>528.4</ele>
        <time>2020-06-06T06:58:13Z</time>
      </trkpt>
      <trkpt lat="45.94921" lon="4.62772">
        <ele>526</ele>
        <time>2020-06-06T06:58:17Z</time>
      </trkpt>
      <trkpt lat="45.94939" lon="4.62816">
        <ele>524.2</ele>
        <time>2020-06-06T06:58:21Z</time>
      </trkpt>
      <trkpt lat="45.94963" lon="4.62857">
        <ele>521.4</ele>
        <time>2020-06-06T06:58:25Z</time>
      </trkpt>
      <trkpt lat="45.94995" lon="4.6289">
        <ele>519.6</ele>
        <time>2020-06-06T06:58:29Z</time>
      </trkpt>
      <trkpt lat="45.9503" lon="4.62913">
        <ele>516.4</ele>
        <time>2020-06-06T06:58:33Z</time>
      </trkpt>
      <trkpt lat="45.95067" lon="4.62935">
        <ele>515</ele>
        <time>2020-06-06T06:58:37Z</time>
      </trkpt>
      <trkpt lat="45.95105" lon="4.62952">
        <ele>511.6</ele>
        <time>2020-06-06T06:58:41Z</time>
      </trkpt>
      <trkpt lat="45.95145" lon="4.62956">
        <ele>510</ele>
        <time>2020-06-06T06:58:45Z</time>
      </trkpt>
      <trkpt lat="45.95182" lon="4.62956">
        <ele>509</ele>
        <time>2020-06-06T06:58:49Z</time>
      </trkpt>
      <trkpt lat="45.95219" lon="4.62954">
        <ele>506.6</ele>
        <time>2020-06-06T06:58:53Z</time>
      </trkpt>
      <trkpt lat="45.95256" lon="4.62952">
        <ele>505.4</ele>
        <time>2020-06-06T06:58:57Z</time>
      </trkpt>
      <trkpt lat="45.95294" lon="4.62958">
        <ele>503.2</ele>
        <time>2020-06-06T06:59:01Z</time>
      </trkpt>
      <trkpt lat="45.95333" lon="4.6297">
        <ele>501.4</ele>
        <time>2020-06-06T06:59:05Z</time>
      </trkpt>
      <trkpt lat="45.95368" lon="4.63002">
        <ele>497.6</ele>
        <time>2020-06-06T06:59:09Z</time>
      </trkpt>
      <trkpt lat="45.95393" lon="4.63051">
        <ele>494.2</ele>
        <time>2020-06-06T06:59:13Z</time>
      </trkpt>
      <trkpt lat="45.95413" lon="4.63105">
        <ele>491.8</ele>
        <time>2020-06-06T06:59:17Z</time>
      </trkpt>
      <trkpt lat="45.95435" lon="4.63156">
        <ele>489.4</ele>
        <time>2020-06-06T06:59:21Z</time>
      </trkpt>
      <trkpt lat="45.95458" lon="4.63206">
        <ele>486.2</ele>
        <time>2020-06-06T06:59:25Z</time>
      </trkpt>
      <trkpt lat="45.95477" lon="4.63261">
        <ele>483.6</ele>
        <time>2020-06-06T06:59:29Z</time>
      </trkpt>
      <trkpt lat="45.95492" lon="4.63316">
        <ele>481.4</ele>
        <time>2020-06-06T06:59:33Z</time>
      </trkpt>
      <trkpt lat="45.95501" lon="4.63375">
        <ele>479</ele>
        <time>2020-06-06T06:59:37Z</time>
      </trkpt>
      <trkpt lat="45.95505" lon="4.63436">
        <ele>476.2</ele>
        <time>2020-06-06T06:59:41Z</time>
      </trkpt>
      <trkpt lat="45.95502" lon="4.63497">
        <ele>472.8</ele>
        <time>2020-06-06T06:59:45Z</time>
      </trkpt>
      <trkpt lat="45.95481" lon="4.6355">
        <ele>470.8</ele>
        <time>2020-06-06T06:59:49Z</time>
      </trkpt>
      <trkpt lat="45.95451" lon="4.63587">
        <ele>470.4</ele>
        <time>2020-06-06T06:59:53Z</time>
      </trkpt>
      <trkpt lat="45.9543" lon="4.63622">
        <ele>473.2</ele>
        <time>2020-06-06T06:59:57Z</time>
      </trkpt>
      <trkpt lat="45.95417" lon="4.63658">
        <ele>472.8</ele>
        <time>2020-06-06T07:00:01Z</time>
      </trkpt>
      <trkpt lat="45.95413" lon="4.63698">
        <ele>472.2</ele>
        <time>2020-06-06T07:00:05Z</time>
      </trkpt>
      <trkpt lat="45.95423" lon="4.6374">
        <ele>470.2</ele>
        <time>2020-06-06T07:00:09Z</time>
      </trkpt>
      <trkpt lat="45.95436" lon="4.63781">
        <ele>470</ele>
        <time>2020-06-06T07:00:13Z</time>
      </trkpt>
      <trkpt lat="45.95446" lon="4.63821">
        <ele>468.8</ele>
        <time>2020-06-06T07:00:17Z</time>
      </trkpt>
      <trkpt lat="45.95453" lon="4.63859">
        <ele>470</ele>
        <time>2020-06-06T07:00:21Z</time>
      </trkpt>
      <trkpt lat="45.95461" lon="4.63894">
        <ele>469.2</ele>
        <time>2020-06-06T07:00:25Z</time>
      </trkpt>
      <trkpt lat="45.9547" lon="4.63927">
        <ele>469.2</ele>
        <time>2020-06-06T07:00:29Z</time>
      </trkpt>
      <trkpt lat="45.9548" lon="4.63959">
        <ele>468.8</ele>
        <time>2020-06-06T07:00:33Z</time>
      </trkpt>
      <trkpt lat="45.95487" lon="4.63991">
        <ele>468.4</ele>
        <time>2020-06-06T07:00:37Z</time>
      </trkpt>
      <trkpt lat="45.95489" lon="4.64028">
        <ele>466.2</ele>
        <time>2020-06-06T07:00:41Z</time>
      </trkpt>
      <trkpt lat="45.95484" lon="4.64068">
        <ele>464</ele>
        <time>2020-06-06T07:00:45Z</time>
      </trkpt>
      <trkpt lat="45.95476" lon="4.64107">
        <ele>463</ele>
        <time>2020-06-06T07:00:49Z</time>
      </trkpt>
      <trkpt lat="45.95468" lon="4.64143">
        <ele>462.2</ele>
        <time>2020-06-06T07:00:53Z</time>
      </trkpt>
      <trkpt lat="45.95466" lon="4.64183">
        <ele>463.2</ele>
        <time>2020-06-06T07:00:57Z</time>
      </trkpt>
      <trkpt lat="45.95474" lon="4.64221">
        <ele>463.2</ele>
        <time>2020-06-06T07:01:01Z</time>
      </trkpt>
      <trkpt lat="45.95486" lon="4.6425">
        <ele>463.2</ele>
        <time>2020-06-06T07:01:05Z</time>
      </trkpt>
      <trkpt lat="45.95497" lon="4.64276">
        <ele>463.8</ele>
        <time>2020-06-06T07:01:09Z</time>
      </trkpt>
      <trkpt lat="45.95509" lon="4.64296">
        <ele>463.2</ele>
        <time>2020-06-06T07:01:13Z</time>
      </trkpt>
      <trkpt lat="45.95526" lon="4.64308">
        <ele>463.8</ele>
        <time>2020-06-06T07:01:17Z</time>
      </trkpt>
      <trkpt lat="45.95543" lon="4.64316">
        <ele>464.2</ele>
        <time>2020-06-06T07:01:21Z</time>
      </trkpt>
      <trkpt lat="45.9556" lon="4.64325">
        <ele>464.2</ele>
        <time>2020-06-06T07:01:25Z</time>
      </trkpt>
      <trkpt lat="45.95575" lon="4.64335">
        <ele>464.8</ele>
        <time>2020-06-06T07:01:29Z</time>
      </trkpt>
      <trkpt lat="45.95588" lon="4.64349">
        <ele>464.8</ele>
        <time>2020-06-06T07:01:33Z</time>
      </trkpt>
      <trkpt lat="45.95602" lon="4.64368">
        <ele>463.8</ele>
        <time>2020-06-06T07:01:37Z</time>
      </trkpt>
      <trkpt lat="45.95617" lon="4.6439">
        <ele>462.4</ele>
        <time>2020-06-06T07:01:41Z</time>
      </trkpt>
      <trkpt lat="45.9563" lon="4.6441">
        <ele>460.8</ele>
        <time>2020-06-06T07:01:45Z</time>
      </trkpt>
      <trkpt lat="45.95645" lon="4.64431">
        <ele>460</ele>
        <time>2020-06-06T07:02:38Z</time>
      </trkpt>
      <trkpt lat="45.95658" lon="4.64451">
        <ele>458.4</ele>
        <time>2020-06-06T07:02:42Z</time>
      </trkpt>
      <trkpt lat="45.95676" lon="4.64478">
        <ele>454.8</ele>
        <time>2020-06-06T07:02:46Z</time>
      </trkpt>
      <trkpt lat="45.95694" lon="4.64514">
        <ele>452.8</ele>
        <time>2020-06-06T07:02:50Z</time>
      </trkpt>
      <trkpt lat="45.95703" lon="4.64564">
        <ele>449.4</ele>
        <time>2020-06-06T07:02:54Z</time>
      </trkpt>
      <trkpt lat="45.95711" lon="4.64619">
        <ele>446.6</ele>
        <time>2020-06-06T07:02:58Z</time>
      </trkpt>
      <trkpt lat="45.95716" lon="4.6466">
        <ele>445</ele>
        <time>2020-06-06T07:03:02Z</time>
      </trkpt>
      <trkpt lat="45.95722" lon="4.64699">
        <ele>443.2</ele>
        <time>2020-06-06T07:03:06Z</time>
      </trkpt>
      <trkpt lat="45.95729" lon="4.64729">
        <ele>442.8</ele>
        <time>2020-06-06T07:03:10Z</time>
      </trkpt>
      <trkpt lat="45.95736" lon="4.64758">
        <ele>441.4</ele>
        <time>2020-06-06T07:03:14Z</time>
      </trkpt>
      <trkpt lat="45.95744" lon="4.64789">
        <ele>439.8</ele>
        <time>2020-06-06T07:03:18Z</time>
      </trkpt>
      <trkpt lat="45.95754" lon="4.64826">
        <ele>436.6</ele>
        <time>2020-06-06T07:03:22Z</time>
      </trkpt>
      <trkpt lat="45.95766" lon="4.6487">
        <ele>433.2</ele>
        <time>2020-06-06T07:03:26Z</time>
      </trkpt>
      <trkpt lat="45.95785" lon="4.64916">
        <ele>429</ele>
        <time>2020-06-06T07:03:30Z</time>
      </trkpt>
      <trkpt lat="45.95806" lon="4.64952">
        <ele>428.8</ele>
        <time>2020-06-06T07:03:34Z</time>
      </trkpt>
      <trkpt lat="45.95827" lon="4.6495">
        <ele>426.6</ele>
        <time>2020-06-06T07:03:38Z</time>
      </trkpt>
      <trkpt lat="45.95839" lon="4.64914">
        <ele>422.8</ele>
        <time>2020-06-06T07:03:42Z</time>
      </trkpt>
      <trkpt lat="45.95845" lon="4.6487">
        <ele>421.6</ele>
        <time>2020-06-06T07:03:46Z</time>
      </trkpt>
      <trkpt lat="45.95861" lon="4.64833">
        <ele>419.6</ele>
        <time>2020-06-06T07:03:50Z</time>
      </trkpt>
      <trkpt lat="45.95893" lon="4.64821">
        <ele>416</ele>
        <time>2020-06-06T07:03:54Z</time>
      </trkpt>
      <trkpt lat="45.95916" lon="4.6482">
        <ele>416</ele>
        <time>2020-06-06T07:03:58Z</time>
      </trkpt>
      <trkpt lat="45.95942" lon="4.64819">
        <ele>413</ele>
        <time>2020-06-06T07:04:02Z</time>
      </trkpt>
      <trkpt lat="45.95973" lon="4.6482">
        <ele>410</ele>
        <time>2020-06-06T07:04:06Z</time>
      </trkpt>
      <trkpt lat="45.95973" lon="4.6482">
        <ele>409.6</ele>
        <time>2020-06-06T07:04:10Z</time>
      </trkpt>
      <trkpt lat="45.95999" lon="4.64822">
        <ele>410.8</ele>
        <time>2020-06-06T07:04:14Z</time>
      </trkpt>
      <trkpt lat="45.96009" lon="4.64822">
        <ele>411</ele>
        <time>2020-06-06T07:04:18Z</time>
      </trkpt>
      <trkpt lat="45.96014" lon="4.64816">
        <ele>411.2</ele>
        <time>2020-06-06T07:04:22Z</time>
      </trkpt>
      <trkpt lat="45.96025" lon="4.64823">
        <ele>411.2</ele>
        <time>2020-06-06T07:07:51Z</time>
      </trkpt>
      <trkpt lat="45.96035" lon="4.64825">
        <ele>411.2</ele>
        <time>2020-06-06T07:07:55Z</time>
      </trkpt>
      <trkpt lat="45.96044" lon="4.64826">
        <ele>411.2</ele>
        <time>2020-06-06T07:07:59Z</time>
      </trkpt>
      <trkpt lat="45.96047" lon="4.64812">
        <ele>411.2</ele>
        <time>2020-06-06T07:08:03Z</time>
      </trkpt>
      <trkpt lat="45.96046" lon="4.64796">
        <ele>411.4</ele>
        <time>2020-06-06T07:08:07Z</time>
      </trkpt>
      <trkpt lat="45.96044" lon="4.64779">
        <ele>411.4</ele>
        <time>2020-06-06T07:08:11Z</time>
      </trkpt>
      <trkpt lat="45.96042" lon="4.64761">
        <ele>411.8</ele>
        <time>2020-06-06T07:08:15Z</time>
      </trkpt>
      <trkpt lat="45.96038" lon="4.64744">
        <ele>412</ele>
        <time>2020-06-06T07:08:19Z</time>
      </trkpt>
      <trkpt lat="45.96035" lon="4.64727">
        <ele>412.2</ele>
        <time>2020-06-06T07:08:23Z</time>
      </trkpt>
      <trkpt lat="45.9603" lon="4.64709">
        <ele>412</ele>
        <time>2020-06-06T07:08:27Z</time>
      </trkpt>
      <trkpt lat="45.96025" lon="4.64691">
        <ele>412.8</ele>
        <time>2020-06-06T07:08:31Z</time>
      </trkpt>
      <trkpt lat="45.96022" lon="4.64674">
        <ele>412.4</ele>
        <time>2020-06-06T07:08:35Z</time>
      </trkpt>
      <trkpt lat="45.96022" lon="4.64655">
        <ele>413.6</ele>
        <time>2020-06-06T07:08:39Z</time>
      </trkpt>
      <trkpt lat="45.96022" lon="4.64637">
        <ele>414</ele>
        <time>2020-06-06T07:08:43Z</time>
      </trkpt>
      <trkpt lat="45.96025" lon="4.64619">
        <ele>413.8</ele>
        <time>2020-06-06T07:08:47Z</time>
      </trkpt>
      <trkpt lat="45.96029" lon="4.64601">
        <ele>413.8</ele>
        <time>2020-06-06T07:08:51Z</time>
      </trkpt>
      <trkpt lat="45.96035" lon="4.64584">
        <ele>414.8</ele>
        <time>2020-06-06T07:08:55Z</time>
      </trkpt>
      <trkpt lat="45.96041" lon="4.64568">
        <ele>414.8</ele>
        <time>2020-06-06T07:08:59Z</time>
      </trkpt>
      <trkpt lat="45.96048" lon="4.64553">
        <ele>415.8</ele>
        <time>2020-06-06T07:09:03Z</time>
      </trkpt>
      <trkpt lat="45.96054" lon="4.64538">
        <ele>415.8</ele>
        <time>2020-06-06T07:09:07Z</time>
      </trkpt>
      <trkpt lat="45.96058" lon="4.64523">
        <ele>415.8</ele>
        <time>2020-06-06T07:09:11Z</time>
      </trkpt>
      <trkpt lat="45.96065" lon="4.64507">
        <ele>416.6</ele>
        <time>2020-06-06T07:09:15Z</time>
      </trkpt>
      <trkpt lat="45.9607" lon="4.6449">
        <ele>417.2</ele>
        <time>2020-06-06T07:09:19Z</time>
      </trkpt>
      <trkpt lat="45.96075" lon="4.64472">
        <ele>418</ele>
        <time>2020-06-06T07:09:23Z</time>
      </trkpt>
      <trkpt lat="45.96079" lon="4.64454">
        <ele>418</ele>
        <time>2020-06-06T07:09:27Z</time>
      </trkpt>
      <trkpt lat="45.96082" lon="4.64435">
        <ele>418.6</ele>
        <time>2020-06-06T07:09:31Z</time>
      </trkpt>
      <trkpt lat="45.96084" lon="4.64417">
        <ele>418.8</ele>
        <time>2020-06-06T07:09:35Z</time>
      </trkpt>
      <trkpt lat="45.96085" lon="4.64398">
        <ele>419</ele>
        <time>2020-06-06T07:09:39Z</time>
      </trkpt>
      <trkpt lat="45.96086" lon="4.64378">
        <ele>419</ele>
        <time>2020-06-06T07:09:43Z</time>
      </trkpt>
      <trkpt lat="45.96087" lon="4.64358">
        <ele>419.4</ele>
        <time>2020-06-06T07:09:47Z</time>
      </trkpt>
      <trkpt lat="45.96089" lon="4.64338">
        <ele>419.8</ele>
        <time>2020-06-06T07:09:51Z</time>
      </trkpt>
      <trkpt lat="45.9609" lon="4.64319">
        <ele>420</ele>
        <time>2020-06-06T07:09:55Z</time>
      </trkpt>
      <trkpt lat="45.96091" lon="4.64299">
        <ele>420.4</ele>
        <time>2020-06-06T07:09:59Z</time>
      </trkpt>
      <trkpt lat="45.96093" lon="4.64282">
        <ele>420.6</ele>
        <time>2020-06-06T07:10:03Z</time>
      </trkpt>
      <trkpt lat="45.96095" lon="4.64267">
        <ele>421.2</ele>
        <time>2020-06-06T07:10:07Z</time>
      </trkpt>
      <trkpt lat="45.96099" lon="4.64249">
        <ele>420.8</ele>
        <time>2020-06-06T07:10:11Z</time>
      </trkpt>
      <trkpt lat="45.96101" lon="4.64231">
        <ele>421.8</ele>
        <time>2020-06-06T07:10:15Z</time>
      </trkpt>
      <trkpt lat="45.96103" lon="4.64211">
        <ele>422.6</ele>
        <time>2020-06-06T07:10:19Z</time>
      </trkpt>
      <trkpt lat="45.96103" lon="4.6419">
        <ele>422.2</ele>
        <time>2020-06-06T07:10:23Z</time>
      </trkpt>
      <trkpt lat="45.96104" lon="4.64169">
        <ele>422.8</ele>
        <time>2020-06-06T07:10:27Z</time>
      </trkpt>
      <trkpt lat="45.96103" lon="4.64148">
        <ele>423.2</ele>
        <time>2020-06-06T07:10:31Z</time>
      </trkpt>
      <trkpt lat="45.96103" lon="4.64128">
        <ele>423.8</ele>
        <time>2020-06-06T07:10:35Z</time>
      </trkpt>
      <trkpt lat="45.96105" lon="4.64108">
        <ele>424</ele>
        <time>2020-06-06T07:10:39Z</time>
      </trkpt>
      <trkpt lat="45.9611" lon="4.64088">
        <ele>424.4</ele>
        <time>2020-06-06T07:10:43Z</time>
      </trkpt>
      <trkpt lat="45.96113" lon="4.64069">
        <ele>425</ele>
        <time>2020-06-06T07:10:47Z</time>
      </trkpt>
      <trkpt lat="45.96117" lon="4.64051">
        <ele>425.4</ele>
        <time>2020-06-06T07:10:51Z</time>
      </trkpt>
      <trkpt lat="45.96122" lon="4.64032">
        <ele>425</ele>
        <time>2020-06-06T07:10:55Z</time>
      </trkpt>
      <trkpt lat="45.96128" lon="4.64015">
        <ele>425.4</ele>
        <time>2020-06-06T07:10:59Z</time>
      </trkpt>
      <trkpt lat="45.96134" lon="4.63997">
        <ele>426.2</ele>
        <time>2020-06-06T07:11:03Z</time>
      </trkpt>
      <trkpt lat="45.96141" lon="4.63981">
        <ele>426.8</ele>
        <time>2020-06-06T07:11:07Z</time>
      </trkpt>
      <trkpt lat="45.96147" lon="4.63964">
        <ele>427.8</ele>
        <time>2020-06-06T07:11:11Z</time>
      </trkpt>
      <trkpt lat="45.96154" lon="4.63947">
        <ele>427.8</ele>
        <time>2020-06-06T07:11:15Z</time>
      </trkpt>
      <trkpt lat="45.96161" lon="4.6393">
        <ele>428.4</ele>
        <time>2020-06-06T07:11:19Z</time>
      </trkpt>
      <trkpt lat="45.96168" lon="4.63913">
        <ele>428.2</ele>
        <time>2020-06-06T07:11:23Z</time>
      </trkpt>
      <trkpt lat="45.96174" lon="4.63896">
        <ele>428.8</ele>
        <time>2020-06-06T07:11:27Z</time>
      </trkpt>
      <trkpt lat="45.96181" lon="4.6388">
        <ele>429.2</ele>
        <time>2020-06-06T07:11:31Z</time>
      </trkpt>
      <trkpt lat="45.96187" lon="4.63865">
        <ele>429.8</ele>
        <time>2020-06-06T07:11:35Z</time>
      </trkpt>
      <trkpt lat="45.96192" lon="4.63849">
        <ele>430.4</ele>
        <time>2020-06-06T07:11:39Z</time>
      </trkpt>
      <trkpt lat="45.96197" lon="4.63835">
        <ele>431.4</ele>
        <time>2020-06-06T07:11:43Z</time>
      </trkpt>
      <trkpt lat="45.96201" lon="4.6382">
        <ele>432</ele>
        <time>2020-06-06T07:11:47Z</time>
      </trkpt>
      <trkpt lat="45.96206" lon="4.63805">
        <ele>432.4</ele>
        <time>2020-06-06T07:11:51Z</time>
      </trkpt>
      <trkpt lat="45.96209" lon="4.63793">
        <ele>433.4</ele>
        <time>2020-06-06T07:11:55Z</time>
      </trkpt>
      <trkpt lat="45.96212" lon="4.63784">
        <ele>434</ele>
        <time>2020-06-06T07:11:59Z</time>
      </trkpt>
      <trkpt lat="45.96215" lon="4.63775">
        <ele>433.6</ele>
        <time>2020-06-06T07:12:03Z</time>
      </trkpt>
      <trkpt lat="45.96218" lon="4.63764">
        <ele>434.2</ele>
        <time>2020-06-06T07:12:07Z</time>
      </trkpt>
      <trkpt lat="45.9622" lon="4.63751">
        <ele>434.6</ele>
        <time>2020-06-06T07:12:11Z</time>
      </trkpt>
      <trkpt lat="45.96224" lon="4.63738">
        <ele>435.6</ele>
        <time>2020-06-06T07:12:15Z</time>
      </trkpt>
      <trkpt lat="45.96226" lon="4.63725">
        <ele>436.2</ele>
        <time>2020-06-06T07:12:19Z</time>
      </trkpt>
      <trkpt lat="45.96228" lon="4.63713">
        <ele>436.4</ele>
        <time>2020-06-06T07:12:23Z</time>
      </trkpt>
      <trkpt lat="45.96227" lon="4.63697">
        <ele>437.4</ele>
        <time>2020-06-06T07:12:27Z</time>
      </trkpt>
      <trkpt lat="45.96227" lon="4.63684">
        <ele>437.8</ele>
        <time>2020-06-06T07:12:31Z</time>
      </trkpt>
      <trkpt lat="45.96228" lon="4.63671">
        <ele>439</ele>
        <time>2020-06-06T07:12:35Z</time>
      </trkpt>
      <trkpt lat="45.96227" lon="4.63656">
        <ele>439.6</ele>
        <time>2020-06-06T07:12:39Z</time>
      </trkpt>
      <trkpt lat="45.96225" lon="4.63639">
        <ele>439.4</ele>
        <time>2020-06-06T07:12:43Z</time>
      </trkpt>
      <trkpt lat="45.96222" lon="4.63622">
        <ele>440.2</ele>
        <time>2020-06-06T07:12:47Z</time>
      </trkpt>
      <trkpt lat="45.9622" lon="4.63607">
        <ele>440.8</ele>
        <time>2020-06-06T07:12:51Z</time>
      </trkpt>
      <trkpt lat="45.96221" lon="4.63593">
        <ele>441.2</ele>
        <time>2020-06-06T07:12:55Z</time>
      </trkpt>
      <trkpt lat="45.9622" lon="4.63578">
        <ele>441.8</ele>
        <time>2020-06-06T07:12:59Z</time>
      </trkpt>
      <trkpt lat="45.96221" lon="4.63563">
        <ele>442</ele>
        <time>2020-06-06T07:13:03Z</time>
      </trkpt>
      <trkpt lat="45.96222" lon="4.63548">
        <ele>442.8</ele>
        <time>2020-06-06T07:13:07Z</time>
      </trkpt>
      <trkpt lat="45.96223" lon="4.63534">
        <ele>443.2</ele>
        <time>2020-06-06T07:13:11Z</time>
      </trkpt>
      <trkpt lat="45.96226" lon="4.63519">
        <ele>443.6</ele>
        <time>2020-06-06T07:13:15Z</time>
      </trkpt>
      <trkpt lat="45.9623" lon="4.63504">
        <ele>443.8</ele>
        <time>2020-06-06T07:13:19Z</time>
      </trkpt>
      <trkpt lat="45.96236" lon="4.63487">
        <ele>444.4</ele>
        <time>2020-06-06T07:13:23Z</time>
      </trkpt>
      <trkpt lat="45.96242" lon="4.63471">
        <ele>444.4</ele>
        <time>2020-06-06T07:13:27Z</time>
      </trkpt>
      <trkpt lat="45.96248" lon="4.63454">
        <ele>444.4</ele>
        <time>2020-06-06T07:13:31Z</time>
      </trkpt>
      <trkpt lat="45.96253" lon="4.63437">
        <ele>444.8</ele>
        <time>2020-06-06T07:13:35Z</time>
      </trkpt>
      <trkpt lat="45.96259" lon="4.63422">
        <ele>445</ele>
        <time>2020-06-06T07:13:39Z</time>
      </trkpt>
      <trkpt lat="45.96263" lon="4.63407">
        <ele>445.2</ele>
        <time>2020-06-06T07:13:43Z</time>
      </trkpt>
      <trkpt lat="45.96268" lon="4.6339">
        <ele>445.6</ele>
        <time>2020-06-06T07:13:47Z</time>
      </trkpt>
      <trkpt lat="45.96277" lon="4.63373">
        <ele>445.4</ele>
        <time>2020-06-06T07:13:51Z</time>
      </trkpt>
      <trkpt lat="45.96283" lon="4.63355">
        <ele>445.8</ele>
        <time>2020-06-06T07:13:55Z</time>
      </trkpt>
      <trkpt lat="45.96288" lon="4.63337">
        <ele>445.8</ele>
        <time>2020-06-06T07:13:59Z</time>
      </trkpt>
      <trkpt lat="45.96296" lon="4.63318">
        <ele>445.6</ele>
        <time>2020-06-06T07:14:03Z</time>
      </trkpt>
      <trkpt lat="45.96304" lon="4.63299">
        <ele>445.6</ele>
        <time>2020-06-06T07:14:07Z</time>
      </trkpt>
      <trkpt lat="45.9631" lon="4.63279">
        <ele>445.6</ele>
        <time>2020-06-06T07:14:11Z</time>
      </trkpt>
      <trkpt lat="45.96315" lon="4.63257">
        <ele>446</ele>
        <time>2020-06-06T07:14:15Z</time>
      </trkpt>
      <trkpt lat="45.96321" lon="4.63236">
        <ele>446.2</ele>
        <time>2020-06-06T07:14:19Z</time>
      </trkpt>
      <trkpt lat="45.96328" lon="4.63216">
        <ele>446.2</ele>
        <time>2020-06-06T07:14:23Z</time>
      </trkpt>
      <trkpt lat="45.96333" lon="4.63196">
        <ele>446.2</ele>
        <time>2020-06-06T07:14:27Z</time>
      </trkpt>
      <trkpt lat="45.96338" lon="4.63177">
        <ele>446</ele>
        <time>2020-06-06T07:14:31Z</time>
      </trkpt>
      <trkpt lat="45.96343" lon="4.6316">
        <ele>446.4</ele>
        <time>2020-06-06T07:14:35Z</time>
      </trkpt>
      <trkpt lat="45.96353" lon="4.63145">
        <ele>446.6</ele>
        <time>2020-06-06T07:14:39Z</time>
      </trkpt>
      <trkpt lat="45.96361" lon="4.6313">
        <ele>446.6</ele>
        <time>2020-06-06T07:14:43Z</time>
      </trkpt>
      <trkpt lat="45.96371" lon="4.63114">
        <ele>447</ele>
        <time>2020-06-06T07:14:47Z</time>
      </trkpt>
      <trkpt lat="45.96379" lon="4.63099">
        <ele>447.8</ele>
        <time>2020-06-06T07:14:51Z</time>
      </trkpt>
      <trkpt lat="45.96387" lon="4.63084">
        <ele>448.6</ele>
        <time>2020-06-06T07:14:55Z</time>
      </trkpt>
      <trkpt lat="45.96392" lon="4.63073">
        <ele>448.6</ele>
        <time>2020-06-06T07:14:59Z</time>
      </trkpt>
      <trkpt lat="45.96398" lon="4.63069">
        <ele>448.6</ele>
        <time>2020-06-06T07:15:03Z</time>
      </trkpt>
      <trkpt lat="45.96411" lon="4.63083">
        <ele>448.8</ele>
        <time>2020-06-06T07:19:30Z</time>
      </trkpt>
      <trkpt lat="45.96415" lon="4.63098">
        <ele>448.8</ele>
        <time>2020-06-06T07:19:34Z</time>
      </trkpt>
      <trkpt lat="45.96417" lon="4.63111">
        <ele>449.2</ele>
        <time>2020-06-06T07:19:38Z</time>
      </trkpt>
      <trkpt lat="45.96419" lon="4.63123">
        <ele>449.8</ele>
        <time>2020-06-06T07:19:42Z</time>
      </trkpt>
      <trkpt lat="45.96422" lon="4.63134">
        <ele>449.6</ele>
        <time>2020-06-06T07:19:46Z</time>
      </trkpt>
      <trkpt lat="45.96423" lon="4.63143">
        <ele>450.2</ele>
        <time>2020-06-06T07:19:50Z</time>
      </trkpt>
      <trkpt lat="45.96425" lon="4.6315">
        <ele>451.4</ele>
        <time>2020-06-06T07:19:54Z</time>
      </trkpt>
      <trkpt lat="45.96425" lon="4.63157">
        <ele>451.6</ele>
        <time>2020-06-06T07:19:58Z</time>
      </trkpt>
      <trkpt lat="45.96427" lon="4.63165">
        <ele>452.6</ele>
        <time>2020-06-06T07:20:02Z</time>
      </trkpt>
      <trkpt lat="45.96428" lon="4.63173">
        <ele>453.2</ele>
        <time>2020-06-06T07:20:06Z</time>
      </trkpt>
      <trkpt lat="45.9643" lon="4.6318">
        <ele>453.8</ele>
        <time>2020-06-06T07:20:10Z</time>
      </trkpt>
      <trkpt lat="45.96433" lon="4.63188">
        <ele>454.2</ele>
        <time>2020-06-06T07:20:14Z</time>
      </trkpt>
      <trkpt lat="45.96435" lon="4.63195">
        <ele>455.2</ele>
        <time>2020-06-06T07:20:18Z</time>
      </trkpt>
      <trkpt lat="45.96438" lon="4.63202">
        <ele>456</ele>
        <time>2020-06-06T07:20:22Z</time>
      </trkpt>
      <trkpt lat="45.96439" lon="4.63209">
        <ele>456.8</ele>
        <time>2020-06-06T07:20:26Z</time>
      </trkpt>
      <trkpt lat="45.96442" lon="4.63216">
        <ele>457.4</ele>
        <time>2020-06-06T07:20:30Z</time>
      </trkpt>
      <trkpt lat="45.96444" lon="4.63223">
        <ele>458</ele>
        <time>2020-06-06T07:20:34Z</time>
      </trkpt>
      <trkpt lat="45.96446" lon="4.6323">
        <ele>459</ele>
        <time>2020-06-06T07:20:38Z</time>
      </trkpt>
      <trkpt lat="45.96447" lon="4.63237">
        <ele>459.6</ele>
        <time>2020-06-06T07:20:42Z</time>
      </trkpt>
      <trkpt lat="45.96448" lon="4.63243">
        <ele>460.6</ele>
        <time>2020-06-06T07:20:46Z</time>
      </trkpt>
      <trkpt lat="45.96449" lon="4.63249">
        <ele>461</ele>
        <time>2020-06-06T07:20:50Z</time>
      </trkpt>
      <trkpt lat="45.9645" lon="4.63255">
        <ele>462.4</ele>
        <time>2020-06-06T07:20:54Z</time>
      </trkpt>
      <trkpt lat="45.96451" lon="4.63262">
        <ele>463.6</ele>
        <time>2020-06-06T07:20:58Z</time>
      </trkpt>
      <trkpt lat="45.96452" lon="4.63269">
        <ele>464.2</ele>
        <time>2020-06-06T07:21:02Z</time>
      </trkpt>
      <trkpt lat="45.96453" lon="4.63275">
        <ele>465.2</ele>
        <time>2020-06-06T07:21:06Z</time>
      </trkpt>
      <trkpt lat="45.96453" lon="4.6328">
        <ele>466</ele>
        <time>2020-06-06T07:21:10Z</time>
      </trkpt>
      <trkpt lat="45.96453" lon="4.63286">
        <ele>466.8</ele>
        <time>2020-06-06T07:21:14Z</time>
      </trkpt>
      <trkpt lat="45.96453" lon="4.63292">
        <ele>467.4</ele>
        <time>2020-06-06T07:21:18Z</time>
      </trkpt>
      <trkpt lat="45.96453" lon="4.63298">
        <ele>468</ele>
        <time>2020-06-06T07:21:22Z</time>
      </trkpt>
      <trkpt lat="45.96453" lon="4.63304">
        <ele>469.2</ele>
        <time>2020-06-06T07:21:26Z</time>
      </trkpt>
      <trkpt lat="45.96452" lon="4.6331">
        <ele>470</ele>
        <time>2020-06-06T07:21:30Z</time>
      </trkpt>
      <trkpt lat="45.96453" lon="4.63315">
        <ele>471</ele>
        <time>2020-06-06T07:21:34Z</time>
      </trkpt>
      <trkpt lat="45.96453" lon="4.63321">
        <ele>471.6</ele>
        <time>2020-06-06T07:21:38Z</time>
      </trkpt>
      <trkpt lat="45.96454" lon="4.63327">
        <ele>472.2</ele>
        <time>2020-06-06T07:21:42Z</time>
      </trkpt>
      <trkpt lat="45.96454" lon="4.63334">
        <ele>473</ele>
        <time>2020-06-06T07:21:46Z</time>
      </trkpt>
      <trkpt lat="45.96455" lon="4.63341">
        <ele>473.4</ele>
        <time>2020-06-06T07:21:50Z</time>
      </trkpt>
      <trkpt lat="45.96455" lon="4.63351">
        <ele>474.2</ele>
        <time>2020-06-06T07:21:54Z</time>
      </trkpt>
      <trkpt lat="45.96455" lon="4.63361">
        <ele>474</ele>
        <time>2020-06-06T07:21:58Z</time>
      </trkpt>
      <trkpt lat="45.96455" lon="4.63373">
        <ele>474.6</ele>
        <time>2020-06-06T07:22:02Z</time>
      </trkpt>
      <trkpt lat="45.96454" lon="4.63383">
        <ele>474.8</ele>
        <time>2020-06-06T07:22:06Z</time>
      </trkpt>
      <trkpt lat="45.96453" lon="4.63394">
        <ele>474.8</ele>
        <time>2020-06-06T07:22:10Z</time>
      </trkpt>
      <trkpt lat="45.96454" lon="4.63407">
        <ele>475</ele>
        <time>2020-06-06T07:22:14Z</time>
      </trkpt>
      <trkpt lat="45.96454" lon="4.63419">
        <ele>475.8</ele>
        <time>2020-06-06T07:22:18Z</time>
      </trkpt>
      <trkpt lat="45.96455" lon="4.63432">
        <ele>476.2</ele>
        <time>2020-06-06T07:22:22Z</time>
      </trkpt>
      <trkpt lat="45.96456" lon="4.63447">
        <ele>476.8</ele>
        <time>2020-06-06T07:22:26Z</time>
      </trkpt>
      <trkpt lat="45.96457" lon="4.63463">
        <ele>476.4</ele>
        <time>2020-06-06T07:22:30Z</time>
      </trkpt>
      <trkpt lat="45.9646" lon="4.63478">
        <ele>477</ele>
        <time>2020-06-06T07:22:34Z</time>
      </trkpt>
      <trkpt lat="45.96462" lon="4.63495">
        <ele>477.6</ele>
        <time>2020-06-06T07:22:38Z</time>
      </trkpt>
      <trkpt lat="45.96465" lon="4.63511">
        <ele>477.6</ele>
        <time>2020-06-06T07:22:42Z</time>
      </trkpt>
      <trkpt lat="45.96469" lon="4.63527">
        <ele>478</ele>
        <time>2020-06-06T07:22:46Z</time>
      </trkpt>
      <trkpt lat="45.96473" lon="4.63543">
        <ele>477.8</ele>
        <time>2020-06-06T07:22:50Z</time>
      </trkpt>
      <trkpt lat="45.96478" lon="4.63558">
        <ele>479.2</ele>
        <time>2020-06-06T07:22:54Z</time>
      </trkpt>
      <trkpt lat="45.96483" lon="4.63572">
        <ele>479.2</ele>
        <time>2020-06-06T07:22:58Z</time>
      </trkpt>
      <trkpt lat="45.96488" lon="4.63586">
        <ele>479</ele>
        <time>2020-06-06T07:23:02Z</time>
      </trkpt>
      <trkpt lat="45.96496" lon="4.63599">
        <ele>479.2</ele>
        <time>2020-06-06T07:23:06Z</time>
      </trkpt>
      <trkpt lat="45.96505" lon="4.63612">
        <ele>479.4</ele>
        <time>2020-06-06T07:23:10Z</time>
      </trkpt>
      <trkpt lat="45.96513" lon="4.63627">
        <ele>479.2</ele>
        <time>2020-06-06T07:23:14Z</time>
      </trkpt>
      <trkpt lat="45.96523" lon="4.63641">
        <ele>478.2</ele>
        <time>2020-06-06T07:23:18Z</time>
      </trkpt>
      <trkpt lat="45.96537" lon="4.63657">
        <ele>477.6</ele>
        <time>2020-06-06T07:23:22Z</time>
      </trkpt>
      <trkpt lat="45.96555" lon="4.63672">
        <ele>476.4</ele>
        <time>2020-06-06T07:23:26Z</time>
      </trkpt>
      <trkpt lat="45.96577" lon="4.63687">
        <ele>474.6</ele>
        <time>2020-06-06T07:23:30Z</time>
      </trkpt>
      <trkpt lat="45.96602" lon="4.63701">
        <ele>472.4</ele>
        <time>2020-06-06T07:23:34Z</time>
      </trkpt>
      <trkpt lat="45.96632" lon="4.63718">
        <ele>469.4</ele>
        <time>2020-06-06T07:23:38Z</time>
      </trkpt>
      <trkpt lat="45.96666" lon="4.63737">
        <ele>466.6</ele>
        <time>2020-06-06T07:23:42Z</time>
      </trkpt>
      <trkpt lat="45.96703" lon="4.63757">
        <ele>464.2</ele>
        <time>2020-06-06T07:23:46Z</time>
      </trkpt>
      <trkpt lat="45.96742" lon="4.63779">
        <ele>461</ele>
        <time>2020-06-06T07:23:50Z</time>
      </trkpt>
      <trkpt lat="45.96784" lon="4.63802">
        <ele>457.4</ele>
        <time>2020-06-06T07:23:54Z</time>
      </trkpt>
      <trkpt lat="45.96828" lon="4.63826">
        <ele>455.6</ele>
        <time>2020-06-06T07:23:58Z</time>
      </trkpt>
      <trkpt lat="45.96869" lon="4.63853">
        <ele>453.8</ele>
        <time>2020-06-06T07:24:02Z</time>
      </trkpt>
      <trkpt lat="45.96904" lon="4.63884">
        <ele>453</ele>
        <time>2020-06-06T07:24:06Z</time>
      </trkpt>
      <trkpt lat="45.96934" lon="4.63918">
        <ele>450.4</ele>
        <time>2020-06-06T07:24:10Z</time>
      </trkpt>
      <trkpt lat="45.96966" lon="4.63955">
        <ele>445.6</ele>
        <time>2020-06-06T07:24:14Z</time>
      </trkpt>
      <trkpt lat="45.96997" lon="4.64">
        <ele>443.2</ele>
        <time>2020-06-06T07:24:18Z</time>
      </trkpt>
      <trkpt lat="45.97007" lon="4.64055">
        <ele>443.8</ele>
        <time>2020-06-06T07:24:22Z</time>
      </trkpt>
      <trkpt lat="45.9701" lon="4.64106">
        <ele>444.8</ele>
        <time>2020-06-06T07:24:26Z</time>
      </trkpt>
      <trkpt lat="45.97014" lon="4.64151">
        <ele>445.6</ele>
        <time>2020-06-06T07:24:30Z</time>
      </trkpt>
      <trkpt lat="45.97015" lon="4.64188">
        <ele>446</ele>
        <time>2020-06-06T07:24:34Z</time>
      </trkpt>
      <trkpt lat="45.9702" lon="4.64219">
        <ele>446</ele>
        <time>2020-06-06T07:24:38Z</time>
      </trkpt>
      <trkpt lat="45.97025" lon="4.64242">
        <ele>447</ele>
        <time>2020-06-06T07:24:42Z</time>
      </trkpt>
      <trkpt lat="45.97033" lon="4.64262">
        <ele>447.8</ele>
        <time>2020-06-06T07:24:46Z</time>
      </trkpt>
      <trkpt lat="45.97039" lon="4.64281">
        <ele>449</ele>
        <time>2020-06-06T07:24:50Z</time>
      </trkpt>
      <trkpt lat="45.97047" lon="4.64298">
        <ele>449.6</ele>
        <time>2020-06-06T07:24:54Z</time>
      </trkpt>
      <trkpt lat="45.97059" lon="4.64314">
        <ele>451</ele>
        <time>2020-06-06T07:24:58Z</time>
      </trkpt>
      <trkpt lat="45.9707" lon="4.64327">
        <ele>451.6</ele>
        <time>2020-06-06T07:25:02Z</time>
      </trkpt>
      <trkpt lat="45.97079" lon="4.64335">
        <ele>452</ele>
        <time>2020-06-06T07:25:06Z</time>
      </trkpt>
      <trkpt lat="45.97091" lon="4.64345">
        <ele>452.4</ele>
        <time>2020-06-06T07:25:10Z</time>
      </trkpt>
      <trkpt lat="45.97105" lon="4.64355">
        <ele>452</ele>
        <time>2020-06-06T07:25:14Z</time>
      </trkpt>
      <trkpt lat="45.97119" lon="4.64366">
        <ele>451.2</ele>
        <time>2020-06-06T07:25:18Z</time>
      </trkpt>
      <trkpt lat="45.97133" lon="4.64378">
        <ele>451.8</ele>
        <time>2020-06-06T07:25:22Z</time>
      </trkpt>
      <trkpt lat="45.97148" lon="4.64392">
        <ele>451.6</ele>
        <time>2020-06-06T07:25:26Z</time>
      </trkpt>
      <trkpt lat="45.97162" lon="4.64408">
        <ele>451.8</ele>
        <time>2020-06-06T07:25:30Z</time>
      </trkpt>
      <trkpt lat="45.97175" lon="4.64427">
        <ele>451.4</ele>
        <time>2020-06-06T07:25:34Z</time>
      </trkpt>
      <trkpt lat="45.97187" lon="4.64445">
        <ele>451.8</ele>
        <time>2020-06-06T07:25:38Z</time>
      </trkpt>
      <trkpt lat="45.97197" lon="4.64464">
        <ele>452.2</ele>
        <time>2020-06-06T07:25:42Z</time>
      </trkpt>
      <trkpt lat="45.97206" lon="4.64482">
        <ele>452.6</ele>
        <time>2020-06-06T07:25:46Z</time>
      </trkpt>
      <trkpt lat="45.97216" lon="4.64501">
        <ele>452.8</ele>
        <time>2020-06-06T07:25:50Z</time>
      </trkpt>
      <trkpt lat="45.97226" lon="4.6452">
        <ele>452.8</ele>
        <time>2020-06-06T07:25:54Z</time>
      </trkpt>
      <trkpt lat="45.97236" lon="4.6454">
        <ele>452.4</ele>
        <time>2020-06-06T07:25:58Z</time>
      </trkpt>
      <trkpt lat="45.97247" lon="4.64561">
        <ele>452.4</ele>
        <time>2020-06-06T07:26:02Z</time>
      </trkpt>
      <trkpt lat="45.97257" lon="4.64582">
        <ele>452</ele>
        <time>2020-06-06T07:26:06Z</time>
      </trkpt>
      <trkpt lat="45.97268" lon="4.64603">
        <ele>451.2</ele>
        <time>2020-06-06T07:26:10Z</time>
      </trkpt>
      <trkpt lat="45.9728" lon="4.64627">
        <ele>451.2</ele>
        <time>2020-06-06T07:26:14Z</time>
      </trkpt>
      <trkpt lat="45.97293" lon="4.64653">
        <ele>450</ele>
        <time>2020-06-06T07:26:18Z</time>
      </trkpt>
      <trkpt lat="45.97307" lon="4.6468">
        <ele>448.8</ele>
        <time>2020-06-06T07:26:22Z</time>
      </trkpt>
      <trkpt lat="45.97322" lon="4.64708">
        <ele>448</ele>
        <time>2020-06-06T07:26:26Z</time>
      </trkpt>
      <trkpt lat="45.9734" lon="4.64731">
        <ele>448.2</ele>
        <time>2020-06-06T07:26:30Z</time>
      </trkpt>
      <trkpt lat="45.9736" lon="4.64745">
        <ele>448.6</ele>
        <time>2020-06-06T07:26:34Z</time>
      </trkpt>
      <trkpt lat="45.97381" lon="4.64755">
        <ele>448.4</ele>
        <time>2020-06-06T07:26:38Z</time>
      </trkpt>
      <trkpt lat="45.97401" lon="4.64763">
        <ele>448.8</ele>
        <time>2020-06-06T07:26:42Z</time>
      </trkpt>
      <trkpt lat="45.97421" lon="4.6477">
        <ele>449.4</ele>
        <time>2020-06-06T07:26:46Z</time>
      </trkpt>
      <trkpt lat="45.97441" lon="4.64778">
        <ele>449.4</ele>
        <time>2020-06-06T07:26:50Z</time>
      </trkpt>
      <trkpt lat="45.9746" lon="4.64785">
        <ele>449.8</ele>
        <time>2020-06-06T07:26:54Z</time>
      </trkpt>
      <trkpt lat="45.97479" lon="4.64793">
        <ele>450</ele>
        <time>2020-06-06T07:26:58Z</time>
      </trkpt>
      <trkpt lat="45.97498" lon="4.648">
        <ele>450.4</ele>
        <time>2020-06-06T07:27:02Z</time>
      </trkpt>
      <trkpt lat="45.97517" lon="4.64807">
        <ele>450.8</ele>
        <time>2020-06-06T07:27:06Z</time>
      </trkpt>
      <trkpt lat="45.97536" lon="4.64814">
        <ele>450.6</ele>
        <time>2020-06-06T07:27:10Z</time>
      </trkpt>
      <trkpt lat="45.97556" lon="4.64822">
        <ele>450.6</ele>
        <time>2020-06-06T07:27:14Z</time>
      </trkpt>
      <trkpt lat="45.97577" lon="4.64831">
        <ele>450</ele>
        <time>2020-06-06T07:27:18Z</time>
      </trkpt>
      <trkpt lat="45.97597" lon="4.64839">
        <ele>450.2</ele>
        <time>2020-06-06T07:27:22Z</time>
      </trkpt>
      <trkpt lat="45.97618" lon="4.64847">
        <ele>450</ele>
        <time>2020-06-06T07:27:26Z</time>
      </trkpt>
      <trkpt lat="45.97638" lon="4.6485">
        <ele>449.4</ele>
        <time>2020-06-06T07:27:30Z</time>
      </trkpt>
      <trkpt lat="45.97658" lon="4.64849">
        <ele>450</ele>
        <time>2020-06-06T07:27:34Z</time>
      </trkpt>
      <trkpt lat="45.97675" lon="4.64848">
        <ele>449.2</ele>
        <time>2020-06-06T07:27:38Z</time>
      </trkpt>
      <trkpt lat="45.97685" lon="4.64848">
        <ele>449.6</ele>
        <time>2020-06-06T07:27:42Z</time>
      </trkpt>
      <trkpt lat="45.97691" lon="4.64871">
        <ele>448.8</ele>
        <time>2020-06-06T07:28:45Z</time>
      </trkpt>
      <trkpt lat="45.97694" lon="4.64897">
        <ele>448</ele>
        <time>2020-06-06T07:28:49Z</time>
      </trkpt>
      <trkpt lat="45.97698" lon="4.64928">
        <ele>447.2</ele>
        <time>2020-06-06T07:28:53Z</time>
      </trkpt>
      <trkpt lat="45.97702" lon="4.64962">
        <ele>444.8</ele>
        <time>2020-06-06T07:28:57Z</time>
      </trkpt>
      <trkpt lat="45.97705" lon="4.65">
        <ele>444.2</ele>
        <time>2020-06-06T07:29:01Z</time>
      </trkpt>
      <trkpt lat="45.97707" lon="4.65036">
        <ele>444.6</ele>
        <time>2020-06-06T07:29:05Z</time>
      </trkpt>
      <trkpt lat="45.97717" lon="4.65054">
        <ele>445</ele>
        <time>2020-06-06T07:29:09Z</time>
      </trkpt>
      <trkpt lat="45.97731" lon="4.65039">
        <ele>445.6</ele>
        <time>2020-06-06T07:29:13Z</time>
      </trkpt>
      <trkpt lat="45.97747" lon="4.65032">
        <ele>445.4</ele>
        <time>2020-06-06T07:29:17Z</time>
      </trkpt>
      <trkpt lat="45.97762" lon="4.65026">
        <ele>446.6</ele>
        <time>2020-06-06T07:29:21Z</time>
      </trkpt>
      <trkpt lat="45.97778" lon="4.65021">
        <ele>446.6</ele>
        <time>2020-06-06T07:29:25Z</time>
      </trkpt>
      <trkpt lat="45.97793" lon="4.65015">
        <ele>447.6</ele>
        <time>2020-06-06T07:29:29Z</time>
      </trkpt>
      <trkpt lat="45.97809" lon="4.65009">
        <ele>447.4</ele>
        <time>2020-06-06T07:29:33Z</time>
      </trkpt>
      <trkpt lat="45.97825" lon="4.65004">
        <ele>448.2</ele>
        <time>2020-06-06T07:29:37Z</time>
      </trkpt>
      <trkpt lat="45.97842" lon="4.64997">
        <ele>448.2</ele>
        <time>2020-06-06T07:29:41Z</time>
      </trkpt>
      <trkpt lat="45.97859" lon="4.64991">
        <ele>448</ele>
        <time>2020-06-06T07:29:45Z</time>
      </trkpt>
      <trkpt lat="45.97876" lon="4.64985">
        <ele>448.2</ele>
        <time>2020-06-06T07:29:49Z</time>
      </trkpt>
      <trkpt lat="45.97893" lon="4.64978">
        <ele>448.2</ele>
        <time>2020-06-06T07:29:53Z</time>
      </trkpt>
      <trkpt lat="45.97912" lon="4.6497">
        <ele>447.8</ele>
        <time>2020-06-06T07:29:57Z</time>
      </trkpt>
      <trkpt lat="45.9793" lon="4.64962">
        <ele>447.2</ele>
        <time>2020-06-06T07:30:01Z</time>
      </trkpt>
      <trkpt lat="45.97954" lon="4.64953">
        <ele>445</ele>
        <time>2020-06-06T07:30:05Z</time>
      </trkpt>
      <trkpt lat="45.97982" lon="4.6494">
        <ele>442</ele>
        <time>2020-06-06T07:30:09Z</time>
      </trkpt>
      <trkpt lat="45.98014" lon="4.64925">
        <ele>440</ele>
        <time>2020-06-06T07:30:13Z</time>
      </trkpt>
      <trkpt lat="45.98038" lon="4.64887">
        <ele>437.4</ele>
        <time>2020-06-06T07:30:17Z</time>
      </trkpt>
      <trkpt lat="45.9806" lon="4.64845">
        <ele>434.4</ele>
        <time>2020-06-06T07:30:21Z</time>
      </trkpt>
      <trkpt lat="45.98083" lon="4.64802">
        <ele>431.4</ele>
        <time>2020-06-06T07:30:25Z</time>
      </trkpt>
      <trkpt lat="45.981" lon="4.64748">
        <ele>427.4</ele>
        <time>2020-06-06T07:30:29Z</time>
      </trkpt>
      <trkpt lat="45.98111" lon="4.64688">
        <ele>424.4</ele>
        <time>2020-06-06T07:30:33Z</time>
      </trkpt>
      <trkpt lat="45.98106" lon="4.64626">
        <ele>421.6</ele>
        <time>2020-06-06T07:30:37Z</time>
      </trkpt>
      <trkpt lat="45.98088" lon="4.64567">
        <ele>419.4</ele>
        <time>2020-06-06T07:30:41Z</time>
      </trkpt>
      <trkpt lat="45.98091" lon="4.64511">
        <ele>417</ele>
        <time>2020-06-06T07:30:45Z</time>
      </trkpt>
      <trkpt lat="45.98119" lon="4.64505">
        <ele>413.8</ele>
        <time>2020-06-06T07:30:49Z</time>
      </trkpt>
      <trkpt lat="45.98149" lon="4.64533">
        <ele>412.6</ele>
        <time>2020-06-06T07:30:53Z</time>
      </trkpt>
      <trkpt lat="45.98184" lon="4.64521">
        <ele>410.2</ele>
        <time>2020-06-06T07:30:57Z</time>
      </trkpt>
      <trkpt lat="45.98212" lon="4.64504">
        <ele>411.4</ele>
        <time>2020-06-06T07:31:01Z</time>
      </trkpt>
      <trkpt lat="45.98242" lon="4.64499">
        <ele>412.2</ele>
        <time>2020-06-06T07:31:05Z</time>
      </trkpt>
      <trkpt lat="45.98267" lon="4.64503">
        <ele>413.8</ele>
        <time>2020-06-06T07:31:09Z</time>
      </trkpt>
      <trkpt lat="45.98284" lon="4.64498">
        <ele>414.8</ele>
        <time>2020-06-06T07:31:13Z</time>
      </trkpt>
      <trkpt lat="45.98298" lon="4.64489">
        <ele>415.6</ele>
        <time>2020-06-06T07:31:17Z</time>
      </trkpt>
      <trkpt lat="45.98308" lon="4.64481">
        <ele>416.4</ele>
        <time>2020-06-06T07:31:21Z</time>
      </trkpt>
      <trkpt lat="45.98318" lon="4.64474">
        <ele>416.8</ele>
        <time>2020-06-06T07:31:25Z</time>
      </trkpt>
      <trkpt lat="45.98327" lon="4.64465">
        <ele>418.2</ele>
        <time>2020-06-06T07:31:29Z</time>
      </trkpt>
      <trkpt lat="45.98336" lon="4.64459">
        <ele>418.4</ele>
        <time>2020-06-06T07:31:33Z</time>
      </trkpt>
      <trkpt lat="45.98346" lon="4.64453">
        <ele>419.6</ele>
        <time>2020-06-06T07:31:37Z</time>
      </trkpt>
      <trkpt lat="45.98355" lon="4.64448">
        <ele>419.8</ele>
        <time>2020-06-06T07:31:41Z</time>
      </trkpt>
      <trkpt lat="45.98365" lon="4.64442">
        <ele>421</ele>
        <time>2020-06-06T07:31:45Z</time>
      </trkpt>
      <trkpt lat="45.98374" lon="4.64437">
        <ele>422.2</ele>
        <time>2020-06-06T07:31:49Z</time>
      </trkpt>
      <trkpt lat="45.98383" lon="4.64432">
        <ele>422.2</ele>
        <time>2020-06-06T07:31:53Z</time>
      </trkpt>
      <trkpt lat="45.98392" lon="4.64427">
        <ele>423.2</ele>
        <time>2020-06-06T07:31:57Z</time>
      </trkpt>
      <trkpt lat="45.984" lon="4.64423">
        <ele>423.8</ele>
        <time>2020-06-06T07:32:01Z</time>
      </trkpt>
      <trkpt lat="45.98409" lon="4.64418">
        <ele>424</ele>
        <time>2020-06-06T07:32:05Z</time>
      </trkpt>
      <trkpt lat="45.98418" lon="4.64413">
        <ele>424.8</ele>
        <time>2020-06-06T07:32:09Z</time>
      </trkpt>
      <trkpt lat="45.98426" lon="4.64409">
        <ele>425.6</ele>
        <time>2020-06-06T07:32:13Z</time>
      </trkpt>
      <trkpt lat="45.98435" lon="4.64405">
        <ele>426.2</ele>
        <time>2020-06-06T07:32:17Z</time>
      </trkpt>
      <trkpt lat="45.98443" lon="4.64401">
        <ele>427</ele>
        <time>2020-06-06T07:32:21Z</time>
      </trkpt>
      <trkpt lat="45.98452" lon="4.64399">
        <ele>428</ele>
        <time>2020-06-06T07:32:25Z</time>
      </trkpt>
      <trkpt lat="45.98461" lon="4.64396">
        <ele>429.2</ele>
        <time>2020-06-06T07:32:29Z</time>
      </trkpt>
      <trkpt lat="45.9847" lon="4.64392">
        <ele>429.4</ele>
        <time>2020-06-06T07:32:33Z</time>
      </trkpt>
      <trkpt lat="45.98479" lon="4.6439">
        <ele>430.2</ele>
        <time>2020-06-06T07:32:37Z</time>
      </trkpt>
      <trkpt lat="45.98488" lon="4.64387">
        <ele>431</ele>
        <time>2020-06-06T07:32:41Z</time>
      </trkpt>
      <trkpt lat="45.98497" lon="4.64385">
        <ele>431.8</ele>
        <time>2020-06-06T07:32:45Z</time>
      </trkpt>
      <trkpt lat="45.98506" lon="4.64383">
        <ele>432.4</ele>
        <time>2020-06-06T07:32:49Z</time>
      </trkpt>
      <trkpt lat="45.98516" lon="4.64382">
        <ele>432.8</ele>
        <time>2020-06-06T07:32:53Z</time>
      </trkpt>
      <trkpt lat="45.98526" lon="4.64384">
        <ele>433.8</ele>
        <time>2020-06-06T07:32:57Z</time>
      </trkpt>
      <trkpt lat="45.98535" lon="4.64385">
        <ele>434.2</ele>
        <time>2020-06-06T07:33:01Z</time>
      </trkpt>
      <trkpt lat="45.98544" lon="4.64387">
        <ele>435</ele>
        <time>2020-06-06T07:33:05Z</time>
      </trkpt>
      <trkpt lat="45.98553" lon="4.64388">
        <ele>436</ele>
        <time>2020-06-06T07:33:09Z</time>
      </trkpt>
      <trkpt lat="45.98562" lon="4.6439">
        <ele>436.6</ele>
        <time>2020-06-06T07:33:13Z</time>
      </trkpt>
      <trkpt lat="45.9857" lon="4.64392">
        <ele>437.2</ele>
        <time>2020-06-06T07:33:17Z</time>
      </trkpt>
      <trkpt lat="45.98579" lon="4.64392">
        <ele>438</ele>
        <time>2020-06-06T07:33:21Z</time>
      </trkpt>
      <trkpt lat="45.98589" lon="4.64393">
        <ele>439</ele>
        <time>2020-06-06T07:33:25Z</time>
      </trkpt>
      <trkpt lat="45.98598" lon="4.64392">
        <ele>439.6</ele>
        <time>2020-06-06T07:33:29Z</time>
      </trkpt>
      <trkpt lat="45.98607" lon="4.64391">
        <ele>440</ele>
        <time>2020-06-06T07:33:33Z</time>
      </trkpt>
      <trkpt lat="45.98618" lon="4.6439">
        <ele>440.2</ele>
        <time>2020-06-06T07:33:37Z</time>
      </trkpt>
      <trkpt lat="45.98628" lon="4.6439">
        <ele>441.2</ele>
        <time>2020-06-06T07:33:41Z</time>
      </trkpt>
      <trkpt lat="45.98638" lon="4.64392">
        <ele>441.8</ele>
        <time>2020-06-06T07:33:45Z</time>
      </trkpt>
      <trkpt lat="45.98648" lon="4.64395">
        <ele>442.6</ele>
        <time>2020-06-06T07:33:49Z</time>
      </trkpt>
      <trkpt lat="45.98658" lon="4.64398">
        <ele>443.6</ele>
        <time>2020-06-06T07:33:53Z</time>
      </trkpt>
      <trkpt lat="45.98668" lon="4.64403">
        <ele>443.8</ele>
        <time>2020-06-06T07:33:57Z</time>
      </trkpt>
      <trkpt lat="45.98679" lon="4.64407">
        <ele>444.6</ele>
        <time>2020-06-06T07:34:01Z</time>
      </trkpt>
      <trkpt lat="45.98689" lon="4.64412">
        <ele>445</ele>
        <time>2020-06-06T07:34:05Z</time>
      </trkpt>
      <trkpt lat="45.98699" lon="4.64417">
        <ele>445.8</ele>
        <time>2020-06-06T07:34:09Z</time>
      </trkpt>
      <trkpt lat="45.98709" lon="4.64422">
        <ele>446.6</ele>
        <time>2020-06-06T07:34:13Z</time>
      </trkpt>
      <trkpt lat="45.9872" lon="4.64429">
        <ele>447.2</ele>
        <time>2020-06-06T07:34:17Z</time>
      </trkpt>
      <trkpt lat="45.98729" lon="4.64437">
        <ele>448</ele>
        <time>2020-06-06T07:34:21Z</time>
      </trkpt>
      <trkpt lat="45.98738" lon="4.64447">
        <ele>448.6</ele>
        <time>2020-06-06T07:34:25Z</time>
      </trkpt>
      <trkpt lat="45.98747" lon="4.64458">
        <ele>449.2</ele>
        <time>2020-06-06T07:34:29Z</time>
      </trkpt>
      <trkpt lat="45.98755" lon="4.64469">
        <ele>449.4</ele>
        <time>2020-06-06T07:34:33Z</time>
      </trkpt>
      <trkpt lat="45.98764" lon="4.6448">
        <ele>449.8</ele>
        <time>2020-06-06T07:34:37Z</time>
      </trkpt>
      <trkpt lat="45.98773" lon="4.64491">
        <ele>449.8</ele>
        <time>2020-06-06T07:34:41Z</time>
      </trkpt>
      <trkpt lat="45.98782" lon="4.64501">
        <ele>448.8</ele>
        <time>2020-06-06T07:34:45Z</time>
      </trkpt>
      <trkpt lat="45.98795" lon="4.64508">
        <ele>449.6</ele>
        <time>2020-06-06T07:34:49Z</time>
      </trkpt>
      <trkpt lat="45.98808" lon="4.64512">
        <ele>449.4</ele>
        <time>2020-06-06T07:34:53Z</time>
      </trkpt>
      <trkpt lat="45.98823" lon="4.64514">
        <ele>448.8</ele>
        <time>2020-06-06T07:34:57Z</time>
      </trkpt>
      <trkpt lat="45.98838" lon="4.64515">
        <ele>449.2</ele>
        <time>2020-06-06T07:35:01Z</time>
      </trkpt>
      <trkpt lat="45.98855" lon="4.64517">
        <ele>448.2</ele>
        <time>2020-06-06T07:35:05Z</time>
      </trkpt>
      <trkpt lat="45.98871" lon="4.64518">
        <ele>448</ele>
        <time>2020-06-06T07:35:09Z</time>
      </trkpt>
      <trkpt lat="45.98889" lon="4.64519">
        <ele>448</ele>
        <time>2020-06-06T07:35:13Z</time>
      </trkpt>
      <trkpt lat="45.98906" lon="4.6452">
        <ele>447.4</ele>
        <time>2020-06-06T07:35:17Z</time>
      </trkpt>
      <trkpt lat="45.98924" lon="4.64521">
        <ele>446.6</ele>
        <time>2020-06-06T07:35:21Z</time>
      </trkpt>
      <trkpt lat="45.98942" lon="4.64521">
        <ele>447</ele>
        <time>2020-06-06T07:35:25Z</time>
      </trkpt>
      <trkpt lat="45.9896" lon="4.64522">
        <ele>446.8</ele>
        <time>2020-06-06T07:35:29Z</time>
      </trkpt>
      <trkpt lat="45.98978" lon="4.64522">
        <ele>446.4</ele>
        <time>2020-06-06T07:35:33Z</time>
      </trkpt>
      <trkpt lat="45.98997" lon="4.64522">
        <ele>446.4</ele>
        <time>2020-06-06T07:35:37Z</time>
      </trkpt>
      <trkpt lat="45.99015" lon="4.64524">
        <ele>446.4</ele>
        <time>2020-06-06T07:35:41Z</time>
      </trkpt>
      <trkpt lat="45.99032" lon="4.64524">
        <ele>446.2</ele>
        <time>2020-06-06T07:35:45Z</time>
      </trkpt>
      <trkpt lat="45.99047" lon="4.64524">
        <ele>447</ele>
        <time>2020-06-06T07:35:49Z</time>
      </trkpt>
      <trkpt lat="45.99062" lon="4.64526">
        <ele>446.2</ele>
        <time>2020-06-06T07:35:53Z</time>
      </trkpt>
      <trkpt lat="45.99078" lon="4.64526">
        <ele>445.6</ele>
        <time>2020-06-06T07:35:57Z</time>
      </trkpt>
      <trkpt lat="45.99095" lon="4.64528">
        <ele>446.2</ele>
        <time>2020-06-06T07:36:01Z</time>
      </trkpt>
      <trkpt lat="45.99112" lon="4.64529">
        <ele>446.2</ele>
        <time>2020-06-06T07:36:05Z</time>
      </trkpt>
      <trkpt lat="45.99128" lon="4.64528">
        <ele>446.6</ele>
        <time>2020-06-06T07:36:09Z</time>
      </trkpt>
      <trkpt lat="45.99144" lon="4.64529">
        <ele>446.2</ele>
        <time>2020-06-06T07:36:13Z</time>
      </trkpt>
      <trkpt lat="45.99161" lon="4.64531">
        <ele>446.2</ele>
        <time>2020-06-06T07:36:17Z</time>
      </trkpt>
      <trkpt lat="45.99176" lon="4.64532">
        <ele>446.4</ele>
        <time>2020-06-06T07:36:21Z</time>
      </trkpt>
      <trkpt lat="45.99191" lon="4.64535">
        <ele>447.4</ele>
        <time>2020-06-06T07:36:25Z</time>
      </trkpt>
      <trkpt lat="45.99205" lon="4.64544">
        <ele>447.2</ele>
        <time>2020-06-06T07:36:29Z</time>
      </trkpt>
      <trkpt lat="45.99221" lon="4.64546">
        <ele>447.2</ele>
        <time>2020-06-06T07:36:33Z</time>
      </trkpt>
      <trkpt lat="45.99233" lon="4.6455">
        <ele>447.2</ele>
        <time>2020-06-06T07:36:37Z</time>
      </trkpt>
      <trkpt lat="45.99247" lon="4.64551">
        <ele>447.4</ele>
        <time>2020-06-06T07:36:41Z</time>
      </trkpt>
      <trkpt lat="45.99259" lon="4.64554">
        <ele>447.6</ele>
        <time>2020-06-06T07:36:45Z</time>
      </trkpt>
      <trkpt lat="45.99271" lon="4.64557">
        <ele>448</ele>
        <time>2020-06-06T07:36:49Z</time>
      </trkpt>
      <trkpt lat="45.99288" lon="4.64559">
        <ele>448.2</ele>
        <time>2020-06-06T07:36:53Z</time>
      </trkpt>
      <trkpt lat="45.99299" lon="4.64561">
        <ele>449.4</ele>
        <time>2020-06-06T07:36:57Z</time>
      </trkpt>
      <trkpt lat="45.99313" lon="4.64565">
        <ele>449</ele>
        <time>2020-06-06T07:37:01Z</time>
      </trkpt>
      <trkpt lat="45.99324" lon="4.64577">
        <ele>449.4</ele>
        <time>2020-06-06T07:37:05Z</time>
      </trkpt>
      <trkpt lat="45.99332" lon="4.64593">
        <ele>448.8</ele>
        <time>2020-06-06T07:37:09Z</time>
      </trkpt>
      <trkpt lat="45.99344" lon="4.64606">
        <ele>448.8</ele>
        <time>2020-06-06T07:37:13Z</time>
      </trkpt>
      <trkpt lat="45.9936" lon="4.64616">
        <ele>448.4</ele>
        <time>2020-06-06T07:37:17Z</time>
      </trkpt>
      <trkpt lat="45.99377" lon="4.64622">
        <ele>449.2</ele>
        <time>2020-06-06T07:37:21Z</time>
      </trkpt>
      <trkpt lat="45.99394" lon="4.64625">
        <ele>449</ele>
        <time>2020-06-06T07:37:25Z</time>
      </trkpt>
      <trkpt lat="45.99409" lon="4.64628">
        <ele>449.8</ele>
        <time>2020-06-06T07:37:29Z</time>
      </trkpt>
      <trkpt lat="45.99424" lon="4.64632">
        <ele>450.2</ele>
        <time>2020-06-06T07:37:33Z</time>
      </trkpt>
      <trkpt lat="45.99436" lon="4.64635">
        <ele>450.6</ele>
        <time>2020-06-06T07:37:37Z</time>
      </trkpt>
      <trkpt lat="45.99447" lon="4.64639">
        <ele>450.8</ele>
        <time>2020-06-06T07:37:41Z</time>
      </trkpt>
      <trkpt lat="45.99462" lon="4.64647">
        <ele>451.2</ele>
        <time>2020-06-06T07:37:45Z</time>
      </trkpt>
      <trkpt lat="45.9948" lon="4.64654">
        <ele>451.6</ele>
        <time>2020-06-06T07:37:49Z</time>
      </trkpt>
      <trkpt lat="45.99495" lon="4.64661">
        <ele>451.4</ele>
        <time>2020-06-06T07:37:53Z</time>
      </trkpt>
      <trkpt lat="45.99508" lon="4.64668">
        <ele>452</ele>
        <time>2020-06-06T07:37:57Z</time>
      </trkpt>
      <trkpt lat="45.99521" lon="4.64675">
        <ele>452.6</ele>
        <time>2020-06-06T07:38:01Z</time>
      </trkpt>
      <trkpt lat="45.99536" lon="4.64682">
        <ele>452.8</ele>
        <time>2020-06-06T07:38:05Z</time>
      </trkpt>
      <trkpt lat="45.99551" lon="4.64689">
        <ele>453.4</ele>
        <time>2020-06-06T07:38:09Z</time>
      </trkpt>
      <trkpt lat="45.99566" lon="4.64693">
        <ele>453.4</ele>
        <time>2020-06-06T07:38:13Z</time>
      </trkpt>
      <trkpt lat="45.99581" lon="4.64695">
        <ele>452.4</ele>
        <time>2020-06-06T07:38:17Z</time>
      </trkpt>
      <trkpt lat="45.99598" lon="4.64694">
        <ele>453.2</ele>
        <time>2020-06-06T07:38:21Z</time>
      </trkpt>
      <trkpt lat="45.99615" lon="4.64693">
        <ele>453.8</ele>
        <time>2020-06-06T07:38:25Z</time>
      </trkpt>
      <trkpt lat="45.99631" lon="4.6469">
        <ele>453.8</ele>
        <time>2020-06-06T07:38:29Z</time>
      </trkpt>
      <trkpt lat="45.99647" lon="4.64688">
        <ele>453.2</ele>
        <time>2020-06-06T07:38:33Z</time>
      </trkpt>
      <trkpt lat="45.99663" lon="4.64685">
        <ele>454.2</ele>
        <time>2020-06-06T07:38:37Z</time>
      </trkpt>
      <trkpt lat="45.99679" lon="4.64681">
        <ele>453.4</ele>
        <time>2020-06-06T07:38:41Z</time>
      </trkpt>
      <trkpt lat="45.99693" lon="4.64677">
        <ele>453.8</ele>
        <time>2020-06-06T07:38:45Z</time>
      </trkpt>
      <trkpt lat="45.99709" lon="4.64674">
        <ele>453.4</ele>
        <time>2020-06-06T07:38:49Z</time>
      </trkpt>
      <trkpt lat="45.99725" lon="4.6467">
        <ele>452.4</ele>
        <time>2020-06-06T07:38:53Z</time>
      </trkpt>
      <trkpt lat="45.99744" lon="4.64666">
        <ele>451.6</ele>
        <time>2020-06-06T07:38:57Z</time>
      </trkpt>
      <trkpt lat="45.99764" lon="4.64659">
        <ele>450.8</ele>
        <time>2020-06-06T07:39:01Z</time>
      </trkpt>
      <trkpt lat="45.99784" lon="4.64648">
        <ele>450</ele>
        <time>2020-06-06T07:39:05Z</time>
      </trkpt>
      <trkpt lat="45.99802" lon="4.6463">
        <ele>449.4</ele>
        <time>2020-06-06T07:39:09Z</time>
      </trkpt>
      <trkpt lat="45.99817" lon="4.64613">
        <ele>449.8</ele>
        <time>2020-06-06T07:39:13Z</time>
      </trkpt>
      <trkpt lat="45.99831" lon="4.64596">
        <ele>449.8</ele>
        <time>2020-06-06T07:39:17Z</time>
      </trkpt>
      <trkpt lat="45.99842" lon="4.64581">
        <ele>449.6</ele>
        <time>2020-06-06T07:39:21Z</time>
      </trkpt>
      <trkpt lat="45.99851" lon="4.64571">
        <ele>450</ele>
        <time>2020-06-06T07:39:25Z</time>
      </trkpt>
      <trkpt lat="45.99857" lon="4.64566">
        <ele>449.8</ele>
        <time>2020-06-06T07:39:29Z</time>
      </trkpt>
      <trkpt lat="45.99865" lon="4.64559">
        <ele>449.6</ele>
        <time>2020-06-06T07:39:33Z</time>
      </trkpt>
      <trkpt lat="45.99882" lon="4.64547">
        <ele>448</ele>
        <time>2020-06-06T07:41:05Z</time>
      </trkpt>
      <trkpt lat="45.99903" lon="4.6454">
        <ele>446.2</ele>
        <time>2020-06-06T07:41:09Z</time>
      </trkpt>
      <trkpt lat="45.99931" lon="4.64535">
        <ele>442.8</ele>
        <time>2020-06-06T07:41:13Z</time>
      </trkpt>
      <trkpt lat="45.99963" lon="4.64526">
        <ele>440.2</ele>
        <time>2020-06-06T07:41:17Z</time>
      </trkpt>
      <trkpt lat="45.99997" lon="4.64521">
        <ele>438</ele>
        <time>2020-06-06T07:41:21Z</time>
      </trkpt>
      <trkpt lat="46.00026" lon="4.64523">
        <ele>438.4</ele>
        <time>2020-06-06T07:41:25Z</time>
      </trkpt>
      <trkpt lat="46.00052" lon="4.64535">
        <ele>436.6</ele>
        <time>2020-06-06T07:41:29Z</time>
      </trkpt>
      <trkpt lat="46.00082" lon="4.64549">
        <ele>435.6</ele>
        <time>2020-06-06T07:41:33Z</time>
      </trkpt>
      <trkpt lat="46.0011" lon="4.64566">
        <ele>434.4</ele>
        <time>2020-06-06T07:41:37Z</time>
      </trkpt>
      <trkpt lat="46.00136" lon="4.64586">
        <ele>433</ele>
        <time>2020-06-06T07:41:41Z</time>
      </trkpt>
      <trkpt lat="46.00164" lon="4.6459">
        <ele>432</ele>
        <time>2020-06-06T07:41:45Z</time>
      </trkpt>
      <trkpt lat="46.00191" lon="4.64584">
        <ele>430</ele>
        <time>2020-06-06T07:41:49Z</time>
      </trkpt>
      <trkpt lat="46.0022" lon="4.64589">
        <ele>428</ele>
        <time>2020-06-06T07:41:53Z</time>
      </trkpt>
      <trkpt lat="46.00248" lon="4.64593">
        <ele>423.8</ele>
        <time>2020-06-06T07:41:57Z</time>
      </trkpt>
      <trkpt lat="46.00278" lon="4.64577">
        <ele>421.2</ele>
        <time>2020-06-06T07:42:01Z</time>
      </trkpt>
      <trkpt lat="46.00308" lon="4.64541">
        <ele>419.4</ele>
        <time>2020-06-06T07:42:05Z</time>
      </trkpt>
      <trkpt lat="46.00336" lon="4.64509">
        <ele>417.4</ele>
        <time>2020-06-06T07:42:09Z</time>
      </trkpt>
      <trkpt lat="46.00364" lon="4.64475">
        <ele>415.6</ele>
        <time>2020-06-06T07:42:13Z</time>
      </trkpt>
      <trkpt lat="46.00387" lon="4.64446">
        <ele>416.4</ele>
        <time>2020-06-06T07:42:17Z</time>
      </trkpt>
      <trkpt lat="46.00408" lon="4.64423">
        <ele>419</ele>
        <time>2020-06-06T07:42:21Z</time>
      </trkpt>
      <trkpt lat="46.00424" lon="4.64404">
        <ele>419.6</ele>
        <time>2020-06-06T07:42:25Z</time>
      </trkpt>
      <trkpt lat="46.00435" lon="4.64388">
        <ele>420.6</ele>
        <time>2020-06-06T07:42:29Z</time>
      </trkpt>
      <trkpt lat="46.00447" lon="4.64375">
        <ele>421.2</ele>
        <time>2020-06-06T07:42:33Z</time>
      </trkpt>
      <trkpt lat="46.00457" lon="4.64364">
        <ele>422</ele>
        <time>2020-06-06T07:42:37Z</time>
      </trkpt>
      <trkpt lat="46.00468" lon="4.6436">
        <ele>423</ele>
        <time>2020-06-06T07:42:41Z</time>
      </trkpt>
      <trkpt lat="46.00477" lon="4.64363">
        <ele>423.8</ele>
        <time>2020-06-06T07:42:45Z</time>
      </trkpt>
      <trkpt lat="46.00484" lon="4.64372">
        <ele>425.2</ele>
        <time>2020-06-06T07:42:49Z</time>
      </trkpt>
      <trkpt lat="46.00487" lon="4.64386">
        <ele>425.4</ele>
        <time>2020-06-06T07:42:53Z</time>
      </trkpt>
      <trkpt lat="46.00486" lon="4.64401">
        <ele>426.6</ele>
        <time>2020-06-06T07:42:57Z</time>
      </trkpt>
      <trkpt lat="46.0049" lon="4.64417">
        <ele>427</ele>
        <time>2020-06-06T07:43:01Z</time>
      </trkpt>
      <trkpt lat="46.00493" lon="4.64433">
        <ele>427.4</ele>
        <time>2020-06-06T07:43:05Z</time>
      </trkpt>
      <trkpt lat="46.00495" lon="4.64448">
        <ele>428.2</ele>
        <time>2020-06-06T07:43:09Z</time>
      </trkpt>
      <trkpt lat="46.00497" lon="4.64463">
        <ele>428.4</ele>
        <time>2020-06-06T07:43:13Z</time>
      </trkpt>
      <trkpt lat="46.00499" lon="4.64477">
        <ele>429.2</ele>
        <time>2020-06-06T07:43:17Z</time>
      </trkpt>
      <trkpt lat="46.005" lon="4.64492">
        <ele>430</ele>
        <time>2020-06-06T07:43:21Z</time>
      </trkpt>
      <trkpt lat="46.005" lon="4.64506">
        <ele>430.8</ele>
        <time>2020-06-06T07:43:25Z</time>
      </trkpt>
      <trkpt lat="46.00498" lon="4.6452">
        <ele>430.8</ele>
        <time>2020-06-06T07:43:29Z</time>
      </trkpt>
      <trkpt lat="46.00494" lon="4.64531">
        <ele>431.6</ele>
        <time>2020-06-06T07:43:33Z</time>
      </trkpt>
      <trkpt lat="46.00491" lon="4.64542">
        <ele>433.2</ele>
        <time>2020-06-06T07:43:37Z</time>
      </trkpt>
      <trkpt lat="46.00489" lon="4.64555">
        <ele>433.8</ele>
        <time>2020-06-06T07:43:41Z</time>
      </trkpt>
      <trkpt lat="46.00487" lon="4.64568">
        <ele>434.4</ele>
        <time>2020-06-06T07:43:45Z</time>
      </trkpt>
      <trkpt lat="46.00486" lon="4.64581">
        <ele>435</ele>
        <time>2020-06-06T07:43:49Z</time>
      </trkpt>
      <trkpt lat="46.00485" lon="4.64594">
        <ele>435.6</ele>
        <time>2020-06-06T07:43:53Z</time>
      </trkpt>
      <trkpt lat="46.00484" lon="4.64606">
        <ele>436.4</ele>
        <time>2020-06-06T07:43:57Z</time>
      </trkpt>
      <trkpt lat="46.00484" lon="4.64619">
        <ele>436.8</ele>
        <time>2020-06-06T07:44:01Z</time>
      </trkpt>
      <trkpt lat="46.00484" lon="4.6463">
        <ele>437.4</ele>
        <time>2020-06-06T07:44:05Z</time>
      </trkpt>
      <trkpt lat="46.00484" lon="4.64643">
        <ele>438.2</ele>
        <time>2020-06-06T07:44:09Z</time>
      </trkpt>
      <trkpt lat="46.00484" lon="4.64656">
        <ele>439</ele>
        <time>2020-06-06T07:44:13Z</time>
      </trkpt>
      <trkpt lat="46.00484" lon="4.6467">
        <ele>438.8</ele>
        <time>2020-06-06T07:44:17Z</time>
      </trkpt>
      <trkpt lat="46.00484" lon="4.64683">
        <ele>439.6</ele>
        <time>2020-06-06T07:44:21Z</time>
      </trkpt>
      <trkpt lat="46.00483" lon="4.64697">
        <ele>440.4</ele>
        <time>2020-06-06T07:44:25Z</time>
      </trkpt>
      <trkpt lat="46.00483" lon="4.6471">
        <ele>441.6</ele>
        <time>2020-06-06T07:44:29Z</time>
      </trkpt>
      <trkpt lat="46.00484" lon="4.64722">
        <ele>441.6</ele>
        <time>2020-06-06T07:44:33Z</time>
      </trkpt>
      <trkpt lat="46.00485" lon="4.64734">
        <ele>442.2</ele>
        <time>2020-06-06T07:44:37Z</time>
      </trkpt>
      <trkpt lat="46.00485" lon="4.64748">
        <ele>443</ele>
        <time>2020-06-06T07:44:41Z</time>
      </trkpt>
      <trkpt lat="46.00486" lon="4.64761">
        <ele>443.6</ele>
        <time>2020-06-06T07:44:45Z</time>
      </trkpt>
      <trkpt lat="46.00487" lon="4.64775">
        <ele>444.6</ele>
        <time>2020-06-06T07:44:49Z</time>
      </trkpt>
      <trkpt lat="46.00488" lon="4.64788">
        <ele>445</ele>
        <time>2020-06-06T07:44:53Z</time>
      </trkpt>
      <trkpt lat="46.00489" lon="4.648">
        <ele>446.4</ele>
        <time>2020-06-06T07:44:57Z</time>
      </trkpt>
      <trkpt lat="46.0049" lon="4.64813">
        <ele>446.6</ele>
        <time>2020-06-06T07:45:01Z</time>
      </trkpt>
      <trkpt lat="46.00491" lon="4.64828">
        <ele>447.6</ele>
        <time>2020-06-06T07:45:05Z</time>
      </trkpt>
      <trkpt lat="46.00493" lon="4.64844">
        <ele>448.2</ele>
        <time>2020-06-06T07:45:09Z</time>
      </trkpt>
      <trkpt lat="46.00498" lon="4.6486">
        <ele>448.8</ele>
        <time>2020-06-06T07:45:13Z</time>
      </trkpt>
      <trkpt lat="46.00504" lon="4.64875">
        <ele>449.4</ele>
        <time>2020-06-06T07:45:17Z</time>
      </trkpt>
      <trkpt lat="46.00512" lon="4.64885">
        <ele>450.4</ele>
        <time>2020-06-06T07:45:21Z</time>
      </trkpt>
      <trkpt lat="46.00521" lon="4.64892">
        <ele>450.8</ele>
        <time>2020-06-06T07:45:25Z</time>
      </trkpt>
      <trkpt lat="46.00532" lon="4.64897">
        <ele>451.2</ele>
        <time>2020-06-06T07:45:29Z</time>
      </trkpt>
      <trkpt lat="46.00544" lon="4.64901">
        <ele>451.8</ele>
        <time>2020-06-06T07:45:33Z</time>
      </trkpt>
      <trkpt lat="46.00558" lon="4.64903">
        <ele>451.4</ele>
        <time>2020-06-06T07:45:37Z</time>
      </trkpt>
      <trkpt lat="46.00572" lon="4.64904">
        <ele>451.8</ele>
        <time>2020-06-06T07:45:41Z</time>
      </trkpt>
      <trkpt lat="46.00586" lon="4.64905">
        <ele>451.8</ele>
        <time>2020-06-06T07:45:45Z</time>
      </trkpt>
      <trkpt lat="46.006" lon="4.64905">
        <ele>452</ele>
        <time>2020-06-06T07:45:49Z</time>
      </trkpt>
      <trkpt lat="46.00614" lon="4.64905">
        <ele>451.8</ele>
        <time>2020-06-06T07:45:53Z</time>
      </trkpt>
      <trkpt lat="46.00629" lon="4.64905">
        <ele>451.6</ele>
        <time>2020-06-06T07:45:57Z</time>
      </trkpt>
      <trkpt lat="46.00645" lon="4.64906">
        <ele>451.4</ele>
        <time>2020-06-06T07:46:01Z</time>
      </trkpt>
      <trkpt lat="46.00662" lon="4.64907">
        <ele>450.8</ele>
        <time>2020-06-06T07:46:05Z</time>
      </trkpt>
      <trkpt lat="46.00681" lon="4.64909">
        <ele>450.8</ele>
        <time>2020-06-06T07:46:09Z</time>
      </trkpt>
      <trkpt lat="46.00701" lon="4.64912">
        <ele>449.4</ele>
        <time>2020-06-06T07:46:13Z</time>
      </trkpt>
      <trkpt lat="46.00723" lon="4.64914">
        <ele>449</ele>
        <time>2020-06-06T07:46:17Z</time>
      </trkpt>
      <trkpt lat="46.00747" lon="4.64918">
        <ele>447.6</ele>
        <time>2020-06-06T07:46:21Z</time>
      </trkpt>
      <trkpt lat="46.00771" lon="4.6492">
        <ele>447.2</ele>
        <time>2020-06-06T07:46:25Z</time>
      </trkpt>
      <trkpt lat="46.00789" lon="4.64922">
        <ele>447.2</ele>
        <time>2020-06-06T07:46:29Z</time>
      </trkpt>
      <trkpt lat="46.00798" lon="4.64915">
        <ele>447.2</ele>
        <time>2020-06-06T07:46:33Z</time>
      </trkpt>
      <trkpt lat="46.00798" lon="4.64898">
        <ele>448</ele>
        <time>2020-06-06T07:46:37Z</time>
      </trkpt>
      <trkpt lat="46.00796" lon="4.6488">
        <ele>448.4</ele>
        <time>2020-06-06T07:46:41Z</time>
      </trkpt>
      <trkpt lat="46.00794" lon="4.64862">
        <ele>449</ele>
        <time>2020-06-06T07:46:45Z</time>
      </trkpt>
      <trkpt lat="46.00791" lon="4.64845">
        <ele>450.2</ele>
        <time>2020-06-06T07:46:49Z</time>
      </trkpt>
      <trkpt lat="46.00788" lon="4.64828">
        <ele>450</ele>
        <time>2020-06-06T07:46:53Z</time>
      </trkpt>
      <trkpt lat="46.00786" lon="4.64811">
        <ele>450.6</ele>
        <time>2020-06-06T07:46:57Z</time>
      </trkpt>
      <trkpt lat="46.00783" lon="4.64795">
        <ele>451</ele>
        <time>2020-06-06T07:47:01Z</time>
      </trkpt>
      <trkpt lat="46.00781" lon="4.64779">
        <ele>451.6</ele>
        <time>2020-06-06T07:47:05Z</time>
      </trkpt>
      <trkpt lat="46.00778" lon="4.64764">
        <ele>452.4</ele>
        <time>2020-06-06T07:47:09Z</time>
      </trkpt>
      <trkpt lat="46.00776" lon="4.64748">
        <ele>453.2</ele>
        <time>2020-06-06T07:47:13Z</time>
      </trkpt>
      <trkpt lat="46.00774" lon="4.64732">
        <ele>453.6</ele>
        <time>2020-06-06T07:47:17Z</time>
      </trkpt>
      <trkpt lat="46.00772" lon="4.64715">
        <ele>454.4</ele>
        <time>2020-06-06T07:47:21Z</time>
      </trkpt>
      <trkpt lat="46.00771" lon="4.64699">
        <ele>454.8</ele>
        <time>2020-06-06T07:47:25Z</time>
      </trkpt>
      <trkpt lat="46.00769" lon="4.64682">
        <ele>455.8</ele>
        <time>2020-06-06T07:47:29Z</time>
      </trkpt>
      <trkpt lat="46.00767" lon="4.64667">
        <ele>456.6</ele>
        <time>2020-06-06T07:47:33Z</time>
      </trkpt>
      <trkpt lat="46.00765" lon="4.64651">
        <ele>456.8</ele>
        <time>2020-06-06T07:47:37Z</time>
      </trkpt>
      <trkpt lat="46.00763" lon="4.64636">
        <ele>457.6</ele>
        <time>2020-06-06T07:47:41Z</time>
      </trkpt>
      <trkpt lat="46.00762" lon="4.64621">
        <ele>457.8</ele>
        <time>2020-06-06T07:47:45Z</time>
      </trkpt>
      <trkpt lat="46.00761" lon="4.64605">
        <ele>458.6</ele>
        <time>2020-06-06T07:47:49Z</time>
      </trkpt>
      <trkpt lat="46.00761" lon="4.64589">
        <ele>459.6</ele>
        <time>2020-06-06T07:47:53Z</time>
      </trkpt>
      <trkpt lat="46.00763" lon="4.64573">
        <ele>460.4</ele>
        <time>2020-06-06T07:47:57Z</time>
      </trkpt>
      <trkpt lat="46.00764" lon="4.64558">
        <ele>461.4</ele>
        <time>2020-06-06T07:48:01Z</time>
      </trkpt>
      <trkpt lat="46.00764" lon="4.64542">
        <ele>461.6</ele>
        <time>2020-06-06T07:48:05Z</time>
      </trkpt>
      <trkpt lat="46.00762" lon="4.64525">
        <ele>462.2</ele>
        <time>2020-06-06T07:48:09Z</time>
      </trkpt>
      <trkpt lat="46.00758" lon="4.64508">
        <ele>463.2</ele>
        <time>2020-06-06T07:48:13Z</time>
      </trkpt>
      <trkpt lat="46.00753" lon="4.64491">
        <ele>463.6</ele>
        <time>2020-06-06T07:48:17Z</time>
      </trkpt>
      <trkpt lat="46.00749" lon="4.64474">
        <ele>464.6</ele>
        <time>2020-06-06T07:48:21Z</time>
      </trkpt>
      <trkpt lat="46.00746" lon="4.64457">
        <ele>464</ele>
        <time>2020-06-06T07:48:25Z</time>
      </trkpt>
      <trkpt lat="46.00746" lon="4.6444">
        <ele>465</ele>
        <time>2020-06-06T07:48:29Z</time>
      </trkpt>
      <trkpt lat="46.00749" lon="4.64423">
        <ele>465</ele>
        <time>2020-06-06T07:48:33Z</time>
      </trkpt>
      <trkpt lat="46.00751" lon="4.64405">
        <ele>465.8</ele>
        <time>2020-06-06T07:48:37Z</time>
      </trkpt>
      <trkpt lat="46.00754" lon="4.64388">
        <ele>466.4</ele>
        <time>2020-06-06T07:48:41Z</time>
      </trkpt>
      <trkpt lat="46.00757" lon="4.6437">
        <ele>466.4</ele>
        <time>2020-06-06T07:48:45Z</time>
      </trkpt>
      <trkpt lat="46.00761" lon="4.64352">
        <ele>467.2</ele>
        <time>2020-06-06T07:48:49Z</time>
      </trkpt>
      <trkpt lat="46.00764" lon="4.64334">
        <ele>467.4</ele>
        <time>2020-06-06T07:48:53Z</time>
      </trkpt>
      <trkpt lat="46.00768" lon="4.64315">
        <ele>468</ele>
        <time>2020-06-06T07:48:57Z</time>
      </trkpt>
      <trkpt lat="46.0077" lon="4.64298">
        <ele>468.8</ele>
        <time>2020-06-06T07:49:01Z</time>
      </trkpt>
      <trkpt lat="46.00773" lon="4.64281">
        <ele>469.8</ele>
        <time>2020-06-06T07:49:05Z</time>
      </trkpt>
      <trkpt lat="46.00777" lon="4.64264">
        <ele>469.2</ele>
        <time>2020-06-06T07:49:09Z</time>
      </trkpt>
      <trkpt lat="46.0078" lon="4.64245">
        <ele>469.6</ele>
        <time>2020-06-06T07:49:13Z</time>
      </trkpt>
      <trkpt lat="46.00784" lon="4.64227">
        <ele>470.4</ele>
        <time>2020-06-06T07:49:17Z</time>
      </trkpt>
      <trkpt lat="46.00787" lon="4.64208">
        <ele>470.4</ele>
        <time>2020-06-06T07:49:21Z</time>
      </trkpt>
      <trkpt lat="46.00791" lon="4.6419">
        <ele>470.4</ele>
        <time>2020-06-06T07:49:25Z</time>
      </trkpt>
      <trkpt lat="46.00794" lon="4.6417">
        <ele>470.2</ele>
        <time>2020-06-06T07:49:29Z</time>
      </trkpt>
      <trkpt lat="46.00797" lon="4.64151">
        <ele>470.6</ele>
        <time>2020-06-06T07:49:33Z</time>
      </trkpt>
      <trkpt lat="46.00799" lon="4.64131">
        <ele>470.6</ele>
        <time>2020-06-06T07:49:37Z</time>
      </trkpt>
      <trkpt lat="46.00799" lon="4.64131">
        <ele>470.6</ele>
        <time>2020-06-06T07:49:41Z</time>
      </trkpt>
      <trkpt lat="46.008" lon="4.64106">
        <ele>470.8</ele>
        <time>2020-06-06T07:49:45Z</time>
      </trkpt>
      <trkpt lat="46.008" lon="4.64086">
        <ele>470.6</ele>
        <time>2020-06-06T07:49:49Z</time>
      </trkpt>
      <trkpt lat="46.00801" lon="4.64066">
        <ele>471</ele>
        <time>2020-06-06T07:49:53Z</time>
      </trkpt>
      <trkpt lat="46.00801" lon="4.64046">
        <ele>471.2</ele>
        <time>2020-06-06T07:49:57Z</time>
      </trkpt>
      <trkpt lat="46.00802" lon="4.64026">
        <ele>471.6</ele>
        <time>2020-06-06T07:50:01Z</time>
      </trkpt>
      <trkpt lat="46.00802" lon="4.64007">
        <ele>472</ele>
        <time>2020-06-06T07:50:05Z</time>
      </trkpt>
      <trkpt lat="46.00803" lon="4.63988">
        <ele>472.2</ele>
        <time>2020-06-06T07:50:09Z</time>
      </trkpt>
      <trkpt lat="46.00804" lon="4.63969">
        <ele>472.6</ele>
        <time>2020-06-06T07:50:13Z</time>
      </trkpt>
      <trkpt lat="46.00805" lon="4.6395">
        <ele>472.8</ele>
        <time>2020-06-06T07:50:17Z</time>
      </trkpt>
      <trkpt lat="46.00807" lon="4.63931">
        <ele>473.6</ele>
        <time>2020-06-06T07:50:21Z</time>
      </trkpt>
      <trkpt lat="46.0081" lon="4.63912">
        <ele>474.2</ele>
        <time>2020-06-06T07:50:25Z</time>
      </trkpt>
      <trkpt lat="46.00811" lon="4.63894">
        <ele>474.6</ele>
        <time>2020-06-06T07:50:29Z</time>
      </trkpt>
      <trkpt lat="46.00813" lon="4.63878">
        <ele>475.2</ele>
        <time>2020-06-06T07:50:33Z</time>
      </trkpt>
      <trkpt lat="46.00815" lon="4.63861">
        <ele>476</ele>
        <time>2020-06-06T07:50:37Z</time>
      </trkpt>
      <trkpt lat="46.00818" lon="4.63844">
        <ele>476.4</ele>
        <time>2020-06-06T07:50:41Z</time>
      </trkpt>
      <trkpt lat="46.0082" lon="4.63827">
        <ele>476.6</ele>
        <time>2020-06-06T07:50:45Z</time>
      </trkpt>
      <trkpt lat="46.00823" lon="4.63811">
        <ele>477.2</ele>
        <time>2020-06-06T07:50:49Z</time>
      </trkpt>
      <trkpt lat="46.00825" lon="4.63796">
        <ele>477.6</ele>
        <time>2020-06-06T07:50:53Z</time>
      </trkpt>
      <trkpt lat="46.00828" lon="4.63781">
        <ele>478.6</ele>
        <time>2020-06-06T07:50:57Z</time>
      </trkpt>
      <trkpt lat="46.0083" lon="4.63766">
        <ele>478.8</ele>
        <time>2020-06-06T07:51:01Z</time>
      </trkpt>
      <trkpt lat="46.00832" lon="4.6375">
        <ele>479.6</ele>
        <time>2020-06-06T07:51:05Z</time>
      </trkpt>
      <trkpt lat="46.00834" lon="4.63735">
        <ele>479.8</ele>
        <time>2020-06-06T07:51:09Z</time>
      </trkpt>
      <trkpt lat="46.00837" lon="4.63721">
        <ele>480.4</ele>
        <time>2020-06-06T07:51:13Z</time>
      </trkpt>
      <trkpt lat="46.00839" lon="4.63707">
        <ele>481.6</ele>
        <time>2020-06-06T07:51:17Z</time>
      </trkpt>
      <trkpt lat="46.00841" lon="4.63695">
        <ele>482</ele>
        <time>2020-06-06T07:51:21Z</time>
      </trkpt>
      <trkpt lat="46.00844" lon="4.63682">
        <ele>482.6</ele>
        <time>2020-06-06T07:51:25Z</time>
      </trkpt>
      <trkpt lat="46.00846" lon="4.63669">
        <ele>483.8</ele>
        <time>2020-06-06T07:51:29Z</time>
      </trkpt>
      <trkpt lat="46.00849" lon="4.63657">
        <ele>484.2</ele>
        <time>2020-06-06T07:51:33Z</time>
      </trkpt>
      <trkpt lat="46.00851" lon="4.63644">
        <ele>485</ele>
        <time>2020-06-06T07:51:37Z</time>
      </trkpt>
      <trkpt lat="46.00854" lon="4.63632">
        <ele>485.6</ele>
        <time>2020-06-06T07:51:41Z</time>
      </trkpt>
      <trkpt lat="46.00856" lon="4.63619">
        <ele>486.4</ele>
        <time>2020-06-06T07:51:45Z</time>
      </trkpt>
      <trkpt lat="46.00858" lon="4.63606">
        <ele>486.8</ele>
        <time>2020-06-06T07:51:49Z</time>
      </trkpt>
      <trkpt lat="46.0086" lon="4.63593">
        <ele>487</ele>
        <time>2020-06-06T07:51:53Z</time>
      </trkpt>
      <trkpt lat="46.00863" lon="4.63581">
        <ele>488.6</ele>
        <time>2020-06-06T07:51:57Z</time>
      </trkpt>
      <trkpt lat="46.00865" lon="4.63569">
        <ele>488.6</ele>
        <time>2020-06-06T07:52:01Z</time>
      </trkpt>
      <trkpt lat="46.00867" lon="4.63556">
        <ele>489.4</ele>
        <time>2020-06-06T07:52:05Z</time>
      </trkpt>
      <trkpt lat="46.00869" lon="4.63543">
        <ele>490</ele>
        <time>2020-06-06T07:52:09Z</time>
      </trkpt>
      <trkpt lat="46.00873" lon="4.63531">
        <ele>490.8</ele>
        <time>2020-06-06T07:52:13Z</time>
      </trkpt>
      <trkpt lat="46.00875" lon="4.63518">
        <ele>491.8</ele>
        <time>2020-06-06T07:52:17Z</time>
      </trkpt>
      <trkpt lat="46.00877" lon="4.63506">
        <ele>491.6</ele>
        <time>2020-06-06T07:52:21Z</time>
      </trkpt>
      <trkpt lat="46.0088" lon="4.63494">
        <ele>493</ele>
        <time>2020-06-06T07:52:25Z</time>
      </trkpt>
      <trkpt lat="46.00883" lon="4.63482">
        <ele>493.8</ele>
        <time>2020-06-06T07:52:29Z</time>
      </trkpt>
      <trkpt lat="46.00885" lon="4.63471">
        <ele>494.8</ele>
        <time>2020-06-06T07:52:33Z</time>
      </trkpt>
      <trkpt lat="46.00887" lon="4.63459">
        <ele>494.8</ele>
        <time>2020-06-06T07:52:37Z</time>
      </trkpt>
      <trkpt lat="46.0089" lon="4.63447">
        <ele>496</ele>
        <time>2020-06-06T07:52:41Z</time>
      </trkpt>
      <trkpt lat="46.00893" lon="4.63434">
        <ele>496.4</ele>
        <time>2020-06-06T07:52:45Z</time>
      </trkpt>
      <trkpt lat="46.00895" lon="4.63422">
        <ele>497.2</ele>
        <time>2020-06-06T07:52:49Z</time>
      </trkpt>
      <trkpt lat="46.00898" lon="4.63409">
        <ele>497.8</ele>
        <time>2020-06-06T07:52:53Z</time>
      </trkpt>
      <trkpt lat="46.00901" lon="4.63397">
        <ele>498.4</ele>
        <time>2020-06-06T07:52:57Z</time>
      </trkpt>
      <trkpt lat="46.00904" lon="4.63384">
        <ele>499.4</ele>
        <time>2020-06-06T07:53:01Z</time>
      </trkpt>
      <trkpt lat="46.00906" lon="4.63371">
        <ele>500.2</ele>
        <time>2020-06-06T07:53:05Z</time>
      </trkpt>
      <trkpt lat="46.0091" lon="4.63359">
        <ele>500.6</ele>
        <time>2020-06-06T07:53:09Z</time>
      </trkpt>
      <trkpt lat="46.00913" lon="4.63347">
        <ele>501.4</ele>
        <time>2020-06-06T07:53:13Z</time>
      </trkpt>
      <trkpt lat="46.00917" lon="4.63335">
        <ele>501.8</ele>
        <time>2020-06-06T07:53:17Z</time>
      </trkpt>
      <trkpt lat="46.0092" lon="4.63324">
        <ele>502.6</ele>
        <time>2020-06-06T07:53:21Z</time>
      </trkpt>
      <trkpt lat="46.00925" lon="4.63313">
        <ele>502.6</ele>
        <time>2020-06-06T07:53:25Z</time>
      </trkpt>
      <trkpt lat="46.00929" lon="4.63301">
        <ele>503.8</ele>
        <time>2020-06-06T07:53:29Z</time>
      </trkpt>
      <trkpt lat="46.00932" lon="4.63289">
        <ele>504.4</ele>
        <time>2020-06-06T07:53:33Z</time>
      </trkpt>
      <trkpt lat="46.00936" lon="4.63277">
        <ele>504.8</ele>
        <time>2020-06-06T07:53:37Z</time>
      </trkpt>
      <trkpt lat="46.00939" lon="4.63265">
        <ele>505.8</ele>
        <time>2020-06-06T07:53:41Z</time>
      </trkpt>
      <trkpt lat="46.00941" lon="4.63252">
        <ele>506.2</ele>
        <time>2020-06-06T07:53:45Z</time>
      </trkpt>
      <trkpt lat="46.00942" lon="4.6324">
        <ele>506.8</ele>
        <time>2020-06-06T07:53:49Z</time>
      </trkpt>
      <trkpt lat="46.00942" lon="4.63226">
        <ele>507.2</ele>
        <time>2020-06-06T07:53:53Z</time>
      </trkpt>
      <trkpt lat="46.00942" lon="4.63213">
        <ele>507.6</ele>
        <time>2020-06-06T07:53:57Z</time>
      </trkpt>
      <trkpt lat="46.00941" lon="4.632">
        <ele>508.2</ele>
        <time>2020-06-06T07:54:01Z</time>
      </trkpt>
      <trkpt lat="46.0094" lon="4.63186">
        <ele>508.4</ele>
        <time>2020-06-06T07:54:05Z</time>
      </trkpt>
      <trkpt lat="46.00939" lon="4.63173">
        <ele>508.8</ele>
        <time>2020-06-06T07:54:09Z</time>
      </trkpt>
      <trkpt lat="46.00939" lon="4.63159">
        <ele>509.4</ele>
        <time>2020-06-06T07:54:13Z</time>
      </trkpt>
      <trkpt lat="46.0094" lon="4.63146">
        <ele>510.2</ele>
        <time>2020-06-06T07:54:17Z</time>
      </trkpt>
      <trkpt lat="46.00941" lon="4.63134">
        <ele>511.2</ele>
        <time>2020-06-06T07:54:21Z</time>
      </trkpt>
      <trkpt lat="46.00944" lon="4.63122">
        <ele>512.2</ele>
        <time>2020-06-06T07:54:25Z</time>
      </trkpt>
      <trkpt lat="46.00947" lon="4.63111">
        <ele>513.4</ele>
        <time>2020-06-06T07:54:29Z</time>
      </trkpt>
      <trkpt lat="46.00952" lon="4.63101">
        <ele>514.2</ele>
        <time>2020-06-06T07:54:33Z</time>
      </trkpt>
      <trkpt lat="46.00958" lon="4.63093">
        <ele>514.8</ele>
        <time>2020-06-06T07:54:37Z</time>
      </trkpt>
      <trkpt lat="46.00966" lon="4.63086">
        <ele>515.8</ele>
        <time>2020-06-06T07:54:41Z</time>
      </trkpt>
      <trkpt lat="46.00975" lon="4.63081">
        <ele>516.4</ele>
        <time>2020-06-06T07:54:45Z</time>
      </trkpt>
      <trkpt lat="46.00984" lon="4.63077">
        <ele>517.4</ele>
        <time>2020-06-06T07:54:49Z</time>
      </trkpt>
      <trkpt lat="46.00993" lon="4.63073">
        <ele>517.4</ele>
        <time>2020-06-06T07:54:53Z</time>
      </trkpt>
      <trkpt lat="46.01002" lon="4.63069">
        <ele>517.8</ele>
        <time>2020-06-06T07:54:57Z</time>
      </trkpt>
      <trkpt lat="46.01011" lon="4.63065">
        <ele>517.8</ele>
        <time>2020-06-06T07:55:01Z</time>
      </trkpt>
      <trkpt lat="46.0102" lon="4.6306">
        <ele>519</ele>
        <time>2020-06-06T07:55:05Z</time>
      </trkpt>
      <trkpt lat="46.01028" lon="4.63055">
        <ele>519.8</ele>
        <time>2020-06-06T07:55:09Z</time>
      </trkpt>
      <trkpt lat="46.01037" lon="4.6305">
        <ele>519.8</ele>
        <time>2020-06-06T07:55:13Z</time>
      </trkpt>
      <trkpt lat="46.01045" lon="4.63042">
        <ele>520.6</ele>
        <time>2020-06-06T07:55:17Z</time>
      </trkpt>
      <trkpt lat="46.01052" lon="4.63034">
        <ele>521.6</ele>
        <time>2020-06-06T07:55:21Z</time>
      </trkpt>
      <trkpt lat="46.01058" lon="4.63024">
        <ele>522</ele>
        <time>2020-06-06T07:55:25Z</time>
      </trkpt>
      <trkpt lat="46.01063" lon="4.63014">
        <ele>523</ele>
        <time>2020-06-06T07:55:29Z</time>
      </trkpt>
      <trkpt lat="46.01068" lon="4.63003">
        <ele>523.4</ele>
        <time>2020-06-06T07:55:33Z</time>
      </trkpt>
      <trkpt lat="46.01073" lon="4.62992">
        <ele>524.4</ele>
        <time>2020-06-06T07:55:37Z</time>
      </trkpt>
      <trkpt lat="46.01078" lon="4.62981">
        <ele>525</ele>
        <time>2020-06-06T07:55:41Z</time>
      </trkpt>
      <trkpt lat="46.01083" lon="4.6297">
        <ele>526</ele>
        <time>2020-06-06T07:55:45Z</time>
      </trkpt>
      <trkpt lat="46.01089" lon="4.62962">
        <ele>526.4</ele>
        <time>2020-06-06T07:55:49Z</time>
      </trkpt>
      <trkpt lat="46.01095" lon="4.62953">
        <ele>527.4</ele>
        <time>2020-06-06T07:55:53Z</time>
      </trkpt>
      <trkpt lat="46.01102" lon="4.62945">
        <ele>528.4</ele>
        <time>2020-06-06T07:55:57Z</time>
      </trkpt>
      <trkpt lat="46.01108" lon="4.62936">
        <ele>528.4</ele>
        <time>2020-06-06T07:56:01Z</time>
      </trkpt>
      <trkpt lat="46.01115" lon="4.62927">
        <ele>529.6</ele>
        <time>2020-06-06T07:56:05Z</time>
      </trkpt>
      <trkpt lat="46.01122" lon="4.62918">
        <ele>530</ele>
        <time>2020-06-06T07:56:09Z</time>
      </trkpt>
      <trkpt lat="46.0113" lon="4.62911">
        <ele>530.4</ele>
        <time>2020-06-06T07:56:13Z</time>
      </trkpt>
      <trkpt lat="46.01139" lon="4.62905">
        <ele>531.2</ele>
        <time>2020-06-06T07:56:17Z</time>
      </trkpt>
      <trkpt lat="46.01148" lon="4.62898">
        <ele>531.8</ele>
        <time>2020-06-06T07:56:21Z</time>
      </trkpt>
      <trkpt lat="46.01157" lon="4.62892">
        <ele>531.8</ele>
        <time>2020-06-06T07:56:25Z</time>
      </trkpt>
      <trkpt lat="46.01166" lon="4.62886">
        <ele>532.6</ele>
        <time>2020-06-06T07:56:29Z</time>
      </trkpt>
      <trkpt lat="46.01175" lon="4.62881">
        <ele>533.6</ele>
        <time>2020-06-06T07:56:33Z</time>
      </trkpt>
      <trkpt lat="46.01185" lon="4.62876">
        <ele>533.8</ele>
        <time>2020-06-06T07:56:37Z</time>
      </trkpt>
      <trkpt lat="46.01194" lon="4.62871">
        <ele>534.4</ele>
        <time>2020-06-06T07:56:41Z</time>
      </trkpt>
      <trkpt lat="46.01204" lon="4.62866">
        <ele>534.8</ele>
        <time>2020-06-06T07:56:45Z</time>
      </trkpt>
      <trkpt lat="46.01214" lon="4.62862">
        <ele>535.4</ele>
        <time>2020-06-06T07:56:49Z</time>
      </trkpt>
      <trkpt lat="46.01224" lon="4.62858">
        <ele>536</ele>
        <time>2020-06-06T07:56:53Z</time>
      </trkpt>
      <trkpt lat="46.01237" lon="4.62854">
        <ele>536.6</ele>
        <time>2020-06-06T07:56:57Z</time>
      </trkpt>
      <trkpt lat="46.01251" lon="4.6285">
        <ele>537.4</ele>
        <time>2020-06-06T07:57:01Z</time>
      </trkpt>
      <trkpt lat="46.01261" lon="4.62848">
        <ele>537.6</ele>
        <time>2020-06-06T07:57:05Z</time>
      </trkpt>
      <trkpt lat="46.01272" lon="4.62846">
        <ele>538.4</ele>
        <time>2020-06-06T07:57:09Z</time>
      </trkpt>
      <trkpt lat="46.01282" lon="4.62845">
        <ele>539.8</ele>
        <time>2020-06-06T07:57:13Z</time>
      </trkpt>
      <trkpt lat="46.01295" lon="4.62845">
        <ele>540</ele>
        <time>2020-06-06T07:57:17Z</time>
      </trkpt>
      <trkpt lat="46.01305" lon="4.62846">
        <ele>541.4</ele>
        <time>2020-06-06T07:57:21Z</time>
      </trkpt>
      <trkpt lat="46.01314" lon="4.62847">
        <ele>542.2</ele>
        <time>2020-06-06T07:57:25Z</time>
      </trkpt>
      <trkpt lat="46.01324" lon="4.62846">
        <ele>542.8</ele>
        <time>2020-06-06T07:57:29Z</time>
      </trkpt>
      <trkpt lat="46.01333" lon="4.62844">
        <ele>543.6</ele>
        <time>2020-06-06T07:57:33Z</time>
      </trkpt>
      <trkpt lat="46.01343" lon="4.62841">
        <ele>543.8</ele>
        <time>2020-06-06T07:57:37Z</time>
      </trkpt>
      <trkpt lat="46.01352" lon="4.62838">
        <ele>544.4</ele>
        <time>2020-06-06T07:57:41Z</time>
      </trkpt>
      <trkpt lat="46.01362" lon="4.62835">
        <ele>545.4</ele>
        <time>2020-06-06T07:57:45Z</time>
      </trkpt>
      <trkpt lat="46.01371" lon="4.62832">
        <ele>545.4</ele>
        <time>2020-06-06T07:57:49Z</time>
      </trkpt>
      <trkpt lat="46.01381" lon="4.62831">
        <ele>546</ele>
        <time>2020-06-06T07:57:53Z</time>
      </trkpt>
      <trkpt lat="46.01391" lon="4.62832">
        <ele>546.6</ele>
        <time>2020-06-06T07:57:57Z</time>
      </trkpt>
      <trkpt lat="46.01402" lon="4.62835">
        <ele>546.8</ele>
        <time>2020-06-06T07:58:01Z</time>
      </trkpt>
      <trkpt lat="46.01412" lon="4.6284">
        <ele>547.8</ele>
        <time>2020-06-06T07:58:05Z</time>
      </trkpt>
      <trkpt lat="46.01422" lon="4.62844">
        <ele>547.8</ele>
        <time>2020-06-06T07:58:09Z</time>
      </trkpt>
      <trkpt lat="46.01422" lon="4.62844">
        <ele>548</ele>
        <time>2020-06-06T07:58:13Z</time>
      </trkpt>
      <trkpt lat="46.01435" lon="4.62851">
        <ele>548.2</ele>
        <time>2020-06-06T07:58:17Z</time>
      </trkpt>
      <trkpt lat="46.01445" lon="4.62857">
        <ele>549.8</ele>
        <time>2020-06-06T07:58:21Z</time>
      </trkpt>
      <trkpt lat="46.01455" lon="4.62863">
        <ele>550</ele>
        <time>2020-06-06T07:58:25Z</time>
      </trkpt>
      <trkpt lat="46.01465" lon="4.62868">
        <ele>550.4</ele>
        <time>2020-06-06T07:58:29Z</time>
      </trkpt>
      <trkpt lat="46.01475" lon="4.62872">
        <ele>550.8</ele>
        <time>2020-06-06T07:58:33Z</time>
      </trkpt>
      <trkpt lat="46.01486" lon="4.62877">
        <ele>551.2</ele>
        <time>2020-06-06T07:58:37Z</time>
      </trkpt>
      <trkpt lat="46.01496" lon="4.62882">
        <ele>551.6</ele>
        <time>2020-06-06T07:58:41Z</time>
      </trkpt>
      <trkpt lat="46.01507" lon="4.62885">
        <ele>551.8</ele>
        <time>2020-06-06T07:58:45Z</time>
      </trkpt>
      <trkpt lat="46.01518" lon="4.62883">
        <ele>551.8</ele>
        <time>2020-06-06T07:58:49Z</time>
      </trkpt>
      <trkpt lat="46.01529" lon="4.62877">
        <ele>552.2</ele>
        <time>2020-06-06T07:58:53Z</time>
      </trkpt>
      <trkpt lat="46.01537" lon="4.62866">
        <ele>552.6</ele>
        <time>2020-06-06T07:58:57Z</time>
      </trkpt>
      <trkpt lat="46.01543" lon="4.62853">
        <ele>553</ele>
        <time>2020-06-06T07:59:01Z</time>
      </trkpt>
      <trkpt lat="46.01548" lon="4.6284">
        <ele>553.8</ele>
        <time>2020-06-06T07:59:05Z</time>
      </trkpt>
      <trkpt lat="46.01551" lon="4.62827">
        <ele>554.4</ele>
        <time>2020-06-06T07:59:09Z</time>
      </trkpt>
      <trkpt lat="46.01555" lon="4.62815">
        <ele>554.8</ele>
        <time>2020-06-06T07:59:13Z</time>
      </trkpt>
      <trkpt lat="46.01558" lon="4.62802">
        <ele>555.4</ele>
        <time>2020-06-06T07:59:17Z</time>
      </trkpt>
      <trkpt lat="46.01562" lon="4.6279">
        <ele>556</ele>
        <time>2020-06-06T07:59:21Z</time>
      </trkpt>
      <trkpt lat="46.01566" lon="4.62777">
        <ele>556.6</ele>
        <time>2020-06-06T07:59:25Z</time>
      </trkpt>
      <trkpt lat="46.01569" lon="4.62764">
        <ele>557.8</ele>
        <time>2020-06-06T07:59:29Z</time>
      </trkpt>
      <trkpt lat="46.01573" lon="4.62751">
        <ele>557.8</ele>
        <time>2020-06-06T07:59:33Z</time>
      </trkpt>
      <trkpt lat="46.01576" lon="4.62739">
        <ele>558.8</ele>
        <time>2020-06-06T07:59:37Z</time>
      </trkpt>
      <trkpt lat="46.0158" lon="4.62726">
        <ele>559.4</ele>
        <time>2020-06-06T07:59:41Z</time>
      </trkpt>
      <trkpt lat="46.01584" lon="4.6271">
        <ele>560.4</ele>
        <time>2020-06-06T07:59:45Z</time>
      </trkpt>
      <trkpt lat="46.01587" lon="4.62697">
        <ele>561.2</ele>
        <time>2020-06-06T07:59:49Z</time>
      </trkpt>
      <trkpt lat="46.0159" lon="4.62684">
        <ele>562</ele>
        <time>2020-06-06T07:59:53Z</time>
      </trkpt>
      <trkpt lat="46.01593" lon="4.62671">
        <ele>562.8</ele>
        <time>2020-06-06T07:59:57Z</time>
      </trkpt>
      <trkpt lat="46.01596" lon="4.62658">
        <ele>563.2</ele>
        <time>2020-06-06T08:00:01Z</time>
      </trkpt>
      <trkpt lat="46.01599" lon="4.62645">
        <ele>564.2</ele>
        <time>2020-06-06T08:00:05Z</time>
      </trkpt>
      <trkpt lat="46.01602" lon="4.62633">
        <ele>564.4</ele>
        <time>2020-06-06T08:00:09Z</time>
      </trkpt>
      <trkpt lat="46.01604" lon="4.62621">
        <ele>565</ele>
        <time>2020-06-06T08:00:13Z</time>
      </trkpt>
      <trkpt lat="46.01608" lon="4.62596">
        <ele>565.4</ele>
        <time>2020-06-06T08:01:32Z</time>
      </trkpt>
      <trkpt lat="46.0161" lon="4.62583">
        <ele>566.4</ele>
        <time>2020-06-06T08:01:36Z</time>
      </trkpt>
      <trkpt lat="46.01612" lon="4.62569">
        <ele>567</ele>
        <time>2020-06-06T08:01:40Z</time>
      </trkpt>
      <trkpt lat="46.01613" lon="4.62555">
        <ele>567.2</ele>
        <time>2020-06-06T08:01:44Z</time>
      </trkpt>
      <trkpt lat="46.01615" lon="4.62541">
        <ele>568</ele>
        <time>2020-06-06T08:01:48Z</time>
      </trkpt>
      <trkpt lat="46.01616" lon="4.62529">
        <ele>568.4</ele>
        <time>2020-06-06T08:01:52Z</time>
      </trkpt>
      <trkpt lat="46.01618" lon="4.62516">
        <ele>569</ele>
        <time>2020-06-06T08:01:56Z</time>
      </trkpt>
      <trkpt lat="46.01619" lon="4.62503">
        <ele>569.6</ele>
        <time>2020-06-06T08:02:00Z</time>
      </trkpt>
      <trkpt lat="46.0162" lon="4.6249">
        <ele>570.2</ele>
        <time>2020-06-06T08:02:04Z</time>
      </trkpt>
      <trkpt lat="46.01621" lon="4.62477">
        <ele>571.4</ele>
        <time>2020-06-06T08:02:08Z</time>
      </trkpt>
      <trkpt lat="46.01622" lon="4.62464">
        <ele>571.6</ele>
        <time>2020-06-06T08:02:12Z</time>
      </trkpt>
      <trkpt lat="46.01622" lon="4.62451">
        <ele>572</ele>
        <time>2020-06-06T08:02:16Z</time>
      </trkpt>
      <trkpt lat="46.01623" lon="4.62438">
        <ele>573</ele>
        <time>2020-06-06T08:02:20Z</time>
      </trkpt>
      <trkpt lat="46.01623" lon="4.62425">
        <ele>573.6</ele>
        <time>2020-06-06T08:02:24Z</time>
      </trkpt>
      <trkpt lat="46.01624" lon="4.62413">
        <ele>574.2</ele>
        <time>2020-06-06T08:02:28Z</time>
      </trkpt>
      <trkpt lat="46.01624" lon="4.624">
        <ele>574.8</ele>
        <time>2020-06-06T08:02:32Z</time>
      </trkpt>
      <trkpt lat="46.01625" lon="4.62386">
        <ele>575.2</ele>
        <time>2020-06-06T08:02:36Z</time>
      </trkpt>
      <trkpt lat="46.01625" lon="4.62373">
        <ele>576</ele>
        <time>2020-06-06T08:02:40Z</time>
      </trkpt>
      <trkpt lat="46.01626" lon="4.62359">
        <ele>576.6</ele>
        <time>2020-06-06T08:02:44Z</time>
      </trkpt>
      <trkpt lat="46.01626" lon="4.62347">
        <ele>576.8</ele>
        <time>2020-06-06T08:02:48Z</time>
      </trkpt>
      <trkpt lat="46.01627" lon="4.62335">
        <ele>578</ele>
        <time>2020-06-06T08:02:52Z</time>
      </trkpt>
      <trkpt lat="46.01627" lon="4.62324">
        <ele>578.6</ele>
        <time>2020-06-06T08:02:56Z</time>
      </trkpt>
      <trkpt lat="46.01627" lon="4.62312">
        <ele>578.8</ele>
        <time>2020-06-06T08:03:00Z</time>
      </trkpt>
      <trkpt lat="46.01628" lon="4.62301">
        <ele>579.8</ele>
        <time>2020-06-06T08:03:04Z</time>
      </trkpt>
      <trkpt lat="46.01628" lon="4.62289">
        <ele>580.6</ele>
        <time>2020-06-06T08:03:08Z</time>
      </trkpt>
      <trkpt lat="46.01629" lon="4.62278">
        <ele>581.4</ele>
        <time>2020-06-06T08:03:12Z</time>
      </trkpt>
      <trkpt lat="46.01629" lon="4.62266">
        <ele>581.8</ele>
        <time>2020-06-06T08:03:16Z</time>
      </trkpt>
      <trkpt lat="46.0163" lon="4.62256">
        <ele>582.8</ele>
        <time>2020-06-06T08:03:20Z</time>
      </trkpt>
      <trkpt lat="46.0163" lon="4.62245">
        <ele>583.6</ele>
        <time>2020-06-06T08:03:24Z</time>
      </trkpt>
      <trkpt lat="46.01631" lon="4.62234">
        <ele>583.8</ele>
        <time>2020-06-06T08:03:28Z</time>
      </trkpt>
      <trkpt lat="46.01631" lon="4.62223">
        <ele>584.6</ele>
        <time>2020-06-06T08:03:32Z</time>
      </trkpt>
      <trkpt lat="46.01632" lon="4.62214">
        <ele>585.2</ele>
        <time>2020-06-06T08:03:36Z</time>
      </trkpt>
      <trkpt lat="46.01632" lon="4.62204">
        <ele>586.2</ele>
        <time>2020-06-06T08:03:40Z</time>
      </trkpt>
      <trkpt lat="46.01633" lon="4.62193">
        <ele>586.6</ele>
        <time>2020-06-06T08:03:44Z</time>
      </trkpt>
      <trkpt lat="46.01633" lon="4.62181">
        <ele>587.8</ele>
        <time>2020-06-06T08:03:48Z</time>
      </trkpt>
      <trkpt lat="46.01634" lon="4.6217">
        <ele>588.2</ele>
        <time>2020-06-06T08:03:52Z</time>
      </trkpt>
      <trkpt lat="46.01634" lon="4.62159">
        <ele>589</ele>
        <time>2020-06-06T08:03:56Z</time>
      </trkpt>
      <trkpt lat="46.01635" lon="4.62148">
        <ele>589.6</ele>
        <time>2020-06-06T08:04:00Z</time>
      </trkpt>
      <trkpt lat="46.01636" lon="4.62138">
        <ele>589.8</ele>
        <time>2020-06-06T08:04:04Z</time>
      </trkpt>
      <trkpt lat="46.01636" lon="4.62128">
        <ele>590.8</ele>
        <time>2020-06-06T08:04:08Z</time>
      </trkpt>
      <trkpt lat="46.01636" lon="4.62117">
        <ele>591.2</ele>
        <time>2020-06-06T08:04:12Z</time>
      </trkpt>
      <trkpt lat="46.01636" lon="4.62105">
        <ele>592.2</ele>
        <time>2020-06-06T08:04:16Z</time>
      </trkpt>
      <trkpt lat="46.01634" lon="4.62095">
        <ele>593</ele>
        <time>2020-06-06T08:04:20Z</time>
      </trkpt>
      <trkpt lat="46.01632" lon="4.62084">
        <ele>593.2</ele>
        <time>2020-06-06T08:04:24Z</time>
      </trkpt>
      <trkpt lat="46.0163" lon="4.62075">
        <ele>594.2</ele>
        <time>2020-06-06T08:04:28Z</time>
      </trkpt>
      <trkpt lat="46.01626" lon="4.62065">
        <ele>594.6</ele>
        <time>2020-06-06T08:04:32Z</time>
      </trkpt>
      <trkpt lat="46.01623" lon="4.62055">
        <ele>595.6</ele>
        <time>2020-06-06T08:04:36Z</time>
      </trkpt>
      <trkpt lat="46.01619" lon="4.62045">
        <ele>596.2</ele>
        <time>2020-06-06T08:04:40Z</time>
      </trkpt>
      <trkpt lat="46.01616" lon="4.62035">
        <ele>596.8</ele>
        <time>2020-06-06T08:04:44Z</time>
      </trkpt>
      <trkpt lat="46.01613" lon="4.62025">
        <ele>598</ele>
        <time>2020-06-06T08:04:48Z</time>
      </trkpt>
      <trkpt lat="46.01611" lon="4.62014">
        <ele>598.6</ele>
        <time>2020-06-06T08:04:52Z</time>
      </trkpt>
      <trkpt lat="46.01609" lon="4.62003">
        <ele>599.2</ele>
        <time>2020-06-06T08:04:56Z</time>
      </trkpt>
      <trkpt lat="46.01607" lon="4.61993">
        <ele>600</ele>
        <time>2020-06-06T08:05:00Z</time>
      </trkpt>
      <trkpt lat="46.01606" lon="4.61983">
        <ele>600.8</ele>
        <time>2020-06-06T08:05:04Z</time>
      </trkpt>
      <trkpt lat="46.01604" lon="4.61972">
        <ele>601.2</ele>
        <time>2020-06-06T08:05:08Z</time>
      </trkpt>
      <trkpt lat="46.01603" lon="4.61962">
        <ele>601.8</ele>
        <time>2020-06-06T08:05:12Z</time>
      </trkpt>
      <trkpt lat="46.01602" lon="4.61952">
        <ele>603.2</ele>
        <time>2020-06-06T08:05:16Z</time>
      </trkpt>
      <trkpt lat="46.01601" lon="4.61942">
        <ele>604.4</ele>
        <time>2020-06-06T08:05:20Z</time>
      </trkpt>
      <trkpt lat="46.016" lon="4.61932">
        <ele>605</ele>
        <time>2020-06-06T08:05:24Z</time>
      </trkpt>
      <trkpt lat="46.01599" lon="4.61922">
        <ele>606.2</ele>
        <time>2020-06-06T08:05:28Z</time>
      </trkpt>
      <trkpt lat="46.01597" lon="4.61913">
        <ele>606.6</ele>
        <time>2020-06-06T08:05:32Z</time>
      </trkpt>
      <trkpt lat="46.01595" lon="4.61903">
        <ele>607.4</ele>
        <time>2020-06-06T08:05:36Z</time>
      </trkpt>
      <trkpt lat="46.01593" lon="4.61894">
        <ele>608</ele>
        <time>2020-06-06T08:05:40Z</time>
      </trkpt>
      <trkpt lat="46.01591" lon="4.61884">
        <ele>608.8</ele>
        <time>2020-06-06T08:05:44Z</time>
      </trkpt>
      <trkpt lat="46.01588" lon="4.61874">
        <ele>609.8</ele>
        <time>2020-06-06T08:05:48Z</time>
      </trkpt>
      <trkpt lat="46.01586" lon="4.61866">
        <ele>610.8</ele>
        <time>2020-06-06T08:05:52Z</time>
      </trkpt>
      <trkpt lat="46.01583" lon="4.61857">
        <ele>611.6</ele>
        <time>2020-06-06T08:05:56Z</time>
      </trkpt>
      <trkpt lat="46.01579" lon="4.61847">
        <ele>611.8</ele>
        <time>2020-06-06T08:06:00Z</time>
      </trkpt>
      <trkpt lat="46.01576" lon="4.61837">
        <ele>612.8</ele>
        <time>2020-06-06T08:06:04Z</time>
      </trkpt>
      <trkpt lat="46.01572" lon="4.61828">
        <ele>613.4</ele>
        <time>2020-06-06T08:06:08Z</time>
      </trkpt>
      <trkpt lat="46.01569" lon="4.61819">
        <ele>614.4</ele>
        <time>2020-06-06T08:06:12Z</time>
      </trkpt>
      <trkpt lat="46.01565" lon="4.6181">
        <ele>615</ele>
        <time>2020-06-06T08:06:16Z</time>
      </trkpt>
      <trkpt lat="46.01562" lon="4.61801">
        <ele>615.6</ele>
        <time>2020-06-06T08:06:20Z</time>
      </trkpt>
      <trkpt lat="46.01559" lon="4.61792">
        <ele>616.2</ele>
        <time>2020-06-06T08:06:24Z</time>
      </trkpt>
      <trkpt lat="46.01557" lon="4.61783">
        <ele>617</ele>
        <time>2020-06-06T08:06:28Z</time>
      </trkpt>
      <trkpt lat="46.01555" lon="4.61774">
        <ele>617.4</ele>
        <time>2020-06-06T08:06:32Z</time>
      </trkpt>
      <trkpt lat="46.01554" lon="4.61765">
        <ele>618.6</ele>
        <time>2020-06-06T08:06:36Z</time>
      </trkpt>
      <trkpt lat="46.01552" lon="4.61756">
        <ele>619.2</ele>
        <time>2020-06-06T08:06:40Z</time>
      </trkpt>
      <trkpt lat="46.01551" lon="4.61746">
        <ele>619.6</ele>
        <time>2020-06-06T08:06:44Z</time>
      </trkpt>
      <trkpt lat="46.0155" lon="4.61737">
        <ele>620.6</ele>
        <time>2020-06-06T08:06:48Z</time>
      </trkpt>
      <trkpt lat="46.01549" lon="4.61727">
        <ele>621</ele>
        <time>2020-06-06T08:06:52Z</time>
      </trkpt>
      <trkpt lat="46.01549" lon="4.61716">
        <ele>622</ele>
        <time>2020-06-06T08:06:56Z</time>
      </trkpt>
      <trkpt lat="46.01548" lon="4.61707">
        <ele>622.8</ele>
        <time>2020-06-06T08:07:00Z</time>
      </trkpt>
      <trkpt lat="46.01548" lon="4.61697">
        <ele>623.4</ele>
        <time>2020-06-06T08:07:04Z</time>
      </trkpt>
      <trkpt lat="46.01548" lon="4.61688">
        <ele>624</ele>
        <time>2020-06-06T08:07:08Z</time>
      </trkpt>
      <trkpt lat="46.01547" lon="4.61679">
        <ele>624.8</ele>
        <time>2020-06-06T08:07:12Z</time>
      </trkpt>
      <trkpt lat="46.01546" lon="4.61669">
        <ele>625.2</ele>
        <time>2020-06-06T08:07:16Z</time>
      </trkpt>
      <trkpt lat="46.01545" lon="4.61659">
        <ele>626</ele>
        <time>2020-06-06T08:07:20Z</time>
      </trkpt>
      <trkpt lat="46.01544" lon="4.61649">
        <ele>626.6</ele>
        <time>2020-06-06T08:07:24Z</time>
      </trkpt>
      <trkpt lat="46.01543" lon="4.61641">
        <ele>627.2</ele>
        <time>2020-06-06T08:07:28Z</time>
      </trkpt>
      <trkpt lat="46.01541" lon="4.6163">
        <ele>628.6</ele>
        <time>2020-06-06T08:07:32Z</time>
      </trkpt>
      <trkpt lat="46.01539" lon="4.61621">
        <ele>629</ele>
        <time>2020-06-06T08:07:36Z</time>
      </trkpt>
      <trkpt lat="46.01538" lon="4.61611">
        <ele>629.8</ele>
        <time>2020-06-06T08:07:40Z</time>
      </trkpt>
      <trkpt lat="46.01536" lon="4.61602">
        <ele>630.8</ele>
        <time>2020-06-06T08:07:44Z</time>
      </trkpt>
      <trkpt lat="46.01533" lon="4.61593">
        <ele>631.4</ele>
        <time>2020-06-06T08:07:48Z</time>
      </trkpt>
      <trkpt lat="46.0153" lon="4.61583">
        <ele>632</ele>
        <time>2020-06-06T08:07:52Z</time>
      </trkpt>
      <trkpt lat="46.01527" lon="4.61574">
        <ele>632.8</ele>
        <time>2020-06-06T08:07:56Z</time>
      </trkpt>
      <trkpt lat="46.01524" lon="4.61565">
        <ele>633.2</ele>
        <time>2020-06-06T08:08:00Z</time>
      </trkpt>
      <trkpt lat="46.01521" lon="4.61557">
        <ele>633.8</ele>
        <time>2020-06-06T08:08:04Z</time>
      </trkpt>
      <trkpt lat="46.01517" lon="4.61549">
        <ele>634.4</ele>
        <time>2020-06-06T08:08:08Z</time>
      </trkpt>
      <trkpt lat="46.01514" lon="4.61541">
        <ele>635.6</ele>
        <time>2020-06-06T08:08:12Z</time>
      </trkpt>
      <trkpt lat="46.0151" lon="4.61533">
        <ele>636.4</ele>
        <time>2020-06-06T08:08:16Z</time>
      </trkpt>
      <trkpt lat="46.01506" lon="4.61525">
        <ele>637</ele>
        <time>2020-06-06T08:08:20Z</time>
      </trkpt>
      <trkpt lat="46.01502" lon="4.61518">
        <ele>637.8</ele>
        <time>2020-06-06T08:08:24Z</time>
      </trkpt>
      <trkpt lat="46.01498" lon="4.61511">
        <ele>638.4</ele>
        <time>2020-06-06T08:08:28Z</time>
      </trkpt>
      <trkpt lat="46.01493" lon="4.61504">
        <ele>639</ele>
        <time>2020-06-06T08:08:32Z</time>
      </trkpt>
      <trkpt lat="46.01488" lon="4.61498">
        <ele>639.8</ele>
        <time>2020-06-06T08:08:36Z</time>
      </trkpt>
      <trkpt lat="46.01482" lon="4.61492">
        <ele>640.6</ele>
        <time>2020-06-06T08:08:40Z</time>
      </trkpt>
      <trkpt lat="46.01477" lon="4.61487">
        <ele>641</ele>
        <time>2020-06-06T08:08:44Z</time>
      </trkpt>
      <trkpt lat="46.01471" lon="4.61481">
        <ele>642.2</ele>
        <time>2020-06-06T08:08:48Z</time>
      </trkpt>
      <trkpt lat="46.01466" lon="4.61476">
        <ele>642.6</ele>
        <time>2020-06-06T08:08:52Z</time>
      </trkpt>
      <trkpt lat="46.0146" lon="4.6147">
        <ele>643.4</ele>
        <time>2020-06-06T08:08:56Z</time>
      </trkpt>
      <trkpt lat="46.01455" lon="4.61464">
        <ele>644.2</ele>
        <time>2020-06-06T08:09:00Z</time>
      </trkpt>
      <trkpt lat="46.0145" lon="4.61457">
        <ele>645.2</ele>
        <time>2020-06-06T08:09:04Z</time>
      </trkpt>
      <trkpt lat="46.01446" lon="4.61449">
        <ele>646.2</ele>
        <time>2020-06-06T08:09:08Z</time>
      </trkpt>
      <trkpt lat="46.01442" lon="4.61442">
        <ele>646.8</ele>
        <time>2020-06-06T08:09:12Z</time>
      </trkpt>
      <trkpt lat="46.01438" lon="4.61434">
        <ele>647</ele>
        <time>2020-06-06T08:09:16Z</time>
      </trkpt>
      <trkpt lat="46.01434" lon="4.61425">
        <ele>647.8</ele>
        <time>2020-06-06T08:09:20Z</time>
      </trkpt>
      <trkpt lat="46.01429" lon="4.61416">
        <ele>648.6</ele>
        <time>2020-06-06T08:09:24Z</time>
      </trkpt>
      <trkpt lat="46.01425" lon="4.61407">
        <ele>649.2</ele>
        <time>2020-06-06T08:09:28Z</time>
      </trkpt>
      <trkpt lat="46.01421" lon="4.61399">
        <ele>649.8</ele>
        <time>2020-06-06T08:09:32Z</time>
      </trkpt>
      <trkpt lat="46.01418" lon="4.61389">
        <ele>650.4</ele>
        <time>2020-06-06T08:09:36Z</time>
      </trkpt>
      <trkpt lat="46.01416" lon="4.61378">
        <ele>650.8</ele>
        <time>2020-06-06T08:09:40Z</time>
      </trkpt>
      <trkpt lat="46.01414" lon="4.61366">
        <ele>651.2</ele>
        <time>2020-06-06T08:09:44Z</time>
      </trkpt>
      <trkpt lat="46.01414" lon="4.61354">
        <ele>651.8</ele>
        <time>2020-06-06T08:09:48Z</time>
      </trkpt>
      <trkpt lat="46.01416" lon="4.61342">
        <ele>652.4</ele>
        <time>2020-06-06T08:09:52Z</time>
      </trkpt>
      <trkpt lat="46.01418" lon="4.6133">
        <ele>652.6</ele>
        <time>2020-06-06T08:09:56Z</time>
      </trkpt>
      <trkpt lat="46.01422" lon="4.61316">
        <ele>652.6</ele>
        <time>2020-06-06T08:10:00Z</time>
      </trkpt>
      <trkpt lat="46.01426" lon="4.61302">
        <ele>653</ele>
        <time>2020-06-06T08:10:04Z</time>
      </trkpt>
      <trkpt lat="46.0143" lon="4.61287">
        <ele>653.2</ele>
        <time>2020-06-06T08:10:08Z</time>
      </trkpt>
      <trkpt lat="46.01434" lon="4.61272">
        <ele>653.4</ele>
        <time>2020-06-06T08:10:12Z</time>
      </trkpt>
      <trkpt lat="46.01438" lon="4.61258">
        <ele>654</ele>
        <time>2020-06-06T08:10:16Z</time>
      </trkpt>
      <trkpt lat="46.01442" lon="4.61242">
        <ele>654.4</ele>
        <time>2020-06-06T08:10:20Z</time>
      </trkpt>
      <trkpt lat="46.01446" lon="4.61227">
        <ele>654.6</ele>
        <time>2020-06-06T08:10:24Z</time>
      </trkpt>
      <trkpt lat="46.01451" lon="4.61211">
        <ele>655.4</ele>
        <time>2020-06-06T08:10:28Z</time>
      </trkpt>
      <trkpt lat="46.01455" lon="4.61196">
        <ele>655.4</ele>
        <time>2020-06-06T08:10:32Z</time>
      </trkpt>
      <trkpt lat="46.0146" lon="4.6118">
        <ele>655.6</ele>
        <time>2020-06-06T08:10:36Z</time>
      </trkpt>
      <trkpt lat="46.01464" lon="4.61165">
        <ele>656.2</ele>
        <time>2020-06-06T08:10:40Z</time>
      </trkpt>
      <trkpt lat="46.01468" lon="4.6115">
        <ele>657.2</ele>
        <time>2020-06-06T08:10:44Z</time>
      </trkpt>
      <trkpt lat="46.01472" lon="4.61134">
        <ele>657.2</ele>
        <time>2020-06-06T08:10:48Z</time>
      </trkpt>
      <trkpt lat="46.01477" lon="4.61118">
        <ele>658.2</ele>
        <time>2020-06-06T08:10:52Z</time>
      </trkpt>
      <trkpt lat="46.01481" lon="4.61103">
        <ele>658.2</ele>
        <time>2020-06-06T08:10:56Z</time>
      </trkpt>
      <trkpt lat="46.01485" lon="4.61088">
        <ele>659</ele>
        <time>2020-06-06T08:11:00Z</time>
      </trkpt>
      <trkpt lat="46.01488" lon="4.61074">
        <ele>659.2</ele>
        <time>2020-06-06T08:11:04Z</time>
      </trkpt>
      <trkpt lat="46.0149" lon="4.61062">
        <ele>659.4</ele>
        <time>2020-06-06T08:11:08Z</time>
      </trkpt>
      <trkpt lat="46.01495" lon="4.61049">
        <ele>660</ele>
        <time>2020-06-06T08:11:12Z</time>
      </trkpt>
      <trkpt lat="46.01499" lon="4.61036">
        <ele>660</ele>
        <time>2020-06-06T08:11:16Z</time>
      </trkpt>
      <trkpt lat="46.01502" lon="4.61023">
        <ele>660.8</ele>
        <time>2020-06-06T08:11:20Z</time>
      </trkpt>
      <trkpt lat="46.01505" lon="4.6101">
        <ele>661</ele>
        <time>2020-06-06T08:11:24Z</time>
      </trkpt>
      <trkpt lat="46.01508" lon="4.60996">
        <ele>661.4</ele>
        <time>2020-06-06T08:11:28Z</time>
      </trkpt>
      <trkpt lat="46.01509" lon="4.60981">
        <ele>662</ele>
        <time>2020-06-06T08:11:32Z</time>
      </trkpt>
      <trkpt lat="46.01508" lon="4.60968">
        <ele>662.8</ele>
        <time>2020-06-06T08:11:36Z</time>
      </trkpt>
      <trkpt lat="46.01508" lon="4.60955">
        <ele>663.4</ele>
        <time>2020-06-06T08:11:40Z</time>
      </trkpt>
      <trkpt lat="46.0151" lon="4.60942">
        <ele>663.8</ele>
        <time>2020-06-06T08:11:44Z</time>
      </trkpt>
      <trkpt lat="46.01512" lon="4.60931">
        <ele>664.4</ele>
        <time>2020-06-06T08:11:48Z</time>
      </trkpt>
      <trkpt lat="46.01514" lon="4.6092">
        <ele>665</ele>
        <time>2020-06-06T08:11:52Z</time>
      </trkpt>
      <trkpt lat="46.01516" lon="4.60907">
        <ele>666.2</ele>
        <time>2020-06-06T08:11:56Z</time>
      </trkpt>
      <trkpt lat="46.01517" lon="4.60893">
        <ele>666.2</ele>
        <time>2020-06-06T08:12:00Z</time>
      </trkpt>
      <trkpt lat="46.01517" lon="4.60881">
        <ele>667.2</ele>
        <time>2020-06-06T08:12:04Z</time>
      </trkpt>
      <trkpt lat="46.01516" lon="4.60867">
        <ele>668</ele>
        <time>2020-06-06T08:12:08Z</time>
      </trkpt>
      <trkpt lat="46.01516" lon="4.60853">
        <ele>668.4</ele>
        <time>2020-06-06T08:12:12Z</time>
      </trkpt>
      <trkpt lat="46.01516" lon="4.6084">
        <ele>669</ele>
        <time>2020-06-06T08:12:16Z</time>
      </trkpt>
      <trkpt lat="46.01515" lon="4.60826">
        <ele>670</ele>
        <time>2020-06-06T08:12:20Z</time>
      </trkpt>
      <trkpt lat="46.01513" lon="4.60813">
        <ele>670.4</ele>
        <time>2020-06-06T08:12:24Z</time>
      </trkpt>
      <trkpt lat="46.01512" lon="4.608">
        <ele>671.6</ele>
        <time>2020-06-06T08:12:28Z</time>
      </trkpt>
      <trkpt lat="46.0151" lon="4.60789">
        <ele>672.4</ele>
        <time>2020-06-06T08:12:32Z</time>
      </trkpt>
      <trkpt lat="46.01508" lon="4.60777">
        <ele>672.4</ele>
        <time>2020-06-06T08:12:36Z</time>
      </trkpt>
      <trkpt lat="46.01504" lon="4.60764">
        <ele>673.4</ele>
        <time>2020-06-06T08:12:40Z</time>
      </trkpt>
      <trkpt lat="46.01498" lon="4.60753">
        <ele>673.8</ele>
        <time>2020-06-06T08:12:44Z</time>
      </trkpt>
      <trkpt lat="46.01493" lon="4.60743">
        <ele>674.8</ele>
        <time>2020-06-06T08:12:48Z</time>
      </trkpt>
      <trkpt lat="46.01487" lon="4.60734">
        <ele>675</ele>
        <time>2020-06-06T08:12:52Z</time>
      </trkpt>
      <trkpt lat="46.01481" lon="4.60726">
        <ele>675.4</ele>
        <time>2020-06-06T08:12:56Z</time>
      </trkpt>
      <trkpt lat="46.01476" lon="4.60715">
        <ele>676.2</ele>
        <time>2020-06-06T08:13:00Z</time>
      </trkpt>
      <trkpt lat="46.01472" lon="4.60705">
        <ele>676.6</ele>
        <time>2020-06-06T08:13:04Z</time>
      </trkpt>
      <trkpt lat="46.01468" lon="4.60695">
        <ele>677.4</ele>
        <time>2020-06-06T08:13:08Z</time>
      </trkpt>
      <trkpt lat="46.01464" lon="4.60684">
        <ele>678</ele>
        <time>2020-06-06T08:13:12Z</time>
      </trkpt>
      <trkpt lat="46.01463" lon="4.60672">
        <ele>678.2</ele>
        <time>2020-06-06T08:13:16Z</time>
      </trkpt>
      <trkpt lat="46.01463" lon="4.6066">
        <ele>678.8</ele>
        <time>2020-06-06T08:13:20Z</time>
      </trkpt>
      <trkpt lat="46.01467" lon="4.60649">
        <ele>679.2</ele>
        <time>2020-06-06T08:13:24Z</time>
      </trkpt>
      <trkpt lat="46.01473" lon="4.60639">
        <ele>680</ele>
        <time>2020-06-06T08:13:28Z</time>
      </trkpt>
      <trkpt lat="46.01478" lon="4.6063">
        <ele>680.8</ele>
        <time>2020-06-06T08:13:32Z</time>
      </trkpt>
      <trkpt lat="46.01485" lon="4.60622">
        <ele>681.6</ele>
        <time>2020-06-06T08:13:36Z</time>
      </trkpt>
      <trkpt lat="46.0149" lon="4.60613">
        <ele>682</ele>
        <time>2020-06-06T08:13:40Z</time>
      </trkpt>
      <trkpt lat="46.01496" lon="4.60603">
        <ele>682.6</ele>
        <time>2020-06-06T08:13:44Z</time>
      </trkpt>
      <trkpt lat="46.01501" lon="4.60592">
        <ele>683</ele>
        <time>2020-06-06T08:13:48Z</time>
      </trkpt>
      <trkpt lat="46.01505" lon="4.60581">
        <ele>683.4</ele>
        <time>2020-06-06T08:13:52Z</time>
      </trkpt>
      <trkpt lat="46.01508" lon="4.60569">
        <ele>684.2</ele>
        <time>2020-06-06T08:13:56Z</time>
      </trkpt>
      <trkpt lat="46.01509" lon="4.60556">
        <ele>684.8</ele>
        <time>2020-06-06T08:14:00Z</time>
      </trkpt>
      <trkpt lat="46.01508" lon="4.60543">
        <ele>684.8</ele>
        <time>2020-06-06T08:14:04Z</time>
      </trkpt>
      <trkpt lat="46.01506" lon="4.60531">
        <ele>685.6</ele>
        <time>2020-06-06T08:14:08Z</time>
      </trkpt>
      <trkpt lat="46.01502" lon="4.60519">
        <ele>686.4</ele>
        <time>2020-06-06T08:14:12Z</time>
      </trkpt>
      <trkpt lat="46.01498" lon="4.60507">
        <ele>686.4</ele>
        <time>2020-06-06T08:14:16Z</time>
      </trkpt>
      <trkpt lat="46.01494" lon="4.60496">
        <ele>687</ele>
        <time>2020-06-06T08:14:20Z</time>
      </trkpt>
      <trkpt lat="46.01491" lon="4.60485">
        <ele>687.8</ele>
        <time>2020-06-06T08:14:24Z</time>
      </trkpt>
      <trkpt lat="46.01487" lon="4.60475">
        <ele>688.4</ele>
        <time>2020-06-06T08:14:28Z</time>
      </trkpt>
      <trkpt lat="46.01484" lon="4.60464">
        <ele>689</ele>
        <time>2020-06-06T08:14:32Z</time>
      </trkpt>
      <trkpt lat="46.01481" lon="4.60452">
        <ele>689</ele>
        <time>2020-06-06T08:14:36Z</time>
      </trkpt>
      <trkpt lat="46.01478" lon="4.60441">
        <ele>689.8</ele>
        <time>2020-06-06T08:14:40Z</time>
      </trkpt>
      <trkpt lat="46.01476" lon="4.60429">
        <ele>690.2</ele>
        <time>2020-06-06T08:14:44Z</time>
      </trkpt>
      <trkpt lat="46.01475" lon="4.60418">
        <ele>691.4</ele>
        <time>2020-06-06T08:14:48Z</time>
      </trkpt>
      <trkpt lat="46.01471" lon="4.60407">
        <ele>691.8</ele>
        <time>2020-06-06T08:14:52Z</time>
      </trkpt>
      <trkpt lat="46.01468" lon="4.60396">
        <ele>692.4</ele>
        <time>2020-06-06T08:14:56Z</time>
      </trkpt>
      <trkpt lat="46.01463" lon="4.60385">
        <ele>693</ele>
        <time>2020-06-06T08:15:00Z</time>
      </trkpt>
      <trkpt lat="46.01457" lon="4.60374">
        <ele>693</ele>
        <time>2020-06-06T08:15:04Z</time>
      </trkpt>
      <trkpt lat="46.0145" lon="4.60367">
        <ele>693.8</ele>
        <time>2020-06-06T08:15:08Z</time>
      </trkpt>
      <trkpt lat="46.01443" lon="4.6036">
        <ele>694</ele>
        <time>2020-06-06T08:15:12Z</time>
      </trkpt>
      <trkpt lat="46.01436" lon="4.60353">
        <ele>695</ele>
        <time>2020-06-06T08:15:16Z</time>
      </trkpt>
      <trkpt lat="46.01427" lon="4.60349">
        <ele>695.4</ele>
        <time>2020-06-06T08:15:20Z</time>
      </trkpt>
      <trkpt lat="46.0142" lon="4.60342">
        <ele>695.8</ele>
        <time>2020-06-06T08:15:24Z</time>
      </trkpt>
      <trkpt lat="46.01412" lon="4.60335">
        <ele>696.6</ele>
        <time>2020-06-06T08:15:28Z</time>
      </trkpt>
      <trkpt lat="46.01405" lon="4.60326">
        <ele>697.2</ele>
        <time>2020-06-06T08:15:32Z</time>
      </trkpt>
      <trkpt lat="46.01397" lon="4.6032">
        <ele>697.4</ele>
        <time>2020-06-06T08:15:36Z</time>
      </trkpt>
      <trkpt lat="46.0139" lon="4.60312">
        <ele>697.8</ele>
        <time>2020-06-06T08:15:40Z</time>
      </trkpt>
      <trkpt lat="46.01384" lon="4.60303">
        <ele>698.6</ele>
        <time>2020-06-06T08:15:44Z</time>
      </trkpt>
      <trkpt lat="46.01381" lon="4.6029">
        <ele>699.6</ele>
        <time>2020-06-06T08:15:48Z</time>
      </trkpt>
      <trkpt lat="46.01377" lon="4.60279">
        <ele>700.2</ele>
        <time>2020-06-06T08:15:52Z</time>
      </trkpt>
      <trkpt lat="46.01373" lon="4.60268">
        <ele>700.6</ele>
        <time>2020-06-06T08:15:56Z</time>
      </trkpt>
      <trkpt lat="46.01369" lon="4.60255">
        <ele>701.2</ele>
        <time>2020-06-06T08:16:00Z</time>
      </trkpt>
      <trkpt lat="46.01367" lon="4.60243">
        <ele>702</ele>
        <time>2020-06-06T08:16:04Z</time>
      </trkpt>
      <trkpt lat="46.01365" lon="4.60231">
        <ele>702</ele>
        <time>2020-06-06T08:16:08Z</time>
      </trkpt>
      <trkpt lat="46.01363" lon="4.6022">
        <ele>702.6</ele>
        <time>2020-06-06T08:16:12Z</time>
      </trkpt>
      <trkpt lat="46.0136" lon="4.60208">
        <ele>703.6</ele>
        <time>2020-06-06T08:16:16Z</time>
      </trkpt>
      <trkpt lat="46.01359" lon="4.60197">
        <ele>704.2</ele>
        <time>2020-06-06T08:16:20Z</time>
      </trkpt>
      <trkpt lat="46.01356" lon="4.60184">
        <ele>704.6</ele>
        <time>2020-06-06T08:16:24Z</time>
      </trkpt>
      <trkpt lat="46.01353" lon="4.60172">
        <ele>704.8</ele>
        <time>2020-06-06T08:16:28Z</time>
      </trkpt>
      <trkpt lat="46.0135" lon="4.60159">
        <ele>705</ele>
        <time>2020-06-06T08:16:32Z</time>
      </trkpt>
      <trkpt lat="46.01347" lon="4.60148">
        <ele>706</ele>
        <time>2020-06-06T08:16:36Z</time>
      </trkpt>
      <trkpt lat="46.01344" lon="4.60137">
        <ele>707</ele>
        <time>2020-06-06T08:16:40Z</time>
      </trkpt>
      <trkpt lat="46.0134" lon="4.60127">
        <ele>707.2</ele>
        <time>2020-06-06T08:16:44Z</time>
      </trkpt>
      <trkpt lat="46.01336" lon="4.60116">
        <ele>707.6</ele>
        <time>2020-06-06T08:16:48Z</time>
      </trkpt>
      <trkpt lat="46.01332" lon="4.60105">
        <ele>707.6</ele>
        <time>2020-06-06T08:16:52Z</time>
      </trkpt>
      <trkpt lat="46.01328" lon="4.60094">
        <ele>708</ele>
        <time>2020-06-06T08:16:56Z</time>
      </trkpt>
      <trkpt lat="46.01324" lon="4.60083">
        <ele>708.8</ele>
        <time>2020-06-06T08:17:00Z</time>
      </trkpt>
      <trkpt lat="46.0132" lon="4.60072">
        <ele>709.2</ele>
        <time>2020-06-06T08:17:04Z</time>
      </trkpt>
      <trkpt lat="46.01317" lon="4.60059">
        <ele>709.6</ele>
        <time>2020-06-06T08:17:08Z</time>
      </trkpt>
      <trkpt lat="46.01315" lon="4.60047">
        <ele>710.2</ele>
        <time>2020-06-06T08:17:12Z</time>
      </trkpt>
      <trkpt lat="46.01315" lon="4.60034">
        <ele>710.8</ele>
        <time>2020-06-06T08:17:16Z</time>
      </trkpt>
      <trkpt lat="46.01318" lon="4.60022">
        <ele>711.2</ele>
        <time>2020-06-06T08:17:20Z</time>
      </trkpt>
      <trkpt lat="46.01323" lon="4.60015">
        <ele>711.6</ele>
        <time>2020-06-06T08:17:24Z</time>
      </trkpt>
      <trkpt lat="46.0133" lon="4.60012">
        <ele>712.6</ele>
        <time>2020-06-06T08:17:28Z</time>
      </trkpt>
      <trkpt lat="46.01339" lon="4.6001">
        <ele>713.4</ele>
        <time>2020-06-06T08:17:32Z</time>
      </trkpt>
      <trkpt lat="46.01348" lon="4.6001">
        <ele>714.2</ele>
        <time>2020-06-06T08:17:36Z</time>
      </trkpt>
      <trkpt lat="46.01356" lon="4.60012">
        <ele>714.4</ele>
        <time>2020-06-06T08:17:40Z</time>
      </trkpt>
      <trkpt lat="46.01365" lon="4.60014">
        <ele>714.6</ele>
        <time>2020-06-06T08:17:44Z</time>
      </trkpt>
      <trkpt lat="46.01373" lon="4.60016">
        <ele>715.2</ele>
        <time>2020-06-06T08:17:48Z</time>
      </trkpt>
      <trkpt lat="46.01382" lon="4.6002">
        <ele>715.6</ele>
        <time>2020-06-06T08:17:52Z</time>
      </trkpt>
      <trkpt lat="46.0139" lon="4.60023">
        <ele>716.4</ele>
        <time>2020-06-06T08:17:56Z</time>
      </trkpt>
      <trkpt lat="46.01398" lon="4.60026">
        <ele>717.4</ele>
        <time>2020-06-06T08:18:00Z</time>
      </trkpt>
      <trkpt lat="46.01407" lon="4.60028">
        <ele>717.6</ele>
        <time>2020-06-06T08:18:04Z</time>
      </trkpt>
      <trkpt lat="46.01415" lon="4.60031">
        <ele>718.6</ele>
        <time>2020-06-06T08:18:08Z</time>
      </trkpt>
      <trkpt lat="46.01424" lon="4.60033">
        <ele>718.6</ele>
        <time>2020-06-06T08:18:12Z</time>
      </trkpt>
      <trkpt lat="46.01433" lon="4.60036">
        <ele>719.4</ele>
        <time>2020-06-06T08:18:16Z</time>
      </trkpt>
      <trkpt lat="46.01441" lon="4.60039">
        <ele>719.6</ele>
        <time>2020-06-06T08:18:20Z</time>
      </trkpt>
      <trkpt lat="46.01449" lon="4.60043">
        <ele>720.4</ele>
        <time>2020-06-06T08:18:24Z</time>
      </trkpt>
      <trkpt lat="46.01456" lon="4.60048">
        <ele>721</ele>
        <time>2020-06-06T08:18:28Z</time>
      </trkpt>
      <trkpt lat="46.01465" lon="4.60053">
        <ele>721.4</ele>
        <time>2020-06-06T08:18:32Z</time>
      </trkpt>
      <trkpt lat="46.01472" lon="4.60059">
        <ele>722.4</ele>
        <time>2020-06-06T08:18:36Z</time>
      </trkpt>
      <trkpt lat="46.0148" lon="4.60065">
        <ele>722.6</ele>
        <time>2020-06-06T08:18:40Z</time>
      </trkpt>
      <trkpt lat="46.01488" lon="4.6007">
        <ele>723.4</ele>
        <time>2020-06-06T08:18:44Z</time>
      </trkpt>
      <trkpt lat="46.01495" lon="4.60076">
        <ele>724.2</ele>
        <time>2020-06-06T08:18:48Z</time>
      </trkpt>
      <trkpt lat="46.01504" lon="4.60081">
        <ele>725</ele>
        <time>2020-06-06T08:18:52Z</time>
      </trkpt>
      <trkpt lat="46.01512" lon="4.60086">
        <ele>725</ele>
        <time>2020-06-06T08:18:56Z</time>
      </trkpt>
      <trkpt lat="46.0152" lon="4.60091">
        <ele>725.6</ele>
        <time>2020-06-06T08:19:00Z</time>
      </trkpt>
      <trkpt lat="46.01529" lon="4.60095">
        <ele>725.8</ele>
        <time>2020-06-06T08:19:04Z</time>
      </trkpt>
      <trkpt lat="46.01538" lon="4.60099">
        <ele>726</ele>
        <time>2020-06-06T08:19:08Z</time>
      </trkpt>
      <trkpt lat="46.01546" lon="4.60105">
        <ele>726.8</ele>
        <time>2020-06-06T08:19:12Z</time>
      </trkpt>
      <trkpt lat="46.01554" lon="4.60108">
        <ele>727.2</ele>
        <time>2020-06-06T08:19:16Z</time>
      </trkpt>
      <trkpt lat="46.01562" lon="4.60111">
        <ele>728</ele>
        <time>2020-06-06T08:19:20Z</time>
      </trkpt>
      <trkpt lat="46.01571" lon="4.60112">
        <ele>728.8</ele>
        <time>2020-06-06T08:19:24Z</time>
      </trkpt>
      <trkpt lat="46.01579" lon="4.60113">
        <ele>729.6</ele>
        <time>2020-06-06T08:19:28Z</time>
      </trkpt>
      <trkpt lat="46.01587" lon="4.60112">
        <ele>730.2</ele>
        <time>2020-06-06T08:19:32Z</time>
      </trkpt>
      <trkpt lat="46.01597" lon="4.60112">
        <ele>730.6</ele>
        <time>2020-06-06T08:19:36Z</time>
      </trkpt>
      <trkpt lat="46.01606" lon="4.60109">
        <ele>731.4</ele>
        <time>2020-06-06T08:19:40Z</time>
      </trkpt>
      <trkpt lat="46.01615" lon="4.60103">
        <ele>732</ele>
        <time>2020-06-06T08:19:44Z</time>
      </trkpt>
      <trkpt lat="46.01623" lon="4.60098">
        <ele>732.8</ele>
        <time>2020-06-06T08:19:48Z</time>
      </trkpt>
      <trkpt lat="46.01631" lon="4.6009">
        <ele>732.8</ele>
        <time>2020-06-06T08:19:52Z</time>
      </trkpt>
      <trkpt lat="46.01638" lon="4.60082">
        <ele>733.6</ele>
        <time>2020-06-06T08:19:56Z</time>
      </trkpt>
      <trkpt lat="46.01645" lon="4.60075">
        <ele>733.6</ele>
        <time>2020-06-06T08:20:00Z</time>
      </trkpt>
      <trkpt lat="46.01652" lon="4.60067">
        <ele>734</ele>
        <time>2020-06-06T08:20:04Z</time>
      </trkpt>
      <trkpt lat="46.01659" lon="4.60059">
        <ele>734.6</ele>
        <time>2020-06-06T08:20:08Z</time>
      </trkpt>
      <trkpt lat="46.01666" lon="4.60049">
        <ele>735.2</ele>
        <time>2020-06-06T08:20:12Z</time>
      </trkpt>
      <trkpt lat="46.01673" lon="4.6004">
        <ele>735.6</ele>
        <time>2020-06-06T08:20:16Z</time>
      </trkpt>
      <trkpt lat="46.0168" lon="4.60031">
        <ele>736</ele>
        <time>2020-06-06T08:20:20Z</time>
      </trkpt>
      <trkpt lat="46.01686" lon="4.6002">
        <ele>737.2</ele>
        <time>2020-06-06T08:20:24Z</time>
      </trkpt>
      <trkpt lat="46.01694" lon="4.60007">
        <ele>737.2</ele>
        <time>2020-06-06T08:20:28Z</time>
      </trkpt>
      <trkpt lat="46.01702" lon="4.59995">
        <ele>737.4</ele>
        <time>2020-06-06T08:20:32Z</time>
      </trkpt>
      <trkpt lat="46.0171" lon="4.59983">
        <ele>738.6</ele>
        <time>2020-06-06T08:20:36Z</time>
      </trkpt>
      <trkpt lat="46.01718" lon="4.59974">
        <ele>739.4</ele>
        <time>2020-06-06T08:20:40Z</time>
      </trkpt>
      <trkpt lat="46.01725" lon="4.59967">
        <ele>740.2</ele>
        <time>2020-06-06T08:20:44Z</time>
      </trkpt>
      <trkpt lat="46.01732" lon="4.59958">
        <ele>740.6</ele>
        <time>2020-06-06T08:20:48Z</time>
      </trkpt>
      <trkpt lat="46.01739" lon="4.59948">
        <ele>741.4</ele>
        <time>2020-06-06T08:20:52Z</time>
      </trkpt>
      <trkpt lat="46.01746" lon="4.59939">
        <ele>741.8</ele>
        <time>2020-06-06T08:20:56Z</time>
      </trkpt>
      <trkpt lat="46.01753" lon="4.59932">
        <ele>741.8</ele>
        <time>2020-06-06T08:21:00Z</time>
      </trkpt>
      <trkpt lat="46.0176" lon="4.59923">
        <ele>742.6</ele>
        <time>2020-06-06T08:21:04Z</time>
      </trkpt>
      <trkpt lat="46.01766" lon="4.59914">
        <ele>743.2</ele>
        <time>2020-06-06T08:21:08Z</time>
      </trkpt>
      <trkpt lat="46.01773" lon="4.59908">
        <ele>744.2</ele>
        <time>2020-06-06T08:21:12Z</time>
      </trkpt>
      <trkpt lat="46.01779" lon="4.59901">
        <ele>744.4</ele>
        <time>2020-06-06T08:21:16Z</time>
      </trkpt>
      <trkpt lat="46.01786" lon="4.59893">
        <ele>744.8</ele>
        <time>2020-06-06T08:21:20Z</time>
      </trkpt>
      <trkpt lat="46.01792" lon="4.59885">
        <ele>745.8</ele>
        <time>2020-06-06T08:21:24Z</time>
      </trkpt>
      <trkpt lat="46.01798" lon="4.59878">
        <ele>746</ele>
        <time>2020-06-06T08:21:28Z</time>
      </trkpt>
      <trkpt lat="46.01804" lon="4.5987">
        <ele>747</ele>
        <time>2020-06-06T08:21:32Z</time>
      </trkpt>
      <trkpt lat="46.0181" lon="4.59862">
        <ele>747</ele>
        <time>2020-06-06T08:21:36Z</time>
      </trkpt>
      <trkpt lat="46.01813" lon="4.59853">
        <ele>748</ele>
        <time>2020-06-06T08:21:40Z</time>
      </trkpt>
      <trkpt lat="46.01817" lon="4.59843">
        <ele>748.2</ele>
        <time>2020-06-06T08:21:44Z</time>
      </trkpt>
      <trkpt lat="46.01819" lon="4.59833">
        <ele>749</ele>
        <time>2020-06-06T08:21:48Z</time>
      </trkpt>
      <trkpt lat="46.01821" lon="4.59823">
        <ele>749.6</ele>
        <time>2020-06-06T08:21:52Z</time>
      </trkpt>
      <trkpt lat="46.01824" lon="4.59813">
        <ele>750.4</ele>
        <time>2020-06-06T08:21:56Z</time>
      </trkpt>
      <trkpt lat="46.01826" lon="4.59798">
        <ele>750.6</ele>
        <time>2020-06-06T08:22:00Z</time>
      </trkpt>
      <trkpt lat="46.01829" lon="4.59785">
        <ele>750.8</ele>
        <time>2020-06-06T08:22:04Z</time>
      </trkpt>
      <trkpt lat="46.01831" lon="4.59773">
        <ele>752</ele>
        <time>2020-06-06T08:22:08Z</time>
      </trkpt>
      <trkpt lat="46.01834" lon="4.59763">
        <ele>752.6</ele>
        <time>2020-06-06T08:22:12Z</time>
      </trkpt>
      <trkpt lat="46.01837" lon="4.59753">
        <ele>752.6</ele>
        <time>2020-06-06T08:22:16Z</time>
      </trkpt>
      <trkpt lat="46.0184" lon="4.59743">
        <ele>753.2</ele>
        <time>2020-06-06T08:22:20Z</time>
      </trkpt>
      <trkpt lat="46.01843" lon="4.5973">
        <ele>753.6</ele>
        <time>2020-06-06T08:22:24Z</time>
      </trkpt>
      <trkpt lat="46.01846" lon="4.59719">
        <ele>754.6</ele>
        <time>2020-06-06T08:22:28Z</time>
      </trkpt>
      <trkpt lat="46.0185" lon="4.59708">
        <ele>754.8</ele>
        <time>2020-06-06T08:22:32Z</time>
      </trkpt>
      <trkpt lat="46.01852" lon="4.59697">
        <ele>755.8</ele>
        <time>2020-06-06T08:22:36Z</time>
      </trkpt>
      <trkpt lat="46.01853" lon="4.59687">
        <ele>756.6</ele>
        <time>2020-06-06T08:22:40Z</time>
      </trkpt>
      <trkpt lat="46.01855" lon="4.59678">
        <ele>757.6</ele>
        <time>2020-06-06T08:22:44Z</time>
      </trkpt>
      <trkpt lat="46.01856" lon="4.59666">
        <ele>757.8</ele>
        <time>2020-06-06T08:22:48Z</time>
      </trkpt>
      <trkpt lat="46.01856" lon="4.5965">
        <ele>758.6</ele>
        <time>2020-06-06T08:22:52Z</time>
      </trkpt>
      <trkpt lat="46.01854" lon="4.59638">
        <ele>759</ele>
        <time>2020-06-06T08:22:56Z</time>
      </trkpt>
      <trkpt lat="46.01852" lon="4.59625">
        <ele>759.6</ele>
        <time>2020-06-06T08:23:00Z</time>
      </trkpt>
      <trkpt lat="46.01849" lon="4.59613">
        <ele>759.6</ele>
        <time>2020-06-06T08:23:04Z</time>
      </trkpt>
      <trkpt lat="46.01846" lon="4.59601">
        <ele>760.8</ele>
        <time>2020-06-06T08:23:08Z</time>
      </trkpt>
      <trkpt lat="46.01842" lon="4.59589">
        <ele>761</ele>
        <time>2020-06-06T08:23:12Z</time>
      </trkpt>
      <trkpt lat="46.01838" lon="4.59578">
        <ele>761</ele>
        <time>2020-06-06T08:23:16Z</time>
      </trkpt>
      <trkpt lat="46.01833" lon="4.59565">
        <ele>762.4</ele>
        <time>2020-06-06T08:23:20Z</time>
      </trkpt>
      <trkpt lat="46.01828" lon="4.59553">
        <ele>761.8</ele>
        <time>2020-06-06T08:23:24Z</time>
      </trkpt>
      <trkpt lat="46.01824" lon="4.59541">
        <ele>762.6</ele>
        <time>2020-06-06T08:23:28Z</time>
      </trkpt>
      <trkpt lat="46.01821" lon="4.59528">
        <ele>762.8</ele>
        <time>2020-06-06T08:23:32Z</time>
      </trkpt>
      <trkpt lat="46.01821" lon="4.59515">
        <ele>763.4</ele>
        <time>2020-06-06T08:23:36Z</time>
      </trkpt>
      <trkpt lat="46.01822" lon="4.59503">
        <ele>763.6</ele>
        <time>2020-06-06T08:23:40Z</time>
      </trkpt>
      <trkpt lat="46.01824" lon="4.59491">
        <ele>764</ele>
        <time>2020-06-06T08:23:44Z</time>
      </trkpt>
      <trkpt lat="46.01827" lon="4.59482">
        <ele>765.2</ele>
        <time>2020-06-06T08:23:48Z</time>
      </trkpt>
      <trkpt lat="46.0183" lon="4.59469">
        <ele>766</ele>
        <time>2020-06-06T08:23:52Z</time>
      </trkpt>
      <trkpt lat="46.01835" lon="4.59456">
        <ele>766.2</ele>
        <time>2020-06-06T08:23:56Z</time>
      </trkpt>
      <trkpt lat="46.0184" lon="4.59444">
        <ele>766.6</ele>
        <time>2020-06-06T08:24:00Z</time>
      </trkpt>
      <trkpt lat="46.01845" lon="4.59435">
        <ele>767.6</ele>
        <time>2020-06-06T08:24:04Z</time>
      </trkpt>
      <trkpt lat="46.0185" lon="4.59426">
        <ele>767.8</ele>
        <time>2020-06-06T08:24:08Z</time>
      </trkpt>
      <trkpt lat="46.01856" lon="4.59417">
        <ele>768.2</ele>
        <time>2020-06-06T08:24:12Z</time>
      </trkpt>
      <trkpt lat="46.01861" lon="4.59406">
        <ele>768.8</ele>
        <time>2020-06-06T08:24:16Z</time>
      </trkpt>
      <trkpt lat="46.01864" lon="4.59396">
        <ele>769.6</ele>
        <time>2020-06-06T08:24:20Z</time>
      </trkpt>
      <trkpt lat="46.01868" lon="4.59385">
        <ele>769.8</ele>
        <time>2020-06-06T08:24:24Z</time>
      </trkpt>
      <trkpt lat="46.01871" lon="4.59375">
        <ele>770.2</ele>
        <time>2020-06-06T08:24:28Z</time>
      </trkpt>
      <trkpt lat="46.01874" lon="4.59365">
        <ele>770.6</ele>
        <time>2020-06-06T08:24:32Z</time>
      </trkpt>
      <trkpt lat="46.01877" lon="4.59356">
        <ele>771.8</ele>
        <time>2020-06-06T08:24:36Z</time>
      </trkpt>
      <trkpt lat="46.01879" lon="4.59346">
        <ele>771.8</ele>
        <time>2020-06-06T08:24:40Z</time>
      </trkpt>
      <trkpt lat="46.01882" lon="4.59336">
        <ele>772.4</ele>
        <time>2020-06-06T08:24:44Z</time>
      </trkpt>
      <trkpt lat="46.01884" lon="4.59325">
        <ele>773</ele>
        <time>2020-06-06T08:24:48Z</time>
      </trkpt>
      <trkpt lat="46.01887" lon="4.59315">
        <ele>774</ele>
        <time>2020-06-06T08:24:52Z</time>
      </trkpt>
      <trkpt lat="46.01889" lon="4.59303">
        <ele>774.8</ele>
        <time>2020-06-06T08:24:56Z</time>
      </trkpt>
      <trkpt lat="46.01892" lon="4.59292">
        <ele>775.2</ele>
        <time>2020-06-06T08:25:00Z</time>
      </trkpt>
      <trkpt lat="46.01894" lon="4.5928">
        <ele>775.6</ele>
        <time>2020-06-06T08:25:04Z</time>
      </trkpt>
      <trkpt lat="46.01898" lon="4.59268">
        <ele>776.4</ele>
        <time>2020-06-06T08:25:08Z</time>
      </trkpt>
      <trkpt lat="46.01902" lon="4.59256">
        <ele>776.6</ele>
        <time>2020-06-06T08:25:12Z</time>
      </trkpt>
      <trkpt lat="46.01907" lon="4.59244">
        <ele>777.2</ele>
        <time>2020-06-06T08:25:16Z</time>
      </trkpt>
      <trkpt lat="46.01913" lon="4.59232">
        <ele>778</ele>
        <time>2020-06-06T08:25:20Z</time>
      </trkpt>
      <trkpt lat="46.0192" lon="4.59219">
        <ele>778.6</ele>
        <time>2020-06-06T08:25:24Z</time>
      </trkpt>
      <trkpt lat="46.01927" lon="4.59207">
        <ele>779.4</ele>
        <time>2020-06-06T08:25:28Z</time>
      </trkpt>
      <trkpt lat="46.01935" lon="4.59196">
        <ele>780.2</ele>
        <time>2020-06-06T08:25:32Z</time>
      </trkpt>
      <trkpt lat="46.01943" lon="4.59186">
        <ele>780.4</ele>
        <time>2020-06-06T08:25:36Z</time>
      </trkpt>
      <trkpt lat="46.01952" lon="4.59176">
        <ele>781.6</ele>
        <time>2020-06-06T08:25:40Z</time>
      </trkpt>
      <trkpt lat="46.01961" lon="4.59171">
        <ele>782.6</ele>
        <time>2020-06-06T08:25:44Z</time>
      </trkpt>
      <trkpt lat="46.0197" lon="4.59166">
        <ele>783</ele>
        <time>2020-06-06T08:25:48Z</time>
      </trkpt>
      <trkpt lat="46.01979" lon="4.59159">
        <ele>783.2</ele>
        <time>2020-06-06T08:25:52Z</time>
      </trkpt>
      <trkpt lat="46.01987" lon="4.59154">
        <ele>783.8</ele>
        <time>2020-06-06T08:25:56Z</time>
      </trkpt>
      <trkpt lat="46.01995" lon="4.59147">
        <ele>784.8</ele>
        <time>2020-06-06T08:26:00Z</time>
      </trkpt>
      <trkpt lat="46.02004" lon="4.59141">
        <ele>785.4</ele>
        <time>2020-06-06T08:26:04Z</time>
      </trkpt>
      <trkpt lat="46.02012" lon="4.59136">
        <ele>786.4</ele>
        <time>2020-06-06T08:26:08Z</time>
      </trkpt>
      <trkpt lat="46.02019" lon="4.5913">
        <ele>786.2</ele>
        <time>2020-06-06T08:26:12Z</time>
      </trkpt>
      <trkpt lat="46.02027" lon="4.59125">
        <ele>786.8</ele>
        <time>2020-06-06T08:26:16Z</time>
      </trkpt>
      <trkpt lat="46.02035" lon="4.59119">
        <ele>788</ele>
        <time>2020-06-06T08:26:20Z</time>
      </trkpt>
      <trkpt lat="46.02043" lon="4.59114">
        <ele>788</ele>
        <time>2020-06-06T08:26:24Z</time>
      </trkpt>
      <trkpt lat="46.02051" lon="4.59109">
        <ele>788.8</ele>
        <time>2020-06-06T08:26:28Z</time>
      </trkpt>
      <trkpt lat="46.02059" lon="4.59103">
        <ele>789.8</ele>
        <time>2020-06-06T08:26:32Z</time>
      </trkpt>
      <trkpt lat="46.02067" lon="4.59098">
        <ele>790</ele>
        <time>2020-06-06T08:26:36Z</time>
      </trkpt>
      <trkpt lat="46.02075" lon="4.59092">
        <ele>790.6</ele>
        <time>2020-06-06T08:26:40Z</time>
      </trkpt>
      <trkpt lat="46.02083" lon="4.59087">
        <ele>791.8</ele>
        <time>2020-06-06T08:26:44Z</time>
      </trkpt>
      <trkpt lat="46.0209" lon="4.59084">
        <ele>792</ele>
        <time>2020-06-06T08:26:48Z</time>
      </trkpt>
      <trkpt lat="46.02098" lon="4.59081">
        <ele>793</ele>
        <time>2020-06-06T08:26:52Z</time>
      </trkpt>
      <trkpt lat="46.02106" lon="4.59079">
        <ele>793.8</ele>
        <time>2020-06-06T08:26:56Z</time>
      </trkpt>
      <trkpt lat="46.02115" lon="4.59075">
        <ele>794</ele>
        <time>2020-06-06T08:27:00Z</time>
      </trkpt>
      <trkpt lat="46.02125" lon="4.5907">
        <ele>794.4</ele>
        <time>2020-06-06T08:27:04Z</time>
      </trkpt>
      <trkpt lat="46.02135" lon="4.59068">
        <ele>795.2</ele>
        <time>2020-06-06T08:27:08Z</time>
      </trkpt>
      <trkpt lat="46.02144" lon="4.59067">
        <ele>795.6</ele>
        <time>2020-06-06T08:27:12Z</time>
      </trkpt>
      <trkpt lat="46.02154" lon="4.59068">
        <ele>795.4</ele>
        <time>2020-06-06T08:27:16Z</time>
      </trkpt>
      <trkpt lat="46.02163" lon="4.59072">
        <ele>796.4</ele>
        <time>2020-06-06T08:27:20Z</time>
      </trkpt>
      <trkpt lat="46.0217" lon="4.59079">
        <ele>797</ele>
        <time>2020-06-06T08:27:24Z</time>
      </trkpt>
      <trkpt lat="46.02172" lon="4.59088">
        <ele>797.6</ele>
        <time>2020-06-06T08:27:28Z</time>
      </trkpt>
      <trkpt lat="46.02172" lon="4.59096">
        <ele>797.8</ele>
        <time>2020-06-06T08:27:32Z</time>
      </trkpt>
      <trkpt lat="46.02186" lon="4.59108">
        <ele>797</ele>
        <time>2020-06-06T08:31:17Z</time>
      </trkpt>
      <trkpt lat="46.02198" lon="4.59117">
        <ele>796.2</ele>
        <time>2020-06-06T08:31:21Z</time>
      </trkpt>
      <trkpt lat="46.02213" lon="4.59127">
        <ele>794.6</ele>
        <time>2020-06-06T08:31:25Z</time>
      </trkpt>
      <trkpt lat="46.02233" lon="4.59138">
        <ele>792.8</ele>
        <time>2020-06-06T08:31:29Z</time>
      </trkpt>
      <trkpt lat="46.02257" lon="4.59129">
        <ele>790.2</ele>
        <time>2020-06-06T08:31:33Z</time>
      </trkpt>
      <trkpt lat="46.02276" lon="4.59097">
        <ele>787.2</ele>
        <time>2020-06-06T08:31:37Z</time>
      </trkpt>
      <trkpt lat="46.02296" lon="4.59074">
        <ele>786</ele>
        <time>2020-06-06T08:31:41Z</time>
      </trkpt>
      <trkpt lat="46.02329" lon="4.59067">
        <ele>783.4</ele>
        <time>2020-06-06T08:31:45Z</time>
      </trkpt>
      <trkpt lat="46.02365" lon="4.59072">
        <ele>781</ele>
        <time>2020-06-06T08:31:49Z</time>
      </trkpt>
      <trkpt lat="46.02399" lon="4.5909">
        <ele>779</ele>
        <time>2020-06-06T08:31:53Z</time>
      </trkpt>
      <trkpt lat="46.02429" lon="4.59117">
        <ele>776.2</ele>
        <time>2020-06-06T08:31:57Z</time>
      </trkpt>
      <trkpt lat="46.02453" lon="4.59157">
        <ele>774</ele>
        <time>2020-06-06T08:32:01Z</time>
      </trkpt>
      <trkpt lat="46.02474" lon="4.59201">
        <ele>773.6</ele>
        <time>2020-06-06T08:32:05Z</time>
      </trkpt>
      <trkpt lat="46.02493" lon="4.59246">
        <ele>771.4</ele>
        <time>2020-06-06T08:32:09Z</time>
      </trkpt>
      <trkpt lat="46.02515" lon="4.59292">
        <ele>768.4</ele>
        <time>2020-06-06T08:32:13Z</time>
      </trkpt>
      <trkpt lat="46.02543" lon="4.59329">
        <ele>765.6</ele>
        <time>2020-06-06T08:32:17Z</time>
      </trkpt>
      <trkpt lat="46.02577" lon="4.5936">
        <ele>763.4</ele>
        <time>2020-06-06T08:32:21Z</time>
      </trkpt>
      <trkpt lat="46.02623" lon="4.59379">
        <ele>762.4</ele>
        <time>2020-06-06T08:32:25Z</time>
      </trkpt>
      <trkpt lat="46.0266" lon="4.59353">
        <ele>761.4</ele>
        <time>2020-06-06T08:32:29Z</time>
      </trkpt>
      <trkpt lat="46.02675" lon="4.593">
        <ele>757.6</ele>
        <time>2020-06-06T08:32:33Z</time>
      </trkpt>
      <trkpt lat="46.02684" lon="4.59247">
        <ele>754.6</ele>
        <time>2020-06-06T08:32:37Z</time>
      </trkpt>
      <trkpt lat="46.0271" lon="4.59214">
        <ele>752.4</ele>
        <time>2020-06-06T08:32:41Z</time>
      </trkpt>
      <trkpt lat="46.02743" lon="4.59197">
        <ele>750.8</ele>
        <time>2020-06-06T08:32:45Z</time>
      </trkpt>
      <trkpt lat="46.02781" lon="4.59196">
        <ele>748.8</ele>
        <time>2020-06-06T08:32:49Z</time>
      </trkpt>
      <trkpt lat="46.0282" lon="4.59199">
        <ele>746.6</ele>
        <time>2020-06-06T08:32:53Z</time>
      </trkpt>
      <trkpt lat="46.02851" lon="4.59198">
        <ele>744.8</ele>
        <time>2020-06-06T08:32:57Z</time>
      </trkpt>
      <trkpt lat="46.02878" lon="4.59166">
        <ele>742.6</ele>
        <time>2020-06-06T08:33:01Z</time>
      </trkpt>
      <trkpt lat="46.02875" lon="4.59114">
        <ele>739.8</ele>
        <time>2020-06-06T08:33:05Z</time>
      </trkpt>
      <trkpt lat="46.02874" lon="4.59068">
        <ele>740.8</ele>
        <time>2020-06-06T08:33:09Z</time>
      </trkpt>
      <trkpt lat="46.029" lon="4.59055">
        <ele>738.2</ele>
        <time>2020-06-06T08:33:13Z</time>
      </trkpt>
      <trkpt lat="46.0293" lon="4.5906">
        <ele>735.2</ele>
        <time>2020-06-06T08:33:17Z</time>
      </trkpt>
      <trkpt lat="46.02968" lon="4.59065">
        <ele>733.4</ele>
        <time>2020-06-06T08:33:21Z</time>
      </trkpt>
      <trkpt lat="46.03004" lon="4.59082">
        <ele>730.8</ele>
        <time>2020-06-06T08:33:25Z</time>
      </trkpt>
      <trkpt lat="46.03041" lon="4.59087">
        <ele>730.2</ele>
        <time>2020-06-06T08:33:29Z</time>
      </trkpt>
      <trkpt lat="46.03049" lon="4.59078">
        <ele>733</ele>
        <time>2020-06-06T08:33:51Z</time>
      </trkpt>
      <trkpt lat="46.03052" lon="4.59061">
        <ele>732.8</ele>
        <time>2020-06-06T08:39:59Z</time>
      </trkpt>
      <trkpt lat="46.03057" lon="4.59058">
        <ele>733.2</ele>
        <time>2020-06-06T08:40:03Z</time>
      </trkpt>
      <trkpt lat="46.03058" lon="4.59053">
        <ele>733.8</ele>
        <time>2020-06-06T08:40:07Z</time>
      </trkpt>
      <trkpt lat="46.03061" lon="4.59047">
        <ele>734.6</ele>
        <time>2020-06-06T08:40:11Z</time>
      </trkpt>
      <trkpt lat="46.03066" lon="4.59042">
        <ele>735</ele>
        <time>2020-06-06T08:40:15Z</time>
      </trkpt>
      <trkpt lat="46.0307" lon="4.59034">
        <ele>735.4</ele>
        <time>2020-06-06T08:40:19Z</time>
      </trkpt>
      <trkpt lat="46.03073" lon="4.59028">
        <ele>735.2</ele>
        <time>2020-06-06T08:40:23Z</time>
      </trkpt>
      <trkpt lat="46.03077" lon="4.59022">
        <ele>736.4</ele>
        <time>2020-06-06T08:40:27Z</time>
      </trkpt>
      <trkpt lat="46.03081" lon="4.59015">
        <ele>737.8</ele>
        <time>2020-06-06T08:40:31Z</time>
      </trkpt>
      <trkpt lat="46.03082" lon="4.59009">
        <ele>737.8</ele>
        <time>2020-06-06T08:40:35Z</time>
      </trkpt>
      <trkpt lat="46.03086" lon="4.59001">
        <ele>738</ele>
        <time>2020-06-06T08:40:39Z</time>
      </trkpt>
      <trkpt lat="46.03086" lon="4.59001">
        <ele>739.2</ele>
        <time>2020-06-06T08:40:43Z</time>
      </trkpt>
      <trkpt lat="46.0309" lon="4.58994">
        <ele>738.8</ele>
        <time>2020-06-06T08:40:47Z</time>
      </trkpt>
      <trkpt lat="46.03095" lon="4.58988">
        <ele>739.4</ele>
        <time>2020-06-06T08:40:51Z</time>
      </trkpt>
      <trkpt lat="46.03102" lon="4.58978">
        <ele>740.2</ele>
        <time>2020-06-06T08:40:55Z</time>
      </trkpt>
      <trkpt lat="46.03105" lon="4.58971">
        <ele>740.6</ele>
        <time>2020-06-06T08:40:59Z</time>
      </trkpt>
      <trkpt lat="46.0311" lon="4.58964">
        <ele>741.6</ele>
        <time>2020-06-06T08:41:03Z</time>
      </trkpt>
      <trkpt lat="46.03115" lon="4.58957">
        <ele>742</ele>
        <time>2020-06-06T08:41:07Z</time>
      </trkpt>
      <trkpt lat="46.03121" lon="4.5895">
        <ele>743.4</ele>
        <time>2020-06-06T08:41:11Z</time>
      </trkpt>
      <trkpt lat="46.03128" lon="4.58945">
        <ele>743.8</ele>
        <time>2020-06-06T08:41:15Z</time>
      </trkpt>
      <trkpt lat="46.03131" lon="4.58943">
        <ele>744.8</ele>
        <time>2020-06-06T08:41:19Z</time>
      </trkpt>
      <trkpt lat="46.03142" lon="4.58942">
        <ele>744.4</ele>
        <time>2020-06-06T08:41:23Z</time>
      </trkpt>
      <trkpt lat="46.0315" lon="4.58944">
        <ele>744.8</ele>
        <time>2020-06-06T08:41:27Z</time>
      </trkpt>
      <trkpt lat="46.03154" lon="4.58947">
        <ele>745</ele>
        <time>2020-06-06T08:41:31Z</time>
      </trkpt>
      <trkpt lat="46.03159" lon="4.58954">
        <ele>745.6</ele>
        <time>2020-06-06T08:41:35Z</time>
      </trkpt>
      <trkpt lat="46.03161" lon="4.58963">
        <ele>746.4</ele>
        <time>2020-06-06T08:41:39Z</time>
      </trkpt>
      <trkpt lat="46.03166" lon="4.58972">
        <ele>746.6</ele>
        <time>2020-06-06T08:41:43Z</time>
      </trkpt>
      <trkpt lat="46.03169" lon="4.58981">
        <ele>747.2</ele>
        <time>2020-06-06T08:41:47Z</time>
      </trkpt>
      <trkpt lat="46.03173" lon="4.5899">
        <ele>748.2</ele>
        <time>2020-06-06T08:41:51Z</time>
      </trkpt>
      <trkpt lat="46.03178" lon="4.58999">
        <ele>748.6</ele>
        <time>2020-06-06T08:41:55Z</time>
      </trkpt>
      <trkpt lat="46.03182" lon="4.59007">
        <ele>749.6</ele>
        <time>2020-06-06T08:41:59Z</time>
      </trkpt>
      <trkpt lat="46.03185" lon="4.59017">
        <ele>749.4</ele>
        <time>2020-06-06T08:42:03Z</time>
      </trkpt>
      <trkpt lat="46.0319" lon="4.59027">
        <ele>750</ele>
        <time>2020-06-06T08:42:07Z</time>
      </trkpt>
      <trkpt lat="46.03191" lon="4.59035">
        <ele>750.4</ele>
        <time>2020-06-06T08:42:11Z</time>
      </trkpt>
      <trkpt lat="46.03196" lon="4.59046">
        <ele>751.4</ele>
        <time>2020-06-06T08:42:15Z</time>
      </trkpt>
      <trkpt lat="46.03198" lon="4.59057">
        <ele>752</ele>
        <time>2020-06-06T08:42:19Z</time>
      </trkpt>
      <trkpt lat="46.03199" lon="4.59069">
        <ele>753.2</ele>
        <time>2020-06-06T08:42:23Z</time>
      </trkpt>
      <trkpt lat="46.03201" lon="4.59079">
        <ele>753.2</ele>
        <time>2020-06-06T08:42:27Z</time>
      </trkpt>
      <trkpt lat="46.03207" lon="4.59087">
        <ele>754</ele>
        <time>2020-06-06T08:42:31Z</time>
      </trkpt>
      <trkpt lat="46.03209" lon="4.59097">
        <ele>754.8</ele>
        <time>2020-06-06T08:42:35Z</time>
      </trkpt>
      <trkpt lat="46.0321" lon="4.59105">
        <ele>755.6</ele>
        <time>2020-06-06T08:42:39Z</time>
      </trkpt>
      <trkpt lat="46.03214" lon="4.59115">
        <ele>755.4</ele>
        <time>2020-06-06T08:42:43Z</time>
      </trkpt>
      <trkpt lat="46.03216" lon="4.59124">
        <ele>756.6</ele>
        <time>2020-06-06T08:42:47Z</time>
      </trkpt>
      <trkpt lat="46.03214" lon="4.59134">
        <ele>756.8</ele>
        <time>2020-06-06T08:42:51Z</time>
      </trkpt>
      <trkpt lat="46.03219" lon="4.59141">
        <ele>758.2</ele>
        <time>2020-06-06T08:42:55Z</time>
      </trkpt>
      <trkpt lat="46.03223" lon="4.59149">
        <ele>758.2</ele>
        <time>2020-06-06T08:42:59Z</time>
      </trkpt>
      <trkpt lat="46.03224" lon="4.59155">
        <ele>758.4</ele>
        <time>2020-06-06T08:43:03Z</time>
      </trkpt>
      <trkpt lat="46.03226" lon="4.59164">
        <ele>759.2</ele>
        <time>2020-06-06T08:43:07Z</time>
      </trkpt>
      <trkpt lat="46.03229" lon="4.59173">
        <ele>759.6</ele>
        <time>2020-06-06T08:43:11Z</time>
      </trkpt>
      <trkpt lat="46.03233" lon="4.59181">
        <ele>760.2</ele>
        <time>2020-06-06T08:43:15Z</time>
      </trkpt>
      <trkpt lat="46.03239" lon="4.5919">
        <ele>760.8</ele>
        <time>2020-06-06T08:43:19Z</time>
      </trkpt>
      <trkpt lat="46.03243" lon="4.59197">
        <ele>761.2</ele>
        <time>2020-06-06T08:43:23Z</time>
      </trkpt>
      <trkpt lat="46.03247" lon="4.59203">
        <ele>761.8</ele>
        <time>2020-06-06T08:43:27Z</time>
      </trkpt>
      <trkpt lat="46.03251" lon="4.59207">
        <ele>762.2</ele>
        <time>2020-06-06T08:43:31Z</time>
      </trkpt>
      <trkpt lat="46.03251" lon="4.59218">
        <ele>762.6</ele>
        <time>2020-06-06T08:43:35Z</time>
      </trkpt>
      <trkpt lat="46.03256" lon="4.5922">
        <ele>762.8</ele>
        <time>2020-06-06T08:43:39Z</time>
      </trkpt>
      <trkpt lat="46.03258" lon="4.59216">
        <ele>763.8</ele>
        <time>2020-06-06T08:43:43Z</time>
      </trkpt>
      <trkpt lat="46.03258" lon="4.59206">
        <ele>765.2</ele>
        <time>2020-06-06T08:44:00Z</time>
      </trkpt>
      <trkpt lat="46.03257" lon="4.59198">
        <ele>766</ele>
        <time>2020-06-06T08:44:04Z</time>
      </trkpt>
      <trkpt lat="46.03257" lon="4.5919">
        <ele>766.6</ele>
        <time>2020-06-06T08:44:08Z</time>
      </trkpt>
      <trkpt lat="46.03258" lon="4.59182">
        <ele>766.8</ele>
        <time>2020-06-06T08:44:12Z</time>
      </trkpt>
      <trkpt lat="46.03258" lon="4.59173">
        <ele>767.8</ele>
        <time>2020-06-06T08:44:16Z</time>
      </trkpt>
      <trkpt lat="46.03257" lon="4.59164">
        <ele>768.4</ele>
        <time>2020-06-06T08:44:20Z</time>
      </trkpt>
      <trkpt lat="46.03258" lon="4.59156">
        <ele>769.8</ele>
        <time>2020-06-06T08:44:24Z</time>
      </trkpt>
      <trkpt lat="46.03256" lon="4.59149">
        <ele>770.6</ele>
        <time>2020-06-06T08:44:28Z</time>
      </trkpt>
      <trkpt lat="46.03256" lon="4.59141">
        <ele>770.8</ele>
        <time>2020-06-06T08:44:32Z</time>
      </trkpt>
      <trkpt lat="46.03256" lon="4.59132">
        <ele>771.2</ele>
        <time>2020-06-06T08:44:36Z</time>
      </trkpt>
      <trkpt lat="46.03255" lon="4.59122">
        <ele>772.2</ele>
        <time>2020-06-06T08:44:40Z</time>
      </trkpt>
      <trkpt lat="46.03256" lon="4.59112">
        <ele>772.6</ele>
        <time>2020-06-06T08:44:44Z</time>
      </trkpt>
      <trkpt lat="46.03256" lon="4.59103">
        <ele>773.4</ele>
        <time>2020-06-06T08:44:48Z</time>
      </trkpt>
      <trkpt lat="46.03256" lon="4.59095">
        <ele>773.2</ele>
        <time>2020-06-06T08:44:52Z</time>
      </trkpt>
      <trkpt lat="46.03257" lon="4.59087">
        <ele>775.2</ele>
        <time>2020-06-06T08:44:56Z</time>
      </trkpt>
      <trkpt lat="46.03257" lon="4.59079">
        <ele>775.4</ele>
        <time>2020-06-06T08:45:00Z</time>
      </trkpt>
      <trkpt lat="46.03256" lon="4.59073">
        <ele>775.8</ele>
        <time>2020-06-06T08:45:04Z</time>
      </trkpt>
      <trkpt lat="46.03255" lon="4.59065">
        <ele>776.6</ele>
        <time>2020-06-06T08:45:08Z</time>
      </trkpt>
      <trkpt lat="46.03255" lon="4.59056">
        <ele>777.2</ele>
        <time>2020-06-06T08:45:12Z</time>
      </trkpt>
      <trkpt lat="46.03255" lon="4.59048">
        <ele>778</ele>
        <time>2020-06-06T08:45:16Z</time>
      </trkpt>
      <trkpt lat="46.03256" lon="4.59037">
        <ele>779</ele>
        <time>2020-06-06T08:45:20Z</time>
      </trkpt>
      <trkpt lat="46.03257" lon="4.59027">
        <ele>779.6</ele>
        <time>2020-06-06T08:45:24Z</time>
      </trkpt>
      <trkpt lat="46.03257" lon="4.5902">
        <ele>780.4</ele>
        <time>2020-06-06T08:45:28Z</time>
      </trkpt>
      <trkpt lat="46.03257" lon="4.59013">
        <ele>781.2</ele>
        <time>2020-06-06T08:45:32Z</time>
      </trkpt>
      <trkpt lat="46.03258" lon="4.59004">
        <ele>782.4</ele>
        <time>2020-06-06T08:45:36Z</time>
      </trkpt>
      <trkpt lat="46.03259" lon="4.58995">
        <ele>782.4</ele>
        <time>2020-06-06T08:45:40Z</time>
      </trkpt>
      <trkpt lat="46.03257" lon="4.58988">
        <ele>783</ele>
        <time>2020-06-06T08:45:44Z</time>
      </trkpt>
      <trkpt lat="46.03257" lon="4.58979">
        <ele>784.2</ele>
        <time>2020-06-06T08:45:48Z</time>
      </trkpt>
      <trkpt lat="46.03258" lon="4.5897">
        <ele>784.8</ele>
        <time>2020-06-06T08:45:52Z</time>
      </trkpt>
      <trkpt lat="46.03259" lon="4.58964">
        <ele>785.4</ele>
        <time>2020-06-06T08:45:56Z</time>
      </trkpt>
      <trkpt lat="46.03258" lon="4.58956">
        <ele>786.2</ele>
        <time>2020-06-06T08:46:00Z</time>
      </trkpt>
      <trkpt lat="46.03259" lon="4.58946">
        <ele>787.2</ele>
        <time>2020-06-06T08:46:04Z</time>
      </trkpt>
      <trkpt lat="46.03258" lon="4.58938">
        <ele>787.6</ele>
        <time>2020-06-06T08:46:08Z</time>
      </trkpt>
      <trkpt lat="46.03258" lon="4.5893">
        <ele>788</ele>
        <time>2020-06-06T08:46:12Z</time>
      </trkpt>
      <trkpt lat="46.03258" lon="4.5892">
        <ele>788.4</ele>
        <time>2020-06-06T08:46:16Z</time>
      </trkpt>
      <trkpt lat="46.03257" lon="4.58912">
        <ele>788.8</ele>
        <time>2020-06-06T08:46:20Z</time>
      </trkpt>
      <trkpt lat="46.03256" lon="4.58903">
        <ele>789.4</ele>
        <time>2020-06-06T08:46:24Z</time>
      </trkpt>
      <trkpt lat="46.03254" lon="4.58895">
        <ele>790.2</ele>
        <time>2020-06-06T08:46:28Z</time>
      </trkpt>
      <trkpt lat="46.03252" lon="4.58885">
        <ele>790.4</ele>
        <time>2020-06-06T08:46:32Z</time>
      </trkpt>
      <trkpt lat="46.03251" lon="4.58875">
        <ele>791</ele>
        <time>2020-06-06T08:46:36Z</time>
      </trkpt>
      <trkpt lat="46.03251" lon="4.58866">
        <ele>791.6</ele>
        <time>2020-06-06T08:46:40Z</time>
      </trkpt>
      <trkpt lat="46.03249" lon="4.58857">
        <ele>792.4</ele>
        <time>2020-06-06T08:46:44Z</time>
      </trkpt>
      <trkpt lat="46.03249" lon="4.58849">
        <ele>792.8</ele>
        <time>2020-06-06T08:46:48Z</time>
      </trkpt>
      <trkpt lat="46.03251" lon="4.58839">
        <ele>794.2</ele>
        <time>2020-06-06T08:46:52Z</time>
      </trkpt>
      <trkpt lat="46.03252" lon="4.5883">
        <ele>794.8</ele>
        <time>2020-06-06T08:46:56Z</time>
      </trkpt>
      <trkpt lat="46.03253" lon="4.58822">
        <ele>795</ele>
        <time>2020-06-06T08:47:00Z</time>
      </trkpt>
      <trkpt lat="46.03254" lon="4.58814">
        <ele>795.2</ele>
        <time>2020-06-06T08:47:04Z</time>
      </trkpt>
      <trkpt lat="46.03257" lon="4.58804">
        <ele>795.6</ele>
        <time>2020-06-06T08:47:08Z</time>
      </trkpt>
      <trkpt lat="46.03254" lon="4.58815">
        <ele>792.6</ele>
        <time>2020-06-06T08:51:05Z</time>
      </trkpt>
      <trkpt lat="46.03253" lon="4.58827">
        <ele>791.6</ele>
        <time>2020-06-06T08:51:09Z</time>
      </trkpt>
      <trkpt lat="46.03252" lon="4.58839">
        <ele>789.8</ele>
        <time>2020-06-06T08:51:13Z</time>
      </trkpt>
      <trkpt lat="46.03253" lon="4.58853">
        <ele>789.4</ele>
        <time>2020-06-06T08:51:17Z</time>
      </trkpt>
      <trkpt lat="46.03254" lon="4.58871">
        <ele>787.8</ele>
        <time>2020-06-06T08:51:21Z</time>
      </trkpt>
      <trkpt lat="46.03257" lon="4.5889">
        <ele>787.2</ele>
        <time>2020-06-06T08:51:25Z</time>
      </trkpt>
      <trkpt lat="46.03258" lon="4.58905">
        <ele>784.8</ele>
        <time>2020-06-06T08:51:29Z</time>
      </trkpt>
      <trkpt lat="46.03261" lon="4.58922">
        <ele>784</ele>
        <time>2020-06-06T08:51:33Z</time>
      </trkpt>
      <trkpt lat="46.03263" lon="4.58937">
        <ele>783</ele>
        <time>2020-06-06T08:51:37Z</time>
      </trkpt>
      <trkpt lat="46.03262" lon="4.58962">
        <ele>781.6</ele>
        <time>2020-06-06T08:51:41Z</time>
      </trkpt>
      <trkpt lat="46.03258" lon="4.58979">
        <ele>779.6</ele>
        <time>2020-06-06T08:51:45Z</time>
      </trkpt>
      <trkpt lat="46.03257" lon="4.58995">
        <ele>777.8</ele>
        <time>2020-06-06T08:51:49Z</time>
      </trkpt>
      <trkpt lat="46.03257" lon="4.59011">
        <ele>777</ele>
        <time>2020-06-06T08:51:53Z</time>
      </trkpt>
      <trkpt lat="46.03255" lon="4.59031">
        <ele>775.2</ele>
        <time>2020-06-06T08:51:57Z</time>
      </trkpt>
      <trkpt lat="46.03252" lon="4.59056">
        <ele>773.2</ele>
        <time>2020-06-06T08:52:01Z</time>
      </trkpt>
      <trkpt lat="46.03253" lon="4.59077">
        <ele>771.2</ele>
        <time>2020-06-06T08:52:05Z</time>
      </trkpt>
      <trkpt lat="46.03256" lon="4.59093">
        <ele>770.4</ele>
        <time>2020-06-06T08:52:09Z</time>
      </trkpt>
      <trkpt lat="46.03254" lon="4.59114">
        <ele>768.4</ele>
        <time>2020-06-06T08:52:13Z</time>
      </trkpt>
      <trkpt lat="46.03255" lon="4.59138">
        <ele>765.8</ele>
        <time>2020-06-06T08:52:17Z</time>
      </trkpt>
      <trkpt lat="46.03256" lon="4.59164">
        <ele>764.2</ele>
        <time>2020-06-06T08:52:21Z</time>
      </trkpt>
      <trkpt lat="46.03259" lon="4.59188">
        <ele>763.8</ele>
        <time>2020-06-06T08:52:25Z</time>
      </trkpt>
      <trkpt lat="46.03261" lon="4.59212">
        <ele>763.2</ele>
        <time>2020-06-06T08:52:29Z</time>
      </trkpt>
      <trkpt lat="46.03265" lon="4.59237">
        <ele>763</ele>
        <time>2020-06-06T08:52:33Z</time>
      </trkpt>
      <trkpt lat="46.03264" lon="4.59252">
        <ele>762.6</ele>
        <time>2020-06-06T08:52:37Z</time>
      </trkpt>
      <trkpt lat="46.03262" lon="4.59269">
        <ele>762.6</ele>
        <time>2020-06-06T08:52:41Z</time>
      </trkpt>
      <trkpt lat="46.03263" lon="4.59281">
        <ele>762.2</ele>
        <time>2020-06-06T08:52:45Z</time>
      </trkpt>
      <trkpt lat="46.03261" lon="4.59291">
        <ele>762.2</ele>
        <time>2020-06-06T08:52:49Z</time>
      </trkpt>
      <trkpt lat="46.03258" lon="4.59302">
        <ele>762</ele>
        <time>2020-06-06T08:52:53Z</time>
      </trkpt>
      <trkpt lat="46.03257" lon="4.59312">
        <ele>761.6</ele>
        <time>2020-06-06T08:52:57Z</time>
      </trkpt>
      <trkpt lat="46.03255" lon="4.59327">
        <ele>762.2</ele>
        <time>2020-06-06T08:53:01Z</time>
      </trkpt>
      <trkpt lat="46.03251" lon="4.59343">
        <ele>763</ele>
        <time>2020-06-06T08:53:05Z</time>
      </trkpt>
      <trkpt lat="46.03247" lon="4.59355">
        <ele>763.2</ele>
        <time>2020-06-06T08:53:09Z</time>
      </trkpt>
      <trkpt lat="46.03243" lon="4.59367">
        <ele>764.6</ele>
        <time>2020-06-06T08:53:13Z</time>
      </trkpt>
      <trkpt lat="46.0324" lon="4.59377">
        <ele>764.2</ele>
        <time>2020-06-06T08:53:17Z</time>
      </trkpt>
      <trkpt lat="46.03237" lon="4.59387">
        <ele>765.2</ele>
        <time>2020-06-06T08:53:21Z</time>
      </trkpt>
      <trkpt lat="46.03233" lon="4.59398">
        <ele>764.8</ele>
        <time>2020-06-06T08:53:25Z</time>
      </trkpt>
      <trkpt lat="46.0323" lon="4.59409">
        <ele>764.8</ele>
        <time>2020-06-06T08:53:29Z</time>
      </trkpt>
      <trkpt lat="46.03228" lon="4.5942">
        <ele>764.6</ele>
        <time>2020-06-06T08:53:33Z</time>
      </trkpt>
      <trkpt lat="46.03225" lon="4.59434">
        <ele>763.8</ele>
        <time>2020-06-06T08:53:37Z</time>
      </trkpt>
      <trkpt lat="46.03221" lon="4.59449">
        <ele>763.2</ele>
        <time>2020-06-06T08:53:41Z</time>
      </trkpt>
      <trkpt lat="46.03217" lon="4.59466">
        <ele>763</ele>
        <time>2020-06-06T08:53:45Z</time>
      </trkpt>
      <trkpt lat="46.03219" lon="4.5948">
        <ele>762.6</ele>
        <time>2020-06-06T08:53:49Z</time>
      </trkpt>
      <trkpt lat="46.03217" lon="4.59492">
        <ele>762.2</ele>
        <time>2020-06-06T08:53:53Z</time>
      </trkpt>
      <trkpt lat="46.03214" lon="4.59515">
        <ele>762.2</ele>
        <time>2020-06-06T08:53:57Z</time>
      </trkpt>
      <trkpt lat="46.03215" lon="4.59533">
        <ele>762.6</ele>
        <time>2020-06-06T08:54:01Z</time>
      </trkpt>
      <trkpt lat="46.03215" lon="4.59549">
        <ele>762.8</ele>
        <time>2020-06-06T08:54:05Z</time>
      </trkpt>
      <trkpt lat="46.03218" lon="4.59565">
        <ele>762.2</ele>
        <time>2020-06-06T08:54:09Z</time>
      </trkpt>
      <trkpt lat="46.0322" lon="4.59581">
        <ele>761.6</ele>
        <time>2020-06-06T08:54:13Z</time>
      </trkpt>
      <trkpt lat="46.03226" lon="4.59598">
        <ele>761.4</ele>
        <time>2020-06-06T08:54:17Z</time>
      </trkpt>
      <trkpt lat="46.03229" lon="4.59612">
        <ele>760.4</ele>
        <time>2020-06-06T08:54:21Z</time>
      </trkpt>
      <trkpt lat="46.03231" lon="4.59626">
        <ele>760</ele>
        <time>2020-06-06T08:54:25Z</time>
      </trkpt>
      <trkpt lat="46.03235" lon="4.59638">
        <ele>759.4</ele>
        <time>2020-06-06T08:54:29Z</time>
      </trkpt>
      <trkpt lat="46.03237" lon="4.5965">
        <ele>758.6</ele>
        <time>2020-06-06T08:54:33Z</time>
      </trkpt>
      <trkpt lat="46.03237" lon="4.59666">
        <ele>757.6</ele>
        <time>2020-06-06T08:54:37Z</time>
      </trkpt>
      <trkpt lat="46.03234" lon="4.59681">
        <ele>756.2</ele>
        <time>2020-06-06T08:54:41Z</time>
      </trkpt>
      <trkpt lat="46.03227" lon="4.59697">
        <ele>755.6</ele>
        <time>2020-06-06T08:54:45Z</time>
      </trkpt>
      <trkpt lat="46.03229" lon="4.59709">
        <ele>754.4</ele>
        <time>2020-06-06T08:54:49Z</time>
      </trkpt>
      <trkpt lat="46.03227" lon="4.59724">
        <ele>754.2</ele>
        <time>2020-06-06T08:54:53Z</time>
      </trkpt>
      <trkpt lat="46.03224" lon="4.59741">
        <ele>753.4</ele>
        <time>2020-06-06T08:54:57Z</time>
      </trkpt>
      <trkpt lat="46.03221" lon="4.59753">
        <ele>752.8</ele>
        <time>2020-06-06T08:55:01Z</time>
      </trkpt>
      <trkpt lat="46.03217" lon="4.59768">
        <ele>751.6</ele>
        <time>2020-06-06T08:55:05Z</time>
      </trkpt>
      <trkpt lat="46.03212" lon="4.59783">
        <ele>750.2</ele>
        <time>2020-06-06T08:55:09Z</time>
      </trkpt>
      <trkpt lat="46.03209" lon="4.59798">
        <ele>749.6</ele>
        <time>2020-06-06T08:55:13Z</time>
      </trkpt>
      <trkpt lat="46.03207" lon="4.5981">
        <ele>748</ele>
        <time>2020-06-06T08:55:17Z</time>
      </trkpt>
      <trkpt lat="46.03202" lon="4.59825">
        <ele>748</ele>
        <time>2020-06-06T08:55:21Z</time>
      </trkpt>
      <trkpt lat="46.03202" lon="4.59833">
        <ele>746</ele>
        <time>2020-06-06T08:55:25Z</time>
      </trkpt>
      <trkpt lat="46.03193" lon="4.59845">
        <ele>745.8</ele>
        <time>2020-06-06T08:55:29Z</time>
      </trkpt>
      <trkpt lat="46.03182" lon="4.59857">
        <ele>746</ele>
        <time>2020-06-06T08:55:33Z</time>
      </trkpt>
      <trkpt lat="46.0317" lon="4.59867">
        <ele>745.6</ele>
        <time>2020-06-06T08:55:37Z</time>
      </trkpt>
      <trkpt lat="46.03159" lon="4.59878">
        <ele>744.6</ele>
        <time>2020-06-06T08:55:41Z</time>
      </trkpt>
      <trkpt lat="46.03151" lon="4.59888">
        <ele>743.4</ele>
        <time>2020-06-06T08:55:45Z</time>
      </trkpt>
      <trkpt lat="46.03145" lon="4.59898">
        <ele>743</ele>
        <time>2020-06-06T08:55:49Z</time>
      </trkpt>
      <trkpt lat="46.03138" lon="4.59908">
        <ele>742.6</ele>
        <time>2020-06-06T08:55:53Z</time>
      </trkpt>
      <trkpt lat="46.03134" lon="4.59915">
        <ele>743</ele>
        <time>2020-06-06T08:55:57Z</time>
      </trkpt>
      <trkpt lat="46.03131" lon="4.59922">
        <ele>742</ele>
        <time>2020-06-06T08:56:01Z</time>
      </trkpt>
      <trkpt lat="46.03126" lon="4.59931">
        <ele>741.6</ele>
        <time>2020-06-06T08:56:05Z</time>
      </trkpt>
      <trkpt lat="46.03121" lon="4.5994">
        <ele>741</ele>
        <time>2020-06-06T08:56:09Z</time>
      </trkpt>
      <trkpt lat="46.03117" lon="4.59948">
        <ele>741</ele>
        <time>2020-06-06T08:56:13Z</time>
      </trkpt>
      <trkpt lat="46.03115" lon="4.59955">
        <ele>739.4</ele>
        <time>2020-06-06T08:56:17Z</time>
      </trkpt>
      <trkpt lat="46.03111" lon="4.59964">
        <ele>738.6</ele>
        <time>2020-06-06T08:56:21Z</time>
      </trkpt>
      <trkpt lat="46.0311" lon="4.5997">
        <ele>738.2</ele>
        <time>2020-06-06T08:56:25Z</time>
      </trkpt>
      <trkpt lat="46.03107" lon="4.59975">
        <ele>737.2</ele>
        <time>2020-06-06T08:56:29Z</time>
      </trkpt>
      <trkpt lat="46.03102" lon="4.59983">
        <ele>736.2</ele>
        <time>2020-06-06T08:56:33Z</time>
      </trkpt>
      <trkpt lat="46.03093" lon="4.59996">
        <ele>733.8</ele>
        <time>2020-06-06T08:56:43Z</time>
      </trkpt>
      <trkpt lat="46.03091" lon="4.60006">
        <ele>733.4</ele>
        <time>2020-06-06T08:56:47Z</time>
      </trkpt>
      <trkpt lat="46.03086" lon="4.60016">
        <ele>733.4</ele>
        <time>2020-06-06T08:56:51Z</time>
      </trkpt>
      <trkpt lat="46.03074" lon="4.60036">
        <ele>733.4</ele>
        <time>2020-06-06T08:56:55Z</time>
      </trkpt>
      <trkpt lat="46.03068" lon="4.60052">
        <ele>733.8</ele>
        <time>2020-06-06T08:56:59Z</time>
      </trkpt>
      <trkpt lat="46.03061" lon="4.60067">
        <ele>733.4</ele>
        <time>2020-06-06T08:57:03Z</time>
      </trkpt>
      <trkpt lat="46.03054" lon="4.60085">
        <ele>733.8</ele>
        <time>2020-06-06T08:57:07Z</time>
      </trkpt>
      <trkpt lat="46.03047" lon="4.60104">
        <ele>734</ele>
        <time>2020-06-06T08:57:11Z</time>
      </trkpt>
      <trkpt lat="46.03039" lon="4.60121">
        <ele>734.2</ele>
        <time>2020-06-06T08:57:15Z</time>
      </trkpt>
      <trkpt lat="46.03035" lon="4.60136">
        <ele>732.8</ele>
        <time>2020-06-06T08:57:19Z</time>
      </trkpt>
      <trkpt lat="46.03032" lon="4.60149">
        <ele>732</ele>
        <time>2020-06-06T08:57:23Z</time>
      </trkpt>
      <trkpt lat="46.03029" lon="4.60161">
        <ele>729.6</ele>
        <time>2020-06-06T08:57:27Z</time>
      </trkpt>
      <trkpt lat="46.03026" lon="4.60176">
        <ele>728.8</ele>
        <time>2020-06-06T08:57:31Z</time>
      </trkpt>
      <trkpt lat="46.03024" lon="4.6019">
        <ele>727.4</ele>
        <time>2020-06-06T08:57:35Z</time>
      </trkpt>
      <trkpt lat="46.03021" lon="4.602">
        <ele>726.6</ele>
        <time>2020-06-06T08:57:39Z</time>
      </trkpt>
      <trkpt lat="46.03017" lon="4.60209">
        <ele>725.2</ele>
        <time>2020-06-06T08:57:43Z</time>
      </trkpt>
      <trkpt lat="46.03013" lon="4.60218">
        <ele>724.4</ele>
        <time>2020-06-06T08:57:47Z</time>
      </trkpt>
      <trkpt lat="46.0301" lon="4.60227">
        <ele>723.4</ele>
        <time>2020-06-06T08:57:51Z</time>
      </trkpt>
      <trkpt lat="46.03005" lon="4.60236">
        <ele>722.6</ele>
        <time>2020-06-06T08:57:55Z</time>
      </trkpt>
      <trkpt lat="46.03001" lon="4.60244">
        <ele>721</ele>
        <time>2020-06-06T08:57:59Z</time>
      </trkpt>
      <trkpt lat="46.02995" lon="4.60251">
        <ele>720</ele>
        <time>2020-06-06T08:58:03Z</time>
      </trkpt>
      <trkpt lat="46.02992" lon="4.60256">
        <ele>718.4</ele>
        <time>2020-06-06T08:58:07Z</time>
      </trkpt>
      <trkpt lat="46.02985" lon="4.6026">
        <ele>717</ele>
        <time>2020-06-06T08:58:11Z</time>
      </trkpt>
      <trkpt lat="46.02981" lon="4.60266">
        <ele>716.2</ele>
        <time>2020-06-06T08:58:15Z</time>
      </trkpt>
      <trkpt lat="46.0298" lon="4.60274">
        <ele>715.2</ele>
        <time>2020-06-06T08:58:19Z</time>
      </trkpt>
      <trkpt lat="46.0298" lon="4.60287">
        <ele>714.2</ele>
        <time>2020-06-06T08:58:23Z</time>
      </trkpt>
      <trkpt lat="46.02979" lon="4.60306">
        <ele>712.2</ele>
        <time>2020-06-06T08:58:27Z</time>
      </trkpt>
      <trkpt lat="46.02977" lon="4.60321">
        <ele>711.6</ele>
        <time>2020-06-06T08:58:31Z</time>
      </trkpt>
      <trkpt lat="46.02975" lon="4.60339">
        <ele>710</ele>
        <time>2020-06-06T08:58:35Z</time>
      </trkpt>
      <trkpt lat="46.02971" lon="4.60357">
        <ele>710</ele>
        <time>2020-06-06T08:58:39Z</time>
      </trkpt>
      <trkpt lat="46.02964" lon="4.6037">
        <ele>709.8</ele>
        <time>2020-06-06T08:58:43Z</time>
      </trkpt>
      <trkpt lat="46.02959" lon="4.60387">
        <ele>709.6</ele>
        <time>2020-06-06T08:58:47Z</time>
      </trkpt>
      <trkpt lat="46.02955" lon="4.60398">
        <ele>708.6</ele>
        <time>2020-06-06T08:58:51Z</time>
      </trkpt>
      <trkpt lat="46.02952" lon="4.60411">
        <ele>707.2</ele>
        <time>2020-06-06T08:58:55Z</time>
      </trkpt>
      <trkpt lat="46.02949" lon="4.60428">
        <ele>706.4</ele>
        <time>2020-06-06T08:58:59Z</time>
      </trkpt>
      <trkpt lat="46.02948" lon="4.60442">
        <ele>705.8</ele>
        <time>2020-06-06T08:59:03Z</time>
      </trkpt>
      <trkpt lat="46.0295" lon="4.60457">
        <ele>705.8</ele>
        <time>2020-06-06T08:59:07Z</time>
      </trkpt>
      <trkpt lat="46.02949" lon="4.60482">
        <ele>704.4</ele>
        <time>2020-06-06T08:59:11Z</time>
      </trkpt>
      <trkpt lat="46.02948" lon="4.60498">
        <ele>704.8</ele>
        <time>2020-06-06T08:59:15Z</time>
      </trkpt>
      <trkpt lat="46.0296" lon="4.60535">
        <ele>703.8</ele>
        <time>2020-06-06T09:01:34Z</time>
      </trkpt>
      <trkpt lat="46.02959" lon="4.60545">
        <ele>703.4</ele>
        <time>2020-06-06T09:01:38Z</time>
      </trkpt>
      <trkpt lat="46.02962" lon="4.60553">
        <ele>702.2</ele>
        <time>2020-06-06T09:01:42Z</time>
      </trkpt>
      <trkpt lat="46.02963" lon="4.60562">
        <ele>701.2</ele>
        <time>2020-06-06T09:01:46Z</time>
      </trkpt>
      <trkpt lat="46.02964" lon="4.60571">
        <ele>700.4</ele>
        <time>2020-06-06T09:01:50Z</time>
      </trkpt>
      <trkpt lat="46.02964" lon="4.6058">
        <ele>699.6</ele>
        <time>2020-06-06T09:01:54Z</time>
      </trkpt>
      <trkpt lat="46.02966" lon="4.60591">
        <ele>698.6</ele>
        <time>2020-06-06T09:01:58Z</time>
      </trkpt>
      <trkpt lat="46.02967" lon="4.60601">
        <ele>698</ele>
        <time>2020-06-06T09:02:02Z</time>
      </trkpt>
      <trkpt lat="46.02969" lon="4.60609">
        <ele>697</ele>
        <time>2020-06-06T09:02:06Z</time>
      </trkpt>
      <trkpt lat="46.02971" lon="4.60618">
        <ele>696.4</ele>
        <time>2020-06-06T09:02:10Z</time>
      </trkpt>
      <trkpt lat="46.02972" lon="4.60627">
        <ele>696</ele>
        <time>2020-06-06T09:02:14Z</time>
      </trkpt>
      <trkpt lat="46.02974" lon="4.60634">
        <ele>694</ele>
        <time>2020-06-06T09:02:18Z</time>
      </trkpt>
      <trkpt lat="46.02977" lon="4.60643">
        <ele>693.4</ele>
        <time>2020-06-06T09:02:22Z</time>
      </trkpt>
      <trkpt lat="46.0298" lon="4.60655">
        <ele>692.6</ele>
        <time>2020-06-06T09:02:26Z</time>
      </trkpt>
      <trkpt lat="46.02982" lon="4.60665">
        <ele>691.8</ele>
        <time>2020-06-06T09:02:30Z</time>
      </trkpt>
      <trkpt lat="46.02985" lon="4.60675">
        <ele>690.4</ele>
        <time>2020-06-06T09:02:34Z</time>
      </trkpt>
      <trkpt lat="46.02987" lon="4.60685">
        <ele>689.8</ele>
        <time>2020-06-06T09:02:38Z</time>
      </trkpt>
      <trkpt lat="46.02989" lon="4.60698">
        <ele>688.4</ele>
        <time>2020-06-06T09:02:42Z</time>
      </trkpt>
      <trkpt lat="46.02991" lon="4.6071">
        <ele>687.6</ele>
        <time>2020-06-06T09:02:46Z</time>
      </trkpt>
      <trkpt lat="46.02994" lon="4.60724">
        <ele>686</ele>
        <time>2020-06-06T09:02:50Z</time>
      </trkpt>
      <trkpt lat="46.02998" lon="4.6074">
        <ele>686</ele>
        <time>2020-06-06T09:02:54Z</time>
      </trkpt>
      <trkpt lat="46.03002" lon="4.60753">
        <ele>686.4</ele>
        <time>2020-06-06T09:03:18Z</time>
      </trkpt>
      <trkpt lat="46.03005" lon="4.60762">
        <ele>684.8</ele>
        <time>2020-06-06T09:03:22Z</time>
      </trkpt>
      <trkpt lat="46.03009" lon="4.60774">
        <ele>684.8</ele>
        <time>2020-06-06T09:03:26Z</time>
      </trkpt>
      <trkpt lat="46.03011" lon="4.60784">
        <ele>684.6</ele>
        <time>2020-06-06T09:03:30Z</time>
      </trkpt>
      <trkpt lat="46.03012" lon="4.60795">
        <ele>681.8</ele>
        <time>2020-06-06T09:03:34Z</time>
      </trkpt>
      <trkpt lat="46.03013" lon="4.60805">
        <ele>681.4</ele>
        <time>2020-06-06T09:03:38Z</time>
      </trkpt>
      <trkpt lat="46.03015" lon="4.60814">
        <ele>680.4</ele>
        <time>2020-06-06T09:03:42Z</time>
      </trkpt>
      <trkpt lat="46.03015" lon="4.60822">
        <ele>679.4</ele>
        <time>2020-06-06T09:03:46Z</time>
      </trkpt>
      <trkpt lat="46.03017" lon="4.60831">
        <ele>678.2</ele>
        <time>2020-06-06T09:03:50Z</time>
      </trkpt>
      <trkpt lat="46.03019" lon="4.60839">
        <ele>677.4</ele>
        <time>2020-06-06T09:03:54Z</time>
      </trkpt>
      <trkpt lat="46.03019" lon="4.60849">
        <ele>673.8</ele>
        <time>2020-06-06T09:03:58Z</time>
      </trkpt>
      <trkpt lat="46.0302" lon="4.6086">
        <ele>674.2</ele>
        <time>2020-06-06T09:04:02Z</time>
      </trkpt>
      <trkpt lat="46.03021" lon="4.60869">
        <ele>673.8</ele>
        <time>2020-06-06T09:04:06Z</time>
      </trkpt>
      <trkpt lat="46.03022" lon="4.60877">
        <ele>672</ele>
        <time>2020-06-06T09:04:10Z</time>
      </trkpt>
      <trkpt lat="46.03024" lon="4.60885">
        <ele>670.4</ele>
        <time>2020-06-06T09:04:14Z</time>
      </trkpt>
      <trkpt lat="46.03027" lon="4.60899">
        <ele>669</ele>
        <time>2020-06-06T09:04:18Z</time>
      </trkpt>
      <trkpt lat="46.03029" lon="4.60911">
        <ele>667.8</ele>
        <time>2020-06-06T09:04:22Z</time>
      </trkpt>
      <trkpt lat="46.0303" lon="4.60923">
        <ele>666.4</ele>
        <time>2020-06-06T09:04:26Z</time>
      </trkpt>
      <trkpt lat="46.03032" lon="4.60933">
        <ele>665.8</ele>
        <time>2020-06-06T09:04:30Z</time>
      </trkpt>
      <trkpt lat="46.03034" lon="4.60944">
        <ele>664.8</ele>
        <time>2020-06-06T09:04:34Z</time>
      </trkpt>
      <trkpt lat="46.03036" lon="4.60952">
        <ele>663.8</ele>
        <time>2020-06-06T09:04:38Z</time>
      </trkpt>
      <trkpt lat="46.03037" lon="4.60959">
        <ele>662.8</ele>
        <time>2020-06-06T09:04:42Z</time>
      </trkpt>
      <trkpt lat="46.03039" lon="4.60967">
        <ele>662.8</ele>
        <time>2020-06-06T09:04:46Z</time>
      </trkpt>
      <trkpt lat="46.03042" lon="4.60976">
        <ele>661.4</ele>
        <time>2020-06-06T09:04:50Z</time>
      </trkpt>
      <trkpt lat="46.03044" lon="4.60984">
        <ele>660.8</ele>
        <time>2020-06-06T09:04:54Z</time>
      </trkpt>
      <trkpt lat="46.03047" lon="4.60992">
        <ele>658.8</ele>
        <time>2020-06-06T09:04:58Z</time>
      </trkpt>
      <trkpt lat="46.03049" lon="4.61">
        <ele>658</ele>
        <time>2020-06-06T09:05:02Z</time>
      </trkpt>
      <trkpt lat="46.03051" lon="4.61008">
        <ele>657.6</ele>
        <time>2020-06-06T09:05:06Z</time>
      </trkpt>
      <trkpt lat="46.03054" lon="4.61018">
        <ele>655.6</ele>
        <time>2020-06-06T09:05:10Z</time>
      </trkpt>
      <trkpt lat="46.03056" lon="4.61025">
        <ele>654.8</ele>
        <time>2020-06-06T09:05:14Z</time>
      </trkpt>
      <trkpt lat="46.03056" lon="4.61035">
        <ele>653.2</ele>
        <time>2020-06-06T09:05:18Z</time>
      </trkpt>
      <trkpt lat="46.03057" lon="4.61046">
        <ele>652</ele>
        <time>2020-06-06T09:05:22Z</time>
      </trkpt>
      <trkpt lat="46.03059" lon="4.61057">
        <ele>650.6</ele>
        <time>2020-06-06T09:05:26Z</time>
      </trkpt>
      <trkpt lat="46.0306" lon="4.61066">
        <ele>649.8</ele>
        <time>2020-06-06T09:05:30Z</time>
      </trkpt>
      <trkpt lat="46.03058" lon="4.61079">
        <ele>648.2</ele>
        <time>2020-06-06T09:05:34Z</time>
      </trkpt>
      <trkpt lat="46.03061" lon="4.6109">
        <ele>646.4</ele>
        <time>2020-06-06T09:05:38Z</time>
      </trkpt>
      <trkpt lat="46.03061" lon="4.61107">
        <ele>645.8</ele>
        <time>2020-06-06T09:05:42Z</time>
      </trkpt>
      <trkpt lat="46.03063" lon="4.61117">
        <ele>644.2</ele>
        <time>2020-06-06T09:05:46Z</time>
      </trkpt>
      <trkpt lat="46.0307" lon="4.61131">
        <ele>642.4</ele>
        <time>2020-06-06T09:05:50Z</time>
      </trkpt>
      <trkpt lat="46.03074" lon="4.61139">
        <ele>640.2</ele>
        <time>2020-06-06T09:05:54Z</time>
      </trkpt>
      <trkpt lat="46.03082" lon="4.61151">
        <ele>639</ele>
        <time>2020-06-06T09:05:58Z</time>
      </trkpt>
      <trkpt lat="46.03087" lon="4.61161">
        <ele>636</ele>
        <time>2020-06-06T09:06:02Z</time>
      </trkpt>
      <trkpt lat="46.03092" lon="4.61168">
        <ele>635.6</ele>
        <time>2020-06-06T09:06:06Z</time>
      </trkpt>
      <trkpt lat="46.03093" lon="4.61181">
        <ele>632.8</ele>
        <time>2020-06-06T09:06:10Z</time>
      </trkpt>
      <trkpt lat="46.03095" lon="4.61193">
        <ele>633</ele>
        <time>2020-06-06T09:06:14Z</time>
      </trkpt>
      <trkpt lat="46.031" lon="4.61205">
        <ele>630.8</ele>
        <time>2020-06-06T09:06:18Z</time>
      </trkpt>
      <trkpt lat="46.03103" lon="4.61213">
        <ele>628.8</ele>
        <time>2020-06-06T09:06:22Z</time>
      </trkpt>
      <trkpt lat="46.0311" lon="4.61223">
        <ele>627.2</ele>
        <time>2020-06-06T09:06:26Z</time>
      </trkpt>
      <trkpt lat="46.03113" lon="4.61234">
        <ele>626.2</ele>
        <time>2020-06-06T09:06:30Z</time>
      </trkpt>
      <trkpt lat="46.03115" lon="4.61251">
        <ele>625</ele>
        <time>2020-06-06T09:07:34Z</time>
      </trkpt>
      <trkpt lat="46.03119" lon="4.61266">
        <ele>623.6</ele>
        <time>2020-06-06T09:07:38Z</time>
      </trkpt>
      <trkpt lat="46.03129" lon="4.61289">
        <ele>620.8</ele>
        <time>2020-06-06T09:07:42Z</time>
      </trkpt>
      <trkpt lat="46.03135" lon="4.61324">
        <ele>618.2</ele>
        <time>2020-06-06T09:07:46Z</time>
      </trkpt>
      <trkpt lat="46.03139" lon="4.61365">
        <ele>615.8</ele>
        <time>2020-06-06T09:07:50Z</time>
      </trkpt>
      <trkpt lat="46.03144" lon="4.61412">
        <ele>614</ele>
        <time>2020-06-06T09:07:54Z</time>
      </trkpt>
      <trkpt lat="46.03153" lon="4.6146">
        <ele>611</ele>
        <time>2020-06-06T09:07:58Z</time>
      </trkpt>
      <trkpt lat="46.03158" lon="4.61508">
        <ele>610</ele>
        <time>2020-06-06T09:08:02Z</time>
      </trkpt>
      <trkpt lat="46.03155" lon="4.6156">
        <ele>606.8</ele>
        <time>2020-06-06T09:08:06Z</time>
      </trkpt>
      <trkpt lat="46.03149" lon="4.61615">
        <ele>603.6</ele>
        <time>2020-06-06T09:08:10Z</time>
      </trkpt>
      <trkpt lat="46.03142" lon="4.61673">
        <ele>600</ele>
        <time>2020-06-06T09:08:14Z</time>
      </trkpt>
      <trkpt lat="46.03134" lon="4.61735">
        <ele>596.6</ele>
        <time>2020-06-06T09:08:18Z</time>
      </trkpt>
      <trkpt lat="46.03128" lon="4.61791">
        <ele>596.8</ele>
        <time>2020-06-06T09:08:22Z</time>
      </trkpt>
      <trkpt lat="46.03123" lon="4.61831">
        <ele>596.2</ele>
        <time>2020-06-06T09:08:26Z</time>
      </trkpt>
      <trkpt lat="46.03118" lon="4.61866">
        <ele>595</ele>
        <time>2020-06-06T09:08:30Z</time>
      </trkpt>
      <trkpt lat="46.03114" lon="4.61904">
        <ele>593.6</ele>
        <time>2020-06-06T09:08:34Z</time>
      </trkpt>
      <trkpt lat="46.03106" lon="4.61944">
        <ele>591.2</ele>
        <time>2020-06-06T09:08:38Z</time>
      </trkpt>
      <trkpt lat="46.03097" lon="4.61988">
        <ele>590.2</ele>
        <time>2020-06-06T09:08:42Z</time>
      </trkpt>
      <trkpt lat="46.03101" lon="4.62035">
        <ele>588.6</ele>
        <time>2020-06-06T09:08:46Z</time>
      </trkpt>
      <trkpt lat="46.03119" lon="4.62078">
        <ele>585.8</ele>
        <time>2020-06-06T09:08:50Z</time>
      </trkpt>
      <trkpt lat="46.03143" lon="4.62116">
        <ele>584.8</ele>
        <time>2020-06-06T09:08:54Z</time>
      </trkpt>
      <trkpt lat="46.03165" lon="4.62158">
        <ele>582.8</ele>
        <time>2020-06-06T09:08:58Z</time>
      </trkpt>
      <trkpt lat="46.03179" lon="4.62208">
        <ele>581.4</ele>
        <time>2020-06-06T09:09:02Z</time>
      </trkpt>
      <trkpt lat="46.03179" lon="4.62251">
        <ele>583.4</ele>
        <time>2020-06-06T09:09:06Z</time>
      </trkpt>
      <trkpt lat="46.03172" lon="4.62282">
        <ele>584.6</ele>
        <time>2020-06-06T09:09:10Z</time>
      </trkpt>
      <trkpt lat="46.03163" lon="4.62303">
        <ele>585</ele>
        <time>2020-06-06T09:09:14Z</time>
      </trkpt>
      <trkpt lat="46.03154" lon="4.62323">
        <ele>585</ele>
        <time>2020-06-06T09:10:07Z</time>
      </trkpt>
      <trkpt lat="46.03159" lon="4.62316">
        <ele>585.4</ele>
        <time>2020-06-06T09:10:11Z</time>
      </trkpt>
      <trkpt lat="46.03164" lon="4.62305">
        <ele>585.4</ele>
        <time>2020-06-06T09:10:15Z</time>
      </trkpt>
      <trkpt lat="46.0317" lon="4.62293">
        <ele>585.4</ele>
        <time>2020-06-06T09:10:19Z</time>
      </trkpt>
      <trkpt lat="46.03175" lon="4.62278">
        <ele>585.2</ele>
        <time>2020-06-06T09:10:23Z</time>
      </trkpt>
      <trkpt lat="46.03179" lon="4.62259">
        <ele>584.4</ele>
        <time>2020-06-06T09:10:27Z</time>
      </trkpt>
      <trkpt lat="46.03185" lon="4.62243">
        <ele>583.2</ele>
        <time>2020-06-06T09:10:31Z</time>
      </trkpt>
      <trkpt lat="46.03201" lon="4.62251">
        <ele>582</ele>
        <time>2020-06-06T09:10:35Z</time>
      </trkpt>
      <trkpt lat="46.03222" lon="4.62254">
        <ele>580.4</ele>
        <time>2020-06-06T09:10:39Z</time>
      </trkpt>
      <trkpt lat="46.03246" lon="4.62251">
        <ele>578</ele>
        <time>2020-06-06T09:10:43Z</time>
      </trkpt>
      <trkpt lat="46.03272" lon="4.62244">
        <ele>577.4</ele>
        <time>2020-06-06T09:10:47Z</time>
      </trkpt>
      <trkpt lat="46.033" lon="4.62236">
        <ele>576</ele>
        <time>2020-06-06T09:10:51Z</time>
      </trkpt>
      <trkpt lat="46.03331" lon="4.6224">
        <ele>574</ele>
        <time>2020-06-06T09:10:55Z</time>
      </trkpt>
      <trkpt lat="46.0336" lon="4.62257">
        <ele>573.8</ele>
        <time>2020-06-06T09:10:59Z</time>
      </trkpt>
      <trkpt lat="46.0337" lon="4.62299">
        <ele>570.8</ele>
        <time>2020-06-06T09:11:03Z</time>
      </trkpt>
      <trkpt lat="46.03379" lon="4.6234">
        <ele>568.6</ele>
        <time>2020-06-06T09:11:07Z</time>
      </trkpt>
      <trkpt lat="46.03395" lon="4.62383">
        <ele>566.2</ele>
        <time>2020-06-06T09:11:11Z</time>
      </trkpt>
      <trkpt lat="46.03416" lon="4.62425">
        <ele>564</ele>
        <time>2020-06-06T09:11:15Z</time>
      </trkpt>
      <trkpt lat="46.0344" lon="4.62462">
        <ele>563</ele>
        <time>2020-06-06T09:11:19Z</time>
      </trkpt>
      <trkpt lat="46.03469" lon="4.62492">
        <ele>562</ele>
        <time>2020-06-06T09:11:23Z</time>
      </trkpt>
      <trkpt lat="46.03501" lon="4.62516">
        <ele>560.6</ele>
        <time>2020-06-06T09:11:27Z</time>
      </trkpt>
      <trkpt lat="46.03532" lon="4.62544">
        <ele>558.4</ele>
        <time>2020-06-06T09:11:31Z</time>
      </trkpt>
      <trkpt lat="46.03564" lon="4.6257">
        <ele>554.8</ele>
        <time>2020-06-06T09:11:35Z</time>
      </trkpt>
      <trkpt lat="46.03599" lon="4.62594">
        <ele>552.8</ele>
        <time>2020-06-06T09:11:39Z</time>
      </trkpt>
      <trkpt lat="46.0363" lon="4.62627">
        <ele>551.8</ele>
        <time>2020-06-06T09:11:43Z</time>
      </trkpt>
      <trkpt lat="46.0365" lon="4.62673">
        <ele>549</ele>
        <time>2020-06-06T09:11:47Z</time>
      </trkpt>
      <trkpt lat="46.03658" lon="4.62727">
        <ele>545.8</ele>
        <time>2020-06-06T09:11:51Z</time>
      </trkpt>
      <trkpt lat="46.03658" lon="4.62784">
        <ele>545.2</ele>
        <time>2020-06-06T09:11:55Z</time>
      </trkpt>
      <trkpt lat="46.03663" lon="4.62842">
        <ele>542</ele>
        <time>2020-06-06T09:11:59Z</time>
      </trkpt>
      <trkpt lat="46.03679" lon="4.62896">
        <ele>538.2</ele>
        <time>2020-06-06T09:12:03Z</time>
      </trkpt>
      <trkpt lat="46.03698" lon="4.62952">
        <ele>535.4</ele>
        <time>2020-06-06T09:12:07Z</time>
      </trkpt>
      <trkpt lat="46.03721" lon="4.63004">
        <ele>532.6</ele>
        <time>2020-06-06T09:12:11Z</time>
      </trkpt>
      <trkpt lat="46.03739" lon="4.63058">
        <ele>529.8</ele>
        <time>2020-06-06T09:12:15Z</time>
      </trkpt>
      <trkpt lat="46.03745" lon="4.63118">
        <ele>527.8</ele>
        <time>2020-06-06T09:12:19Z</time>
      </trkpt>
      <trkpt lat="46.03747" lon="4.63179">
        <ele>525</ele>
        <time>2020-06-06T09:12:23Z</time>
      </trkpt>
      <trkpt lat="46.03742" lon="4.63242">
        <ele>521.2</ele>
        <time>2020-06-06T09:12:27Z</time>
      </trkpt>
      <trkpt lat="46.03737" lon="4.63307">
        <ele>518.8</ele>
        <time>2020-06-06T09:12:31Z</time>
      </trkpt>
      <trkpt lat="46.03738" lon="4.63371">
        <ele>515.8</ele>
        <time>2020-06-06T09:12:35Z</time>
      </trkpt>
      <trkpt lat="46.03739" lon="4.63436">
        <ele>512.6</ele>
        <time>2020-06-06T09:12:39Z</time>
      </trkpt>
      <trkpt lat="46.03743" lon="4.63501">
        <ele>511</ele>
        <time>2020-06-06T09:12:43Z</time>
      </trkpt>
      <trkpt lat="46.03744" lon="4.63567">
        <ele>506.8</ele>
        <time>2020-06-06T09:12:47Z</time>
      </trkpt>
      <trkpt lat="46.0374" lon="4.63635">
        <ele>505.2</ele>
        <time>2020-06-06T09:12:51Z</time>
      </trkpt>
      <trkpt lat="46.0373" lon="4.63694">
        <ele>501.6</ele>
        <time>2020-06-06T09:12:55Z</time>
      </trkpt>
      <trkpt lat="46.03699" lon="4.63729">
        <ele>499.2</ele>
        <time>2020-06-06T09:12:59Z</time>
      </trkpt>
      <trkpt lat="46.03674" lon="4.63772">
        <ele>497.2</ele>
        <time>2020-06-06T09:13:03Z</time>
      </trkpt>
      <trkpt lat="46.0368" lon="4.6383">
        <ele>493.4</ele>
        <time>2020-06-06T09:13:07Z</time>
      </trkpt>
      <trkpt lat="46.0369" lon="4.63889">
        <ele>490.8</ele>
        <time>2020-06-06T09:13:11Z</time>
      </trkpt>
      <trkpt lat="46.03699" lon="4.63947">
        <ele>487.8</ele>
        <time>2020-06-06T09:13:15Z</time>
      </trkpt>
      <trkpt lat="46.03708" lon="4.64005">
        <ele>486.8</ele>
        <time>2020-06-06T09:13:19Z</time>
      </trkpt>
      <trkpt lat="46.03717" lon="4.64065">
        <ele>482.4</ele>
        <time>2020-06-06T09:13:23Z</time>
      </trkpt>
      <trkpt lat="46.03727" lon="4.64124">
        <ele>480.8</ele>
        <time>2020-06-06T09:13:27Z</time>
      </trkpt>
      <trkpt lat="46.03735" lon="4.64183">
        <ele>478.8</ele>
        <time>2020-06-06T09:13:31Z</time>
      </trkpt>
      <trkpt lat="46.03742" lon="4.64243">
        <ele>476.4</ele>
        <time>2020-06-06T09:13:35Z</time>
      </trkpt>
      <trkpt lat="46.03748" lon="4.64292">
        <ele>477.8</ele>
        <time>2020-06-06T09:13:39Z</time>
      </trkpt>
      <trkpt lat="46.0375" lon="4.64318">
        <ele>478</ele>
        <time>2020-06-06T09:13:43Z</time>
      </trkpt>
      <trkpt lat="46.0375" lon="4.64324">
        <ele>478.2</ele>
        <time>2020-06-06T09:15:09Z</time>
      </trkpt>
      <trkpt lat="46.03765" lon="4.6433">
        <ele>477.6</ele>
        <time>2020-06-06T09:15:23Z</time>
      </trkpt>
      <trkpt lat="46.03777" lon="4.64312">
        <ele>476</ele>
        <time>2020-06-06T09:15:27Z</time>
      </trkpt>
      <trkpt lat="46.03794" lon="4.64285">
        <ele>473.6</ele>
        <time>2020-06-06T09:15:31Z</time>
      </trkpt>
      <trkpt lat="46.03815" lon="4.64254">
        <ele>471</ele>
        <time>2020-06-06T09:15:35Z</time>
      </trkpt>
      <trkpt lat="46.03841" lon="4.64223">
        <ele>468</ele>
        <time>2020-06-06T09:15:39Z</time>
      </trkpt>
      <trkpt lat="46.03873" lon="4.64194">
        <ele>464.6</ele>
        <time>2020-06-06T09:15:43Z</time>
      </trkpt>
      <trkpt lat="46.03907" lon="4.64166">
        <ele>462.2</ele>
        <time>2020-06-06T09:15:47Z</time>
      </trkpt>
      <trkpt lat="46.0394" lon="4.64139">
        <ele>460.2</ele>
        <time>2020-06-06T09:15:51Z</time>
      </trkpt>
      <trkpt lat="46.03974" lon="4.64108">
        <ele>457.2</ele>
        <time>2020-06-06T09:15:55Z</time>
      </trkpt>
      <trkpt lat="46.04011" lon="4.64076">
        <ele>453.4</ele>
        <time>2020-06-06T09:15:59Z</time>
      </trkpt>
      <trkpt lat="46.04047" lon="4.64046">
        <ele>451.4</ele>
        <time>2020-06-06T09:16:03Z</time>
      </trkpt>
      <trkpt lat="46.0408" lon="4.64019">
        <ele>450</ele>
        <time>2020-06-06T09:16:07Z</time>
      </trkpt>
      <trkpt lat="46.04109" lon="4.63995">
        <ele>449</ele>
        <time>2020-06-06T09:16:11Z</time>
      </trkpt>
      <trkpt lat="46.04134" lon="4.63975">
        <ele>448.6</ele>
        <time>2020-06-06T09:16:15Z</time>
      </trkpt>
      <trkpt lat="46.04158" lon="4.63953">
        <ele>447.4</ele>
        <time>2020-06-06T09:16:19Z</time>
      </trkpt>
      <trkpt lat="46.04177" lon="4.63936">
        <ele>446.2</ele>
        <time>2020-06-06T09:16:23Z</time>
      </trkpt>
      <trkpt lat="46.04177" lon="4.63936">
        <ele>447</ele>
        <time>2020-06-06T09:16:27Z</time>
      </trkpt>
      <trkpt lat="46.04184" lon="4.63932">
        <ele>446.2</ele>
        <time>2020-06-06T09:17:26Z</time>
      </trkpt>
      <trkpt lat="46.04194" lon="4.63923">
        <ele>444.8</ele>
        <time>2020-06-06T09:17:30Z</time>
      </trkpt>
      <trkpt lat="46.04208" lon="4.6391">
        <ele>443.2</ele>
        <time>2020-06-06T09:17:34Z</time>
      </trkpt>
      <trkpt lat="46.04227" lon="4.63895">
        <ele>441.6</ele>
        <time>2020-06-06T09:17:38Z</time>
      </trkpt>
      <trkpt lat="46.04249" lon="4.63876">
        <ele>439.6</ele>
        <time>2020-06-06T09:17:42Z</time>
      </trkpt>
      <trkpt lat="46.04274" lon="4.63856">
        <ele>436.6</ele>
        <time>2020-06-06T09:17:46Z</time>
      </trkpt>
      <trkpt lat="46.04299" lon="4.63833">
        <ele>435</ele>
        <time>2020-06-06T09:17:50Z</time>
      </trkpt>
      <trkpt lat="46.04323" lon="4.63814">
        <ele>434.6</ele>
        <time>2020-06-06T09:17:54Z</time>
      </trkpt>
      <trkpt lat="46.04347" lon="4.63795">
        <ele>432.6</ele>
        <time>2020-06-06T09:17:58Z</time>
      </trkpt>
      <trkpt lat="46.04372" lon="4.63772">
        <ele>431.6</ele>
        <time>2020-06-06T09:18:02Z</time>
      </trkpt>
      <trkpt lat="46.04397" lon="4.63751">
        <ele>430.2</ele>
        <time>2020-06-06T09:18:06Z</time>
      </trkpt>
      <trkpt lat="46.04421" lon="4.63734">
        <ele>428.2</ele>
        <time>2020-06-06T09:18:10Z</time>
      </trkpt>
      <trkpt lat="46.04447" lon="4.63729">
        <ele>427.4</ele>
        <time>2020-06-06T09:18:14Z</time>
      </trkpt>
      <trkpt lat="46.04466" lon="4.63752">
        <ele>426.8</ele>
        <time>2020-06-06T09:18:18Z</time>
      </trkpt>
      <trkpt lat="46.04475" lon="4.6378">
        <ele>426.6</ele>
        <time>2020-06-06T09:18:22Z</time>
      </trkpt>
      <trkpt lat="46.04479" lon="4.63806">
        <ele>427</ele>
        <time>2020-06-06T09:18:26Z</time>
      </trkpt>
      <trkpt lat="46.04485" lon="4.63832">
        <ele>426.4</ele>
        <time>2020-06-06T09:18:30Z</time>
      </trkpt>
      <trkpt lat="46.04493" lon="4.63856">
        <ele>427.4</ele>
        <time>2020-06-06T09:18:34Z</time>
      </trkpt>
      <trkpt lat="46.04506" lon="4.63877">
        <ele>427.8</ele>
        <time>2020-06-06T09:18:38Z</time>
      </trkpt>
      <trkpt lat="46.04523" lon="4.63894">
        <ele>428.2</ele>
        <time>2020-06-06T09:18:42Z</time>
      </trkpt>
      <trkpt lat="46.04538" lon="4.63907">
        <ele>429</ele>
        <time>2020-06-06T09:18:46Z</time>
      </trkpt>
      <trkpt lat="46.0455" lon="4.63919">
        <ele>430</ele>
        <time>2020-06-06T09:18:50Z</time>
      </trkpt>
      <trkpt lat="46.04561" lon="4.63929">
        <ele>430.2</ele>
        <time>2020-06-06T09:18:54Z</time>
      </trkpt>
      <trkpt lat="46.0457" lon="4.63938">
        <ele>430.4</ele>
        <time>2020-06-06T09:18:58Z</time>
      </trkpt>
      <trkpt lat="46.04579" lon="4.63947">
        <ele>430.8</ele>
        <time>2020-06-06T09:19:02Z</time>
      </trkpt>
      <trkpt lat="46.04587" lon="4.63956">
        <ele>431.6</ele>
        <time>2020-06-06T09:19:06Z</time>
      </trkpt>
      <trkpt lat="46.04596" lon="4.63963">
        <ele>432.6</ele>
        <time>2020-06-06T09:19:10Z</time>
      </trkpt>
      <trkpt lat="46.04604" lon="4.63971">
        <ele>433</ele>
        <time>2020-06-06T09:19:14Z</time>
      </trkpt>
      <trkpt lat="46.04611" lon="4.63979">
        <ele>434.2</ele>
        <time>2020-06-06T09:19:18Z</time>
      </trkpt>
      <trkpt lat="46.0462" lon="4.63985">
        <ele>434.4</ele>
        <time>2020-06-06T09:19:22Z</time>
      </trkpt>
      <trkpt lat="46.04629" lon="4.63991">
        <ele>435</ele>
        <time>2020-06-06T09:19:26Z</time>
      </trkpt>
      <trkpt lat="46.0464" lon="4.63995">
        <ele>435.6</ele>
        <time>2020-06-06T09:19:30Z</time>
      </trkpt>
      <trkpt lat="46.04651" lon="4.63997">
        <ele>436</ele>
        <time>2020-06-06T09:19:34Z</time>
      </trkpt>
      <trkpt lat="46.04662" lon="4.63996">
        <ele>436.8</ele>
        <time>2020-06-06T09:19:38Z</time>
      </trkpt>
      <trkpt lat="46.04674" lon="4.63992">
        <ele>436.8</ele>
        <time>2020-06-06T09:19:42Z</time>
      </trkpt>
      <trkpt lat="46.04685" lon="4.63986">
        <ele>436.8</ele>
        <time>2020-06-06T09:19:46Z</time>
      </trkpt>
      <trkpt lat="46.04696" lon="4.63977">
        <ele>436.8</ele>
        <time>2020-06-06T09:19:50Z</time>
      </trkpt>
      <trkpt lat="46.04708" lon="4.63966">
        <ele>436.8</ele>
        <time>2020-06-06T09:19:54Z</time>
      </trkpt>
      <trkpt lat="46.04721" lon="4.63953">
        <ele>436.2</ele>
        <time>2020-06-06T09:19:58Z</time>
      </trkpt>
      <trkpt lat="46.04735" lon="4.6394">
        <ele>435.8</ele>
        <time>2020-06-06T09:20:02Z</time>
      </trkpt>
      <trkpt lat="46.04749" lon="4.63929">
        <ele>436.8</ele>
        <time>2020-06-06T09:20:06Z</time>
      </trkpt>
      <trkpt lat="46.04765" lon="4.63919">
        <ele>436.2</ele>
        <time>2020-06-06T09:20:10Z</time>
      </trkpt>
      <trkpt lat="46.04781" lon="4.63912">
        <ele>436.2</ele>
        <time>2020-06-06T09:20:14Z</time>
      </trkpt>
      <trkpt lat="46.04797" lon="4.63907">
        <ele>435.6</ele>
        <time>2020-06-06T09:20:18Z</time>
      </trkpt>
      <trkpt lat="46.04813" lon="4.63901">
        <ele>436</ele>
        <time>2020-06-06T09:20:22Z</time>
      </trkpt>
      <trkpt lat="46.04829" lon="4.63896">
        <ele>436.2</ele>
        <time>2020-06-06T09:20:26Z</time>
      </trkpt>
      <trkpt lat="46.04845" lon="4.63891">
        <ele>436.6</ele>
        <time>2020-06-06T09:20:30Z</time>
      </trkpt>
      <trkpt lat="46.04861" lon="4.63886">
        <ele>436.6</ele>
        <time>2020-06-06T09:20:34Z</time>
      </trkpt>
      <trkpt lat="46.04877" lon="4.63881">
        <ele>436.8</ele>
        <time>2020-06-06T09:20:38Z</time>
      </trkpt>
      <trkpt lat="46.04893" lon="4.63876">
        <ele>437</ele>
        <time>2020-06-06T09:20:42Z</time>
      </trkpt>
      <trkpt lat="46.04909" lon="4.63871">
        <ele>436.8</ele>
        <time>2020-06-06T09:20:46Z</time>
      </trkpt>
      <trkpt lat="46.04924" lon="4.63867">
        <ele>437.2</ele>
        <time>2020-06-06T09:20:50Z</time>
      </trkpt>
      <trkpt lat="46.0494" lon="4.63862">
        <ele>437.2</ele>
        <time>2020-06-06T09:20:54Z</time>
      </trkpt>
      <trkpt lat="46.04955" lon="4.63858">
        <ele>437.2</ele>
        <time>2020-06-06T09:20:58Z</time>
      </trkpt>
      <trkpt lat="46.0497" lon="4.63853">
        <ele>437.8</ele>
        <time>2020-06-06T09:21:02Z</time>
      </trkpt>
      <trkpt lat="46.04986" lon="4.63849">
        <ele>438</ele>
        <time>2020-06-06T09:21:06Z</time>
      </trkpt>
      <trkpt lat="46.05001" lon="4.63844">
        <ele>438.6</ele>
        <time>2020-06-06T09:21:10Z</time>
      </trkpt>
      <trkpt lat="46.05017" lon="4.63839">
        <ele>437.8</ele>
        <time>2020-06-06T09:21:14Z</time>
      </trkpt>
      <trkpt lat="46.05034" lon="4.63833">
        <ele>436.8</ele>
        <time>2020-06-06T09:21:18Z</time>
      </trkpt>
      <trkpt lat="46.05051" lon="4.63823">
        <ele>435.4</ele>
        <time>2020-06-06T09:21:22Z</time>
      </trkpt>
      <trkpt lat="46.05068" lon="4.63807">
        <ele>434.2</ele>
        <time>2020-06-06T09:21:26Z</time>
      </trkpt>
      <trkpt lat="46.05084" lon="4.63783">
        <ele>432.6</ele>
        <time>2020-06-06T09:21:30Z</time>
      </trkpt>
      <trkpt lat="46.05096" lon="4.63754">
        <ele>432</ele>
        <time>2020-06-06T09:21:34Z</time>
      </trkpt>
      <trkpt lat="46.05109" lon="4.63721">
        <ele>431.4</ele>
        <time>2020-06-06T09:21:38Z</time>
      </trkpt>
      <trkpt lat="46.05121" lon="4.63686">
        <ele>429.6</ele>
        <time>2020-06-06T09:21:42Z</time>
      </trkpt>
      <trkpt lat="46.05135" lon="4.63649">
        <ele>428</ele>
        <time>2020-06-06T09:21:46Z</time>
      </trkpt>
      <trkpt lat="46.05156" lon="4.63617">
        <ele>426.6</ele>
        <time>2020-06-06T09:21:50Z</time>
      </trkpt>
      <trkpt lat="46.05189" lon="4.63606">
        <ele>424.4</ele>
        <time>2020-06-06T09:21:54Z</time>
      </trkpt>
      <trkpt lat="46.05226" lon="4.63604">
        <ele>421</ele>
        <time>2020-06-06T09:21:58Z</time>
      </trkpt>
      <trkpt lat="46.05265" lon="4.63604">
        <ele>417.8</ele>
        <time>2020-06-06T09:22:02Z</time>
      </trkpt>
      <trkpt lat="46.05307" lon="4.63605">
        <ele>414.8</ele>
        <time>2020-06-06T09:22:06Z</time>
      </trkpt>
      <trkpt lat="46.0535" lon="4.63611">
        <ele>411.8</ele>
        <time>2020-06-06T09:22:10Z</time>
      </trkpt>
      <trkpt lat="46.05395" lon="4.6362">
        <ele>409.4</ele>
        <time>2020-06-06T09:22:14Z</time>
      </trkpt>
      <trkpt lat="46.05439" lon="4.63633">
        <ele>406.6</ele>
        <time>2020-06-06T09:22:18Z</time>
      </trkpt>
      <trkpt lat="46.05484" lon="4.63649">
        <ele>400.6</ele>
        <time>2020-06-06T09:22:22Z</time>
      </trkpt>
      <trkpt lat="46.05529" lon="4.63665">
        <ele>401.2</ele>
        <time>2020-06-06T09:22:26Z</time>
      </trkpt>
      <trkpt lat="46.0557" lon="4.6368">
        <ele>401.4</ele>
        <time>2020-06-06T09:22:30Z</time>
      </trkpt>
      <trkpt lat="46.05605" lon="4.63693">
        <ele>404</ele>
        <time>2020-06-06T09:22:34Z</time>
      </trkpt>
      <trkpt lat="46.05635" lon="4.63704">
        <ele>404.8</ele>
        <time>2020-06-06T09:22:38Z</time>
      </trkpt>
      <trkpt lat="46.0566" lon="4.63714">
        <ele>406.2</ele>
        <time>2020-06-06T09:22:42Z</time>
      </trkpt>
      <trkpt lat="46.05682" lon="4.63722">
        <ele>407.4</ele>
        <time>2020-06-06T09:22:57Z</time>
      </trkpt>
      <trkpt lat="46.05691" lon="4.63725">
        <ele>407.6</ele>
        <time>2020-06-06T09:23:01Z</time>
      </trkpt>
      <trkpt lat="46.057" lon="4.63731">
        <ele>407.8</ele>
        <time>2020-06-06T09:23:05Z</time>
      </trkpt>
      <trkpt lat="46.05709" lon="4.63738">
        <ele>408.8</ele>
        <time>2020-06-06T09:23:09Z</time>
      </trkpt>
      <trkpt lat="46.05717" lon="4.63744">
        <ele>409.6</ele>
        <time>2020-06-06T09:23:13Z</time>
      </trkpt>
      <trkpt lat="46.05725" lon="4.63751">
        <ele>410</ele>
        <time>2020-06-06T09:23:17Z</time>
      </trkpt>
      <trkpt lat="46.05732" lon="4.63757">
        <ele>410.8</ele>
        <time>2020-06-06T09:23:21Z</time>
      </trkpt>
      <trkpt lat="46.05739" lon="4.63764">
        <ele>411.2</ele>
        <time>2020-06-06T09:23:25Z</time>
      </trkpt>
      <trkpt lat="46.05745" lon="4.6377">
        <ele>412</ele>
        <time>2020-06-06T09:23:29Z</time>
      </trkpt>
      <trkpt lat="46.05753" lon="4.63777">
        <ele>412.6</ele>
        <time>2020-06-06T09:23:33Z</time>
      </trkpt>
      <trkpt lat="46.05761" lon="4.63784">
        <ele>413.6</ele>
        <time>2020-06-06T09:23:37Z</time>
      </trkpt>
      <trkpt lat="46.05768" lon="4.63792">
        <ele>413.4</ele>
        <time>2020-06-06T09:23:41Z</time>
      </trkpt>
      <trkpt lat="46.05774" lon="4.63799">
        <ele>413.8</ele>
        <time>2020-06-06T09:23:45Z</time>
      </trkpt>
      <trkpt lat="46.05782" lon="4.63806">
        <ele>415.2</ele>
        <time>2020-06-06T09:23:49Z</time>
      </trkpt>
      <trkpt lat="46.05788" lon="4.63813">
        <ele>416</ele>
        <time>2020-06-06T09:23:53Z</time>
      </trkpt>
      <trkpt lat="46.05795" lon="4.63821">
        <ele>416.2</ele>
        <time>2020-06-06T09:23:57Z</time>
      </trkpt>
      <trkpt lat="46.05804" lon="4.63827">
        <ele>417</ele>
        <time>2020-06-06T09:24:01Z</time>
      </trkpt>
      <trkpt lat="46.05813" lon="4.63832">
        <ele>418</ele>
        <time>2020-06-06T09:24:05Z</time>
      </trkpt>
      <trkpt lat="46.05822" lon="4.63833">
        <ele>418</ele>
        <time>2020-06-06T09:24:09Z</time>
      </trkpt>
      <trkpt lat="46.05831" lon="4.63833">
        <ele>418.6</ele>
        <time>2020-06-06T09:24:13Z</time>
      </trkpt>
      <trkpt lat="46.05841" lon="4.63829">
        <ele>419.2</ele>
        <time>2020-06-06T09:24:17Z</time>
      </trkpt>
      <trkpt lat="46.0585" lon="4.63824">
        <ele>419.6</ele>
        <time>2020-06-06T09:24:21Z</time>
      </trkpt>
      <trkpt lat="46.05858" lon="4.63819">
        <ele>420.6</ele>
        <time>2020-06-06T09:24:25Z</time>
      </trkpt>
      <trkpt lat="46.05867" lon="4.63814">
        <ele>421</ele>
        <time>2020-06-06T09:24:29Z</time>
      </trkpt>
      <trkpt lat="46.05876" lon="4.63809">
        <ele>421.4</ele>
        <time>2020-06-06T09:24:33Z</time>
      </trkpt>
      <trkpt lat="46.05885" lon="4.63805">
        <ele>422</ele>
        <time>2020-06-06T09:24:37Z</time>
      </trkpt>
      <trkpt lat="46.05893" lon="4.63802">
        <ele>422.6</ele>
        <time>2020-06-06T09:24:41Z</time>
      </trkpt>
      <trkpt lat="46.05903" lon="4.63802">
        <ele>423.2</ele>
        <time>2020-06-06T09:24:45Z</time>
      </trkpt>
      <trkpt lat="46.05913" lon="4.63803">
        <ele>424.4</ele>
        <time>2020-06-06T09:24:49Z</time>
      </trkpt>
      <trkpt lat="46.05922" lon="4.63806">
        <ele>425.2</ele>
        <time>2020-06-06T09:24:53Z</time>
      </trkpt>
      <trkpt lat="46.05931" lon="4.63809">
        <ele>425.6</ele>
        <time>2020-06-06T09:24:57Z</time>
      </trkpt>
      <trkpt lat="46.0594" lon="4.63813">
        <ele>426.2</ele>
        <time>2020-06-06T09:25:01Z</time>
      </trkpt>
      <trkpt lat="46.05949" lon="4.63816">
        <ele>426.4</ele>
        <time>2020-06-06T09:25:05Z</time>
      </trkpt>
      <trkpt lat="46.05958" lon="4.6382">
        <ele>426.8</ele>
        <time>2020-06-06T09:25:09Z</time>
      </trkpt>
      <trkpt lat="46.05965" lon="4.63823">
        <ele>427.2</ele>
        <time>2020-06-06T09:25:13Z</time>
      </trkpt>
      <trkpt lat="46.05974" lon="4.63827">
        <ele>428.4</ele>
        <time>2020-06-06T09:25:17Z</time>
      </trkpt>
      <trkpt lat="46.05983" lon="4.63831">
        <ele>428.6</ele>
        <time>2020-06-06T09:25:21Z</time>
      </trkpt>
      <trkpt lat="46.05992" lon="4.63834">
        <ele>429.4</ele>
        <time>2020-06-06T09:25:25Z</time>
      </trkpt>
      <trkpt lat="46.06" lon="4.63839">
        <ele>429.6</ele>
        <time>2020-06-06T09:25:29Z</time>
      </trkpt>
      <trkpt lat="46.06009" lon="4.63843">
        <ele>430</ele>
        <time>2020-06-06T09:25:33Z</time>
      </trkpt>
      <trkpt lat="46.06018" lon="4.63847">
        <ele>430.8</ele>
        <time>2020-06-06T09:25:37Z</time>
      </trkpt>
      <trkpt lat="46.06027" lon="4.63852">
        <ele>431.4</ele>
        <time>2020-06-06T09:25:41Z</time>
      </trkpt>
      <trkpt lat="46.06035" lon="4.63856">
        <ele>432.6</ele>
        <time>2020-06-06T09:25:45Z</time>
      </trkpt>
      <trkpt lat="46.06043" lon="4.63862">
        <ele>433</ele>
        <time>2020-06-06T09:25:49Z</time>
      </trkpt>
      <trkpt lat="46.06051" lon="4.63868">
        <ele>434.4</ele>
        <time>2020-06-06T09:25:53Z</time>
      </trkpt>
      <trkpt lat="46.06059" lon="4.63876">
        <ele>435</ele>
        <time>2020-06-06T09:25:57Z</time>
      </trkpt>
      <trkpt lat="46.06063" lon="4.63885">
        <ele>435.6</ele>
        <time>2020-06-06T09:26:01Z</time>
      </trkpt>
      <trkpt lat="46.06068" lon="4.63896">
        <ele>436.6</ele>
        <time>2020-06-06T09:26:05Z</time>
      </trkpt>
      <trkpt lat="46.06069" lon="4.63909">
        <ele>436.4</ele>
        <time>2020-06-06T09:26:09Z</time>
      </trkpt>
      <trkpt lat="46.0607" lon="4.63924">
        <ele>436.8</ele>
        <time>2020-06-06T09:26:13Z</time>
      </trkpt>
      <trkpt lat="46.0607" lon="4.6394">
        <ele>437.2</ele>
        <time>2020-06-06T09:26:17Z</time>
      </trkpt>
      <trkpt lat="46.06068" lon="4.63956">
        <ele>437.6</ele>
        <time>2020-06-06T09:26:21Z</time>
      </trkpt>
      <trkpt lat="46.06067" lon="4.63974">
        <ele>438.2</ele>
        <time>2020-06-06T09:26:25Z</time>
      </trkpt>
      <trkpt lat="46.06066" lon="4.63992">
        <ele>438.4</ele>
        <time>2020-06-06T09:26:29Z</time>
      </trkpt>
      <trkpt lat="46.06065" lon="4.64011">
        <ele>438.8</ele>
        <time>2020-06-06T09:26:33Z</time>
      </trkpt>
      <trkpt lat="46.06064" lon="4.6403">
        <ele>438.6</ele>
        <time>2020-06-06T09:26:37Z</time>
      </trkpt>
      <trkpt lat="46.06062" lon="4.6405">
        <ele>439.2</ele>
        <time>2020-06-06T09:26:41Z</time>
      </trkpt>
      <trkpt lat="46.06062" lon="4.64069">
        <ele>439.2</ele>
        <time>2020-06-06T09:26:45Z</time>
      </trkpt>
      <trkpt lat="46.0606" lon="4.64088">
        <ele>439.6</ele>
        <time>2020-06-06T09:26:49Z</time>
      </trkpt>
      <trkpt lat="46.06059" lon="4.64107">
        <ele>440</ele>
        <time>2020-06-06T09:26:53Z</time>
      </trkpt>
      <trkpt lat="46.06057" lon="4.64127">
        <ele>439.4</ele>
        <time>2020-06-06T09:26:57Z</time>
      </trkpt>
      <trkpt lat="46.06056" lon="4.64148">
        <ele>440</ele>
        <time>2020-06-06T09:27:01Z</time>
      </trkpt>
      <trkpt lat="46.06057" lon="4.64168">
        <ele>440.4</ele>
        <time>2020-06-06T09:27:05Z</time>
      </trkpt>
      <trkpt lat="46.06056" lon="4.64189">
        <ele>440.2</ele>
        <time>2020-06-06T09:27:09Z</time>
      </trkpt>
      <trkpt lat="46.06055" lon="4.64211">
        <ele>439</ele>
        <time>2020-06-06T09:27:13Z</time>
      </trkpt>
      <trkpt lat="46.06055" lon="4.64234">
        <ele>439.8</ele>
        <time>2020-06-06T09:27:17Z</time>
      </trkpt>
      <trkpt lat="46.06055" lon="4.64257">
        <ele>439</ele>
        <time>2020-06-06T09:27:21Z</time>
      </trkpt>
      <trkpt lat="46.06057" lon="4.64281">
        <ele>439.2</ele>
        <time>2020-06-06T09:27:25Z</time>
      </trkpt>
      <trkpt lat="46.06062" lon="4.64305">
        <ele>439.2</ele>
        <time>2020-06-06T09:27:29Z</time>
      </trkpt>
      <trkpt lat="46.06069" lon="4.64327">
        <ele>439</ele>
        <time>2020-06-06T09:27:33Z</time>
      </trkpt>
      <trkpt lat="46.06079" lon="4.64349">
        <ele>439</ele>
        <time>2020-06-06T09:27:37Z</time>
      </trkpt>
      <trkpt lat="46.0609" lon="4.64371">
        <ele>439</ele>
        <time>2020-06-06T09:27:41Z</time>
      </trkpt>
      <trkpt lat="46.06102" lon="4.64392">
        <ele>438.8</ele>
        <time>2020-06-06T09:27:45Z</time>
      </trkpt>
      <trkpt lat="46.06113" lon="4.64413">
        <ele>439</ele>
        <time>2020-06-06T09:27:49Z</time>
      </trkpt>
      <trkpt lat="46.06124" lon="4.64435">
        <ele>439</ele>
        <time>2020-06-06T09:27:53Z</time>
      </trkpt>
      <trkpt lat="46.06136" lon="4.64456">
        <ele>439.2</ele>
        <time>2020-06-06T09:27:57Z</time>
      </trkpt>
      <trkpt lat="46.06148" lon="4.64476">
        <ele>438.6</ele>
        <time>2020-06-06T09:28:01Z</time>
      </trkpt>
      <trkpt lat="46.06159" lon="4.64497">
        <ele>439</ele>
        <time>2020-06-06T09:28:05Z</time>
      </trkpt>
      <trkpt lat="46.0617" lon="4.64518">
        <ele>439</ele>
        <time>2020-06-06T09:28:09Z</time>
      </trkpt>
      <trkpt lat="46.06182" lon="4.64537">
        <ele>439.6</ele>
        <time>2020-06-06T09:28:13Z</time>
      </trkpt>
      <trkpt lat="46.06194" lon="4.64554">
        <ele>440</ele>
        <time>2020-06-06T09:28:17Z</time>
      </trkpt>
      <trkpt lat="46.06209" lon="4.64567">
        <ele>440</ele>
        <time>2020-06-06T09:28:21Z</time>
      </trkpt>
      <trkpt lat="46.06224" lon="4.64577">
        <ele>440.8</ele>
        <time>2020-06-06T09:28:25Z</time>
      </trkpt>
      <trkpt lat="46.06238" lon="4.64585">
        <ele>441.6</ele>
        <time>2020-06-06T09:28:29Z</time>
      </trkpt>
      <trkpt lat="46.06252" lon="4.64593">
        <ele>442.2</ele>
        <time>2020-06-06T09:28:33Z</time>
      </trkpt>
      <trkpt lat="46.06267" lon="4.64601">
        <ele>442.8</ele>
        <time>2020-06-06T09:28:37Z</time>
      </trkpt>
      <trkpt lat="46.06281" lon="4.6461">
        <ele>443.2</ele>
        <time>2020-06-06T09:28:41Z</time>
      </trkpt>
      <trkpt lat="46.06295" lon="4.64618">
        <ele>443.6</ele>
        <time>2020-06-06T09:28:45Z</time>
      </trkpt>
      <trkpt lat="46.06307" lon="4.64625">
        <ele>444</ele>
        <time>2020-06-06T09:28:49Z</time>
      </trkpt>
      <trkpt lat="46.06321" lon="4.64633">
        <ele>443.8</ele>
        <time>2020-06-06T09:28:53Z</time>
      </trkpt>
      <trkpt lat="46.06336" lon="4.64641">
        <ele>444.2</ele>
        <time>2020-06-06T09:28:57Z</time>
      </trkpt>
      <trkpt lat="46.06349" lon="4.64649">
        <ele>444.8</ele>
        <time>2020-06-06T09:29:01Z</time>
      </trkpt>
      <trkpt lat="46.06364" lon="4.64657">
        <ele>445.2</ele>
        <time>2020-06-06T09:29:05Z</time>
      </trkpt>
      <trkpt lat="46.06378" lon="4.64664">
        <ele>445.6</ele>
        <time>2020-06-06T09:29:09Z</time>
      </trkpt>
      <trkpt lat="46.06394" lon="4.64672">
        <ele>445.8</ele>
        <time>2020-06-06T09:29:13Z</time>
      </trkpt>
      <trkpt lat="46.06409" lon="4.64679">
        <ele>445.4</ele>
        <time>2020-06-06T09:29:17Z</time>
      </trkpt>
      <trkpt lat="46.06425" lon="4.64685">
        <ele>445.4</ele>
        <time>2020-06-06T09:29:21Z</time>
      </trkpt>
      <trkpt lat="46.06441" lon="4.64693">
        <ele>445.4</ele>
        <time>2020-06-06T09:29:25Z</time>
      </trkpt>
      <trkpt lat="46.06459" lon="4.64702">
        <ele>444.6</ele>
        <time>2020-06-06T09:29:29Z</time>
      </trkpt>
      <trkpt lat="46.06479" lon="4.64711">
        <ele>444.2</ele>
        <time>2020-06-06T09:29:33Z</time>
      </trkpt>
      <trkpt lat="46.065" lon="4.64719">
        <ele>444</ele>
        <time>2020-06-06T09:29:37Z</time>
      </trkpt>
      <trkpt lat="46.06521" lon="4.64728">
        <ele>443.4</ele>
        <time>2020-06-06T09:29:41Z</time>
      </trkpt>
      <trkpt lat="46.06541" lon="4.64737">
        <ele>443</ele>
        <time>2020-06-06T09:29:45Z</time>
      </trkpt>
      <trkpt lat="46.06562" lon="4.64746">
        <ele>443.2</ele>
        <time>2020-06-06T09:29:49Z</time>
      </trkpt>
      <trkpt lat="46.06583" lon="4.64755">
        <ele>442.2</ele>
        <time>2020-06-06T09:29:53Z</time>
      </trkpt>
      <trkpt lat="46.06605" lon="4.64765">
        <ele>441.2</ele>
        <time>2020-06-06T09:29:57Z</time>
      </trkpt>
      <trkpt lat="46.06627" lon="4.64775">
        <ele>440.8</ele>
        <time>2020-06-06T09:30:01Z</time>
      </trkpt>
      <trkpt lat="46.06651" lon="4.64785">
        <ele>440.4</ele>
        <time>2020-06-06T09:30:05Z</time>
      </trkpt>
      <trkpt lat="46.06676" lon="4.64795">
        <ele>438.8</ele>
        <time>2020-06-06T09:30:09Z</time>
      </trkpt>
      <trkpt lat="46.06702" lon="4.64804">
        <ele>439.2</ele>
        <time>2020-06-06T09:30:13Z</time>
      </trkpt>
      <trkpt lat="46.06721" lon="4.64815">
        <ele>439.8</ele>
        <time>2020-06-06T09:30:17Z</time>
      </trkpt>
      <trkpt lat="46.06731" lon="4.64834">
        <ele>436</ele>
        <time>2020-06-06T09:30:21Z</time>
      </trkpt>
      <trkpt lat="46.06732" lon="4.64862">
        <ele>435.4</ele>
        <time>2020-06-06T09:30:25Z</time>
      </trkpt>
      <trkpt lat="46.06734" lon="4.64888">
        <ele>435</ele>
        <time>2020-06-06T09:30:29Z</time>
      </trkpt>
      <trkpt lat="46.06736" lon="4.64914">
        <ele>433.8</ele>
        <time>2020-06-06T09:30:33Z</time>
      </trkpt>
      <trkpt lat="46.06739" lon="4.64933">
        <ele>433.2</ele>
        <time>2020-06-06T09:30:37Z</time>
      </trkpt>
      <trkpt lat="46.06741" lon="4.64946">
        <ele>432.8</ele>
        <time>2020-06-06T09:30:41Z</time>
      </trkpt>
      <trkpt lat="46.06748" lon="4.64948">
        <ele>433</ele>
        <time>2020-06-06T09:30:45Z</time>
      </trkpt>
      <trkpt lat="46.0677" lon="4.64948">
        <ele>434.2</ele>
        <time>2020-06-06T09:30:49Z</time>
      </trkpt>
      <trkpt lat="46.06783" lon="4.64942">
        <ele>434.4</ele>
        <time>2020-06-06T09:30:53Z</time>
      </trkpt>
      <trkpt lat="46.06795" lon="4.64932">
        <ele>435</ele>
        <time>2020-06-06T09:30:57Z</time>
      </trkpt>
      <trkpt lat="46.0681" lon="4.6493">
        <ele>434.2</ele>
        <time>2020-06-06T09:31:01Z</time>
      </trkpt>
      <trkpt lat="46.06824" lon="4.64935">
        <ele>435</ele>
        <time>2020-06-06T09:31:05Z</time>
      </trkpt>
      <trkpt lat="46.06837" lon="4.64919">
        <ele>434.2</ele>
        <time>2020-06-06T09:31:09Z</time>
      </trkpt>
      <trkpt lat="46.06852" lon="4.64908">
        <ele>435.6</ele>
        <time>2020-06-06T09:31:13Z</time>
      </trkpt>
      <trkpt lat="46.06866" lon="4.64902">
        <ele>436.2</ele>
        <time>2020-06-06T09:31:17Z</time>
      </trkpt>
      <trkpt lat="46.06882" lon="4.64895">
        <ele>436</ele>
        <time>2020-06-06T09:31:21Z</time>
      </trkpt>
      <trkpt lat="46.06896" lon="4.64886">
        <ele>436.8</ele>
        <time>2020-06-06T09:31:25Z</time>
      </trkpt>
      <trkpt lat="46.0691" lon="4.64876">
        <ele>437</ele>
        <time>2020-06-06T09:31:29Z</time>
      </trkpt>
      <trkpt lat="46.06925" lon="4.64865">
        <ele>436.4</ele>
        <time>2020-06-06T09:31:33Z</time>
      </trkpt>
      <trkpt lat="46.06939" lon="4.64855">
        <ele>436</ele>
        <time>2020-06-06T09:31:37Z</time>
      </trkpt>
      <trkpt lat="46.06954" lon="4.64846">
        <ele>436.4</ele>
        <time>2020-06-06T09:31:41Z</time>
      </trkpt>
      <trkpt lat="46.0697" lon="4.64836">
        <ele>436.2</ele>
        <time>2020-06-06T09:31:45Z</time>
      </trkpt>
      <trkpt lat="46.06988" lon="4.64826">
        <ele>436.8</ele>
        <time>2020-06-06T09:31:49Z</time>
      </trkpt>
      <trkpt lat="46.07007" lon="4.64817">
        <ele>435.8</ele>
        <time>2020-06-06T09:31:53Z</time>
      </trkpt>
      <trkpt lat="46.07027" lon="4.64811">
        <ele>436</ele>
        <time>2020-06-06T09:31:57Z</time>
      </trkpt>
      <trkpt lat="46.07047" lon="4.64806">
        <ele>435.8</ele>
        <time>2020-06-06T09:32:01Z</time>
      </trkpt>
      <trkpt lat="46.07067" lon="4.648">
        <ele>434.4</ele>
        <time>2020-06-06T09:32:05Z</time>
      </trkpt>
      <trkpt lat="46.07087" lon="4.64795">
        <ele>436.2</ele>
        <time>2020-06-06T09:32:09Z</time>
      </trkpt>
      <trkpt lat="46.07107" lon="4.64789">
        <ele>435.4</ele>
        <time>2020-06-06T09:32:13Z</time>
      </trkpt>
      <trkpt lat="46.07128" lon="4.64785">
        <ele>435.6</ele>
        <time>2020-06-06T09:32:17Z</time>
      </trkpt>
      <trkpt lat="46.07149" lon="4.64779">
        <ele>434.8</ele>
        <time>2020-06-06T09:32:21Z</time>
      </trkpt>
      <trkpt lat="46.0717" lon="4.64773">
        <ele>434.8</ele>
        <time>2020-06-06T09:32:25Z</time>
      </trkpt>
      <trkpt lat="46.07192" lon="4.64768">
        <ele>434.2</ele>
        <time>2020-06-06T09:32:29Z</time>
      </trkpt>
      <trkpt lat="46.07213" lon="4.64762">
        <ele>434.2</ele>
        <time>2020-06-06T09:32:33Z</time>
      </trkpt>
      <trkpt lat="46.07234" lon="4.64756">
        <ele>433.4</ele>
        <time>2020-06-06T09:32:37Z</time>
      </trkpt>
      <trkpt lat="46.07255" lon="4.64751">
        <ele>434.2</ele>
        <time>2020-06-06T09:32:41Z</time>
      </trkpt>
      <trkpt lat="46.07275" lon="4.64747">
        <ele>433.6</ele>
        <time>2020-06-06T09:32:45Z</time>
      </trkpt>
      <trkpt lat="46.07295" lon="4.64741">
        <ele>433.8</ele>
        <time>2020-06-06T09:32:49Z</time>
      </trkpt>
      <trkpt lat="46.07313" lon="4.64737">
        <ele>434.6</ele>
        <time>2020-06-06T09:32:53Z</time>
      </trkpt>
      <trkpt lat="46.07331" lon="4.64732">
        <ele>435</ele>
        <time>2020-06-06T09:32:57Z</time>
      </trkpt>
      <trkpt lat="46.07347" lon="4.64729">
        <ele>435.6</ele>
        <time>2020-06-06T09:33:01Z</time>
      </trkpt>
      <trkpt lat="46.07361" lon="4.64724">
        <ele>436.6</ele>
        <time>2020-06-06T09:33:05Z</time>
      </trkpt>
      <trkpt lat="46.07376" lon="4.64722">
        <ele>437.6</ele>
        <time>2020-06-06T09:33:09Z</time>
      </trkpt>
      <trkpt lat="46.07388" lon="4.64718">
        <ele>438</ele>
        <time>2020-06-06T09:33:13Z</time>
      </trkpt>
      <trkpt lat="46.074" lon="4.64714">
        <ele>438.6</ele>
        <time>2020-06-06T09:33:17Z</time>
      </trkpt>
      <trkpt lat="46.07415" lon="4.6471">
        <ele>439.6</ele>
        <time>2020-06-06T09:33:21Z</time>
      </trkpt>
      <trkpt lat="46.07429" lon="4.64707">
        <ele>440.2</ele>
        <time>2020-06-06T09:33:25Z</time>
      </trkpt>
      <trkpt lat="46.07441" lon="4.64703">
        <ele>440.6</ele>
        <time>2020-06-06T09:33:29Z</time>
      </trkpt>
      <trkpt lat="46.07454" lon="4.647">
        <ele>441.4</ele>
        <time>2020-06-06T09:33:33Z</time>
      </trkpt>
      <trkpt lat="46.07466" lon="4.64698">
        <ele>442</ele>
        <time>2020-06-06T09:33:37Z</time>
      </trkpt>
      <trkpt lat="46.0748" lon="4.64694">
        <ele>442.2</ele>
        <time>2020-06-06T09:33:41Z</time>
      </trkpt>
      <trkpt lat="46.07493" lon="4.64691">
        <ele>443.6</ele>
        <time>2020-06-06T09:33:45Z</time>
      </trkpt>
      <trkpt lat="46.07506" lon="4.64687">
        <ele>444.4</ele>
        <time>2020-06-06T09:33:49Z</time>
      </trkpt>
      <trkpt lat="46.07519" lon="4.64684">
        <ele>445</ele>
        <time>2020-06-06T09:33:53Z</time>
      </trkpt>
      <trkpt lat="46.07534" lon="4.64679">
        <ele>445</ele>
        <time>2020-06-06T09:33:57Z</time>
      </trkpt>
      <trkpt lat="46.07548" lon="4.64673">
        <ele>446</ele>
        <time>2020-06-06T09:34:01Z</time>
      </trkpt>
      <trkpt lat="46.0756" lon="4.64669">
        <ele>446.6</ele>
        <time>2020-06-06T09:34:05Z</time>
      </trkpt>
      <trkpt lat="46.07573" lon="4.64663">
        <ele>447.2</ele>
        <time>2020-06-06T09:34:09Z</time>
      </trkpt>
      <trkpt lat="46.07586" lon="4.64658">
        <ele>447.2</ele>
        <time>2020-06-06T09:34:13Z</time>
      </trkpt>
      <trkpt lat="46.076" lon="4.64653">
        <ele>447.6</ele>
        <time>2020-06-06T09:34:17Z</time>
      </trkpt>
      <trkpt lat="46.07614" lon="4.64647">
        <ele>447.8</ele>
        <time>2020-06-06T09:34:21Z</time>
      </trkpt>
      <trkpt lat="46.07628" lon="4.64641">
        <ele>448.4</ele>
        <time>2020-06-06T09:34:25Z</time>
      </trkpt>
      <trkpt lat="46.07641" lon="4.64636">
        <ele>449</ele>
        <time>2020-06-06T09:34:29Z</time>
      </trkpt>
      <trkpt lat="46.07655" lon="4.64631">
        <ele>449.6</ele>
        <time>2020-06-06T09:34:33Z</time>
      </trkpt>
      <trkpt lat="46.0767" lon="4.64625">
        <ele>449.6</ele>
        <time>2020-06-06T09:34:37Z</time>
      </trkpt>
      <trkpt lat="46.07686" lon="4.64619">
        <ele>449.4</ele>
        <time>2020-06-06T09:34:41Z</time>
      </trkpt>
      <trkpt lat="46.07702" lon="4.64613">
        <ele>449.6</ele>
        <time>2020-06-06T09:34:45Z</time>
      </trkpt>
      <trkpt lat="46.07718" lon="4.64607">
        <ele>449.4</ele>
        <time>2020-06-06T09:34:49Z</time>
      </trkpt>
      <trkpt lat="46.07734" lon="4.64601">
        <ele>450.2</ele>
        <time>2020-06-06T09:34:53Z</time>
      </trkpt>
      <trkpt lat="46.07751" lon="4.64595">
        <ele>449.8</ele>
        <time>2020-06-06T09:34:57Z</time>
      </trkpt>
      <trkpt lat="46.07768" lon="4.64589">
        <ele>450.2</ele>
        <time>2020-06-06T09:35:01Z</time>
      </trkpt>
      <trkpt lat="46.07785" lon="4.64583">
        <ele>449.2</ele>
        <time>2020-06-06T09:35:05Z</time>
      </trkpt>
      <trkpt lat="46.07803" lon="4.64577">
        <ele>449.2</ele>
        <time>2020-06-06T09:35:09Z</time>
      </trkpt>
      <trkpt lat="46.07822" lon="4.6457">
        <ele>448.6</ele>
        <time>2020-06-06T09:35:13Z</time>
      </trkpt>
      <trkpt lat="46.07839" lon="4.64564">
        <ele>449.4</ele>
        <time>2020-06-06T09:35:17Z</time>
      </trkpt>
      <trkpt lat="46.07856" lon="4.64558">
        <ele>449.2</ele>
        <time>2020-06-06T09:35:21Z</time>
      </trkpt>
      <trkpt lat="46.07872" lon="4.64553">
        <ele>449.6</ele>
        <time>2020-06-06T09:35:25Z</time>
      </trkpt>
      <trkpt lat="46.07888" lon="4.64546">
        <ele>449.4</ele>
        <time>2020-06-06T09:35:29Z</time>
      </trkpt>
      <trkpt lat="46.07903" lon="4.6454">
        <ele>450</ele>
        <time>2020-06-06T09:35:33Z</time>
      </trkpt>
      <trkpt lat="46.0792" lon="4.64536">
        <ele>450.2</ele>
        <time>2020-06-06T09:35:37Z</time>
      </trkpt>
      <trkpt lat="46.07936" lon="4.64531">
        <ele>450.4</ele>
        <time>2020-06-06T09:35:41Z</time>
      </trkpt>
      <trkpt lat="46.07952" lon="4.64527">
        <ele>451.8</ele>
        <time>2020-06-06T09:35:45Z</time>
      </trkpt>
      <trkpt lat="46.07968" lon="4.64522">
        <ele>451.4</ele>
        <time>2020-06-06T09:35:49Z</time>
      </trkpt>
      <trkpt lat="46.07984" lon="4.64518">
        <ele>452</ele>
        <time>2020-06-06T09:35:53Z</time>
      </trkpt>
      <trkpt lat="46.08" lon="4.64514">
        <ele>452</ele>
        <time>2020-06-06T09:35:57Z</time>
      </trkpt>
      <trkpt lat="46.08016" lon="4.6451">
        <ele>453</ele>
        <time>2020-06-06T09:36:01Z</time>
      </trkpt>
      <trkpt lat="46.08033" lon="4.64506">
        <ele>453.2</ele>
        <time>2020-06-06T09:36:05Z</time>
      </trkpt>
      <trkpt lat="46.08049" lon="4.64501">
        <ele>453.6</ele>
        <time>2020-06-06T09:36:09Z</time>
      </trkpt>
      <trkpt lat="46.08066" lon="4.64497">
        <ele>453.6</ele>
        <time>2020-06-06T09:36:13Z</time>
      </trkpt>
      <trkpt lat="46.08084" lon="4.64492">
        <ele>453</ele>
        <time>2020-06-06T09:36:17Z</time>
      </trkpt>
      <trkpt lat="46.08101" lon="4.64487">
        <ele>452.8</ele>
        <time>2020-06-06T09:36:21Z</time>
      </trkpt>
      <trkpt lat="46.0812" lon="4.64482">
        <ele>453.4</ele>
        <time>2020-06-06T09:36:25Z</time>
      </trkpt>
      <trkpt lat="46.08138" lon="4.64477">
        <ele>453.2</ele>
        <time>2020-06-06T09:36:29Z</time>
      </trkpt>
      <trkpt lat="46.08156" lon="4.64471">
        <ele>452.6</ele>
        <time>2020-06-06T09:36:33Z</time>
      </trkpt>
      <trkpt lat="46.08174" lon="4.64466">
        <ele>452.8</ele>
        <time>2020-06-06T09:36:37Z</time>
      </trkpt>
      <trkpt lat="46.08192" lon="4.64461">
        <ele>452.4</ele>
        <time>2020-06-06T09:36:41Z</time>
      </trkpt>
      <trkpt lat="46.08211" lon="4.64458">
        <ele>452.6</ele>
        <time>2020-06-06T09:36:45Z</time>
      </trkpt>
      <trkpt lat="46.08228" lon="4.64455">
        <ele>452.8</ele>
        <time>2020-06-06T09:36:49Z</time>
      </trkpt>
      <trkpt lat="46.08246" lon="4.64455">
        <ele>453</ele>
        <time>2020-06-06T09:36:53Z</time>
      </trkpt>
      <trkpt lat="46.08264" lon="4.64456">
        <ele>453.4</ele>
        <time>2020-06-06T09:36:57Z</time>
      </trkpt>
      <trkpt lat="46.08282" lon="4.64458">
        <ele>452.8</ele>
        <time>2020-06-06T09:37:01Z</time>
      </trkpt>
      <trkpt lat="46.083" lon="4.6446">
        <ele>453.4</ele>
        <time>2020-06-06T09:37:05Z</time>
      </trkpt>
      <trkpt lat="46.08317" lon="4.64464">
        <ele>454</ele>
        <time>2020-06-06T09:37:09Z</time>
      </trkpt>
      <trkpt lat="46.08334" lon="4.6447">
        <ele>453.8</ele>
        <time>2020-06-06T09:37:13Z</time>
      </trkpt>
      <trkpt lat="46.08351" lon="4.64476">
        <ele>453.6</ele>
        <time>2020-06-06T09:37:17Z</time>
      </trkpt>
      <trkpt lat="46.08367" lon="4.64482">
        <ele>454.2</ele>
        <time>2020-06-06T09:37:21Z</time>
      </trkpt>
      <trkpt lat="46.08383" lon="4.64489">
        <ele>454</ele>
        <time>2020-06-06T09:37:25Z</time>
      </trkpt>
      <trkpt lat="46.08399" lon="4.64496">
        <ele>454.4</ele>
        <time>2020-06-06T09:37:29Z</time>
      </trkpt>
      <trkpt lat="46.08415" lon="4.64503">
        <ele>454.6</ele>
        <time>2020-06-06T09:37:33Z</time>
      </trkpt>
      <trkpt lat="46.08431" lon="4.64509">
        <ele>455.2</ele>
        <time>2020-06-06T09:37:37Z</time>
      </trkpt>
      <trkpt lat="46.08446" lon="4.64516">
        <ele>455.8</ele>
        <time>2020-06-06T09:37:41Z</time>
      </trkpt>
      <trkpt lat="46.08462" lon="4.64522">
        <ele>456.2</ele>
        <time>2020-06-06T09:37:45Z</time>
      </trkpt>
      <trkpt lat="46.08476" lon="4.64529">
        <ele>456.4</ele>
        <time>2020-06-06T09:37:49Z</time>
      </trkpt>
      <trkpt lat="46.08491" lon="4.64535">
        <ele>456.8</ele>
        <time>2020-06-06T09:37:53Z</time>
      </trkpt>
      <trkpt lat="46.08506" lon="4.64541">
        <ele>457.2</ele>
        <time>2020-06-06T09:37:57Z</time>
      </trkpt>
      <trkpt lat="46.0852" lon="4.64548">
        <ele>457.4</ele>
        <time>2020-06-06T09:38:01Z</time>
      </trkpt>
      <trkpt lat="46.08534" lon="4.64555">
        <ele>457.8</ele>
        <time>2020-06-06T09:38:05Z</time>
      </trkpt>
      <trkpt lat="46.08547" lon="4.64563">
        <ele>458.4</ele>
        <time>2020-06-06T09:38:09Z</time>
      </trkpt>
      <trkpt lat="46.0856" lon="4.64571">
        <ele>458.8</ele>
        <time>2020-06-06T09:38:13Z</time>
      </trkpt>
      <trkpt lat="46.08574" lon="4.64576">
        <ele>459.2</ele>
        <time>2020-06-06T09:38:17Z</time>
      </trkpt>
      <trkpt lat="46.08588" lon="4.64581">
        <ele>460</ele>
        <time>2020-06-06T09:38:21Z</time>
      </trkpt>
      <trkpt lat="46.08602" lon="4.64587">
        <ele>461</ele>
        <time>2020-06-06T09:38:25Z</time>
      </trkpt>
      <trkpt lat="46.08616" lon="4.64594">
        <ele>461.2</ele>
        <time>2020-06-06T09:38:29Z</time>
      </trkpt>
      <trkpt lat="46.08629" lon="4.64601">
        <ele>461.2</ele>
        <time>2020-06-06T09:38:33Z</time>
      </trkpt>
      <trkpt lat="46.08641" lon="4.64607">
        <ele>462</ele>
        <time>2020-06-06T09:38:37Z</time>
      </trkpt>
      <trkpt lat="46.08651" lon="4.64613">
        <ele>462.4</ele>
        <time>2020-06-06T09:38:41Z</time>
      </trkpt>
      <trkpt lat="46.08665" lon="4.64621">
        <ele>462.8</ele>
        <time>2020-06-06T09:38:45Z</time>
      </trkpt>
      <trkpt lat="46.08676" lon="4.64627">
        <ele>462.4</ele>
        <time>2020-06-06T09:38:49Z</time>
      </trkpt>
      <trkpt lat="46.08687" lon="4.64635">
        <ele>462.8</ele>
        <time>2020-06-06T09:38:53Z</time>
      </trkpt>
      <trkpt lat="46.08697" lon="4.64643">
        <ele>462.4</ele>
        <time>2020-06-06T09:38:57Z</time>
      </trkpt>
      <trkpt lat="46.08708" lon="4.64649">
        <ele>463</ele>
        <time>2020-06-06T09:39:01Z</time>
      </trkpt>
      <trkpt lat="46.08717" lon="4.64656">
        <ele>461.6</ele>
        <time>2020-06-06T09:39:05Z</time>
      </trkpt>
      <trkpt lat="46.08734" lon="4.64662">
        <ele>460.4</ele>
        <time>2020-06-06T09:39:09Z</time>
      </trkpt>
      <trkpt lat="46.08756" lon="4.64665">
        <ele>458.6</ele>
        <time>2020-06-06T09:39:13Z</time>
      </trkpt>
      <trkpt lat="46.08782" lon="4.64665">
        <ele>455.2</ele>
        <time>2020-06-06T09:39:17Z</time>
      </trkpt>
      <trkpt lat="46.08815" lon="4.64662">
        <ele>455.8</ele>
        <time>2020-06-06T09:39:21Z</time>
      </trkpt>
      <trkpt lat="46.08841" lon="4.64668">
        <ele>456.8</ele>
        <time>2020-06-06T09:39:25Z</time>
      </trkpt>
      <trkpt lat="46.08868" lon="4.64674">
        <ele>457.6</ele>
        <time>2020-06-06T09:39:29Z</time>
      </trkpt>
      <trkpt lat="46.08893" lon="4.64678">
        <ele>457.8</ele>
        <time>2020-06-06T09:39:33Z</time>
      </trkpt>
      <trkpt lat="46.08907" lon="4.6468">
        <ele>458.4</ele>
        <time>2020-06-06T09:39:37Z</time>
      </trkpt>
      <trkpt lat="46.08925" lon="4.64684">
        <ele>458.4</ele>
        <time>2020-06-06T09:39:41Z</time>
      </trkpt>
      <trkpt lat="46.08936" lon="4.64695">
        <ele>458.6</ele>
        <time>2020-06-06T09:39:45Z</time>
      </trkpt>
      <trkpt lat="46.08946" lon="4.64703">
        <ele>459.2</ele>
        <time>2020-06-06T09:39:49Z</time>
      </trkpt>
      <trkpt lat="46.08959" lon="4.64694">
        <ele>459.8</ele>
        <time>2020-06-06T09:39:53Z</time>
      </trkpt>
      <trkpt lat="46.08976" lon="4.64694">
        <ele>460.6</ele>
        <time>2020-06-06T09:39:57Z</time>
      </trkpt>
      <trkpt lat="46.08993" lon="4.64695">
        <ele>461.8</ele>
        <time>2020-06-06T09:40:01Z</time>
      </trkpt>
      <trkpt lat="46.09008" lon="4.64696">
        <ele>462.8</ele>
        <time>2020-06-06T09:40:05Z</time>
      </trkpt>
      <trkpt lat="46.09024" lon="4.64698">
        <ele>463.8</ele>
        <time>2020-06-06T09:40:09Z</time>
      </trkpt>
      <trkpt lat="46.09036" lon="4.64701">
        <ele>464</ele>
        <time>2020-06-06T09:40:13Z</time>
      </trkpt>
      <trkpt lat="46.09063" lon="4.64705">
        <ele>464</ele>
        <time>2020-06-06T09:42:34Z</time>
      </trkpt>
      <trkpt lat="46.09074" lon="4.64706">
        <ele>464.6</ele>
        <time>2020-06-06T09:42:38Z</time>
      </trkpt>
      <trkpt lat="46.09085" lon="4.64707">
        <ele>465.2</ele>
        <time>2020-06-06T09:42:42Z</time>
      </trkpt>
      <trkpt lat="46.09095" lon="4.64707">
        <ele>465.6</ele>
        <time>2020-06-06T09:42:46Z</time>
      </trkpt>
      <trkpt lat="46.09106" lon="4.64708">
        <ele>466.2</ele>
        <time>2020-06-06T09:42:50Z</time>
      </trkpt>
      <trkpt lat="46.09115" lon="4.64708">
        <ele>466.4</ele>
        <time>2020-06-06T09:42:54Z</time>
      </trkpt>
      <trkpt lat="46.09125" lon="4.64708">
        <ele>466.8</ele>
        <time>2020-06-06T09:42:58Z</time>
      </trkpt>
      <trkpt lat="46.09135" lon="4.64708">
        <ele>467.2</ele>
        <time>2020-06-06T09:43:02Z</time>
      </trkpt>
      <trkpt lat="46.09145" lon="4.64708">
        <ele>468.4</ele>
        <time>2020-06-06T09:43:06Z</time>
      </trkpt>
      <trkpt lat="46.09156" lon="4.64707">
        <ele>468.6</ele>
        <time>2020-06-06T09:43:10Z</time>
      </trkpt>
      <trkpt lat="46.09166" lon="4.64707">
        <ele>468.8</ele>
        <time>2020-06-06T09:43:14Z</time>
      </trkpt>
      <trkpt lat="46.09177" lon="4.64707">
        <ele>470</ele>
        <time>2020-06-06T09:43:18Z</time>
      </trkpt>
      <trkpt lat="46.09187" lon="4.64707">
        <ele>470.4</ele>
        <time>2020-06-06T09:43:22Z</time>
      </trkpt>
      <trkpt lat="46.09198" lon="4.64707">
        <ele>471</ele>
        <time>2020-06-06T09:43:26Z</time>
      </trkpt>
      <trkpt lat="46.09208" lon="4.64707">
        <ele>471</ele>
        <time>2020-06-06T09:43:30Z</time>
      </trkpt>
      <trkpt lat="46.09219" lon="4.64707">
        <ele>471.8</ele>
        <time>2020-06-06T09:43:34Z</time>
      </trkpt>
      <trkpt lat="46.09229" lon="4.64706">
        <ele>472.8</ele>
        <time>2020-06-06T09:43:38Z</time>
      </trkpt>
      <trkpt lat="46.0924" lon="4.64705">
        <ele>473</ele>
        <time>2020-06-06T09:43:42Z</time>
      </trkpt>
      <trkpt lat="46.09251" lon="4.64704">
        <ele>473.8</ele>
        <time>2020-06-06T09:43:46Z</time>
      </trkpt>
      <trkpt lat="46.09261" lon="4.64702">
        <ele>473.6</ele>
        <time>2020-06-06T09:43:50Z</time>
      </trkpt>
      <trkpt lat="46.09272" lon="4.647">
        <ele>474.6</ele>
        <time>2020-06-06T09:43:54Z</time>
      </trkpt>
      <trkpt lat="46.09283" lon="4.64698">
        <ele>475</ele>
        <time>2020-06-06T09:43:58Z</time>
      </trkpt>
      <trkpt lat="46.09294" lon="4.64695">
        <ele>475.8</ele>
        <time>2020-06-06T09:44:02Z</time>
      </trkpt>
      <trkpt lat="46.09304" lon="4.64691">
        <ele>475.2</ele>
        <time>2020-06-06T09:44:06Z</time>
      </trkpt>
      <trkpt lat="46.09315" lon="4.64687">
        <ele>476.8</ele>
        <time>2020-06-06T09:44:10Z</time>
      </trkpt>
      <trkpt lat="46.09325" lon="4.64682">
        <ele>476.8</ele>
        <time>2020-06-06T09:44:14Z</time>
      </trkpt>
      <trkpt lat="46.09335" lon="4.64676">
        <ele>478.4</ele>
        <time>2020-06-06T09:44:18Z</time>
      </trkpt>
      <trkpt lat="46.09345" lon="4.64671">
        <ele>479</ele>
        <time>2020-06-06T09:44:22Z</time>
      </trkpt>
      <trkpt lat="46.09355" lon="4.64665">
        <ele>479.2</ele>
        <time>2020-06-06T09:44:26Z</time>
      </trkpt>
      <trkpt lat="46.09366" lon="4.64659">
        <ele>480.2</ele>
        <time>2020-06-06T09:44:30Z</time>
      </trkpt>
      <trkpt lat="46.09377" lon="4.64653">
        <ele>480.6</ele>
        <time>2020-06-06T09:44:34Z</time>
      </trkpt>
      <trkpt lat="46.09388" lon="4.64648">
        <ele>480.6</ele>
        <time>2020-06-06T09:44:38Z</time>
      </trkpt>
      <trkpt lat="46.09399" lon="4.64642">
        <ele>481.4</ele>
        <time>2020-06-06T09:44:42Z</time>
      </trkpt>
      <trkpt lat="46.09411" lon="4.64638">
        <ele>481.8</ele>
        <time>2020-06-06T09:44:46Z</time>
      </trkpt>
      <trkpt lat="46.09423" lon="4.64635">
        <ele>482.2</ele>
        <time>2020-06-06T09:44:50Z</time>
      </trkpt>
      <trkpt lat="46.09435" lon="4.64632">
        <ele>483.4</ele>
        <time>2020-06-06T09:44:54Z</time>
      </trkpt>
      <trkpt lat="46.09448" lon="4.64629">
        <ele>483.2</ele>
        <time>2020-06-06T09:44:58Z</time>
      </trkpt>
      <trkpt lat="46.09461" lon="4.64626">
        <ele>483.8</ele>
        <time>2020-06-06T09:45:02Z</time>
      </trkpt>
      <trkpt lat="46.09474" lon="4.64623">
        <ele>484.4</ele>
        <time>2020-06-06T09:45:06Z</time>
      </trkpt>
      <trkpt lat="46.09486" lon="4.6462">
        <ele>484.4</ele>
        <time>2020-06-06T09:45:10Z</time>
      </trkpt>
      <trkpt lat="46.09499" lon="4.64617">
        <ele>483.8</ele>
        <time>2020-06-06T09:45:14Z</time>
      </trkpt>
      <trkpt lat="46.09512" lon="4.64614">
        <ele>483.8</ele>
        <time>2020-06-06T09:45:18Z</time>
      </trkpt>
      <trkpt lat="46.09528" lon="4.64609">
        <ele>483.2</ele>
        <time>2020-06-06T09:45:22Z</time>
      </trkpt>
      <trkpt lat="46.09546" lon="4.64605">
        <ele>482.6</ele>
        <time>2020-06-06T09:45:26Z</time>
      </trkpt>
      <trkpt lat="46.09568" lon="4.646">
        <ele>481.8</ele>
        <time>2020-06-06T09:45:30Z</time>
      </trkpt>
      <trkpt lat="46.09593" lon="4.64594">
        <ele>479.2</ele>
        <time>2020-06-06T09:45:34Z</time>
      </trkpt>
      <trkpt lat="46.09621" lon="4.64585">
        <ele>477.2</ele>
        <time>2020-06-06T09:45:38Z</time>
      </trkpt>
      <trkpt lat="46.0965" lon="4.64568">
        <ele>475.6</ele>
        <time>2020-06-06T09:45:42Z</time>
      </trkpt>
      <trkpt lat="46.0968" lon="4.64548">
        <ele>474</ele>
        <time>2020-06-06T09:45:46Z</time>
      </trkpt>
      <trkpt lat="46.09709" lon="4.64527">
        <ele>472.4</ele>
        <time>2020-06-06T09:45:50Z</time>
      </trkpt>
      <trkpt lat="46.09733" lon="4.64499">
        <ele>470.6</ele>
        <time>2020-06-06T09:45:54Z</time>
      </trkpt>
      <trkpt lat="46.09752" lon="4.64467">
        <ele>471</ele>
        <time>2020-06-06T09:45:58Z</time>
      </trkpt>
      <trkpt lat="46.09764" lon="4.64433">
        <ele>471.2</ele>
        <time>2020-06-06T09:46:02Z</time>
      </trkpt>
      <trkpt lat="46.09772" lon="4.64402">
        <ele>471.6</ele>
        <time>2020-06-06T09:46:06Z</time>
      </trkpt>
      <trkpt lat="46.09776" lon="4.64372">
        <ele>472.6</ele>
        <time>2020-06-06T09:46:10Z</time>
      </trkpt>
      <trkpt lat="46.09781" lon="4.64344">
        <ele>473.4</ele>
        <time>2020-06-06T09:46:14Z</time>
      </trkpt>
      <trkpt lat="46.09784" lon="4.64317">
        <ele>473.2</ele>
        <time>2020-06-06T09:46:18Z</time>
      </trkpt>
      <trkpt lat="46.09787" lon="4.6429">
        <ele>472.6</ele>
        <time>2020-06-06T09:46:22Z</time>
      </trkpt>
      <trkpt lat="46.0979" lon="4.64264">
        <ele>473.2</ele>
        <time>2020-06-06T09:46:26Z</time>
      </trkpt>
      <trkpt lat="46.09792" lon="4.64238">
        <ele>473.6</ele>
        <time>2020-06-06T09:46:30Z</time>
      </trkpt>
      <trkpt lat="46.09797" lon="4.64215">
        <ele>473.8</ele>
        <time>2020-06-06T09:46:34Z</time>
      </trkpt>
      <trkpt lat="46.09805" lon="4.64195">
        <ele>474.2</ele>
        <time>2020-06-06T09:46:38Z</time>
      </trkpt>
      <trkpt lat="46.09811" lon="4.64177">
        <ele>475</ele>
        <time>2020-06-06T09:46:42Z</time>
      </trkpt>
      <trkpt lat="46.09819" lon="4.64157">
        <ele>475</ele>
        <time>2020-06-06T09:46:46Z</time>
      </trkpt>
      <trkpt lat="46.09824" lon="4.64135">
        <ele>474.4</ele>
        <time>2020-06-06T09:46:50Z</time>
      </trkpt>
      <trkpt lat="46.09829" lon="4.64113">
        <ele>475.4</ele>
        <time>2020-06-06T09:46:54Z</time>
      </trkpt>
      <trkpt lat="46.09833" lon="4.6409">
        <ele>476.4</ele>
        <time>2020-06-06T09:46:58Z</time>
      </trkpt>
      <trkpt lat="46.0984" lon="4.64069">
        <ele>476</ele>
        <time>2020-06-06T09:47:02Z</time>
      </trkpt>
      <trkpt lat="46.0985" lon="4.64052">
        <ele>475.8</ele>
        <time>2020-06-06T09:47:06Z</time>
      </trkpt>
      <trkpt lat="46.09862" lon="4.64039">
        <ele>476.4</ele>
        <time>2020-06-06T09:47:10Z</time>
      </trkpt>
      <trkpt lat="46.09875" lon="4.64039">
        <ele>476.4</ele>
        <time>2020-06-06T09:47:14Z</time>
      </trkpt>
      <trkpt lat="46.0989" lon="4.6405">
        <ele>477</ele>
        <time>2020-06-06T09:47:18Z</time>
      </trkpt>
      <trkpt lat="46.09903" lon="4.6407">
        <ele>476.4</ele>
        <time>2020-06-06T09:47:22Z</time>
      </trkpt>
      <trkpt lat="46.09914" lon="4.64092">
        <ele>476</ele>
        <time>2020-06-06T09:47:26Z</time>
      </trkpt>
      <trkpt lat="46.09925" lon="4.64114">
        <ele>477</ele>
        <time>2020-06-06T09:47:30Z</time>
      </trkpt>
      <trkpt lat="46.09934" lon="4.64136">
        <ele>477.8</ele>
        <time>2020-06-06T09:47:34Z</time>
      </trkpt>
      <trkpt lat="46.09942" lon="4.64158">
        <ele>477.6</ele>
        <time>2020-06-06T09:47:38Z</time>
      </trkpt>
      <trkpt lat="46.09949" lon="4.6418">
        <ele>478.8</ele>
        <time>2020-06-06T09:47:42Z</time>
      </trkpt>
      <trkpt lat="46.09955" lon="4.64202">
        <ele>479.6</ele>
        <time>2020-06-06T09:47:46Z</time>
      </trkpt>
      <trkpt lat="46.09961" lon="4.64222">
        <ele>480</ele>
        <time>2020-06-06T09:47:50Z</time>
      </trkpt>
      <trkpt lat="46.09965" lon="4.6424">
        <ele>480.4</ele>
        <time>2020-06-06T09:47:54Z</time>
      </trkpt>
      <trkpt lat="46.09971" lon="4.64259">
        <ele>481.2</ele>
        <time>2020-06-06T09:47:58Z</time>
      </trkpt>
      <trkpt lat="46.09976" lon="4.64277">
        <ele>481.8</ele>
        <time>2020-06-06T09:48:02Z</time>
      </trkpt>
      <trkpt lat="46.09983" lon="4.64293">
        <ele>482.4</ele>
        <time>2020-06-06T09:48:06Z</time>
      </trkpt>
      <trkpt lat="46.09992" lon="4.64309">
        <ele>482.8</ele>
        <time>2020-06-06T09:48:10Z</time>
      </trkpt>
      <trkpt lat="46.10004" lon="4.64319">
        <ele>483.6</ele>
        <time>2020-06-06T09:48:14Z</time>
      </trkpt>
      <trkpt lat="46.10018" lon="4.64325">
        <ele>484.2</ele>
        <time>2020-06-06T09:48:18Z</time>
      </trkpt>
      <trkpt lat="46.10034" lon="4.64327">
        <ele>483.8</ele>
        <time>2020-06-06T09:48:22Z</time>
      </trkpt>
      <trkpt lat="46.10051" lon="4.64325">
        <ele>483.6</ele>
        <time>2020-06-06T09:48:26Z</time>
      </trkpt>
      <trkpt lat="46.1007" lon="4.64323">
        <ele>483.4</ele>
        <time>2020-06-06T09:48:30Z</time>
      </trkpt>
      <trkpt lat="46.1009" lon="4.64321">
        <ele>482.6</ele>
        <time>2020-06-06T09:48:34Z</time>
      </trkpt>
      <trkpt lat="46.1011" lon="4.64318">
        <ele>482</ele>
        <time>2020-06-06T09:48:38Z</time>
      </trkpt>
      <trkpt lat="46.1013" lon="4.64317">
        <ele>482</ele>
        <time>2020-06-06T09:48:42Z</time>
      </trkpt>
      <trkpt lat="46.1015" lon="4.64314">
        <ele>481.4</ele>
        <time>2020-06-06T09:48:46Z</time>
      </trkpt>
      <trkpt lat="46.10169" lon="4.64312">
        <ele>481.6</ele>
        <time>2020-06-06T09:48:50Z</time>
      </trkpt>
      <trkpt lat="46.10186" lon="4.64311">
        <ele>482</ele>
        <time>2020-06-06T09:48:54Z</time>
      </trkpt>
      <trkpt lat="46.10202" lon="4.64307">
        <ele>481.8</ele>
        <time>2020-06-06T09:48:58Z</time>
      </trkpt>
      <trkpt lat="46.10218" lon="4.64303">
        <ele>482</ele>
        <time>2020-06-06T09:49:02Z</time>
      </trkpt>
      <trkpt lat="46.10233" lon="4.64297">
        <ele>482.4</ele>
        <time>2020-06-06T09:49:06Z</time>
      </trkpt>
      <trkpt lat="46.10247" lon="4.6429">
        <ele>483.4</ele>
        <time>2020-06-06T09:49:10Z</time>
      </trkpt>
      <trkpt lat="46.10261" lon="4.64283">
        <ele>484.2</ele>
        <time>2020-06-06T09:49:14Z</time>
      </trkpt>
      <trkpt lat="46.10274" lon="4.64277">
        <ele>484.4</ele>
        <time>2020-06-06T09:49:18Z</time>
      </trkpt>
      <trkpt lat="46.10287" lon="4.64271">
        <ele>485</ele>
        <time>2020-06-06T09:49:22Z</time>
      </trkpt>
      <trkpt lat="46.103" lon="4.64265">
        <ele>485.2</ele>
        <time>2020-06-06T09:49:26Z</time>
      </trkpt>
      <trkpt lat="46.10314" lon="4.6426">
        <ele>485.6</ele>
        <time>2020-06-06T09:49:30Z</time>
      </trkpt>
      <trkpt lat="46.10327" lon="4.64257">
        <ele>486.2</ele>
        <time>2020-06-06T09:49:34Z</time>
      </trkpt>
      <trkpt lat="46.1034" lon="4.64257">
        <ele>487.2</ele>
        <time>2020-06-06T09:49:38Z</time>
      </trkpt>
      <trkpt lat="46.10354" lon="4.64258">
        <ele>487.4</ele>
        <time>2020-06-06T09:49:42Z</time>
      </trkpt>
      <trkpt lat="46.10368" lon="4.64261">
        <ele>488</ele>
        <time>2020-06-06T09:49:46Z</time>
      </trkpt>
      <trkpt lat="46.10382" lon="4.64266">
        <ele>488.6</ele>
        <time>2020-06-06T09:49:50Z</time>
      </trkpt>
      <trkpt lat="46.10396" lon="4.64272">
        <ele>488.4</ele>
        <time>2020-06-06T09:49:54Z</time>
      </trkpt>
      <trkpt lat="46.10408" lon="4.64279">
        <ele>489</ele>
        <time>2020-06-06T09:49:58Z</time>
      </trkpt>
      <trkpt lat="46.10421" lon="4.64285">
        <ele>489.6</ele>
        <time>2020-06-06T09:50:02Z</time>
      </trkpt>
      <trkpt lat="46.10434" lon="4.64291">
        <ele>489.8</ele>
        <time>2020-06-06T09:50:06Z</time>
      </trkpt>
      <trkpt lat="46.10447" lon="4.64298">
        <ele>490.6</ele>
        <time>2020-06-06T09:50:10Z</time>
      </trkpt>
      <trkpt lat="46.1046" lon="4.64303">
        <ele>491</ele>
        <time>2020-06-06T09:50:14Z</time>
      </trkpt>
      <trkpt lat="46.10472" lon="4.64309">
        <ele>491.4</ele>
        <time>2020-06-06T09:50:18Z</time>
      </trkpt>
      <trkpt lat="46.10484" lon="4.64314">
        <ele>491.6</ele>
        <time>2020-06-06T09:50:22Z</time>
      </trkpt>
      <trkpt lat="46.10497" lon="4.64319">
        <ele>491.8</ele>
        <time>2020-06-06T09:50:26Z</time>
      </trkpt>
      <trkpt lat="46.1051" lon="4.64324">
        <ele>492.4</ele>
        <time>2020-06-06T09:50:30Z</time>
      </trkpt>
      <trkpt lat="46.10524" lon="4.64328">
        <ele>492.8</ele>
        <time>2020-06-06T09:50:34Z</time>
      </trkpt>
      <trkpt lat="46.10537" lon="4.6433">
        <ele>493.4</ele>
        <time>2020-06-06T09:50:38Z</time>
      </trkpt>
      <trkpt lat="46.10551" lon="4.6433">
        <ele>494</ele>
        <time>2020-06-06T09:50:42Z</time>
      </trkpt>
      <trkpt lat="46.10564" lon="4.6433">
        <ele>494.4</ele>
        <time>2020-06-06T09:50:46Z</time>
      </trkpt>
      <trkpt lat="46.10576" lon="4.64329">
        <ele>494.4</ele>
        <time>2020-06-06T09:50:50Z</time>
      </trkpt>
      <trkpt lat="46.10591" lon="4.64327">
        <ele>494.6</ele>
        <time>2020-06-06T09:50:54Z</time>
      </trkpt>
      <trkpt lat="46.1061" lon="4.64325">
        <ele>493.2</ele>
        <time>2020-06-06T09:50:58Z</time>
      </trkpt>
      <trkpt lat="46.10631" lon="4.64322">
        <ele>492.4</ele>
        <time>2020-06-06T09:51:02Z</time>
      </trkpt>
      <trkpt lat="46.10654" lon="4.64321">
        <ele>492</ele>
        <time>2020-06-06T09:51:06Z</time>
      </trkpt>
      <trkpt lat="46.10675" lon="4.64321">
        <ele>491</ele>
        <time>2020-06-06T09:51:10Z</time>
      </trkpt>
      <trkpt lat="46.10699" lon="4.64324">
        <ele>489.4</ele>
        <time>2020-06-06T09:51:14Z</time>
      </trkpt>
      <trkpt lat="46.10726" lon="4.64326">
        <ele>488</ele>
        <time>2020-06-06T09:51:18Z</time>
      </trkpt>
      <trkpt lat="46.10755" lon="4.64329">
        <ele>485.2</ele>
        <time>2020-06-06T09:51:22Z</time>
      </trkpt>
      <trkpt lat="46.10788" lon="4.64332">
        <ele>482.4</ele>
        <time>2020-06-06T09:51:26Z</time>
      </trkpt>
      <trkpt lat="46.10824" lon="4.64333">
        <ele>479.8</ele>
        <time>2020-06-06T09:51:30Z</time>
      </trkpt>
      <trkpt lat="46.10861" lon="4.64329">
        <ele>478.4</ele>
        <time>2020-06-06T09:51:34Z</time>
      </trkpt>
      <trkpt lat="46.109" lon="4.64341">
        <ele>475.6</ele>
        <time>2020-06-06T09:51:38Z</time>
      </trkpt>
      <trkpt lat="46.10932" lon="4.6438">
        <ele>473.4</ele>
        <time>2020-06-06T09:51:42Z</time>
      </trkpt>
      <trkpt lat="46.10966" lon="4.64397">
        <ele>471.6</ele>
        <time>2020-06-06T09:51:46Z</time>
      </trkpt>
      <trkpt lat="46.10985" lon="4.6435">
        <ele>466.6</ele>
        <time>2020-06-06T09:51:50Z</time>
      </trkpt>
      <trkpt lat="46.10996" lon="4.64297">
        <ele>464.8</ele>
        <time>2020-06-06T09:51:54Z</time>
      </trkpt>
      <trkpt lat="46.11002" lon="4.64244">
        <ele>462.6</ele>
        <time>2020-06-06T09:51:58Z</time>
      </trkpt>
      <trkpt lat="46.11003" lon="4.64189">
        <ele>460</ele>
        <time>2020-06-06T09:52:02Z</time>
      </trkpt>
      <trkpt lat="46.11019" lon="4.64138">
        <ele>457.8</ele>
        <time>2020-06-06T09:52:06Z</time>
      </trkpt>
      <trkpt lat="46.11057" lon="4.64115">
        <ele>454.8</ele>
        <time>2020-06-06T09:52:10Z</time>
      </trkpt>
      <trkpt lat="46.111" lon="4.64133">
        <ele>452</ele>
        <time>2020-06-06T09:52:14Z</time>
      </trkpt>
      <trkpt lat="46.11141" lon="4.64165">
        <ele>448.6</ele>
        <time>2020-06-06T09:52:18Z</time>
      </trkpt>
      <trkpt lat="46.11187" lon="4.6419">
        <ele>444.4</ele>
        <time>2020-06-06T09:52:22Z</time>
      </trkpt>
      <trkpt lat="46.11236" lon="4.64216">
        <ele>439.8</ele>
        <time>2020-06-06T09:52:26Z</time>
      </trkpt>
      <trkpt lat="46.11284" lon="4.64241">
        <ele>435.8</ele>
        <time>2020-06-06T09:52:30Z</time>
      </trkpt>
      <trkpt lat="46.11328" lon="4.6428">
        <ele>432.2</ele>
        <time>2020-06-06T09:52:34Z</time>
      </trkpt>
      <trkpt lat="46.11345" lon="4.64348">
        <ele>427.6</ele>
        <time>2020-06-06T09:52:38Z</time>
      </trkpt>
      <trkpt lat="46.11355" lon="4.64418">
        <ele>425.2</ele>
        <time>2020-06-06T09:52:42Z</time>
      </trkpt>
      <trkpt lat="46.11365" lon="4.64486">
        <ele>424.4</ele>
        <time>2020-06-06T09:52:46Z</time>
      </trkpt>
      <trkpt lat="46.11381" lon="4.64545">
        <ele>423.2</ele>
        <time>2020-06-06T09:52:50Z</time>
      </trkpt>
      <trkpt lat="46.11416" lon="4.64574">
        <ele>422.8</ele>
        <time>2020-06-06T09:52:54Z</time>
      </trkpt>
      <trkpt lat="46.11452" lon="4.64591">
        <ele>422.8</ele>
        <time>2020-06-06T09:52:58Z</time>
      </trkpt>
      <trkpt lat="46.11487" lon="4.64604">
        <ele>422.2</ele>
        <time>2020-06-06T09:53:02Z</time>
      </trkpt>
      <trkpt lat="46.1152" lon="4.64602">
        <ele>420</ele>
        <time>2020-06-06T09:53:06Z</time>
      </trkpt>
      <trkpt lat="46.1155" lon="4.64596">
        <ele>419.2</ele>
        <time>2020-06-06T09:53:10Z</time>
      </trkpt>
      <trkpt lat="46.11581" lon="4.6459">
        <ele>419.2</ele>
        <time>2020-06-06T09:53:14Z</time>
      </trkpt>
      <trkpt lat="46.1161" lon="4.6458">
        <ele>418.8</ele>
        <time>2020-06-06T09:53:18Z</time>
      </trkpt>
      <trkpt lat="46.11638" lon="4.64555">
        <ele>416</ele>
        <time>2020-06-06T09:53:22Z</time>
      </trkpt>
      <trkpt lat="46.11663" lon="4.64521">
        <ele>413</ele>
        <time>2020-06-06T09:53:26Z</time>
      </trkpt>
      <trkpt lat="46.11692" lon="4.64488">
        <ele>410.8</ele>
        <time>2020-06-06T09:53:30Z</time>
      </trkpt>
      <trkpt lat="46.11729" lon="4.64471">
        <ele>408</ele>
        <time>2020-06-06T09:53:34Z</time>
      </trkpt>
      <trkpt lat="46.11768" lon="4.64464">
        <ele>403.8</ele>
        <time>2020-06-06T09:53:38Z</time>
      </trkpt>
      <trkpt lat="46.11796" lon="4.64468">
        <ele>404.8</ele>
        <time>2020-06-06T09:53:42Z</time>
      </trkpt>
      <trkpt lat="46.11813" lon="4.64487">
        <ele>404.2</ele>
        <time>2020-06-06T09:53:46Z</time>
      </trkpt>
      <trkpt lat="46.11829" lon="4.64522">
        <ele>401.8</ele>
        <time>2020-06-06T09:53:50Z</time>
      </trkpt>
      <trkpt lat="46.11834" lon="4.64563">
        <ele>400.6</ele>
        <time>2020-06-06T09:53:54Z</time>
      </trkpt>
      <trkpt lat="46.11853" lon="4.64577">
        <ele>399.2</ele>
        <time>2020-06-06T09:53:58Z</time>
      </trkpt>
      <trkpt lat="46.11864" lon="4.6455">
        <ele>399</ele>
        <time>2020-06-06T09:54:02Z</time>
      </trkpt>
      <trkpt lat="46.11876" lon="4.64529">
        <ele>399.8</ele>
        <time>2020-06-06T09:54:06Z</time>
      </trkpt>
      <trkpt lat="46.11889" lon="4.64506">
        <ele>400</ele>
        <time>2020-06-06T09:54:10Z</time>
      </trkpt>
      <trkpt lat="46.11901" lon="4.64484">
        <ele>399.8</ele>
        <time>2020-06-06T09:54:14Z</time>
      </trkpt>
      <trkpt lat="46.11911" lon="4.64462">
        <ele>398.8</ele>
        <time>2020-06-06T09:54:18Z</time>
      </trkpt>
      <trkpt lat="46.11921" lon="4.64441">
        <ele>400.4</ele>
        <time>2020-06-06T09:54:22Z</time>
      </trkpt>
      <trkpt lat="46.11931" lon="4.6442">
        <ele>400.2</ele>
        <time>2020-06-06T09:54:26Z</time>
      </trkpt>
      <trkpt lat="46.11942" lon="4.644">
        <ele>400.8</ele>
        <time>2020-06-06T09:54:30Z</time>
      </trkpt>
      <trkpt lat="46.11952" lon="4.64378">
        <ele>399.8</ele>
        <time>2020-06-06T09:54:34Z</time>
      </trkpt>
      <trkpt lat="46.11963" lon="4.64355">
        <ele>399.8</ele>
        <time>2020-06-06T09:54:38Z</time>
      </trkpt>
      <trkpt lat="46.11974" lon="4.64332">
        <ele>399.6</ele>
        <time>2020-06-06T09:54:42Z</time>
      </trkpt>
      <trkpt lat="46.11986" lon="4.64308">
        <ele>399.8</ele>
        <time>2020-06-06T09:54:46Z</time>
      </trkpt>
      <trkpt lat="46.11998" lon="4.64283">
        <ele>399.2</ele>
        <time>2020-06-06T09:54:50Z</time>
      </trkpt>
      <trkpt lat="46.1201" lon="4.64258">
        <ele>400</ele>
        <time>2020-06-06T09:54:54Z</time>
      </trkpt>
      <trkpt lat="46.12022" lon="4.64233">
        <ele>400</ele>
        <time>2020-06-06T09:54:58Z</time>
      </trkpt>
      <trkpt lat="46.12034" lon="4.64209">
        <ele>400.2</ele>
        <time>2020-06-06T09:55:02Z</time>
      </trkpt>
      <trkpt lat="46.12046" lon="4.64185">
        <ele>400</ele>
        <time>2020-06-06T09:55:06Z</time>
      </trkpt>
      <trkpt lat="46.12057" lon="4.64163">
        <ele>398.4</ele>
        <time>2020-06-06T09:55:10Z</time>
      </trkpt>
      <trkpt lat="46.12067" lon="4.64142">
        <ele>398.6</ele>
        <time>2020-06-06T09:55:14Z</time>
      </trkpt>
      <trkpt lat="46.12077" lon="4.64121">
        <ele>398.8</ele>
        <time>2020-06-06T09:55:18Z</time>
      </trkpt>
      <trkpt lat="46.12087" lon="4.64102">
        <ele>400.2</ele>
        <time>2020-06-06T09:55:22Z</time>
      </trkpt>
      <trkpt lat="46.12097" lon="4.64081">
        <ele>400.8</ele>
        <time>2020-06-06T09:55:26Z</time>
      </trkpt>
      <trkpt lat="46.12106" lon="4.64061">
        <ele>400.6</ele>
        <time>2020-06-06T09:55:30Z</time>
      </trkpt>
      <trkpt lat="46.12117" lon="4.6404">
        <ele>401</ele>
        <time>2020-06-06T09:55:34Z</time>
      </trkpt>
      <trkpt lat="46.12127" lon="4.64019">
        <ele>401.4</ele>
        <time>2020-06-06T09:55:38Z</time>
      </trkpt>
      <trkpt lat="46.12137" lon="4.64">
        <ele>401.6</ele>
        <time>2020-06-06T09:55:42Z</time>
      </trkpt>
      <trkpt lat="46.12146" lon="4.6398">
        <ele>401.8</ele>
        <time>2020-06-06T09:55:46Z</time>
      </trkpt>
      <trkpt lat="46.12156" lon="4.63962">
        <ele>402</ele>
        <time>2020-06-06T09:55:50Z</time>
      </trkpt>
      <trkpt lat="46.12165" lon="4.63944">
        <ele>402.4</ele>
        <time>2020-06-06T09:55:54Z</time>
      </trkpt>
      <trkpt lat="46.12174" lon="4.63926">
        <ele>402</ele>
        <time>2020-06-06T09:55:58Z</time>
      </trkpt>
      <trkpt lat="46.12182" lon="4.63908">
        <ele>402.4</ele>
        <time>2020-06-06T09:56:02Z</time>
      </trkpt>
      <trkpt lat="46.12191" lon="4.6389">
        <ele>403</ele>
        <time>2020-06-06T09:56:06Z</time>
      </trkpt>
      <trkpt lat="46.122" lon="4.63872">
        <ele>403</ele>
        <time>2020-06-06T09:56:10Z</time>
      </trkpt>
      <trkpt lat="46.12208" lon="4.63855">
        <ele>404.4</ele>
        <time>2020-06-06T09:56:14Z</time>
      </trkpt>
      <trkpt lat="46.12217" lon="4.63837">
        <ele>404.6</ele>
        <time>2020-06-06T09:56:18Z</time>
      </trkpt>
      <trkpt lat="46.12225" lon="4.6382">
        <ele>405.4</ele>
        <time>2020-06-06T09:56:22Z</time>
      </trkpt>
      <trkpt lat="46.12234" lon="4.63803">
        <ele>405.6</ele>
        <time>2020-06-06T09:56:26Z</time>
      </trkpt>
      <trkpt lat="46.12242" lon="4.63786">
        <ele>406</ele>
        <time>2020-06-06T09:56:30Z</time>
      </trkpt>
      <trkpt lat="46.1225" lon="4.63769">
        <ele>406.2</ele>
        <time>2020-06-06T09:56:34Z</time>
      </trkpt>
      <trkpt lat="46.12259" lon="4.6375">
        <ele>406.6</ele>
        <time>2020-06-06T09:56:38Z</time>
      </trkpt>
      <trkpt lat="46.12268" lon="4.63732">
        <ele>406.6</ele>
        <time>2020-06-06T09:56:42Z</time>
      </trkpt>
      <trkpt lat="46.12277" lon="4.63714">
        <ele>407.6</ele>
        <time>2020-06-06T09:56:46Z</time>
      </trkpt>
      <trkpt lat="46.12286" lon="4.63695">
        <ele>408.4</ele>
        <time>2020-06-06T09:56:50Z</time>
      </trkpt>
      <trkpt lat="46.12295" lon="4.63676">
        <ele>408.8</ele>
        <time>2020-06-06T09:56:54Z</time>
      </trkpt>
      <trkpt lat="46.12305" lon="4.63658">
        <ele>408.6</ele>
        <time>2020-06-06T09:56:58Z</time>
      </trkpt>
      <trkpt lat="46.12314" lon="4.63639">
        <ele>409.4</ele>
        <time>2020-06-06T09:57:02Z</time>
      </trkpt>
      <trkpt lat="46.12324" lon="4.6362">
        <ele>410.2</ele>
        <time>2020-06-06T09:57:06Z</time>
      </trkpt>
      <trkpt lat="46.12334" lon="4.636">
        <ele>410</ele>
        <time>2020-06-06T09:57:10Z</time>
      </trkpt>
      <trkpt lat="46.12343" lon="4.6358">
        <ele>410</ele>
        <time>2020-06-06T09:57:14Z</time>
      </trkpt>
      <trkpt lat="46.12353" lon="4.63561">
        <ele>410.6</ele>
        <time>2020-06-06T09:57:18Z</time>
      </trkpt>
      <trkpt lat="46.12363" lon="4.63542">
        <ele>411.2</ele>
        <time>2020-06-06T09:57:22Z</time>
      </trkpt>
      <trkpt lat="46.12373" lon="4.63523">
        <ele>411.6</ele>
        <time>2020-06-06T09:57:26Z</time>
      </trkpt>
      <trkpt lat="46.12383" lon="4.63503">
        <ele>412</ele>
        <time>2020-06-06T09:57:30Z</time>
      </trkpt>
      <trkpt lat="46.12393" lon="4.63484">
        <ele>412.4</ele>
        <time>2020-06-06T09:57:34Z</time>
      </trkpt>
      <trkpt lat="46.12402" lon="4.63464">
        <ele>412.8</ele>
        <time>2020-06-06T09:57:38Z</time>
      </trkpt>
      <trkpt lat="46.12412" lon="4.63443">
        <ele>413.4</ele>
        <time>2020-06-06T09:57:42Z</time>
      </trkpt>
      <trkpt lat="46.12422" lon="4.63423">
        <ele>413.2</ele>
        <time>2020-06-06T09:57:46Z</time>
      </trkpt>
      <trkpt lat="46.12432" lon="4.63402">
        <ele>413.4</ele>
        <time>2020-06-06T09:57:50Z</time>
      </trkpt>
      <trkpt lat="46.12441" lon="4.63381">
        <ele>414.2</ele>
        <time>2020-06-06T09:57:54Z</time>
      </trkpt>
      <trkpt lat="46.12451" lon="4.63361">
        <ele>414.8</ele>
        <time>2020-06-06T09:57:58Z</time>
      </trkpt>
      <trkpt lat="46.12461" lon="4.63341">
        <ele>415.4</ele>
        <time>2020-06-06T09:58:02Z</time>
      </trkpt>
      <trkpt lat="46.1247" lon="4.6332">
        <ele>416</ele>
        <time>2020-06-06T09:58:06Z</time>
      </trkpt>
      <trkpt lat="46.12478" lon="4.633">
        <ele>416.4</ele>
        <time>2020-06-06T09:58:10Z</time>
      </trkpt>
      <trkpt lat="46.12487" lon="4.63281">
        <ele>417</ele>
        <time>2020-06-06T09:58:14Z</time>
      </trkpt>
      <trkpt lat="46.12496" lon="4.63262">
        <ele>417.2</ele>
        <time>2020-06-06T09:58:18Z</time>
      </trkpt>
      <trkpt lat="46.12507" lon="4.63242">
        <ele>417.2</ele>
        <time>2020-06-06T09:58:22Z</time>
      </trkpt>
      <trkpt lat="46.12516" lon="4.63225">
        <ele>418.8</ele>
        <time>2020-06-06T09:58:26Z</time>
      </trkpt>
      <trkpt lat="46.12524" lon="4.63212">
        <ele>419</ele>
        <time>2020-06-06T09:58:30Z</time>
      </trkpt>
      <trkpt lat="46.12521" lon="4.63199">
        <ele>420</ele>
        <time>2020-06-06T09:59:25Z</time>
      </trkpt>
      <trkpt lat="46.12514" lon="4.63211">
        <ele>419.4</ele>
        <time>2020-06-06T09:59:29Z</time>
      </trkpt>
      <trkpt lat="46.12508" lon="4.63202">
        <ele>418.6</ele>
        <time>2020-06-06T09:59:33Z</time>
      </trkpt>
      <trkpt lat="46.12514" lon="4.63187">
        <ele>420</ele>
        <time>2020-06-06T09:59:37Z</time>
      </trkpt>
      <trkpt lat="46.12518" lon="4.63174">
        <ele>421</ele>
        <time>2020-06-06T09:59:41Z</time>
      </trkpt>
      <trkpt lat="46.12522" lon="4.6316">
        <ele>421.2</ele>
        <time>2020-06-06T09:59:45Z</time>
      </trkpt>
      <trkpt lat="46.12523" lon="4.63146">
        <ele>421.6</ele>
        <time>2020-06-06T09:59:49Z</time>
      </trkpt>
      <trkpt lat="46.12524" lon="4.63132">
        <ele>422.2</ele>
        <time>2020-06-06T09:59:53Z</time>
      </trkpt>
      <trkpt lat="46.12524" lon="4.63118">
        <ele>422.2</ele>
        <time>2020-06-06T09:59:57Z</time>
      </trkpt>
      <trkpt lat="46.12525" lon="4.63103">
        <ele>423.6</ele>
        <time>2020-06-06T10:00:01Z</time>
      </trkpt>
      <trkpt lat="46.12526" lon="4.63088">
        <ele>424.8</ele>
        <time>2020-06-06T10:00:05Z</time>
      </trkpt>
      <trkpt lat="46.12526" lon="4.63072">
        <ele>424.4</ele>
        <time>2020-06-06T10:00:09Z</time>
      </trkpt>
      <trkpt lat="46.12526" lon="4.63057">
        <ele>426</ele>
        <time>2020-06-06T10:00:13Z</time>
      </trkpt>
      <trkpt lat="46.12528" lon="4.63042">
        <ele>426.2</ele>
        <time>2020-06-06T10:00:17Z</time>
      </trkpt>
      <trkpt lat="46.1253" lon="4.63027">
        <ele>426.8</ele>
        <time>2020-06-06T10:00:21Z</time>
      </trkpt>
      <trkpt lat="46.1253" lon="4.63011">
        <ele>427.8</ele>
        <time>2020-06-06T10:00:25Z</time>
      </trkpt>
      <trkpt lat="46.1253" lon="4.62994">
        <ele>427.8</ele>
        <time>2020-06-06T10:00:29Z</time>
      </trkpt>
      <trkpt lat="46.12528" lon="4.62977">
        <ele>428.6</ele>
        <time>2020-06-06T10:00:33Z</time>
      </trkpt>
      <trkpt lat="46.12527" lon="4.62962">
        <ele>429.4</ele>
        <time>2020-06-06T10:00:37Z</time>
      </trkpt>
      <trkpt lat="46.12525" lon="4.62945">
        <ele>429.6</ele>
        <time>2020-06-06T10:00:41Z</time>
      </trkpt>
      <trkpt lat="46.12522" lon="4.6293">
        <ele>430.2</ele>
        <time>2020-06-06T10:00:45Z</time>
      </trkpt>
      <trkpt lat="46.12518" lon="4.62914">
        <ele>431.2</ele>
        <time>2020-06-06T10:00:49Z</time>
      </trkpt>
      <trkpt lat="46.12514" lon="4.629">
        <ele>431.6</ele>
        <time>2020-06-06T10:00:53Z</time>
      </trkpt>
      <trkpt lat="46.12508" lon="4.62886">
        <ele>432</ele>
        <time>2020-06-06T10:00:57Z</time>
      </trkpt>
      <trkpt lat="46.12499" lon="4.62875">
        <ele>432.6</ele>
        <time>2020-06-06T10:01:01Z</time>
      </trkpt>
      <trkpt lat="46.1249" lon="4.62866">
        <ele>433.8</ele>
        <time>2020-06-06T10:01:05Z</time>
      </trkpt>
      <trkpt lat="46.12478" lon="4.62861">
        <ele>434.2</ele>
        <time>2020-06-06T10:01:09Z</time>
      </trkpt>
      <trkpt lat="46.12467" lon="4.62855">
        <ele>435</ele>
        <time>2020-06-06T10:01:13Z</time>
      </trkpt>
      <trkpt lat="46.12455" lon="4.6285">
        <ele>435.4</ele>
        <time>2020-06-06T10:01:17Z</time>
      </trkpt>
      <trkpt lat="46.12443" lon="4.62845">
        <ele>436</ele>
        <time>2020-06-06T10:01:21Z</time>
      </trkpt>
      <trkpt lat="46.12431" lon="4.62841">
        <ele>436.4</ele>
        <time>2020-06-06T10:01:25Z</time>
      </trkpt>
      <trkpt lat="46.12418" lon="4.62834">
        <ele>436.2</ele>
        <time>2020-06-06T10:01:29Z</time>
      </trkpt>
      <trkpt lat="46.12406" lon="4.62824">
        <ele>436.2</ele>
        <time>2020-06-06T10:01:33Z</time>
      </trkpt>
      <trkpt lat="46.12396" lon="4.62809">
        <ele>436.4</ele>
        <time>2020-06-06T10:01:37Z</time>
      </trkpt>
      <trkpt lat="46.12387" lon="4.62794">
        <ele>436.2</ele>
        <time>2020-06-06T10:01:41Z</time>
      </trkpt>
      <trkpt lat="46.12378" lon="4.62779">
        <ele>436.6</ele>
        <time>2020-06-06T10:01:45Z</time>
      </trkpt>
      <trkpt lat="46.12368" lon="4.62762">
        <ele>436</ele>
        <time>2020-06-06T10:01:49Z</time>
      </trkpt>
      <trkpt lat="46.12357" lon="4.62745">
        <ele>435.6</ele>
        <time>2020-06-06T10:01:53Z</time>
      </trkpt>
      <trkpt lat="46.12347" lon="4.62728">
        <ele>435.8</ele>
        <time>2020-06-06T10:01:57Z</time>
      </trkpt>
      <trkpt lat="46.12337" lon="4.6271">
        <ele>435.6</ele>
        <time>2020-06-06T10:02:01Z</time>
      </trkpt>
      <trkpt lat="46.12326" lon="4.62693">
        <ele>435.6</ele>
        <time>2020-06-06T10:02:05Z</time>
      </trkpt>
      <trkpt lat="46.12315" lon="4.62675">
        <ele>435.4</ele>
        <time>2020-06-06T10:02:09Z</time>
      </trkpt>
      <trkpt lat="46.12304" lon="4.62658">
        <ele>435.4</ele>
        <time>2020-06-06T10:02:13Z</time>
      </trkpt>
      <trkpt lat="46.12293" lon="4.62641">
        <ele>435.6</ele>
        <time>2020-06-06T10:02:17Z</time>
      </trkpt>
      <trkpt lat="46.12282" lon="4.62624">
        <ele>435.8</ele>
        <time>2020-06-06T10:02:21Z</time>
      </trkpt>
      <trkpt lat="46.12272" lon="4.62607">
        <ele>436</ele>
        <time>2020-06-06T10:02:25Z</time>
      </trkpt>
      <trkpt lat="46.12262" lon="4.62592">
        <ele>436.6</ele>
        <time>2020-06-06T10:02:29Z</time>
      </trkpt>
      <trkpt lat="46.12251" lon="4.62577">
        <ele>437.4</ele>
        <time>2020-06-06T10:02:33Z</time>
      </trkpt>
      <trkpt lat="46.1224" lon="4.62564">
        <ele>437</ele>
        <time>2020-06-06T10:02:37Z</time>
      </trkpt>
      <trkpt lat="46.12229" lon="4.62551">
        <ele>437.6</ele>
        <time>2020-06-06T10:02:41Z</time>
      </trkpt>
      <trkpt lat="46.12217" lon="4.6254">
        <ele>437.8</ele>
        <time>2020-06-06T10:02:45Z</time>
      </trkpt>
      <trkpt lat="46.12205" lon="4.62528">
        <ele>438</ele>
        <time>2020-06-06T10:02:49Z</time>
      </trkpt>
      <trkpt lat="46.12193" lon="4.62517">
        <ele>437.6</ele>
        <time>2020-06-06T10:02:53Z</time>
      </trkpt>
      <trkpt lat="46.12181" lon="4.62506">
        <ele>438.8</ele>
        <time>2020-06-06T10:02:57Z</time>
      </trkpt>
      <trkpt lat="46.12169" lon="4.62495">
        <ele>439.4</ele>
        <time>2020-06-06T10:03:01Z</time>
      </trkpt>
      <trkpt lat="46.12158" lon="4.62485">
        <ele>439.6</ele>
        <time>2020-06-06T10:03:05Z</time>
      </trkpt>
      <trkpt lat="46.12146" lon="4.62474">
        <ele>439.8</ele>
        <time>2020-06-06T10:03:09Z</time>
      </trkpt>
      <trkpt lat="46.12135" lon="4.62464">
        <ele>440.6</ele>
        <time>2020-06-06T10:03:13Z</time>
      </trkpt>
      <trkpt lat="46.12125" lon="4.62454">
        <ele>440.8</ele>
        <time>2020-06-06T10:03:17Z</time>
      </trkpt>
      <trkpt lat="46.12114" lon="4.62444">
        <ele>441.2</ele>
        <time>2020-06-06T10:03:21Z</time>
      </trkpt>
      <trkpt lat="46.12104" lon="4.62434">
        <ele>442</ele>
        <time>2020-06-06T10:03:25Z</time>
      </trkpt>
      <trkpt lat="46.12093" lon="4.62423">
        <ele>441.8</ele>
        <time>2020-06-06T10:03:29Z</time>
      </trkpt>
      <trkpt lat="46.12083" lon="4.62412">
        <ele>442.4</ele>
        <time>2020-06-06T10:03:33Z</time>
      </trkpt>
      <trkpt lat="46.12072" lon="4.62402">
        <ele>442.6</ele>
        <time>2020-06-06T10:03:37Z</time>
      </trkpt>
      <trkpt lat="46.12061" lon="4.62391">
        <ele>442.6</ele>
        <time>2020-06-06T10:03:41Z</time>
      </trkpt>
      <trkpt lat="46.12049" lon="4.62382">
        <ele>443.2</ele>
        <time>2020-06-06T10:03:45Z</time>
      </trkpt>
      <trkpt lat="46.12038" lon="4.62371">
        <ele>443.6</ele>
        <time>2020-06-06T10:03:49Z</time>
      </trkpt>
      <trkpt lat="46.12028" lon="4.62361">
        <ele>444.4</ele>
        <time>2020-06-06T10:03:53Z</time>
      </trkpt>
      <trkpt lat="46.12017" lon="4.62349">
        <ele>444.6</ele>
        <time>2020-06-06T10:03:57Z</time>
      </trkpt>
      <trkpt lat="46.12009" lon="4.62337">
        <ele>445</ele>
        <time>2020-06-06T10:04:01Z</time>
      </trkpt>
      <trkpt lat="46.12001" lon="4.62325">
        <ele>446.2</ele>
        <time>2020-06-06T10:04:05Z</time>
      </trkpt>
      <trkpt lat="46.11993" lon="4.6231">
        <ele>445.6</ele>
        <time>2020-06-06T10:04:09Z</time>
      </trkpt>
      <trkpt lat="46.11989" lon="4.62296">
        <ele>446.4</ele>
        <time>2020-06-06T10:04:13Z</time>
      </trkpt>
      <trkpt lat="46.11988" lon="4.6228">
        <ele>447.2</ele>
        <time>2020-06-06T10:04:17Z</time>
      </trkpt>
      <trkpt lat="46.11988" lon="4.62264">
        <ele>447.6</ele>
        <time>2020-06-06T10:04:21Z</time>
      </trkpt>
      <trkpt lat="46.11992" lon="4.62247">
        <ele>448.2</ele>
        <time>2020-06-06T10:04:25Z</time>
      </trkpt>
      <trkpt lat="46.11996" lon="4.6223">
        <ele>448.6</ele>
        <time>2020-06-06T10:04:29Z</time>
      </trkpt>
      <trkpt lat="46.12" lon="4.62214">
        <ele>448.6</ele>
        <time>2020-06-06T10:04:33Z</time>
      </trkpt>
      <trkpt lat="46.12004" lon="4.62198">
        <ele>449.6</ele>
        <time>2020-06-06T10:04:37Z</time>
      </trkpt>
      <trkpt lat="46.12007" lon="4.62182">
        <ele>450.2</ele>
        <time>2020-06-06T10:04:41Z</time>
      </trkpt>
      <trkpt lat="46.12011" lon="4.62167">
        <ele>450.2</ele>
        <time>2020-06-06T10:04:45Z</time>
      </trkpt>
      <trkpt lat="46.12014" lon="4.62151">
        <ele>450.8</ele>
        <time>2020-06-06T10:04:49Z</time>
      </trkpt>
      <trkpt lat="46.12017" lon="4.62135">
        <ele>451.2</ele>
        <time>2020-06-06T10:04:53Z</time>
      </trkpt>
      <trkpt lat="46.12021" lon="4.6212">
        <ele>451.8</ele>
        <time>2020-06-06T10:04:57Z</time>
      </trkpt>
      <trkpt lat="46.12024" lon="4.62105">
        <ele>452.4</ele>
        <time>2020-06-06T10:05:01Z</time>
      </trkpt>
      <trkpt lat="46.12027" lon="4.6209">
        <ele>453</ele>
        <time>2020-06-06T10:05:05Z</time>
      </trkpt>
      <trkpt lat="46.12031" lon="4.62075">
        <ele>453.6</ele>
        <time>2020-06-06T10:05:09Z</time>
      </trkpt>
      <trkpt lat="46.12034" lon="4.62059">
        <ele>453.8</ele>
        <time>2020-06-06T10:05:13Z</time>
      </trkpt>
      <trkpt lat="46.12037" lon="4.62044">
        <ele>454.6</ele>
        <time>2020-06-06T10:05:17Z</time>
      </trkpt>
      <trkpt lat="46.1204" lon="4.62029">
        <ele>455</ele>
        <time>2020-06-06T10:05:21Z</time>
      </trkpt>
      <trkpt lat="46.12042" lon="4.62013">
        <ele>456</ele>
        <time>2020-06-06T10:05:25Z</time>
      </trkpt>
      <trkpt lat="46.12045" lon="4.61996">
        <ele>456.2</ele>
        <time>2020-06-06T10:05:29Z</time>
      </trkpt>
      <trkpt lat="46.12047" lon="4.61979">
        <ele>457.4</ele>
        <time>2020-06-06T10:05:33Z</time>
      </trkpt>
      <trkpt lat="46.12049" lon="4.61962">
        <ele>458</ele>
        <time>2020-06-06T10:05:37Z</time>
      </trkpt>
      <trkpt lat="46.12052" lon="4.61947">
        <ele>458.6</ele>
        <time>2020-06-06T10:05:41Z</time>
      </trkpt>
      <trkpt lat="46.12054" lon="4.61932">
        <ele>458.8</ele>
        <time>2020-06-06T10:05:45Z</time>
      </trkpt>
      <trkpt lat="46.12056" lon="4.61917">
        <ele>459.6</ele>
        <time>2020-06-06T10:05:49Z</time>
      </trkpt>
      <trkpt lat="46.12057" lon="4.61902">
        <ele>459.8</ele>
        <time>2020-06-06T10:05:53Z</time>
      </trkpt>
      <trkpt lat="46.12058" lon="4.61888">
        <ele>460</ele>
        <time>2020-06-06T10:05:57Z</time>
      </trkpt>
      <trkpt lat="46.12058" lon="4.61874">
        <ele>460.4</ele>
        <time>2020-06-06T10:06:01Z</time>
      </trkpt>
      <trkpt lat="46.12057" lon="4.61859">
        <ele>461</ele>
        <time>2020-06-06T10:06:05Z</time>
      </trkpt>
      <trkpt lat="46.12055" lon="4.61844">
        <ele>461.8</ele>
        <time>2020-06-06T10:06:09Z</time>
      </trkpt>
      <trkpt lat="46.12053" lon="4.6183">
        <ele>462.2</ele>
        <time>2020-06-06T10:06:13Z</time>
      </trkpt>
      <trkpt lat="46.1205" lon="4.61817">
        <ele>463.2</ele>
        <time>2020-06-06T10:06:17Z</time>
      </trkpt>
      <trkpt lat="46.12047" lon="4.61804">
        <ele>463.8</ele>
        <time>2020-06-06T10:06:21Z</time>
      </trkpt>
      <trkpt lat="46.12045" lon="4.6179">
        <ele>464.2</ele>
        <time>2020-06-06T10:06:25Z</time>
      </trkpt>
      <trkpt lat="46.12043" lon="4.61776">
        <ele>463.8</ele>
        <time>2020-06-06T10:06:29Z</time>
      </trkpt>
      <trkpt lat="46.12041" lon="4.61761">
        <ele>464.6</ele>
        <time>2020-06-06T10:06:33Z</time>
      </trkpt>
      <trkpt lat="46.12039" lon="4.61747">
        <ele>466.4</ele>
        <time>2020-06-06T10:06:37Z</time>
      </trkpt>
      <trkpt lat="46.12036" lon="4.61734">
        <ele>466.6</ele>
        <time>2020-06-06T10:06:41Z</time>
      </trkpt>
      <trkpt lat="46.12035" lon="4.6172">
        <ele>466.8</ele>
        <time>2020-06-06T10:06:45Z</time>
      </trkpt>
      <trkpt lat="46.12033" lon="4.61707">
        <ele>467.6</ele>
        <time>2020-06-06T10:06:49Z</time>
      </trkpt>
      <trkpt lat="46.1203" lon="4.61694">
        <ele>468</ele>
        <time>2020-06-06T10:06:53Z</time>
      </trkpt>
      <trkpt lat="46.12027" lon="4.61682">
        <ele>468.6</ele>
        <time>2020-06-06T10:06:57Z</time>
      </trkpt>
      <trkpt lat="46.12026" lon="4.61672">
        <ele>469.2</ele>
        <time>2020-06-06T10:07:01Z</time>
      </trkpt>
      <trkpt lat="46.12026" lon="4.61662">
        <ele>470</ele>
        <time>2020-06-06T10:07:05Z</time>
      </trkpt>
      <trkpt lat="46.12017" lon="4.61669">
        <ele>469.8</ele>
        <time>2020-06-06T10:38:28Z</time>
      </trkpt>
      <trkpt lat="46.12009" lon="4.61661">
        <ele>470</ele>
        <time>2020-06-06T10:38:32Z</time>
      </trkpt>
      <trkpt lat="46.12002" lon="4.61655">
        <ele>470.6</ele>
        <time>2020-06-06T10:38:36Z</time>
      </trkpt>
      <trkpt lat="46.11993" lon="4.6165">
        <ele>471</ele>
        <time>2020-06-06T10:38:40Z</time>
      </trkpt>
      <trkpt lat="46.11985" lon="4.61646">
        <ele>471.6</ele>
        <time>2020-06-06T10:38:44Z</time>
      </trkpt>
      <trkpt lat="46.11977" lon="4.61642">
        <ele>471.8</ele>
        <time>2020-06-06T10:38:48Z</time>
      </trkpt>
      <trkpt lat="46.11968" lon="4.61637">
        <ele>472.2</ele>
        <time>2020-06-06T10:38:52Z</time>
      </trkpt>
      <trkpt lat="46.1196" lon="4.61632">
        <ele>472.6</ele>
        <time>2020-06-06T10:38:56Z</time>
      </trkpt>
      <trkpt lat="46.11951" lon="4.61628">
        <ele>473.2</ele>
        <time>2020-06-06T10:39:00Z</time>
      </trkpt>
      <trkpt lat="46.11943" lon="4.61623">
        <ele>473</ele>
        <time>2020-06-06T10:39:04Z</time>
      </trkpt>
      <trkpt lat="46.11935" lon="4.61619">
        <ele>473.4</ele>
        <time>2020-06-06T10:39:08Z</time>
      </trkpt>
      <trkpt lat="46.11927" lon="4.61614">
        <ele>474</ele>
        <time>2020-06-06T10:39:12Z</time>
      </trkpt>
      <trkpt lat="46.11919" lon="4.61609">
        <ele>474.8</ele>
        <time>2020-06-06T10:39:16Z</time>
      </trkpt>
      <trkpt lat="46.11911" lon="4.61605">
        <ele>475.2</ele>
        <time>2020-06-06T10:39:20Z</time>
      </trkpt>
      <trkpt lat="46.11902" lon="4.61601">
        <ele>476.2</ele>
        <time>2020-06-06T10:39:24Z</time>
      </trkpt>
      <trkpt lat="46.11894" lon="4.61595">
        <ele>476.4</ele>
        <time>2020-06-06T10:39:28Z</time>
      </trkpt>
      <trkpt lat="46.11887" lon="4.61591">
        <ele>476.8</ele>
        <time>2020-06-06T10:39:32Z</time>
      </trkpt>
      <trkpt lat="46.11881" lon="4.61583">
        <ele>476.8</ele>
        <time>2020-06-06T10:39:36Z</time>
      </trkpt>
      <trkpt lat="46.11873" lon="4.61573">
        <ele>477.4</ele>
        <time>2020-06-06T10:39:40Z</time>
      </trkpt>
      <trkpt lat="46.11865" lon="4.61566">
        <ele>478.2</ele>
        <time>2020-06-06T10:39:44Z</time>
      </trkpt>
      <trkpt lat="46.11858" lon="4.6156">
        <ele>478.8</ele>
        <time>2020-06-06T10:39:48Z</time>
      </trkpt>
      <trkpt lat="46.1185" lon="4.61553">
        <ele>479.6</ele>
        <time>2020-06-06T10:39:52Z</time>
      </trkpt>
      <trkpt lat="46.11844" lon="4.61547">
        <ele>480</ele>
        <time>2020-06-06T10:39:56Z</time>
      </trkpt>
      <trkpt lat="46.11838" lon="4.61541">
        <ele>480.6</ele>
        <time>2020-06-06T10:40:00Z</time>
      </trkpt>
      <trkpt lat="46.11833" lon="4.61536">
        <ele>481.2</ele>
        <time>2020-06-06T10:40:04Z</time>
      </trkpt>
      <trkpt lat="46.11827" lon="4.6153">
        <ele>482</ele>
        <time>2020-06-06T10:40:08Z</time>
      </trkpt>
      <trkpt lat="46.11821" lon="4.61524">
        <ele>481.8</ele>
        <time>2020-06-06T10:40:12Z</time>
      </trkpt>
      <trkpt lat="46.11814" lon="4.61516">
        <ele>482</ele>
        <time>2020-06-06T10:40:16Z</time>
      </trkpt>
      <trkpt lat="46.11805" lon="4.61506">
        <ele>482.8</ele>
        <time>2020-06-06T10:40:20Z</time>
      </trkpt>
      <trkpt lat="46.118" lon="4.61497">
        <ele>483.4</ele>
        <time>2020-06-06T10:40:24Z</time>
      </trkpt>
      <trkpt lat="46.11795" lon="4.61488">
        <ele>484</ele>
        <time>2020-06-06T10:40:28Z</time>
      </trkpt>
      <trkpt lat="46.1179" lon="4.61478">
        <ele>484.6</ele>
        <time>2020-06-06T10:40:32Z</time>
      </trkpt>
      <trkpt lat="46.11786" lon="4.61467">
        <ele>485.4</ele>
        <time>2020-06-06T10:40:36Z</time>
      </trkpt>
      <trkpt lat="46.11782" lon="4.61457">
        <ele>485.4</ele>
        <time>2020-06-06T10:40:40Z</time>
      </trkpt>
      <trkpt lat="46.11777" lon="4.61447">
        <ele>485.8</ele>
        <time>2020-06-06T10:40:44Z</time>
      </trkpt>
      <trkpt lat="46.11773" lon="4.61437">
        <ele>486</ele>
        <time>2020-06-06T10:40:48Z</time>
      </trkpt>
      <trkpt lat="46.11768" lon="4.61426">
        <ele>486.8</ele>
        <time>2020-06-06T10:40:52Z</time>
      </trkpt>
      <trkpt lat="46.11763" lon="4.61416">
        <ele>487.2</ele>
        <time>2020-06-06T10:40:56Z</time>
      </trkpt>
      <trkpt lat="46.1176" lon="4.61408">
        <ele>487.4</ele>
        <time>2020-06-06T10:41:00Z</time>
      </trkpt>
      <trkpt lat="46.11756" lon="4.61401">
        <ele>487.4</ele>
        <time>2020-06-06T10:41:04Z</time>
      </trkpt>
      <trkpt lat="46.1175" lon="4.61393">
        <ele>488</ele>
        <time>2020-06-06T10:41:08Z</time>
      </trkpt>
      <trkpt lat="46.11746" lon="4.61384">
        <ele>488.6</ele>
        <time>2020-06-06T10:41:12Z</time>
      </trkpt>
      <trkpt lat="46.11741" lon="4.61376">
        <ele>489</ele>
        <time>2020-06-06T10:41:16Z</time>
      </trkpt>
      <trkpt lat="46.11735" lon="4.61369">
        <ele>489.2</ele>
        <time>2020-06-06T10:41:20Z</time>
      </trkpt>
      <trkpt lat="46.1173" lon="4.61362">
        <ele>489.4</ele>
        <time>2020-06-06T10:41:24Z</time>
      </trkpt>
      <trkpt lat="46.11717" lon="4.61344">
        <ele>488.2</ele>
        <time>2020-06-06T10:42:30Z</time>
      </trkpt>
      <trkpt lat="46.11708" lon="4.61329">
        <ele>488.2</ele>
        <time>2020-06-06T10:42:34Z</time>
      </trkpt>
      <trkpt lat="46.117" lon="4.61314">
        <ele>486.8</ele>
        <time>2020-06-06T10:42:38Z</time>
      </trkpt>
      <trkpt lat="46.11694" lon="4.61298">
        <ele>486.2</ele>
        <time>2020-06-06T10:42:42Z</time>
      </trkpt>
      <trkpt lat="46.11687" lon="4.61276">
        <ele>484.4</ele>
        <time>2020-06-06T10:42:46Z</time>
      </trkpt>
      <trkpt lat="46.1168" lon="4.61248">
        <ele>483.2</ele>
        <time>2020-06-06T10:42:50Z</time>
      </trkpt>
      <trkpt lat="46.11672" lon="4.61214">
        <ele>481.8</ele>
        <time>2020-06-06T10:42:54Z</time>
      </trkpt>
      <trkpt lat="46.11663" lon="4.61179">
        <ele>480.6</ele>
        <time>2020-06-06T10:42:58Z</time>
      </trkpt>
      <trkpt lat="46.11653" lon="4.61146">
        <ele>481.4</ele>
        <time>2020-06-06T10:43:02Z</time>
      </trkpt>
      <trkpt lat="46.11645" lon="4.61116">
        <ele>481.4</ele>
        <time>2020-06-06T10:43:06Z</time>
      </trkpt>
      <trkpt lat="46.11639" lon="4.6109">
        <ele>481.6</ele>
        <time>2020-06-06T10:43:10Z</time>
      </trkpt>
      <trkpt lat="46.1163" lon="4.61068">
        <ele>482.4</ele>
        <time>2020-06-06T10:43:14Z</time>
      </trkpt>
      <trkpt lat="46.1162" lon="4.6105">
        <ele>483</ele>
        <time>2020-06-06T10:43:18Z</time>
      </trkpt>
      <trkpt lat="46.11609" lon="4.61037">
        <ele>483.6</ele>
        <time>2020-06-06T10:43:22Z</time>
      </trkpt>
      <trkpt lat="46.11596" lon="4.61028">
        <ele>483.8</ele>
        <time>2020-06-06T10:43:26Z</time>
      </trkpt>
      <trkpt lat="46.11583" lon="4.61021">
        <ele>484</ele>
        <time>2020-06-06T10:43:30Z</time>
      </trkpt>
      <trkpt lat="46.11572" lon="4.61013">
        <ele>484.4</ele>
        <time>2020-06-06T10:43:34Z</time>
      </trkpt>
      <trkpt lat="46.1156" lon="4.61005">
        <ele>485.2</ele>
        <time>2020-06-06T10:43:38Z</time>
      </trkpt>
      <trkpt lat="46.11551" lon="4.60995">
        <ele>486.4</ele>
        <time>2020-06-06T10:43:42Z</time>
      </trkpt>
      <trkpt lat="46.11542" lon="4.60985">
        <ele>486.8</ele>
        <time>2020-06-06T10:43:46Z</time>
      </trkpt>
      <trkpt lat="46.11535" lon="4.60975">
        <ele>487.2</ele>
        <time>2020-06-06T10:43:50Z</time>
      </trkpt>
      <trkpt lat="46.11529" lon="4.60964">
        <ele>488</ele>
        <time>2020-06-06T10:43:54Z</time>
      </trkpt>
      <trkpt lat="46.11523" lon="4.60954">
        <ele>489.2</ele>
        <time>2020-06-06T10:43:58Z</time>
      </trkpt>
      <trkpt lat="46.11515" lon="4.60945">
        <ele>489.4</ele>
        <time>2020-06-06T10:44:02Z</time>
      </trkpt>
      <trkpt lat="46.11506" lon="4.6094">
        <ele>490.2</ele>
        <time>2020-06-06T10:44:06Z</time>
      </trkpt>
      <trkpt lat="46.11496" lon="4.60937">
        <ele>490</ele>
        <time>2020-06-06T10:44:10Z</time>
      </trkpt>
      <trkpt lat="46.11486" lon="4.60932">
        <ele>490.4</ele>
        <time>2020-06-06T10:44:14Z</time>
      </trkpt>
      <trkpt lat="46.11476" lon="4.60929">
        <ele>490.6</ele>
        <time>2020-06-06T10:44:18Z</time>
      </trkpt>
      <trkpt lat="46.11468" lon="4.60924">
        <ele>491</ele>
        <time>2020-06-06T10:44:22Z</time>
      </trkpt>
      <trkpt lat="46.11457" lon="4.60917">
        <ele>489.6</ele>
        <time>2020-06-06T10:48:07Z</time>
      </trkpt>
      <trkpt lat="46.11445" lon="4.60905">
        <ele>488</ele>
        <time>2020-06-06T10:48:11Z</time>
      </trkpt>
      <trkpt lat="46.1143" lon="4.60885">
        <ele>484.8</ele>
        <time>2020-06-06T10:48:15Z</time>
      </trkpt>
      <trkpt lat="46.11413" lon="4.60856">
        <ele>481.8</ele>
        <time>2020-06-06T10:48:19Z</time>
      </trkpt>
      <trkpt lat="46.11389" lon="4.60836">
        <ele>481</ele>
        <time>2020-06-06T10:48:23Z</time>
      </trkpt>
      <trkpt lat="46.11363" lon="4.60825">
        <ele>482</ele>
        <time>2020-06-06T10:48:27Z</time>
      </trkpt>
      <trkpt lat="46.11339" lon="4.60816">
        <ele>479.4</ele>
        <time>2020-06-06T10:48:31Z</time>
      </trkpt>
      <trkpt lat="46.11311" lon="4.60815">
        <ele>479.8</ele>
        <time>2020-06-06T10:48:35Z</time>
      </trkpt>
      <trkpt lat="46.11286" lon="4.60804">
        <ele>475.6</ele>
        <time>2020-06-06T10:48:39Z</time>
      </trkpt>
      <trkpt lat="46.11265" lon="4.60777">
        <ele>472.6</ele>
        <time>2020-06-06T10:48:43Z</time>
      </trkpt>
      <trkpt lat="46.11247" lon="4.60747">
        <ele>472.8</ele>
        <time>2020-06-06T10:48:47Z</time>
      </trkpt>
      <trkpt lat="46.11235" lon="4.60713">
        <ele>471.6</ele>
        <time>2020-06-06T10:48:51Z</time>
      </trkpt>
      <trkpt lat="46.11225" lon="4.60682">
        <ele>472</ele>
        <time>2020-06-06T10:48:55Z</time>
      </trkpt>
      <trkpt lat="46.11217" lon="4.60655">
        <ele>471.6</ele>
        <time>2020-06-06T10:48:59Z</time>
      </trkpt>
      <trkpt lat="46.11209" lon="4.60629">
        <ele>473</ele>
        <time>2020-06-06T10:49:03Z</time>
      </trkpt>
      <trkpt lat="46.11201" lon="4.60604">
        <ele>473.8</ele>
        <time>2020-06-06T10:49:07Z</time>
      </trkpt>
      <trkpt lat="46.11192" lon="4.6058">
        <ele>472.6</ele>
        <time>2020-06-06T10:49:11Z</time>
      </trkpt>
      <trkpt lat="46.11182" lon="4.60556">
        <ele>472.6</ele>
        <time>2020-06-06T10:49:15Z</time>
      </trkpt>
      <trkpt lat="46.11171" lon="4.60529">
        <ele>470</ele>
        <time>2020-06-06T10:49:19Z</time>
      </trkpt>
      <trkpt lat="46.1116" lon="4.60495">
        <ele>465.6</ele>
        <time>2020-06-06T10:49:23Z</time>
      </trkpt>
      <trkpt lat="46.11151" lon="4.60449">
        <ele>460.8</ele>
        <time>2020-06-06T10:49:27Z</time>
      </trkpt>
      <trkpt lat="46.11154" lon="4.60395">
        <ele>458.4</ele>
        <time>2020-06-06T10:49:31Z</time>
      </trkpt>
      <trkpt lat="46.11159" lon="4.60337">
        <ele>453.8</ele>
        <time>2020-06-06T10:49:35Z</time>
      </trkpt>
      <trkpt lat="46.11154" lon="4.6028">
        <ele>451.6</ele>
        <time>2020-06-06T10:49:39Z</time>
      </trkpt>
      <trkpt lat="46.11153" lon="4.60227">
        <ele>452.8</ele>
        <time>2020-06-06T10:49:43Z</time>
      </trkpt>
      <trkpt lat="46.11154" lon="4.60186">
        <ele>455</ele>
        <time>2020-06-06T10:49:47Z</time>
      </trkpt>
      <trkpt lat="46.11155" lon="4.60156">
        <ele>457</ele>
        <time>2020-06-06T10:49:51Z</time>
      </trkpt>
      <trkpt lat="46.11156" lon="4.60132">
        <ele>458</ele>
        <time>2020-06-06T10:49:55Z</time>
      </trkpt>
      <trkpt lat="46.11155" lon="4.6011">
        <ele>459.6</ele>
        <time>2020-06-06T10:49:59Z</time>
      </trkpt>
      <trkpt lat="46.11154" lon="4.6009">
        <ele>459.2</ele>
        <time>2020-06-06T10:50:03Z</time>
      </trkpt>
      <trkpt lat="46.11153" lon="4.60071">
        <ele>459</ele>
        <time>2020-06-06T10:50:07Z</time>
      </trkpt>
      <trkpt lat="46.11152" lon="4.60056">
        <ele>459.2</ele>
        <time>2020-06-06T10:50:11Z</time>
      </trkpt>
      <trkpt lat="46.1115" lon="4.6004">
        <ele>459.6</ele>
        <time>2020-06-06T10:50:15Z</time>
      </trkpt>
      <trkpt lat="46.11147" lon="4.60023">
        <ele>460.2</ele>
        <time>2020-06-06T10:50:19Z</time>
      </trkpt>
      <trkpt lat="46.11145" lon="4.60003">
        <ele>460.4</ele>
        <time>2020-06-06T10:50:23Z</time>
      </trkpt>
      <trkpt lat="46.11143" lon="4.59984">
        <ele>460.8</ele>
        <time>2020-06-06T10:50:27Z</time>
      </trkpt>
      <trkpt lat="46.11142" lon="4.59965">
        <ele>461.4</ele>
        <time>2020-06-06T10:50:31Z</time>
      </trkpt>
      <trkpt lat="46.11141" lon="4.59948">
        <ele>462.2</ele>
        <time>2020-06-06T10:50:35Z</time>
      </trkpt>
      <trkpt lat="46.1114" lon="4.59933">
        <ele>463.2</ele>
        <time>2020-06-06T10:50:39Z</time>
      </trkpt>
      <trkpt lat="46.1114" lon="4.59918">
        <ele>463.2</ele>
        <time>2020-06-06T10:50:43Z</time>
      </trkpt>
      <trkpt lat="46.11138" lon="4.59903">
        <ele>464.4</ele>
        <time>2020-06-06T10:50:47Z</time>
      </trkpt>
      <trkpt lat="46.11138" lon="4.59888">
        <ele>465.2</ele>
        <time>2020-06-06T10:50:51Z</time>
      </trkpt>
      <trkpt lat="46.11139" lon="4.59873">
        <ele>465</ele>
        <time>2020-06-06T10:50:55Z</time>
      </trkpt>
      <trkpt lat="46.11141" lon="4.59857">
        <ele>465.2</ele>
        <time>2020-06-06T10:50:59Z</time>
      </trkpt>
      <trkpt lat="46.11142" lon="4.59841">
        <ele>463.8</ele>
        <time>2020-06-06T10:51:03Z</time>
      </trkpt>
      <trkpt lat="46.11143" lon="4.59825">
        <ele>465.4</ele>
        <time>2020-06-06T10:51:07Z</time>
      </trkpt>
      <trkpt lat="46.11144" lon="4.59809">
        <ele>465.8</ele>
        <time>2020-06-06T10:51:11Z</time>
      </trkpt>
      <trkpt lat="46.11145" lon="4.59793">
        <ele>466</ele>
        <time>2020-06-06T10:51:15Z</time>
      </trkpt>
      <trkpt lat="46.11145" lon="4.59777">
        <ele>466.6</ele>
        <time>2020-06-06T10:51:19Z</time>
      </trkpt>
      <trkpt lat="46.11146" lon="4.5976">
        <ele>466.8</ele>
        <time>2020-06-06T10:51:23Z</time>
      </trkpt>
      <trkpt lat="46.11146" lon="4.59744">
        <ele>467.8</ele>
        <time>2020-06-06T10:51:27Z</time>
      </trkpt>
      <trkpt lat="46.11146" lon="4.5973">
        <ele>468.4</ele>
        <time>2020-06-06T10:51:31Z</time>
      </trkpt>
      <trkpt lat="46.11146" lon="4.59715">
        <ele>469.2</ele>
        <time>2020-06-06T10:51:35Z</time>
      </trkpt>
      <trkpt lat="46.11146" lon="4.59701">
        <ele>468.6</ele>
        <time>2020-06-06T10:51:39Z</time>
      </trkpt>
      <trkpt lat="46.11144" lon="4.59685">
        <ele>469.6</ele>
        <time>2020-06-06T10:51:43Z</time>
      </trkpt>
      <trkpt lat="46.11141" lon="4.59669">
        <ele>469.6</ele>
        <time>2020-06-06T10:51:47Z</time>
      </trkpt>
      <trkpt lat="46.11139" lon="4.59652">
        <ele>469.6</ele>
        <time>2020-06-06T10:51:51Z</time>
      </trkpt>
      <trkpt lat="46.11135" lon="4.59635">
        <ele>470.8</ele>
        <time>2020-06-06T10:51:55Z</time>
      </trkpt>
      <trkpt lat="46.11133" lon="4.59619">
        <ele>470.4</ele>
        <time>2020-06-06T10:51:59Z</time>
      </trkpt>
      <trkpt lat="46.11131" lon="4.59603">
        <ele>470.8</ele>
        <time>2020-06-06T10:52:03Z</time>
      </trkpt>
      <trkpt lat="46.11129" lon="4.59587">
        <ele>471</ele>
        <time>2020-06-06T10:52:07Z</time>
      </trkpt>
      <trkpt lat="46.11127" lon="4.59569">
        <ele>471</ele>
        <time>2020-06-06T10:52:11Z</time>
      </trkpt>
      <trkpt lat="46.11124" lon="4.59553">
        <ele>471.4</ele>
        <time>2020-06-06T10:52:15Z</time>
      </trkpt>
      <trkpt lat="46.1112" lon="4.59536">
        <ele>472.2</ele>
        <time>2020-06-06T10:52:19Z</time>
      </trkpt>
      <trkpt lat="46.11116" lon="4.59519">
        <ele>471.8</ele>
        <time>2020-06-06T10:52:23Z</time>
      </trkpt>
      <trkpt lat="46.11114" lon="4.59498">
        <ele>471</ele>
        <time>2020-06-06T10:52:27Z</time>
      </trkpt>
      <trkpt lat="46.11113" lon="4.59477">
        <ele>472</ele>
        <time>2020-06-06T10:52:31Z</time>
      </trkpt>
      <trkpt lat="46.11113" lon="4.59461">
        <ele>473.2</ele>
        <time>2020-06-06T10:52:35Z</time>
      </trkpt>
      <trkpt lat="46.11115" lon="4.59449">
        <ele>474</ele>
        <time>2020-06-06T10:52:39Z</time>
      </trkpt>
      <trkpt lat="46.11117" lon="4.59434">
        <ele>474.8</ele>
        <time>2020-06-06T10:52:43Z</time>
      </trkpt>
      <trkpt lat="46.11119" lon="4.59419">
        <ele>475.2</ele>
        <time>2020-06-06T10:52:47Z</time>
      </trkpt>
      <trkpt lat="46.11121" lon="4.59404">
        <ele>477</ele>
        <time>2020-06-06T10:52:51Z</time>
      </trkpt>
      <trkpt lat="46.11126" lon="4.59389">
        <ele>477</ele>
        <time>2020-06-06T10:52:55Z</time>
      </trkpt>
      <trkpt lat="46.1113" lon="4.59375">
        <ele>477.4</ele>
        <time>2020-06-06T10:52:59Z</time>
      </trkpt>
      <trkpt lat="46.11134" lon="4.59359">
        <ele>476.6</ele>
        <time>2020-06-06T10:53:03Z</time>
      </trkpt>
      <trkpt lat="46.11138" lon="4.59342">
        <ele>476.2</ele>
        <time>2020-06-06T10:53:07Z</time>
      </trkpt>
      <trkpt lat="46.11141" lon="4.59324">
        <ele>476.2</ele>
        <time>2020-06-06T10:53:11Z</time>
      </trkpt>
      <trkpt lat="46.1114" lon="4.59305">
        <ele>476</ele>
        <time>2020-06-06T10:53:15Z</time>
      </trkpt>
      <trkpt lat="46.11135" lon="4.59288">
        <ele>475.2</ele>
        <time>2020-06-06T10:53:19Z</time>
      </trkpt>
      <trkpt lat="46.11127" lon="4.59271">
        <ele>475</ele>
        <time>2020-06-06T10:53:23Z</time>
      </trkpt>
      <trkpt lat="46.1112" lon="4.59257">
        <ele>475</ele>
        <time>2020-06-06T10:53:27Z</time>
      </trkpt>
      <trkpt lat="46.11113" lon="4.59242">
        <ele>475</ele>
        <time>2020-06-06T10:53:31Z</time>
      </trkpt>
      <trkpt lat="46.11104" lon="4.59224">
        <ele>472.6</ele>
        <time>2020-06-06T10:53:35Z</time>
      </trkpt>
      <trkpt lat="46.11094" lon="4.59203">
        <ele>472.6</ele>
        <time>2020-06-06T10:53:39Z</time>
      </trkpt>
      <trkpt lat="46.11084" lon="4.59183">
        <ele>472.4</ele>
        <time>2020-06-06T10:53:43Z</time>
      </trkpt>
      <trkpt lat="46.11074" lon="4.59164">
        <ele>472.8</ele>
        <time>2020-06-06T10:53:47Z</time>
      </trkpt>
      <trkpt lat="46.11064" lon="4.59146">
        <ele>471.6</ele>
        <time>2020-06-06T10:53:51Z</time>
      </trkpt>
      <trkpt lat="46.11052" lon="4.59129">
        <ele>471</ele>
        <time>2020-06-06T10:53:55Z</time>
      </trkpt>
      <trkpt lat="46.11039" lon="4.59114">
        <ele>471.2</ele>
        <time>2020-06-06T10:53:59Z</time>
      </trkpt>
      <trkpt lat="46.11027" lon="4.59099">
        <ele>471.6</ele>
        <time>2020-06-06T10:54:03Z</time>
      </trkpt>
      <trkpt lat="46.11015" lon="4.59084">
        <ele>471.2</ele>
        <time>2020-06-06T10:54:07Z</time>
      </trkpt>
      <trkpt lat="46.11003" lon="4.59069">
        <ele>471.4</ele>
        <time>2020-06-06T10:54:11Z</time>
      </trkpt>
      <trkpt lat="46.10992" lon="4.59051">
        <ele>470.8</ele>
        <time>2020-06-06T10:54:15Z</time>
      </trkpt>
      <trkpt lat="46.10984" lon="4.59032">
        <ele>471.6</ele>
        <time>2020-06-06T10:54:19Z</time>
      </trkpt>
      <trkpt lat="46.10976" lon="4.59014">
        <ele>472</ele>
        <time>2020-06-06T10:54:23Z</time>
      </trkpt>
      <trkpt lat="46.10971" lon="4.58995">
        <ele>472.2</ele>
        <time>2020-06-06T10:54:27Z</time>
      </trkpt>
      <trkpt lat="46.10969" lon="4.5898">
        <ele>472.4</ele>
        <time>2020-06-06T10:54:31Z</time>
      </trkpt>
      <trkpt lat="46.10966" lon="4.58963">
        <ele>472.2</ele>
        <time>2020-06-06T10:54:35Z</time>
      </trkpt>
      <trkpt lat="46.10964" lon="4.58949">
        <ele>472</ele>
        <time>2020-06-06T10:54:39Z</time>
      </trkpt>
      <trkpt lat="46.10961" lon="4.5893">
        <ele>472.8</ele>
        <time>2020-06-06T10:54:43Z</time>
      </trkpt>
      <trkpt lat="46.10959" lon="4.58911">
        <ele>473.8</ele>
        <time>2020-06-06T10:54:47Z</time>
      </trkpt>
      <trkpt lat="46.10954" lon="4.58896">
        <ele>474.8</ele>
        <time>2020-06-06T10:54:51Z</time>
      </trkpt>
      <trkpt lat="46.10949" lon="4.58885">
        <ele>474</ele>
        <time>2020-06-06T10:54:55Z</time>
      </trkpt>
      <trkpt lat="46.10943" lon="4.5887">
        <ele>474</ele>
        <time>2020-06-06T10:54:59Z</time>
      </trkpt>
      <trkpt lat="46.10937" lon="4.58857">
        <ele>474.8</ele>
        <time>2020-06-06T10:55:03Z</time>
      </trkpt>
      <trkpt lat="46.1093" lon="4.58845">
        <ele>475</ele>
        <time>2020-06-06T10:55:07Z</time>
      </trkpt>
      <trkpt lat="46.1093" lon="4.58845">
        <ele>475.6</ele>
        <time>2020-06-06T10:55:11Z</time>
      </trkpt>
      <trkpt lat="46.10917" lon="4.5882">
        <ele>476.4</ele>
        <time>2020-06-06T10:55:51Z</time>
      </trkpt>
      <trkpt lat="46.10913" lon="4.58809">
        <ele>477.6</ele>
        <time>2020-06-06T10:55:55Z</time>
      </trkpt>
      <trkpt lat="46.1091" lon="4.58799">
        <ele>478.8</ele>
        <time>2020-06-06T10:55:59Z</time>
      </trkpt>
      <trkpt lat="46.10906" lon="4.5879">
        <ele>479.8</ele>
        <time>2020-06-06T10:56:03Z</time>
      </trkpt>
      <trkpt lat="46.10903" lon="4.58781">
        <ele>480</ele>
        <time>2020-06-06T10:56:07Z</time>
      </trkpt>
      <trkpt lat="46.10901" lon="4.58772">
        <ele>481</ele>
        <time>2020-06-06T10:56:11Z</time>
      </trkpt>
      <trkpt lat="46.10898" lon="4.58765">
        <ele>481.2</ele>
        <time>2020-06-06T10:56:15Z</time>
      </trkpt>
      <trkpt lat="46.10895" lon="4.58758">
        <ele>482.2</ele>
        <time>2020-06-06T10:56:19Z</time>
      </trkpt>
      <trkpt lat="46.10893" lon="4.5875">
        <ele>482.6</ele>
        <time>2020-06-06T10:56:23Z</time>
      </trkpt>
      <trkpt lat="46.1089" lon="4.58744">
        <ele>483.6</ele>
        <time>2020-06-06T10:56:27Z</time>
      </trkpt>
      <trkpt lat="46.10888" lon="4.58736">
        <ele>484</ele>
        <time>2020-06-06T10:56:31Z</time>
      </trkpt>
      <trkpt lat="46.10885" lon="4.58729">
        <ele>485</ele>
        <time>2020-06-06T10:56:35Z</time>
      </trkpt>
      <trkpt lat="46.10882" lon="4.58722">
        <ele>485.2</ele>
        <time>2020-06-06T10:56:39Z</time>
      </trkpt>
      <trkpt lat="46.10879" lon="4.58714">
        <ele>485.8</ele>
        <time>2020-06-06T10:56:43Z</time>
      </trkpt>
      <trkpt lat="46.10877" lon="4.58706">
        <ele>486.4</ele>
        <time>2020-06-06T10:56:47Z</time>
      </trkpt>
      <trkpt lat="46.10873" lon="4.58698">
        <ele>486.6</ele>
        <time>2020-06-06T10:56:51Z</time>
      </trkpt>
      <trkpt lat="46.1087" lon="4.58691">
        <ele>487.8</ele>
        <time>2020-06-06T10:56:55Z</time>
      </trkpt>
      <trkpt lat="46.10868" lon="4.58684">
        <ele>488</ele>
        <time>2020-06-06T10:56:59Z</time>
      </trkpt>
      <trkpt lat="46.10864" lon="4.58676">
        <ele>488.8</ele>
        <time>2020-06-06T10:57:03Z</time>
      </trkpt>
      <trkpt lat="46.10861" lon="4.58669">
        <ele>489.6</ele>
        <time>2020-06-06T10:57:07Z</time>
      </trkpt>
      <trkpt lat="46.10858" lon="4.58661">
        <ele>489.8</ele>
        <time>2020-06-06T10:57:11Z</time>
      </trkpt>
      <trkpt lat="46.10855" lon="4.58653">
        <ele>491.2</ele>
        <time>2020-06-06T10:57:15Z</time>
      </trkpt>
      <trkpt lat="46.10851" lon="4.58645">
        <ele>491.6</ele>
        <time>2020-06-06T10:57:19Z</time>
      </trkpt>
      <trkpt lat="46.10847" lon="4.58637">
        <ele>493</ele>
        <time>2020-06-06T10:57:23Z</time>
      </trkpt>
      <trkpt lat="46.10843" lon="4.58629">
        <ele>493.4</ele>
        <time>2020-06-06T10:57:27Z</time>
      </trkpt>
      <trkpt lat="46.10839" lon="4.58622">
        <ele>494.6</ele>
        <time>2020-06-06T10:57:31Z</time>
      </trkpt>
      <trkpt lat="46.10834" lon="4.58614">
        <ele>494.8</ele>
        <time>2020-06-06T10:57:35Z</time>
      </trkpt>
      <trkpt lat="46.10831" lon="4.58606">
        <ele>495.4</ele>
        <time>2020-06-06T10:57:39Z</time>
      </trkpt>
      <trkpt lat="46.10827" lon="4.58598">
        <ele>495.8</ele>
        <time>2020-06-06T10:57:43Z</time>
      </trkpt>
      <trkpt lat="46.10823" lon="4.5859">
        <ele>496.2</ele>
        <time>2020-06-06T10:57:47Z</time>
      </trkpt>
      <trkpt lat="46.10819" lon="4.58583">
        <ele>497.2</ele>
        <time>2020-06-06T10:57:51Z</time>
      </trkpt>
      <trkpt lat="46.10816" lon="4.58576">
        <ele>497.4</ele>
        <time>2020-06-06T10:57:55Z</time>
      </trkpt>
      <trkpt lat="46.10811" lon="4.58569">
        <ele>497.6</ele>
        <time>2020-06-06T10:57:59Z</time>
      </trkpt>
      <trkpt lat="46.10808" lon="4.58561">
        <ele>499.2</ele>
        <time>2020-06-06T10:58:03Z</time>
      </trkpt>
      <trkpt lat="46.10804" lon="4.58554">
        <ele>499</ele>
        <time>2020-06-06T10:58:07Z</time>
      </trkpt>
      <trkpt lat="46.108" lon="4.58547">
        <ele>500.2</ele>
        <time>2020-06-06T10:58:11Z</time>
      </trkpt>
      <trkpt lat="46.10796" lon="4.5854">
        <ele>501</ele>
        <time>2020-06-06T10:58:15Z</time>
      </trkpt>
      <trkpt lat="46.10792" lon="4.58533">
        <ele>502</ele>
        <time>2020-06-06T10:58:19Z</time>
      </trkpt>
      <trkpt lat="46.10789" lon="4.58526">
        <ele>502.6</ele>
        <time>2020-06-06T10:58:23Z</time>
      </trkpt>
      <trkpt lat="46.10785" lon="4.58519">
        <ele>504.4</ele>
        <time>2020-06-06T10:58:27Z</time>
      </trkpt>
      <trkpt lat="46.10781" lon="4.58512">
        <ele>504.6</ele>
        <time>2020-06-06T10:58:31Z</time>
      </trkpt>
      <trkpt lat="46.10778" lon="4.58506">
        <ele>505.4</ele>
        <time>2020-06-06T10:58:35Z</time>
      </trkpt>
      <trkpt lat="46.10774" lon="4.58501">
        <ele>505.2</ele>
        <time>2020-06-06T10:58:39Z</time>
      </trkpt>
      <trkpt lat="46.1077" lon="4.58494">
        <ele>506</ele>
        <time>2020-06-06T10:58:43Z</time>
      </trkpt>
      <trkpt lat="46.10767" lon="4.58487">
        <ele>505.6</ele>
        <time>2020-06-06T10:58:47Z</time>
      </trkpt>
      <trkpt lat="46.10764" lon="4.5848">
        <ele>506.4</ele>
        <time>2020-06-06T10:58:51Z</time>
      </trkpt>
      <trkpt lat="46.1076" lon="4.58473">
        <ele>507.2</ele>
        <time>2020-06-06T10:58:55Z</time>
      </trkpt>
      <trkpt lat="46.10755" lon="4.58469">
        <ele>508.2</ele>
        <time>2020-06-06T10:58:59Z</time>
      </trkpt>
      <trkpt lat="46.10749" lon="4.58466">
        <ele>508.4</ele>
        <time>2020-06-06T10:59:03Z</time>
      </trkpt>
      <trkpt lat="46.10742" lon="4.58464">
        <ele>507.8</ele>
        <time>2020-06-06T10:59:07Z</time>
      </trkpt>
      <trkpt lat="46.10734" lon="4.58461">
        <ele>508.8</ele>
        <time>2020-06-06T10:59:11Z</time>
      </trkpt>
      <trkpt lat="46.10727" lon="4.5846">
        <ele>509.8</ele>
        <time>2020-06-06T10:59:15Z</time>
      </trkpt>
      <trkpt lat="46.10721" lon="4.58458">
        <ele>510.6</ele>
        <time>2020-06-06T10:59:19Z</time>
      </trkpt>
      <trkpt lat="46.10715" lon="4.58456">
        <ele>511.8</ele>
        <time>2020-06-06T10:59:23Z</time>
      </trkpt>
      <trkpt lat="46.10708" lon="4.58454">
        <ele>511.8</ele>
        <time>2020-06-06T10:59:27Z</time>
      </trkpt>
      <trkpt lat="46.10701" lon="4.58452">
        <ele>512.4</ele>
        <time>2020-06-06T10:59:31Z</time>
      </trkpt>
      <trkpt lat="46.10694" lon="4.5845">
        <ele>512.8</ele>
        <time>2020-06-06T10:59:35Z</time>
      </trkpt>
      <trkpt lat="46.10687" lon="4.58448">
        <ele>513.6</ele>
        <time>2020-06-06T10:59:39Z</time>
      </trkpt>
      <trkpt lat="46.10679" lon="4.58445">
        <ele>514.6</ele>
        <time>2020-06-06T10:59:43Z</time>
      </trkpt>
      <trkpt lat="46.10672" lon="4.58439">
        <ele>514</ele>
        <time>2020-06-06T10:59:47Z</time>
      </trkpt>
      <trkpt lat="46.10664" lon="4.58434">
        <ele>514.4</ele>
        <time>2020-06-06T10:59:51Z</time>
      </trkpt>
      <trkpt lat="46.10657" lon="4.58427">
        <ele>514.6</ele>
        <time>2020-06-06T10:59:55Z</time>
      </trkpt>
      <trkpt lat="46.10651" lon="4.58421">
        <ele>516</ele>
        <time>2020-06-06T10:59:59Z</time>
      </trkpt>
      <trkpt lat="46.10644" lon="4.58415">
        <ele>515.6</ele>
        <time>2020-06-06T11:00:03Z</time>
      </trkpt>
      <trkpt lat="46.10637" lon="4.58409">
        <ele>516</ele>
        <time>2020-06-06T11:00:07Z</time>
      </trkpt>
      <trkpt lat="46.10631" lon="4.58403">
        <ele>516.6</ele>
        <time>2020-06-06T11:00:11Z</time>
      </trkpt>
      <trkpt lat="46.10625" lon="4.58396">
        <ele>518</ele>
        <time>2020-06-06T11:00:15Z</time>
      </trkpt>
      <trkpt lat="46.1062" lon="4.58389">
        <ele>519.2</ele>
        <time>2020-06-06T11:00:19Z</time>
      </trkpt>
      <trkpt lat="46.10616" lon="4.58381">
        <ele>520.4</ele>
        <time>2020-06-06T11:00:23Z</time>
      </trkpt>
      <trkpt lat="46.10613" lon="4.58371">
        <ele>521</ele>
        <time>2020-06-06T11:00:27Z</time>
      </trkpt>
      <trkpt lat="46.10611" lon="4.58363">
        <ele>522</ele>
        <time>2020-06-06T11:00:31Z</time>
      </trkpt>
      <trkpt lat="46.1061" lon="4.58355">
        <ele>522.4</ele>
        <time>2020-06-06T11:00:35Z</time>
      </trkpt>
      <trkpt lat="46.10609" lon="4.58346">
        <ele>524</ele>
        <time>2020-06-06T11:00:39Z</time>
      </trkpt>
      <trkpt lat="46.10609" lon="4.58337">
        <ele>524.8</ele>
        <time>2020-06-06T11:00:43Z</time>
      </trkpt>
      <trkpt lat="46.10609" lon="4.5833">
        <ele>525.4</ele>
        <time>2020-06-06T11:00:47Z</time>
      </trkpt>
      <trkpt lat="46.10609" lon="4.58322">
        <ele>526.2</ele>
        <time>2020-06-06T11:00:51Z</time>
      </trkpt>
      <trkpt lat="46.1061" lon="4.58314">
        <ele>527</ele>
        <time>2020-06-06T11:00:55Z</time>
      </trkpt>
      <trkpt lat="46.1061" lon="4.58306">
        <ele>528.2</ele>
        <time>2020-06-06T11:00:59Z</time>
      </trkpt>
      <trkpt lat="46.10611" lon="4.58299">
        <ele>528.6</ele>
        <time>2020-06-06T11:01:03Z</time>
      </trkpt>
      <trkpt lat="46.1061" lon="4.58291">
        <ele>529.4</ele>
        <time>2020-06-06T11:01:07Z</time>
      </trkpt>
      <trkpt lat="46.10607" lon="4.58284">
        <ele>530.4</ele>
        <time>2020-06-06T11:01:11Z</time>
      </trkpt>
      <trkpt lat="46.10606" lon="4.58275">
        <ele>530.6</ele>
        <time>2020-06-06T11:01:15Z</time>
      </trkpt>
      <trkpt lat="46.10604" lon="4.58267">
        <ele>530.8</ele>
        <time>2020-06-06T11:01:19Z</time>
      </trkpt>
      <trkpt lat="46.106" lon="4.58259">
        <ele>531.4</ele>
        <time>2020-06-06T11:01:23Z</time>
      </trkpt>
      <trkpt lat="46.10597" lon="4.58251">
        <ele>531</ele>
        <time>2020-06-06T11:01:27Z</time>
      </trkpt>
      <trkpt lat="46.10597" lon="4.58241">
        <ele>531.6</ele>
        <time>2020-06-06T11:01:31Z</time>
      </trkpt>
      <trkpt lat="46.10598" lon="4.58231">
        <ele>532.6</ele>
        <time>2020-06-06T11:01:35Z</time>
      </trkpt>
      <trkpt lat="46.10599" lon="4.58222">
        <ele>532.6</ele>
        <time>2020-06-06T11:01:39Z</time>
      </trkpt>
      <trkpt lat="46.106" lon="4.58212">
        <ele>533.6</ele>
        <time>2020-06-06T11:01:43Z</time>
      </trkpt>
      <trkpt lat="46.10602" lon="4.58202">
        <ele>534.2</ele>
        <time>2020-06-06T11:01:47Z</time>
      </trkpt>
      <trkpt lat="46.10603" lon="4.58192">
        <ele>535</ele>
        <time>2020-06-06T11:01:51Z</time>
      </trkpt>
      <trkpt lat="46.10606" lon="4.58182">
        <ele>536.4</ele>
        <time>2020-06-06T11:01:55Z</time>
      </trkpt>
      <trkpt lat="46.10609" lon="4.58174">
        <ele>536.6</ele>
        <time>2020-06-06T11:01:59Z</time>
      </trkpt>
      <trkpt lat="46.10613" lon="4.58167">
        <ele>537</ele>
        <time>2020-06-06T11:02:03Z</time>
      </trkpt>
      <trkpt lat="46.10617" lon="4.58159">
        <ele>537.6</ele>
        <time>2020-06-06T11:02:07Z</time>
      </trkpt>
      <trkpt lat="46.10622" lon="4.58151">
        <ele>538.6</ele>
        <time>2020-06-06T11:02:11Z</time>
      </trkpt>
      <trkpt lat="46.10626" lon="4.58142">
        <ele>538.6</ele>
        <time>2020-06-06T11:02:15Z</time>
      </trkpt>
      <trkpt lat="46.10629" lon="4.58133">
        <ele>539.6</ele>
        <time>2020-06-06T11:02:19Z</time>
      </trkpt>
      <trkpt lat="46.10632" lon="4.58125">
        <ele>539.8</ele>
        <time>2020-06-06T11:02:23Z</time>
      </trkpt>
      <trkpt lat="46.10636" lon="4.58116">
        <ele>539.8</ele>
        <time>2020-06-06T11:02:27Z</time>
      </trkpt>
      <trkpt lat="46.10639" lon="4.58107">
        <ele>541.4</ele>
        <time>2020-06-06T11:02:31Z</time>
      </trkpt>
      <trkpt lat="46.10641" lon="4.58097">
        <ele>541.6</ele>
        <time>2020-06-06T11:02:35Z</time>
      </trkpt>
      <trkpt lat="46.10644" lon="4.58089">
        <ele>542.8</ele>
        <time>2020-06-06T11:02:39Z</time>
      </trkpt>
      <trkpt lat="46.10645" lon="4.58079">
        <ele>543.6</ele>
        <time>2020-06-06T11:02:43Z</time>
      </trkpt>
      <trkpt lat="46.10645" lon="4.58072">
        <ele>544</ele>
        <time>2020-06-06T11:02:47Z</time>
      </trkpt>
      <trkpt lat="46.10645" lon="4.58065">
        <ele>544.8</ele>
        <time>2020-06-06T11:02:51Z</time>
      </trkpt>
      <trkpt lat="46.10644" lon="4.58058">
        <ele>545.6</ele>
        <time>2020-06-06T11:02:55Z</time>
      </trkpt>
      <trkpt lat="46.10643" lon="4.58051">
        <ele>546</ele>
        <time>2020-06-06T11:02:59Z</time>
      </trkpt>
      <trkpt lat="46.10641" lon="4.58045">
        <ele>548</ele>
        <time>2020-06-06T11:03:03Z</time>
      </trkpt>
      <trkpt lat="46.1064" lon="4.5804">
        <ele>548.4</ele>
        <time>2020-06-06T11:03:07Z</time>
      </trkpt>
      <trkpt lat="46.1064" lon="4.58034">
        <ele>549.2</ele>
        <time>2020-06-06T11:03:11Z</time>
      </trkpt>
      <trkpt lat="46.10638" lon="4.58027">
        <ele>549.6</ele>
        <time>2020-06-06T11:03:15Z</time>
      </trkpt>
      <trkpt lat="46.10637" lon="4.5802">
        <ele>550.6</ele>
        <time>2020-06-06T11:03:19Z</time>
      </trkpt>
      <trkpt lat="46.10636" lon="4.58013">
        <ele>550.8</ele>
        <time>2020-06-06T11:03:23Z</time>
      </trkpt>
      <trkpt lat="46.10634" lon="4.58005">
        <ele>552</ele>
        <time>2020-06-06T11:03:27Z</time>
      </trkpt>
      <trkpt lat="46.10632" lon="4.57998">
        <ele>552.2</ele>
        <time>2020-06-06T11:03:31Z</time>
      </trkpt>
      <trkpt lat="46.1063" lon="4.57992">
        <ele>553.6</ele>
        <time>2020-06-06T11:03:35Z</time>
      </trkpt>
      <trkpt lat="46.10627" lon="4.57986">
        <ele>554.2</ele>
        <time>2020-06-06T11:03:39Z</time>
      </trkpt>
      <trkpt lat="46.10625" lon="4.5798">
        <ele>555</ele>
        <time>2020-06-06T11:03:43Z</time>
      </trkpt>
      <trkpt lat="46.10621" lon="4.57975">
        <ele>555.8</ele>
        <time>2020-06-06T11:03:47Z</time>
      </trkpt>
      <trkpt lat="46.10618" lon="4.5797">
        <ele>556</ele>
        <time>2020-06-06T11:03:51Z</time>
      </trkpt>
      <trkpt lat="46.10614" lon="4.57966">
        <ele>556.8</ele>
        <time>2020-06-06T11:03:55Z</time>
      </trkpt>
      <trkpt lat="46.10611" lon="4.5796">
        <ele>557.2</ele>
        <time>2020-06-06T11:03:59Z</time>
      </trkpt>
      <trkpt lat="46.10607" lon="4.57955">
        <ele>558.2</ele>
        <time>2020-06-06T11:04:03Z</time>
      </trkpt>
      <trkpt lat="46.10603" lon="4.57951">
        <ele>559</ele>
        <time>2020-06-06T11:04:07Z</time>
      </trkpt>
      <trkpt lat="46.10599" lon="4.57947">
        <ele>559.8</ele>
        <time>2020-06-06T11:04:11Z</time>
      </trkpt>
      <trkpt lat="46.10595" lon="4.57942">
        <ele>560.6</ele>
        <time>2020-06-06T11:04:15Z</time>
      </trkpt>
      <trkpt lat="46.10591" lon="4.57938">
        <ele>561</ele>
        <time>2020-06-06T11:04:19Z</time>
      </trkpt>
      <trkpt lat="46.10587" lon="4.57932">
        <ele>562.4</ele>
        <time>2020-06-06T11:04:23Z</time>
      </trkpt>
      <trkpt lat="46.10583" lon="4.57928">
        <ele>562.8</ele>
        <time>2020-06-06T11:04:27Z</time>
      </trkpt>
      <trkpt lat="46.1058" lon="4.57922">
        <ele>563.4</ele>
        <time>2020-06-06T11:04:31Z</time>
      </trkpt>
      <trkpt lat="46.10577" lon="4.57915">
        <ele>563.8</ele>
        <time>2020-06-06T11:04:35Z</time>
      </trkpt>
      <trkpt lat="46.10572" lon="4.5791">
        <ele>564.2</ele>
        <time>2020-06-06T11:04:39Z</time>
      </trkpt>
      <trkpt lat="46.10567" lon="4.57905">
        <ele>564.4</ele>
        <time>2020-06-06T11:04:43Z</time>
      </trkpt>
      <trkpt lat="46.10562" lon="4.57899">
        <ele>564.4</ele>
        <time>2020-06-06T11:04:47Z</time>
      </trkpt>
      <trkpt lat="46.10558" lon="4.57893">
        <ele>564.6</ele>
        <time>2020-06-06T11:04:51Z</time>
      </trkpt>
      <trkpt lat="46.10554" lon="4.57887">
        <ele>565</ele>
        <time>2020-06-06T11:04:55Z</time>
      </trkpt>
      <trkpt lat="46.10549" lon="4.57883">
        <ele>565.4</ele>
        <time>2020-06-06T11:04:59Z</time>
      </trkpt>
      <trkpt lat="46.10544" lon="4.57879">
        <ele>565.6</ele>
        <time>2020-06-06T11:05:03Z</time>
      </trkpt>
      <trkpt lat="46.10538" lon="4.57875">
        <ele>566.4</ele>
        <time>2020-06-06T11:05:07Z</time>
      </trkpt>
      <trkpt lat="46.10532" lon="4.57873">
        <ele>566.8</ele>
        <time>2020-06-06T11:05:11Z</time>
      </trkpt>
      <trkpt lat="46.10525" lon="4.57872">
        <ele>567</ele>
        <time>2020-06-06T11:05:15Z</time>
      </trkpt>
      <trkpt lat="46.10518" lon="4.57871">
        <ele>567.2</ele>
        <time>2020-06-06T11:05:19Z</time>
      </trkpt>
      <trkpt lat="46.10512" lon="4.57875">
        <ele>567.6</ele>
        <time>2020-06-06T11:05:23Z</time>
      </trkpt>
      <trkpt lat="46.10505" lon="4.57879">
        <ele>567.2</ele>
        <time>2020-06-06T11:05:27Z</time>
      </trkpt>
      <trkpt lat="46.10499" lon="4.57886">
        <ele>568.4</ele>
        <time>2020-06-06T11:05:31Z</time>
      </trkpt>
      <trkpt lat="46.10493" lon="4.57893">
        <ele>568.4</ele>
        <time>2020-06-06T11:05:35Z</time>
      </trkpt>
      <trkpt lat="46.10487" lon="4.57898">
        <ele>568.4</ele>
        <time>2020-06-06T11:05:39Z</time>
      </trkpt>
      <trkpt lat="46.10481" lon="4.57905">
        <ele>569.2</ele>
        <time>2020-06-06T11:05:43Z</time>
      </trkpt>
      <trkpt lat="46.10475" lon="4.57911">
        <ele>569.6</ele>
        <time>2020-06-06T11:05:47Z</time>
      </trkpt>
      <trkpt lat="46.10469" lon="4.57917">
        <ele>570.2</ele>
        <time>2020-06-06T11:05:51Z</time>
      </trkpt>
      <trkpt lat="46.10464" lon="4.57922">
        <ele>570.2</ele>
        <time>2020-06-06T11:05:55Z</time>
      </trkpt>
      <trkpt lat="46.10457" lon="4.57926">
        <ele>571</ele>
        <time>2020-06-06T11:05:59Z</time>
      </trkpt>
      <trkpt lat="46.10451" lon="4.57931">
        <ele>571.8</ele>
        <time>2020-06-06T11:06:03Z</time>
      </trkpt>
      <trkpt lat="46.10445" lon="4.57934">
        <ele>572</ele>
        <time>2020-06-06T11:06:07Z</time>
      </trkpt>
      <trkpt lat="46.10439" lon="4.57938">
        <ele>572.8</ele>
        <time>2020-06-06T11:06:11Z</time>
      </trkpt>
      <trkpt lat="46.10432" lon="4.57942">
        <ele>572.8</ele>
        <time>2020-06-06T11:06:15Z</time>
      </trkpt>
      <trkpt lat="46.10426" lon="4.57945">
        <ele>573.6</ele>
        <time>2020-06-06T11:06:19Z</time>
      </trkpt>
      <trkpt lat="46.10419" lon="4.57948">
        <ele>574.2</ele>
        <time>2020-06-06T11:06:23Z</time>
      </trkpt>
      <trkpt lat="46.10413" lon="4.5795">
        <ele>574.4</ele>
        <time>2020-06-06T11:06:27Z</time>
      </trkpt>
      <trkpt lat="46.10405" lon="4.57952">
        <ele>574.2</ele>
        <time>2020-06-06T11:06:31Z</time>
      </trkpt>
      <trkpt lat="46.10398" lon="4.57954">
        <ele>575.8</ele>
        <time>2020-06-06T11:06:35Z</time>
      </trkpt>
      <trkpt lat="46.1039" lon="4.57955">
        <ele>575.8</ele>
        <time>2020-06-06T11:06:39Z</time>
      </trkpt>
      <trkpt lat="46.10381" lon="4.57954">
        <ele>575.6</ele>
        <time>2020-06-06T11:06:43Z</time>
      </trkpt>
      <trkpt lat="46.10374" lon="4.57949">
        <ele>576.8</ele>
        <time>2020-06-06T11:06:47Z</time>
      </trkpt>
      <trkpt lat="46.10367" lon="4.57942">
        <ele>577</ele>
        <time>2020-06-06T11:06:51Z</time>
      </trkpt>
      <trkpt lat="46.1036" lon="4.57935">
        <ele>577.4</ele>
        <time>2020-06-06T11:06:55Z</time>
      </trkpt>
      <trkpt lat="46.10354" lon="4.57928">
        <ele>578</ele>
        <time>2020-06-06T11:06:59Z</time>
      </trkpt>
      <trkpt lat="46.10347" lon="4.57921">
        <ele>579</ele>
        <time>2020-06-06T11:07:03Z</time>
      </trkpt>
      <trkpt lat="46.10339" lon="4.57915">
        <ele>579.4</ele>
        <time>2020-06-06T11:07:07Z</time>
      </trkpt>
      <trkpt lat="46.10329" lon="4.57911">
        <ele>579</ele>
        <time>2020-06-06T11:07:11Z</time>
      </trkpt>
      <trkpt lat="46.1032" lon="4.57908">
        <ele>579.4</ele>
        <time>2020-06-06T11:07:15Z</time>
      </trkpt>
      <trkpt lat="46.1031" lon="4.57906">
        <ele>579.6</ele>
        <time>2020-06-06T11:07:19Z</time>
      </trkpt>
      <trkpt lat="46.10302" lon="4.57904">
        <ele>580.2</ele>
        <time>2020-06-06T11:07:23Z</time>
      </trkpt>
      <trkpt lat="46.10293" lon="4.57902">
        <ele>580.2</ele>
        <time>2020-06-06T11:07:27Z</time>
      </trkpt>
      <trkpt lat="46.10284" lon="4.579">
        <ele>580.8</ele>
        <time>2020-06-06T11:07:31Z</time>
      </trkpt>
      <trkpt lat="46.10275" lon="4.57899">
        <ele>581.8</ele>
        <time>2020-06-06T11:07:35Z</time>
      </trkpt>
      <trkpt lat="46.10267" lon="4.57896">
        <ele>582.2</ele>
        <time>2020-06-06T11:07:39Z</time>
      </trkpt>
      <trkpt lat="46.10258" lon="4.57894">
        <ele>582.6</ele>
        <time>2020-06-06T11:07:43Z</time>
      </trkpt>
      <trkpt lat="46.10249" lon="4.5789">
        <ele>583.2</ele>
        <time>2020-06-06T11:07:47Z</time>
      </trkpt>
      <trkpt lat="46.1024" lon="4.57886">
        <ele>583.2</ele>
        <time>2020-06-06T11:07:51Z</time>
      </trkpt>
      <trkpt lat="46.1023" lon="4.57882">
        <ele>583.2</ele>
        <time>2020-06-06T11:07:55Z</time>
      </trkpt>
      <trkpt lat="46.10222" lon="4.57874">
        <ele>583.6</ele>
        <time>2020-06-06T11:07:59Z</time>
      </trkpt>
      <trkpt lat="46.10215" lon="4.57863">
        <ele>584.6</ele>
        <time>2020-06-06T11:08:03Z</time>
      </trkpt>
      <trkpt lat="46.10209" lon="4.57853">
        <ele>585.2</ele>
        <time>2020-06-06T11:08:07Z</time>
      </trkpt>
      <trkpt lat="46.10205" lon="4.57845">
        <ele>585.6</ele>
        <time>2020-06-06T11:08:11Z</time>
      </trkpt>
      <trkpt lat="46.10201" lon="4.57836">
        <ele>586</ele>
        <time>2020-06-06T11:08:15Z</time>
      </trkpt>
      <trkpt lat="46.10197" lon="4.57826">
        <ele>586.4</ele>
        <time>2020-06-06T11:08:19Z</time>
      </trkpt>
      <trkpt lat="46.10193" lon="4.57815">
        <ele>586.8</ele>
        <time>2020-06-06T11:08:23Z</time>
      </trkpt>
      <trkpt lat="46.10189" lon="4.57806">
        <ele>587</ele>
        <time>2020-06-06T11:08:27Z</time>
      </trkpt>
      <trkpt lat="46.10185" lon="4.57795">
        <ele>587.4</ele>
        <time>2020-06-06T11:08:31Z</time>
      </trkpt>
      <trkpt lat="46.10181" lon="4.57785">
        <ele>587.2</ele>
        <time>2020-06-06T11:08:35Z</time>
      </trkpt>
      <trkpt lat="46.10177" lon="4.57774">
        <ele>588.8</ele>
        <time>2020-06-06T11:08:39Z</time>
      </trkpt>
      <trkpt lat="46.10173" lon="4.57763">
        <ele>588.6</ele>
        <time>2020-06-06T11:08:43Z</time>
      </trkpt>
      <trkpt lat="46.10169" lon="4.57754">
        <ele>588.8</ele>
        <time>2020-06-06T11:08:47Z</time>
      </trkpt>
      <trkpt lat="46.10164" lon="4.57744">
        <ele>589.6</ele>
        <time>2020-06-06T11:08:51Z</time>
      </trkpt>
      <trkpt lat="46.10158" lon="4.57734">
        <ele>590</ele>
        <time>2020-06-06T11:08:55Z</time>
      </trkpt>
      <trkpt lat="46.10153" lon="4.57724">
        <ele>590.2</ele>
        <time>2020-06-06T11:08:59Z</time>
      </trkpt>
      <trkpt lat="46.10148" lon="4.57714">
        <ele>590.8</ele>
        <time>2020-06-06T11:09:03Z</time>
      </trkpt>
      <trkpt lat="46.10142" lon="4.57704">
        <ele>590.6</ele>
        <time>2020-06-06T11:09:07Z</time>
      </trkpt>
      <trkpt lat="46.10137" lon="4.57694">
        <ele>591.4</ele>
        <time>2020-06-06T11:09:11Z</time>
      </trkpt>
      <trkpt lat="46.10133" lon="4.57683">
        <ele>592.8</ele>
        <time>2020-06-06T11:09:15Z</time>
      </trkpt>
      <trkpt lat="46.1013" lon="4.57672">
        <ele>592.8</ele>
        <time>2020-06-06T11:09:19Z</time>
      </trkpt>
      <trkpt lat="46.10127" lon="4.5766">
        <ele>593.6</ele>
        <time>2020-06-06T11:09:23Z</time>
      </trkpt>
      <trkpt lat="46.10125" lon="4.57648">
        <ele>593.8</ele>
        <time>2020-06-06T11:09:27Z</time>
      </trkpt>
      <trkpt lat="46.10123" lon="4.57636">
        <ele>594.2</ele>
        <time>2020-06-06T11:09:31Z</time>
      </trkpt>
      <trkpt lat="46.10121" lon="4.57624">
        <ele>594.4</ele>
        <time>2020-06-06T11:09:35Z</time>
      </trkpt>
      <trkpt lat="46.10118" lon="4.57613">
        <ele>595.4</ele>
        <time>2020-06-06T11:09:39Z</time>
      </trkpt>
      <trkpt lat="46.10115" lon="4.57602">
        <ele>595.6</ele>
        <time>2020-06-06T11:09:43Z</time>
      </trkpt>
      <trkpt lat="46.10111" lon="4.57592">
        <ele>596.4</ele>
        <time>2020-06-06T11:09:47Z</time>
      </trkpt>
      <trkpt lat="46.10108" lon="4.57583">
        <ele>597</ele>
        <time>2020-06-06T11:09:51Z</time>
      </trkpt>
      <trkpt lat="46.10104" lon="4.57573">
        <ele>597.8</ele>
        <time>2020-06-06T11:09:55Z</time>
      </trkpt>
      <trkpt lat="46.101" lon="4.57563">
        <ele>598.6</ele>
        <time>2020-06-06T11:09:59Z</time>
      </trkpt>
      <trkpt lat="46.10096" lon="4.57554">
        <ele>598.8</ele>
        <time>2020-06-06T11:10:03Z</time>
      </trkpt>
      <trkpt lat="46.10092" lon="4.57546">
        <ele>600.2</ele>
        <time>2020-06-06T11:10:07Z</time>
      </trkpt>
      <trkpt lat="46.10088" lon="4.57538">
        <ele>600.2</ele>
        <time>2020-06-06T11:10:11Z</time>
      </trkpt>
      <trkpt lat="46.10083" lon="4.5753">
        <ele>600.4</ele>
        <time>2020-06-06T11:10:15Z</time>
      </trkpt>
      <trkpt lat="46.10078" lon="4.57523">
        <ele>601.6</ele>
        <time>2020-06-06T11:10:19Z</time>
      </trkpt>
      <trkpt lat="46.10072" lon="4.57518">
        <ele>602.4</ele>
        <time>2020-06-06T11:10:23Z</time>
      </trkpt>
      <trkpt lat="46.10064" lon="4.57517">
        <ele>602.8</ele>
        <time>2020-06-06T11:10:27Z</time>
      </trkpt>
      <trkpt lat="46.10057" lon="4.57518">
        <ele>603.4</ele>
        <time>2020-06-06T11:10:31Z</time>
      </trkpt>
      <trkpt lat="46.10051" lon="4.57521">
        <ele>603.8</ele>
        <time>2020-06-06T11:10:35Z</time>
      </trkpt>
      <trkpt lat="46.10046" lon="4.57524">
        <ele>604.2</ele>
        <time>2020-06-06T11:10:39Z</time>
      </trkpt>
      <trkpt lat="46.1004" lon="4.57527">
        <ele>605.2</ele>
        <time>2020-06-06T11:10:43Z</time>
      </trkpt>
      <trkpt lat="46.10034" lon="4.5753">
        <ele>605.6</ele>
        <time>2020-06-06T11:10:47Z</time>
      </trkpt>
      <trkpt lat="46.10027" lon="4.57533">
        <ele>606</ele>
        <time>2020-06-06T11:10:51Z</time>
      </trkpt>
      <trkpt lat="46.10021" lon="4.57535">
        <ele>606.2</ele>
        <time>2020-06-06T11:10:55Z</time>
      </trkpt>
      <trkpt lat="46.10013" lon="4.57537">
        <ele>606.8</ele>
        <time>2020-06-06T11:10:59Z</time>
      </trkpt>
      <trkpt lat="46.10005" lon="4.57538">
        <ele>607</ele>
        <time>2020-06-06T11:11:03Z</time>
      </trkpt>
      <trkpt lat="46.09998" lon="4.57534">
        <ele>607.8</ele>
        <time>2020-06-06T11:11:07Z</time>
      </trkpt>
      <trkpt lat="46.09994" lon="4.5753">
        <ele>609</ele>
        <time>2020-06-06T11:11:11Z</time>
      </trkpt>
      <trkpt lat="46.09987" lon="4.57525">
        <ele>609.4</ele>
        <time>2020-06-06T11:11:15Z</time>
      </trkpt>
      <trkpt lat="46.0998" lon="4.57521">
        <ele>609.8</ele>
        <time>2020-06-06T11:11:19Z</time>
      </trkpt>
      <trkpt lat="46.09974" lon="4.57516">
        <ele>610.6</ele>
        <time>2020-06-06T11:11:23Z</time>
      </trkpt>
      <trkpt lat="46.09967" lon="4.57512">
        <ele>611.2</ele>
        <time>2020-06-06T11:11:27Z</time>
      </trkpt>
      <trkpt lat="46.09961" lon="4.57507">
        <ele>612</ele>
        <time>2020-06-06T11:11:31Z</time>
      </trkpt>
      <trkpt lat="46.09955" lon="4.57502">
        <ele>612.2</ele>
        <time>2020-06-06T11:11:35Z</time>
      </trkpt>
      <trkpt lat="46.09949" lon="4.57497">
        <ele>612.6</ele>
        <time>2020-06-06T11:11:39Z</time>
      </trkpt>
      <trkpt lat="46.09943" lon="4.57491">
        <ele>613</ele>
        <time>2020-06-06T11:11:43Z</time>
      </trkpt>
      <trkpt lat="46.09937" lon="4.57487">
        <ele>613.8</ele>
        <time>2020-06-06T11:11:47Z</time>
      </trkpt>
      <trkpt lat="46.09931" lon="4.57482">
        <ele>614.4</ele>
        <time>2020-06-06T11:11:51Z</time>
      </trkpt>
      <trkpt lat="46.09924" lon="4.57476">
        <ele>615.6</ele>
        <time>2020-06-06T11:11:55Z</time>
      </trkpt>
      <trkpt lat="46.09918" lon="4.57471">
        <ele>616</ele>
        <time>2020-06-06T11:11:59Z</time>
      </trkpt>
      <trkpt lat="46.09913" lon="4.57464">
        <ele>616.4</ele>
        <time>2020-06-06T11:12:03Z</time>
      </trkpt>
      <trkpt lat="46.09908" lon="4.57456">
        <ele>617</ele>
        <time>2020-06-06T11:12:07Z</time>
      </trkpt>
      <trkpt lat="46.09902" lon="4.57449">
        <ele>617.4</ele>
        <time>2020-06-06T11:12:11Z</time>
      </trkpt>
      <trkpt lat="46.09897" lon="4.57442">
        <ele>618.4</ele>
        <time>2020-06-06T11:12:15Z</time>
      </trkpt>
      <trkpt lat="46.09891" lon="4.57435">
        <ele>619.2</ele>
        <time>2020-06-06T11:12:19Z</time>
      </trkpt>
      <trkpt lat="46.09886" lon="4.57428">
        <ele>620.2</ele>
        <time>2020-06-06T11:12:23Z</time>
      </trkpt>
      <trkpt lat="46.09881" lon="4.57421">
        <ele>620.2</ele>
        <time>2020-06-06T11:12:27Z</time>
      </trkpt>
      <trkpt lat="46.09875" lon="4.57415">
        <ele>620.8</ele>
        <time>2020-06-06T11:12:31Z</time>
      </trkpt>
      <trkpt lat="46.09871" lon="4.57408">
        <ele>621</ele>
        <time>2020-06-06T11:12:35Z</time>
      </trkpt>
      <trkpt lat="46.09866" lon="4.57401">
        <ele>622</ele>
        <time>2020-06-06T11:12:39Z</time>
      </trkpt>
      <trkpt lat="46.09861" lon="4.57395">
        <ele>622.6</ele>
        <time>2020-06-06T11:12:43Z</time>
      </trkpt>
      <trkpt lat="46.09856" lon="4.57388">
        <ele>623</ele>
        <time>2020-06-06T11:12:47Z</time>
      </trkpt>
      <trkpt lat="46.09851" lon="4.57381">
        <ele>623</ele>
        <time>2020-06-06T11:12:51Z</time>
      </trkpt>
      <trkpt lat="46.09846" lon="4.57374">
        <ele>624.2</ele>
        <time>2020-06-06T11:12:55Z</time>
      </trkpt>
      <trkpt lat="46.09841" lon="4.57367">
        <ele>625</ele>
        <time>2020-06-06T11:12:59Z</time>
      </trkpt>
      <trkpt lat="46.09835" lon="4.5736">
        <ele>625.6</ele>
        <time>2020-06-06T11:13:03Z</time>
      </trkpt>
      <trkpt lat="46.0983" lon="4.57353">
        <ele>625.4</ele>
        <time>2020-06-06T11:13:07Z</time>
      </trkpt>
      <trkpt lat="46.09825" lon="4.57345">
        <ele>627.2</ele>
        <time>2020-06-06T11:13:11Z</time>
      </trkpt>
      <trkpt lat="46.0982" lon="4.57338">
        <ele>628.2</ele>
        <time>2020-06-06T11:13:15Z</time>
      </trkpt>
      <trkpt lat="46.09815" lon="4.57329">
        <ele>628.4</ele>
        <time>2020-06-06T11:13:19Z</time>
      </trkpt>
      <trkpt lat="46.09811" lon="4.57321">
        <ele>628.4</ele>
        <time>2020-06-06T11:13:23Z</time>
      </trkpt>
      <trkpt lat="46.09807" lon="4.57312">
        <ele>629</ele>
        <time>2020-06-06T11:13:27Z</time>
      </trkpt>
      <trkpt lat="46.09803" lon="4.57303">
        <ele>630</ele>
        <time>2020-06-06T11:13:31Z</time>
      </trkpt>
      <trkpt lat="46.09799" lon="4.57295">
        <ele>630.2</ele>
        <time>2020-06-06T11:13:35Z</time>
      </trkpt>
      <trkpt lat="46.09795" lon="4.57286">
        <ele>631</ele>
        <time>2020-06-06T11:13:39Z</time>
      </trkpt>
      <trkpt lat="46.09791" lon="4.57278">
        <ele>631.4</ele>
        <time>2020-06-06T11:13:43Z</time>
      </trkpt>
      <trkpt lat="46.09787" lon="4.57269">
        <ele>632.2</ele>
        <time>2020-06-06T11:13:47Z</time>
      </trkpt>
      <trkpt lat="46.09783" lon="4.57261">
        <ele>633</ele>
        <time>2020-06-06T11:13:51Z</time>
      </trkpt>
      <trkpt lat="46.0978" lon="4.57252">
        <ele>633.8</ele>
        <time>2020-06-06T11:13:55Z</time>
      </trkpt>
      <trkpt lat="46.09776" lon="4.57243">
        <ele>634.8</ele>
        <time>2020-06-06T11:13:59Z</time>
      </trkpt>
      <trkpt lat="46.09773" lon="4.57233">
        <ele>635.6</ele>
        <time>2020-06-06T11:14:03Z</time>
      </trkpt>
      <trkpt lat="46.0977" lon="4.57224">
        <ele>636.2</ele>
        <time>2020-06-06T11:14:07Z</time>
      </trkpt>
      <trkpt lat="46.09767" lon="4.57215">
        <ele>636.8</ele>
        <time>2020-06-06T11:14:11Z</time>
      </trkpt>
      <trkpt lat="46.09765" lon="4.57205">
        <ele>637.4</ele>
        <time>2020-06-06T11:14:15Z</time>
      </trkpt>
      <trkpt lat="46.09763" lon="4.57195">
        <ele>637.8</ele>
        <time>2020-06-06T11:14:19Z</time>
      </trkpt>
      <trkpt lat="46.09761" lon="4.57185">
        <ele>638.8</ele>
        <time>2020-06-06T11:14:23Z</time>
      </trkpt>
      <trkpt lat="46.0976" lon="4.57175">
        <ele>639.6</ele>
        <time>2020-06-06T11:14:27Z</time>
      </trkpt>
      <trkpt lat="46.09759" lon="4.57165">
        <ele>640.2</ele>
        <time>2020-06-06T11:14:31Z</time>
      </trkpt>
      <trkpt lat="46.09758" lon="4.57155">
        <ele>640.6</ele>
        <time>2020-06-06T11:14:35Z</time>
      </trkpt>
      <trkpt lat="46.09756" lon="4.57146">
        <ele>641</ele>
        <time>2020-06-06T11:14:39Z</time>
      </trkpt>
      <trkpt lat="46.09756" lon="4.57136">
        <ele>642</ele>
        <time>2020-06-06T11:14:43Z</time>
      </trkpt>
      <trkpt lat="46.09755" lon="4.57126">
        <ele>642.6</ele>
        <time>2020-06-06T11:14:47Z</time>
      </trkpt>
      <trkpt lat="46.09754" lon="4.57116">
        <ele>643.6</ele>
        <time>2020-06-06T11:14:51Z</time>
      </trkpt>
      <trkpt lat="46.09753" lon="4.57106">
        <ele>644.4</ele>
        <time>2020-06-06T11:14:55Z</time>
      </trkpt>
      <trkpt lat="46.09753" lon="4.57095">
        <ele>644.2</ele>
        <time>2020-06-06T11:14:59Z</time>
      </trkpt>
      <trkpt lat="46.09753" lon="4.57085">
        <ele>645</ele>
        <time>2020-06-06T11:15:03Z</time>
      </trkpt>
      <trkpt lat="46.09753" lon="4.57074">
        <ele>645.2</ele>
        <time>2020-06-06T11:15:07Z</time>
      </trkpt>
      <trkpt lat="46.09752" lon="4.57064">
        <ele>645.4</ele>
        <time>2020-06-06T11:15:11Z</time>
      </trkpt>
      <trkpt lat="46.09752" lon="4.57053">
        <ele>646.2</ele>
        <time>2020-06-06T11:15:15Z</time>
      </trkpt>
      <trkpt lat="46.09752" lon="4.57043">
        <ele>647</ele>
        <time>2020-06-06T11:15:19Z</time>
      </trkpt>
      <trkpt lat="46.09752" lon="4.57032">
        <ele>647.6</ele>
        <time>2020-06-06T11:15:23Z</time>
      </trkpt>
      <trkpt lat="46.09751" lon="4.5702">
        <ele>648</ele>
        <time>2020-06-06T11:15:27Z</time>
      </trkpt>
      <trkpt lat="46.09751" lon="4.5701">
        <ele>648.8</ele>
        <time>2020-06-06T11:15:31Z</time>
      </trkpt>
      <trkpt lat="46.09749" lon="4.57">
        <ele>649.8</ele>
        <time>2020-06-06T11:15:35Z</time>
      </trkpt>
      <trkpt lat="46.09747" lon="4.5699">
        <ele>649.8</ele>
        <time>2020-06-06T11:15:39Z</time>
      </trkpt>
      <trkpt lat="46.09745" lon="4.5698">
        <ele>650.6</ele>
        <time>2020-06-06T11:15:43Z</time>
      </trkpt>
      <trkpt lat="46.09745" lon="4.5698">
        <ele>652.2</ele>
        <time>2020-06-06T11:15:47Z</time>
      </trkpt>
      <trkpt lat="46.09741" lon="4.56968">
        <ele>652.2</ele>
        <time>2020-06-06T11:15:51Z</time>
      </trkpt>
      <trkpt lat="46.09736" lon="4.56959">
        <ele>652.6</ele>
        <time>2020-06-06T11:15:55Z</time>
      </trkpt>
      <trkpt lat="46.09731" lon="4.56951">
        <ele>653.2</ele>
        <time>2020-06-06T11:15:59Z</time>
      </trkpt>
      <trkpt lat="46.09725" lon="4.56944">
        <ele>653.6</ele>
        <time>2020-06-06T11:16:03Z</time>
      </trkpt>
      <trkpt lat="46.09718" lon="4.56938">
        <ele>654.4</ele>
        <time>2020-06-06T11:16:07Z</time>
      </trkpt>
      <trkpt lat="46.09712" lon="4.56934">
        <ele>654.8</ele>
        <time>2020-06-06T11:16:11Z</time>
      </trkpt>
      <trkpt lat="46.09705" lon="4.56931">
        <ele>655.8</ele>
        <time>2020-06-06T11:16:15Z</time>
      </trkpt>
      <trkpt lat="46.09698" lon="4.5693">
        <ele>656.2</ele>
        <time>2020-06-06T11:16:19Z</time>
      </trkpt>
      <trkpt lat="46.09691" lon="4.5693">
        <ele>657.2</ele>
        <time>2020-06-06T11:16:23Z</time>
      </trkpt>
      <trkpt lat="46.09684" lon="4.56929">
        <ele>657.4</ele>
        <time>2020-06-06T11:16:27Z</time>
      </trkpt>
      <trkpt lat="46.09676" lon="4.56929">
        <ele>659.2</ele>
        <time>2020-06-06T11:16:31Z</time>
      </trkpt>
      <trkpt lat="46.09669" lon="4.56928">
        <ele>659</ele>
        <time>2020-06-06T11:16:35Z</time>
      </trkpt>
      <trkpt lat="46.09662" lon="4.56926">
        <ele>659.4</ele>
        <time>2020-06-06T11:16:39Z</time>
      </trkpt>
      <trkpt lat="46.09656" lon="4.56922">
        <ele>660.4</ele>
        <time>2020-06-06T11:16:43Z</time>
      </trkpt>
      <trkpt lat="46.09649" lon="4.56917">
        <ele>660.6</ele>
        <time>2020-06-06T11:16:47Z</time>
      </trkpt>
      <trkpt lat="46.09645" lon="4.56911">
        <ele>660.2</ele>
        <time>2020-06-06T11:16:51Z</time>
      </trkpt>
      <trkpt lat="46.0964" lon="4.56904">
        <ele>661</ele>
        <time>2020-06-06T11:16:55Z</time>
      </trkpt>
      <trkpt lat="46.09636" lon="4.56897">
        <ele>661.8</ele>
        <time>2020-06-06T11:16:59Z</time>
      </trkpt>
      <trkpt lat="46.09631" lon="4.56889">
        <ele>662</ele>
        <time>2020-06-06T11:17:03Z</time>
      </trkpt>
      <trkpt lat="46.09627" lon="4.56882">
        <ele>662.2</ele>
        <time>2020-06-06T11:17:07Z</time>
      </trkpt>
      <trkpt lat="46.09623" lon="4.56873">
        <ele>663</ele>
        <time>2020-06-06T11:17:11Z</time>
      </trkpt>
      <trkpt lat="46.09619" lon="4.56864">
        <ele>663.8</ele>
        <time>2020-06-06T11:17:15Z</time>
      </trkpt>
      <trkpt lat="46.09616" lon="4.56856">
        <ele>664.2</ele>
        <time>2020-06-06T11:17:19Z</time>
      </trkpt>
      <trkpt lat="46.09613" lon="4.56846">
        <ele>664.8</ele>
        <time>2020-06-06T11:17:23Z</time>
      </trkpt>
      <trkpt lat="46.0961" lon="4.56837">
        <ele>665.6</ele>
        <time>2020-06-06T11:17:27Z</time>
      </trkpt>
      <trkpt lat="46.09607" lon="4.56828">
        <ele>665.8</ele>
        <time>2020-06-06T11:17:31Z</time>
      </trkpt>
      <trkpt lat="46.09604" lon="4.56818">
        <ele>667.2</ele>
        <time>2020-06-06T11:17:35Z</time>
      </trkpt>
      <trkpt lat="46.09601" lon="4.56809">
        <ele>667.6</ele>
        <time>2020-06-06T11:17:39Z</time>
      </trkpt>
      <trkpt lat="46.09598" lon="4.56799">
        <ele>668.2</ele>
        <time>2020-06-06T11:17:43Z</time>
      </trkpt>
      <trkpt lat="46.09595" lon="4.56791">
        <ele>668.8</ele>
        <time>2020-06-06T11:17:47Z</time>
      </trkpt>
      <trkpt lat="46.09592" lon="4.56781">
        <ele>669.2</ele>
        <time>2020-06-06T11:17:51Z</time>
      </trkpt>
      <trkpt lat="46.09589" lon="4.56772">
        <ele>669.2</ele>
        <time>2020-06-06T11:17:55Z</time>
      </trkpt>
      <trkpt lat="46.09586" lon="4.56763">
        <ele>670.4</ele>
        <time>2020-06-06T11:17:59Z</time>
      </trkpt>
      <trkpt lat="46.09583" lon="4.56754">
        <ele>671.2</ele>
        <time>2020-06-06T11:18:03Z</time>
      </trkpt>
      <trkpt lat="46.0958" lon="4.56745">
        <ele>672</ele>
        <time>2020-06-06T11:18:07Z</time>
      </trkpt>
      <trkpt lat="46.09577" lon="4.56735">
        <ele>672.4</ele>
        <time>2020-06-06T11:18:11Z</time>
      </trkpt>
      <trkpt lat="46.09574" lon="4.56725">
        <ele>673.2</ele>
        <time>2020-06-06T11:18:15Z</time>
      </trkpt>
      <trkpt lat="46.09571" lon="4.56716">
        <ele>673.6</ele>
        <time>2020-06-06T11:18:19Z</time>
      </trkpt>
      <trkpt lat="46.09569" lon="4.56707">
        <ele>674</ele>
        <time>2020-06-06T11:18:23Z</time>
      </trkpt>
      <trkpt lat="46.09566" lon="4.56697">
        <ele>674.6</ele>
        <time>2020-06-06T11:18:27Z</time>
      </trkpt>
      <trkpt lat="46.09564" lon="4.56687">
        <ele>675.2</ele>
        <time>2020-06-06T11:18:31Z</time>
      </trkpt>
      <trkpt lat="46.09562" lon="4.56677">
        <ele>675.8</ele>
        <time>2020-06-06T11:18:35Z</time>
      </trkpt>
      <trkpt lat="46.09559" lon="4.56668">
        <ele>677</ele>
        <time>2020-06-06T11:18:39Z</time>
      </trkpt>
      <trkpt lat="46.09555" lon="4.56658">
        <ele>677.6</ele>
        <time>2020-06-06T11:18:43Z</time>
      </trkpt>
      <trkpt lat="46.0955" lon="4.5665">
        <ele>678</ele>
        <time>2020-06-06T11:18:47Z</time>
      </trkpt>
      <trkpt lat="46.09543" lon="4.56644">
        <ele>679</ele>
        <time>2020-06-06T11:18:51Z</time>
      </trkpt>
      <trkpt lat="46.09536" lon="4.5664">
        <ele>679.2</ele>
        <time>2020-06-06T11:18:55Z</time>
      </trkpt>
      <trkpt lat="46.09529" lon="4.5664">
        <ele>679.6</ele>
        <time>2020-06-06T11:18:59Z</time>
      </trkpt>
      <trkpt lat="46.09522" lon="4.56641">
        <ele>680.8</ele>
        <time>2020-06-06T11:19:03Z</time>
      </trkpt>
      <trkpt lat="46.09515" lon="4.56642">
        <ele>681.2</ele>
        <time>2020-06-06T11:19:07Z</time>
      </trkpt>
      <trkpt lat="46.09508" lon="4.56643">
        <ele>681.6</ele>
        <time>2020-06-06T11:19:11Z</time>
      </trkpt>
      <trkpt lat="46.09501" lon="4.56644">
        <ele>682.6</ele>
        <time>2020-06-06T11:19:15Z</time>
      </trkpt>
      <trkpt lat="46.09494" lon="4.56643">
        <ele>682.8</ele>
        <time>2020-06-06T11:19:19Z</time>
      </trkpt>
      <trkpt lat="46.09487" lon="4.56641">
        <ele>683.2</ele>
        <time>2020-06-06T11:19:23Z</time>
      </trkpt>
      <trkpt lat="46.09481" lon="4.56637">
        <ele>683.8</ele>
        <time>2020-06-06T11:19:27Z</time>
      </trkpt>
      <trkpt lat="46.09474" lon="4.56633">
        <ele>684.6</ele>
        <time>2020-06-06T11:19:31Z</time>
      </trkpt>
      <trkpt lat="46.09468" lon="4.56628">
        <ele>684.8</ele>
        <time>2020-06-06T11:19:35Z</time>
      </trkpt>
      <trkpt lat="46.09462" lon="4.56623">
        <ele>685.2</ele>
        <time>2020-06-06T11:19:39Z</time>
      </trkpt>
      <trkpt lat="46.09456" lon="4.56617">
        <ele>686.4</ele>
        <time>2020-06-06T11:19:43Z</time>
      </trkpt>
      <trkpt lat="46.09451" lon="4.56611">
        <ele>686.6</ele>
        <time>2020-06-06T11:19:47Z</time>
      </trkpt>
      <trkpt lat="46.09446" lon="4.56604">
        <ele>687</ele>
        <time>2020-06-06T11:19:51Z</time>
      </trkpt>
      <trkpt lat="46.09441" lon="4.56597">
        <ele>687.8</ele>
        <time>2020-06-06T11:19:55Z</time>
      </trkpt>
      <trkpt lat="46.09436" lon="4.56591">
        <ele>688.4</ele>
        <time>2020-06-06T11:19:59Z</time>
      </trkpt>
      <trkpt lat="46.09432" lon="4.56584">
        <ele>689.4</ele>
        <time>2020-06-06T11:20:03Z</time>
      </trkpt>
      <trkpt lat="46.09427" lon="4.56577">
        <ele>689.8</ele>
        <time>2020-06-06T11:20:07Z</time>
      </trkpt>
      <trkpt lat="46.09423" lon="4.5657">
        <ele>690.2</ele>
        <time>2020-06-06T11:20:11Z</time>
      </trkpt>
      <trkpt lat="46.09419" lon="4.56561">
        <ele>690.4</ele>
        <time>2020-06-06T11:20:15Z</time>
      </trkpt>
      <trkpt lat="46.09414" lon="4.56553">
        <ele>691.8</ele>
        <time>2020-06-06T11:20:19Z</time>
      </trkpt>
      <trkpt lat="46.09411" lon="4.56545">
        <ele>692.2</ele>
        <time>2020-06-06T11:20:23Z</time>
      </trkpt>
      <trkpt lat="46.09407" lon="4.56536">
        <ele>692.8</ele>
        <time>2020-06-06T11:20:27Z</time>
      </trkpt>
      <trkpt lat="46.09404" lon="4.56528">
        <ele>693.2</ele>
        <time>2020-06-06T11:20:31Z</time>
      </trkpt>
      <trkpt lat="46.09401" lon="4.56521">
        <ele>693.4</ele>
        <time>2020-06-06T11:20:35Z</time>
      </trkpt>
      <trkpt lat="46.09397" lon="4.56513">
        <ele>694.2</ele>
        <time>2020-06-06T11:20:39Z</time>
      </trkpt>
      <trkpt lat="46.09394" lon="4.56503">
        <ele>694.8</ele>
        <time>2020-06-06T11:20:43Z</time>
      </trkpt>
      <trkpt lat="46.09393" lon="4.56494">
        <ele>695.4</ele>
        <time>2020-06-06T11:20:47Z</time>
      </trkpt>
      <trkpt lat="46.0939" lon="4.56485">
        <ele>695.2</ele>
        <time>2020-06-06T11:20:51Z</time>
      </trkpt>
      <trkpt lat="46.09388" lon="4.56476">
        <ele>696.2</ele>
        <time>2020-06-06T11:20:55Z</time>
      </trkpt>
      <trkpt lat="46.09385" lon="4.56467">
        <ele>696.6</ele>
        <time>2020-06-06T11:20:59Z</time>
      </trkpt>
      <trkpt lat="46.09383" lon="4.56458">
        <ele>697.8</ele>
        <time>2020-06-06T11:21:03Z</time>
      </trkpt>
      <trkpt lat="46.09381" lon="4.56448">
        <ele>697.8</ele>
        <time>2020-06-06T11:21:07Z</time>
      </trkpt>
      <trkpt lat="46.0938" lon="4.56439">
        <ele>698.4</ele>
        <time>2020-06-06T11:21:11Z</time>
      </trkpt>
      <trkpt lat="46.0938" lon="4.56429">
        <ele>699</ele>
        <time>2020-06-06T11:21:15Z</time>
      </trkpt>
      <trkpt lat="46.09378" lon="4.5642">
        <ele>699.4</ele>
        <time>2020-06-06T11:21:19Z</time>
      </trkpt>
      <trkpt lat="46.09376" lon="4.5641">
        <ele>700.6</ele>
        <time>2020-06-06T11:21:23Z</time>
      </trkpt>
      <trkpt lat="46.09375" lon="4.56399">
        <ele>701</ele>
        <time>2020-06-06T11:21:27Z</time>
      </trkpt>
      <trkpt lat="46.09373" lon="4.56389">
        <ele>701.8</ele>
        <time>2020-06-06T11:21:31Z</time>
      </trkpt>
      <trkpt lat="46.09373" lon="4.56378">
        <ele>702.4</ele>
        <time>2020-06-06T11:21:35Z</time>
      </trkpt>
      <trkpt lat="46.09372" lon="4.56368">
        <ele>702.8</ele>
        <time>2020-06-06T11:21:39Z</time>
      </trkpt>
      <trkpt lat="46.09371" lon="4.56358">
        <ele>703.4</ele>
        <time>2020-06-06T11:21:43Z</time>
      </trkpt>
      <trkpt lat="46.09371" lon="4.56349">
        <ele>704.6</ele>
        <time>2020-06-06T11:21:47Z</time>
      </trkpt>
      <trkpt lat="46.09372" lon="4.56341">
        <ele>704.6</ele>
        <time>2020-06-06T11:21:51Z</time>
      </trkpt>
      <trkpt lat="46.09371" lon="4.56331">
        <ele>705</ele>
        <time>2020-06-06T11:21:55Z</time>
      </trkpt>
      <trkpt lat="46.0937" lon="4.56323">
        <ele>705.8</ele>
        <time>2020-06-06T11:21:59Z</time>
      </trkpt>
      <trkpt lat="46.09368" lon="4.56314">
        <ele>706.2</ele>
        <time>2020-06-06T11:22:03Z</time>
      </trkpt>
      <trkpt lat="46.09364" lon="4.56305">
        <ele>707</ele>
        <time>2020-06-06T11:22:07Z</time>
      </trkpt>
      <trkpt lat="46.09359" lon="4.56297">
        <ele>707.8</ele>
        <time>2020-06-06T11:22:11Z</time>
      </trkpt>
      <trkpt lat="46.09353" lon="4.5629">
        <ele>708.4</ele>
        <time>2020-06-06T11:22:15Z</time>
      </trkpt>
      <trkpt lat="46.09346" lon="4.56284">
        <ele>708.8</ele>
        <time>2020-06-06T11:22:19Z</time>
      </trkpt>
      <trkpt lat="46.0934" lon="4.5628">
        <ele>709.6</ele>
        <time>2020-06-06T11:22:23Z</time>
      </trkpt>
      <trkpt lat="46.09334" lon="4.56276">
        <ele>710.4</ele>
        <time>2020-06-06T11:22:27Z</time>
      </trkpt>
      <trkpt lat="46.09327" lon="4.56272">
        <ele>711.2</ele>
        <time>2020-06-06T11:22:31Z</time>
      </trkpt>
      <trkpt lat="46.09321" lon="4.56268">
        <ele>712</ele>
        <time>2020-06-06T11:22:35Z</time>
      </trkpt>
      <trkpt lat="46.09315" lon="4.56263">
        <ele>712.4</ele>
        <time>2020-06-06T11:22:39Z</time>
      </trkpt>
      <trkpt lat="46.09308" lon="4.5626">
        <ele>713.2</ele>
        <time>2020-06-06T11:22:43Z</time>
      </trkpt>
      <trkpt lat="46.09303" lon="4.56253">
        <ele>713.8</ele>
        <time>2020-06-06T11:22:47Z</time>
      </trkpt>
      <trkpt lat="46.09297" lon="4.56247">
        <ele>714.2</ele>
        <time>2020-06-06T11:22:51Z</time>
      </trkpt>
      <trkpt lat="46.09291" lon="4.5624">
        <ele>714.8</ele>
        <time>2020-06-06T11:22:55Z</time>
      </trkpt>
      <trkpt lat="46.09286" lon="4.56232">
        <ele>715.4</ele>
        <time>2020-06-06T11:22:59Z</time>
      </trkpt>
      <trkpt lat="46.09281" lon="4.56225">
        <ele>716.2</ele>
        <time>2020-06-06T11:23:03Z</time>
      </trkpt>
      <trkpt lat="46.09276" lon="4.56217">
        <ele>716.8</ele>
        <time>2020-06-06T11:23:07Z</time>
      </trkpt>
      <trkpt lat="46.09272" lon="4.56209">
        <ele>717</ele>
        <time>2020-06-06T11:23:11Z</time>
      </trkpt>
      <trkpt lat="46.09268" lon="4.56201">
        <ele>717.4</ele>
        <time>2020-06-06T11:23:15Z</time>
      </trkpt>
      <trkpt lat="46.09264" lon="4.56193">
        <ele>718.4</ele>
        <time>2020-06-06T11:23:19Z</time>
      </trkpt>
      <trkpt lat="46.0926" lon="4.56185">
        <ele>719</ele>
        <time>2020-06-06T11:23:23Z</time>
      </trkpt>
      <trkpt lat="46.09257" lon="4.56176">
        <ele>719.4</ele>
        <time>2020-06-06T11:23:27Z</time>
      </trkpt>
      <trkpt lat="46.09254" lon="4.56168">
        <ele>720.2</ele>
        <time>2020-06-06T11:23:31Z</time>
      </trkpt>
      <trkpt lat="46.09251" lon="4.56159">
        <ele>720.4</ele>
        <time>2020-06-06T11:23:35Z</time>
      </trkpt>
      <trkpt lat="46.0925" lon="4.56153">
        <ele>721.2</ele>
        <time>2020-06-06T11:23:39Z</time>
      </trkpt>
      <trkpt lat="46.09248" lon="4.56145">
        <ele>722</ele>
        <time>2020-06-06T11:23:43Z</time>
      </trkpt>
      <trkpt lat="46.09246" lon="4.56137">
        <ele>722.6</ele>
        <time>2020-06-06T11:23:47Z</time>
      </trkpt>
      <trkpt lat="46.09244" lon="4.56128">
        <ele>723</ele>
        <time>2020-06-06T11:23:51Z</time>
      </trkpt>
      <trkpt lat="46.09241" lon="4.56119">
        <ele>723.8</ele>
        <time>2020-06-06T11:23:55Z</time>
      </trkpt>
      <trkpt lat="46.09239" lon="4.56111">
        <ele>724.2</ele>
        <time>2020-06-06T11:23:59Z</time>
      </trkpt>
      <trkpt lat="46.09237" lon="4.56101">
        <ele>725</ele>
        <time>2020-06-06T11:24:03Z</time>
      </trkpt>
      <trkpt lat="46.09234" lon="4.56092">
        <ele>725.6</ele>
        <time>2020-06-06T11:24:07Z</time>
      </trkpt>
      <trkpt lat="46.09231" lon="4.56083">
        <ele>726</ele>
        <time>2020-06-06T11:24:11Z</time>
      </trkpt>
      <trkpt lat="46.0923" lon="4.56073">
        <ele>726.2</ele>
        <time>2020-06-06T11:24:15Z</time>
      </trkpt>
      <trkpt lat="46.09227" lon="4.56063">
        <ele>727.4</ele>
        <time>2020-06-06T11:24:19Z</time>
      </trkpt>
      <trkpt lat="46.09227" lon="4.56054">
        <ele>728</ele>
        <time>2020-06-06T11:24:23Z</time>
      </trkpt>
      <trkpt lat="46.09224" lon="4.56043">
        <ele>728.2</ele>
        <time>2020-06-06T11:24:27Z</time>
      </trkpt>
      <trkpt lat="46.09221" lon="4.56034">
        <ele>728.6</ele>
        <time>2020-06-06T11:24:31Z</time>
      </trkpt>
      <trkpt lat="46.0922" lon="4.56026">
        <ele>729.2</ele>
        <time>2020-06-06T11:24:35Z</time>
      </trkpt>
      <trkpt lat="46.0922" lon="4.56015">
        <ele>730</ele>
        <time>2020-06-06T11:24:39Z</time>
      </trkpt>
      <trkpt lat="46.09217" lon="4.56005">
        <ele>730</ele>
        <time>2020-06-06T11:24:43Z</time>
      </trkpt>
      <trkpt lat="46.09214" lon="4.55995">
        <ele>731.4</ele>
        <time>2020-06-06T11:24:47Z</time>
      </trkpt>
      <trkpt lat="46.09211" lon="4.55985">
        <ele>731.8</ele>
        <time>2020-06-06T11:24:51Z</time>
      </trkpt>
      <trkpt lat="46.0921" lon="4.55976">
        <ele>732.6</ele>
        <time>2020-06-06T11:24:55Z</time>
      </trkpt>
      <trkpt lat="46.09208" lon="4.55967">
        <ele>733.2</ele>
        <time>2020-06-06T11:24:59Z</time>
      </trkpt>
      <trkpt lat="46.09206" lon="4.55957">
        <ele>733.4</ele>
        <time>2020-06-06T11:25:03Z</time>
      </trkpt>
      <trkpt lat="46.09203" lon="4.55946">
        <ele>733.8</ele>
        <time>2020-06-06T11:25:07Z</time>
      </trkpt>
      <trkpt lat="46.092" lon="4.55935">
        <ele>734.4</ele>
        <time>2020-06-06T11:25:11Z</time>
      </trkpt>
      <trkpt lat="46.09198" lon="4.55924">
        <ele>735.6</ele>
        <time>2020-06-06T11:25:15Z</time>
      </trkpt>
      <trkpt lat="46.09195" lon="4.55914">
        <ele>736.4</ele>
        <time>2020-06-06T11:25:19Z</time>
      </trkpt>
      <trkpt lat="46.09193" lon="4.55904">
        <ele>737.2</ele>
        <time>2020-06-06T11:25:23Z</time>
      </trkpt>
      <trkpt lat="46.09192" lon="4.55894">
        <ele>737.8</ele>
        <time>2020-06-06T11:25:27Z</time>
      </trkpt>
      <trkpt lat="46.09189" lon="4.55884">
        <ele>738</ele>
        <time>2020-06-06T11:25:31Z</time>
      </trkpt>
      <trkpt lat="46.09187" lon="4.55874">
        <ele>738.8</ele>
        <time>2020-06-06T11:25:35Z</time>
      </trkpt>
      <trkpt lat="46.09185" lon="4.55864">
        <ele>739.4</ele>
        <time>2020-06-06T11:25:39Z</time>
      </trkpt>
      <trkpt lat="46.09183" lon="4.55854">
        <ele>740</ele>
        <time>2020-06-06T11:25:43Z</time>
      </trkpt>
      <trkpt lat="46.09181" lon="4.55844">
        <ele>740.4</ele>
        <time>2020-06-06T11:25:47Z</time>
      </trkpt>
      <trkpt lat="46.09179" lon="4.55834">
        <ele>740.8</ele>
        <time>2020-06-06T11:25:51Z</time>
      </trkpt>
      <trkpt lat="46.09177" lon="4.55825">
        <ele>741.6</ele>
        <time>2020-06-06T11:25:55Z</time>
      </trkpt>
      <trkpt lat="46.09176" lon="4.55815">
        <ele>742.2</ele>
        <time>2020-06-06T11:25:59Z</time>
      </trkpt>
      <trkpt lat="46.09174" lon="4.55805">
        <ele>743</ele>
        <time>2020-06-06T11:26:03Z</time>
      </trkpt>
      <trkpt lat="46.09172" lon="4.55796">
        <ele>743.8</ele>
        <time>2020-06-06T11:26:07Z</time>
      </trkpt>
      <trkpt lat="46.09171" lon="4.55787">
        <ele>744.4</ele>
        <time>2020-06-06T11:26:11Z</time>
      </trkpt>
      <trkpt lat="46.09168" lon="4.55778">
        <ele>745.2</ele>
        <time>2020-06-06T11:26:15Z</time>
      </trkpt>
      <trkpt lat="46.09165" lon="4.5577">
        <ele>745.6</ele>
        <time>2020-06-06T11:26:19Z</time>
      </trkpt>
      <trkpt lat="46.09162" lon="4.55761">
        <ele>746.6</ele>
        <time>2020-06-06T11:26:23Z</time>
      </trkpt>
      <trkpt lat="46.09159" lon="4.55753">
        <ele>746.8</ele>
        <time>2020-06-06T11:26:27Z</time>
      </trkpt>
      <trkpt lat="46.09155" lon="4.55744">
        <ele>747.8</ele>
        <time>2020-06-06T11:26:31Z</time>
      </trkpt>
      <trkpt lat="46.0915" lon="4.55736">
        <ele>748.2</ele>
        <time>2020-06-06T11:26:35Z</time>
      </trkpt>
      <trkpt lat="46.09146" lon="4.55728">
        <ele>748.6</ele>
        <time>2020-06-06T11:26:39Z</time>
      </trkpt>
      <trkpt lat="46.09142" lon="4.55719">
        <ele>749.2</ele>
        <time>2020-06-06T11:26:43Z</time>
      </trkpt>
      <trkpt lat="46.09139" lon="4.55711">
        <ele>749.6</ele>
        <time>2020-06-06T11:26:47Z</time>
      </trkpt>
      <trkpt lat="46.09133" lon="4.55703">
        <ele>749.8</ele>
        <time>2020-06-06T11:26:51Z</time>
      </trkpt>
      <trkpt lat="46.09129" lon="4.55696">
        <ele>750.8</ele>
        <time>2020-06-06T11:26:55Z</time>
      </trkpt>
      <trkpt lat="46.09125" lon="4.55687">
        <ele>751.4</ele>
        <time>2020-06-06T11:26:59Z</time>
      </trkpt>
      <trkpt lat="46.09121" lon="4.55678">
        <ele>752</ele>
        <time>2020-06-06T11:27:03Z</time>
      </trkpt>
      <trkpt lat="46.09116" lon="4.5567">
        <ele>752.4</ele>
        <time>2020-06-06T11:27:07Z</time>
      </trkpt>
      <trkpt lat="46.09112" lon="4.55662">
        <ele>753</ele>
        <time>2020-06-06T11:27:11Z</time>
      </trkpt>
      <trkpt lat="46.09108" lon="4.55653">
        <ele>753.8</ele>
        <time>2020-06-06T11:27:15Z</time>
      </trkpt>
      <trkpt lat="46.09102" lon="4.55646">
        <ele>754.4</ele>
        <time>2020-06-06T11:27:19Z</time>
      </trkpt>
      <trkpt lat="46.09096" lon="4.5564">
        <ele>754.6</ele>
        <time>2020-06-06T11:27:23Z</time>
      </trkpt>
      <trkpt lat="46.0909" lon="4.55637">
        <ele>755.8</ele>
        <time>2020-06-06T11:27:27Z</time>
      </trkpt>
      <trkpt lat="46.09083" lon="4.55634">
        <ele>756.6</ele>
        <time>2020-06-06T11:27:31Z</time>
      </trkpt>
      <trkpt lat="46.09076" lon="4.55633">
        <ele>757.8</ele>
        <time>2020-06-06T11:27:35Z</time>
      </trkpt>
      <trkpt lat="46.09071" lon="4.55631">
        <ele>758</ele>
        <time>2020-06-06T11:27:39Z</time>
      </trkpt>
      <trkpt lat="46.09062" lon="4.55632">
        <ele>758.8</ele>
        <time>2020-06-06T11:27:43Z</time>
      </trkpt>
      <trkpt lat="46.09055" lon="4.55634">
        <ele>759.4</ele>
        <time>2020-06-06T11:27:47Z</time>
      </trkpt>
      <trkpt lat="46.09048" lon="4.55638">
        <ele>759.4</ele>
        <time>2020-06-06T11:27:51Z</time>
      </trkpt>
      <trkpt lat="46.09041" lon="4.55642">
        <ele>760.4</ele>
        <time>2020-06-06T11:27:55Z</time>
      </trkpt>
      <trkpt lat="46.09034" lon="4.55644">
        <ele>761</ele>
        <time>2020-06-06T11:27:59Z</time>
      </trkpt>
      <trkpt lat="46.09028" lon="4.55648">
        <ele>761.6</ele>
        <time>2020-06-06T11:28:03Z</time>
      </trkpt>
      <trkpt lat="46.09022" lon="4.55653">
        <ele>762</ele>
        <time>2020-06-06T11:28:07Z</time>
      </trkpt>
      <trkpt lat="46.09017" lon="4.55658">
        <ele>762.6</ele>
        <time>2020-06-06T11:28:11Z</time>
      </trkpt>
      <trkpt lat="46.09012" lon="4.55665">
        <ele>763.2</ele>
        <time>2020-06-06T11:28:15Z</time>
      </trkpt>
      <trkpt lat="46.09007" lon="4.55672">
        <ele>764</ele>
        <time>2020-06-06T11:28:19Z</time>
      </trkpt>
      <trkpt lat="46.09002" lon="4.55679">
        <ele>764.4</ele>
        <time>2020-06-06T11:28:23Z</time>
      </trkpt>
      <trkpt lat="46.08997" lon="4.55685">
        <ele>764.8</ele>
        <time>2020-06-06T11:28:27Z</time>
      </trkpt>
      <trkpt lat="46.08992" lon="4.55692">
        <ele>764.8</ele>
        <time>2020-06-06T11:28:31Z</time>
      </trkpt>
      <trkpt lat="46.08986" lon="4.55698">
        <ele>765.2</ele>
        <time>2020-06-06T11:28:35Z</time>
      </trkpt>
      <trkpt lat="46.08981" lon="4.55704">
        <ele>766</ele>
        <time>2020-06-06T11:28:39Z</time>
      </trkpt>
      <trkpt lat="46.08974" lon="4.55709">
        <ele>766.8</ele>
        <time>2020-06-06T11:28:43Z</time>
      </trkpt>
      <trkpt lat="46.08969" lon="4.55711">
        <ele>767.2</ele>
        <time>2020-06-06T11:28:47Z</time>
      </trkpt>
      <trkpt lat="46.0896" lon="4.55715">
        <ele>768.2</ele>
        <time>2020-06-06T11:28:51Z</time>
      </trkpt>
      <trkpt lat="46.08954" lon="4.55717">
        <ele>769</ele>
        <time>2020-06-06T11:28:55Z</time>
      </trkpt>
      <trkpt lat="46.08946" lon="4.5572">
        <ele>769.6</ele>
        <time>2020-06-06T11:28:59Z</time>
      </trkpt>
      <trkpt lat="46.08938" lon="4.55723">
        <ele>769.8</ele>
        <time>2020-06-06T11:29:03Z</time>
      </trkpt>
      <trkpt lat="46.08931" lon="4.55723">
        <ele>770.8</ele>
        <time>2020-06-06T11:29:07Z</time>
      </trkpt>
      <trkpt lat="46.08925" lon="4.55724">
        <ele>771.8</ele>
        <time>2020-06-06T11:29:11Z</time>
      </trkpt>
      <trkpt lat="46.08917" lon="4.55722">
        <ele>772.2</ele>
        <time>2020-06-06T11:29:15Z</time>
      </trkpt>
      <trkpt lat="46.0891" lon="4.55721">
        <ele>773</ele>
        <time>2020-06-06T11:29:19Z</time>
      </trkpt>
      <trkpt lat="46.08903" lon="4.55717">
        <ele>773.4</ele>
        <time>2020-06-06T11:29:23Z</time>
      </trkpt>
      <trkpt lat="46.08897" lon="4.55711">
        <ele>774.4</ele>
        <time>2020-06-06T11:29:27Z</time>
      </trkpt>
      <trkpt lat="46.08889" lon="4.55707">
        <ele>774.8</ele>
        <time>2020-06-06T11:29:31Z</time>
      </trkpt>
      <trkpt lat="46.08884" lon="4.55702">
        <ele>775.8</ele>
        <time>2020-06-06T11:29:35Z</time>
      </trkpt>
      <trkpt lat="46.08877" lon="4.55697">
        <ele>776.4</ele>
        <time>2020-06-06T11:29:39Z</time>
      </trkpt>
      <trkpt lat="46.08871" lon="4.55692">
        <ele>776.8</ele>
        <time>2020-06-06T11:29:43Z</time>
      </trkpt>
      <trkpt lat="46.08866" lon="4.55686">
        <ele>777.4</ele>
        <time>2020-06-06T11:29:47Z</time>
      </trkpt>
      <trkpt lat="46.08861" lon="4.5568">
        <ele>778</ele>
        <time>2020-06-06T11:29:51Z</time>
      </trkpt>
      <trkpt lat="46.08857" lon="4.55672">
        <ele>778.6</ele>
        <time>2020-06-06T11:29:55Z</time>
      </trkpt>
      <trkpt lat="46.08852" lon="4.55666">
        <ele>779.2</ele>
        <time>2020-06-06T11:29:59Z</time>
      </trkpt>
      <trkpt lat="46.08846" lon="4.55659">
        <ele>779.6</ele>
        <time>2020-06-06T11:30:03Z</time>
      </trkpt>
      <trkpt lat="46.08841" lon="4.55652">
        <ele>780.4</ele>
        <time>2020-06-06T11:30:07Z</time>
      </trkpt>
      <trkpt lat="46.08835" lon="4.55646">
        <ele>781</ele>
        <time>2020-06-06T11:30:11Z</time>
      </trkpt>
      <trkpt lat="46.08831" lon="4.55638">
        <ele>781.8</ele>
        <time>2020-06-06T11:30:15Z</time>
      </trkpt>
      <trkpt lat="46.08825" lon="4.55633">
        <ele>782.6</ele>
        <time>2020-06-06T11:30:19Z</time>
      </trkpt>
      <trkpt lat="46.08818" lon="4.55627">
        <ele>783</ele>
        <time>2020-06-06T11:30:23Z</time>
      </trkpt>
      <trkpt lat="46.08812" lon="4.55623">
        <ele>783.4</ele>
        <time>2020-06-06T11:30:27Z</time>
      </trkpt>
      <trkpt lat="46.08805" lon="4.5562">
        <ele>783.6</ele>
        <time>2020-06-06T11:30:31Z</time>
      </trkpt>
      <trkpt lat="46.08798" lon="4.55619">
        <ele>783.8</ele>
        <time>2020-06-06T11:30:35Z</time>
      </trkpt>
      <trkpt lat="46.08792" lon="4.55618">
        <ele>784.6</ele>
        <time>2020-06-06T11:30:39Z</time>
      </trkpt>
      <trkpt lat="46.08785" lon="4.55618">
        <ele>785.4</ele>
        <time>2020-06-06T11:30:43Z</time>
      </trkpt>
      <trkpt lat="46.08778" lon="4.55617">
        <ele>785.6</ele>
        <time>2020-06-06T11:30:47Z</time>
      </trkpt>
      <trkpt lat="46.08773" lon="4.55615">
        <ele>786</ele>
        <time>2020-06-06T11:30:51Z</time>
      </trkpt>
      <trkpt lat="46.08768" lon="4.55614">
        <ele>786.8</ele>
        <time>2020-06-06T11:30:55Z</time>
      </trkpt>
      <trkpt lat="46.0876" lon="4.55615">
        <ele>787.2</ele>
        <time>2020-06-06T11:30:59Z</time>
      </trkpt>
      <trkpt lat="46.08752" lon="4.55617">
        <ele>788</ele>
        <time>2020-06-06T11:31:03Z</time>
      </trkpt>
      <trkpt lat="46.08744" lon="4.55618">
        <ele>789</ele>
        <time>2020-06-06T11:31:07Z</time>
      </trkpt>
      <trkpt lat="46.08738" lon="4.55618">
        <ele>789</ele>
        <time>2020-06-06T11:31:11Z</time>
      </trkpt>
      <trkpt lat="46.0873" lon="4.55618">
        <ele>789.8</ele>
        <time>2020-06-06T11:31:15Z</time>
      </trkpt>
      <trkpt lat="46.08724" lon="4.55618">
        <ele>790.8</ele>
        <time>2020-06-06T11:31:19Z</time>
      </trkpt>
      <trkpt lat="46.08716" lon="4.55617">
        <ele>791</ele>
        <time>2020-06-06T11:31:23Z</time>
      </trkpt>
      <trkpt lat="46.0871" lon="4.55612">
        <ele>791.2</ele>
        <time>2020-06-06T11:31:27Z</time>
      </trkpt>
      <trkpt lat="46.08702" lon="4.55609">
        <ele>792.4</ele>
        <time>2020-06-06T11:31:31Z</time>
      </trkpt>
      <trkpt lat="46.08694" lon="4.55609">
        <ele>793.4</ele>
        <time>2020-06-06T11:31:35Z</time>
      </trkpt>
      <trkpt lat="46.08687" lon="4.55607">
        <ele>793.4</ele>
        <time>2020-06-06T11:31:39Z</time>
      </trkpt>
      <trkpt lat="46.08679" lon="4.55604">
        <ele>794.2</ele>
        <time>2020-06-06T11:31:43Z</time>
      </trkpt>
      <trkpt lat="46.08673" lon="4.55601">
        <ele>794.8</ele>
        <time>2020-06-06T11:31:47Z</time>
      </trkpt>
      <trkpt lat="46.08666" lon="4.55602">
        <ele>795</ele>
        <time>2020-06-06T11:31:51Z</time>
      </trkpt>
      <trkpt lat="46.0866" lon="4.556">
        <ele>795.8</ele>
        <time>2020-06-06T11:31:55Z</time>
      </trkpt>
      <trkpt lat="46.08654" lon="4.556">
        <ele>796.2</ele>
        <time>2020-06-06T11:31:59Z</time>
      </trkpt>
      <trkpt lat="46.08647" lon="4.556">
        <ele>796.6</ele>
        <time>2020-06-06T11:32:03Z</time>
      </trkpt>
      <trkpt lat="46.08641" lon="4.55598">
        <ele>797.4</ele>
        <time>2020-06-06T11:32:07Z</time>
      </trkpt>
      <trkpt lat="46.08634" lon="4.55597">
        <ele>797.8</ele>
        <time>2020-06-06T11:32:11Z</time>
      </trkpt>
      <trkpt lat="46.08627" lon="4.55597">
        <ele>798.6</ele>
        <time>2020-06-06T11:32:15Z</time>
      </trkpt>
      <trkpt lat="46.0862" lon="4.55596">
        <ele>798.8</ele>
        <time>2020-06-06T11:32:19Z</time>
      </trkpt>
      <trkpt lat="46.08613" lon="4.55593">
        <ele>800</ele>
        <time>2020-06-06T11:32:23Z</time>
      </trkpt>
      <trkpt lat="46.08606" lon="4.55592">
        <ele>800.4</ele>
        <time>2020-06-06T11:32:27Z</time>
      </trkpt>
      <trkpt lat="46.08601" lon="4.55587">
        <ele>801.2</ele>
        <time>2020-06-06T11:32:31Z</time>
      </trkpt>
      <trkpt lat="46.08595" lon="4.55584">
        <ele>801.8</ele>
        <time>2020-06-06T11:32:35Z</time>
      </trkpt>
      <trkpt lat="46.08589" lon="4.5558">
        <ele>802.2</ele>
        <time>2020-06-06T11:32:39Z</time>
      </trkpt>
      <trkpt lat="46.08584" lon="4.55575">
        <ele>803.2</ele>
        <time>2020-06-06T11:32:43Z</time>
      </trkpt>
      <trkpt lat="46.08579" lon="4.55569">
        <ele>804</ele>
        <time>2020-06-06T11:32:47Z</time>
      </trkpt>
      <trkpt lat="46.08573" lon="4.55566">
        <ele>804.4</ele>
        <time>2020-06-06T11:32:51Z</time>
      </trkpt>
      <trkpt lat="46.08556" lon="4.55562">
        <ele>804.6</ele>
        <time>2020-06-06T11:33:22Z</time>
      </trkpt>
      <trkpt lat="46.08547" lon="4.55567">
        <ele>805.8</ele>
        <time>2020-06-06T11:33:26Z</time>
      </trkpt>
      <trkpt lat="46.08539" lon="4.55571">
        <ele>806.4</ele>
        <time>2020-06-06T11:33:30Z</time>
      </trkpt>
      <trkpt lat="46.08532" lon="4.55577">
        <ele>807</ele>
        <time>2020-06-06T11:33:34Z</time>
      </trkpt>
      <trkpt lat="46.08525" lon="4.55583">
        <ele>807.8</ele>
        <time>2020-06-06T11:33:38Z</time>
      </trkpt>
      <trkpt lat="46.08519" lon="4.55587">
        <ele>808</ele>
        <time>2020-06-06T11:33:42Z</time>
      </trkpt>
      <trkpt lat="46.08514" lon="4.55594">
        <ele>809</ele>
        <time>2020-06-06T11:33:46Z</time>
      </trkpt>
      <trkpt lat="46.08508" lon="4.55604">
        <ele>809.4</ele>
        <time>2020-06-06T11:33:50Z</time>
      </trkpt>
      <trkpt lat="46.08502" lon="4.55613">
        <ele>810.2</ele>
        <time>2020-06-06T11:33:54Z</time>
      </trkpt>
      <trkpt lat="46.08498" lon="4.55623">
        <ele>811</ele>
        <time>2020-06-06T11:33:58Z</time>
      </trkpt>
      <trkpt lat="46.08494" lon="4.55632">
        <ele>811.6</ele>
        <time>2020-06-06T11:34:02Z</time>
      </trkpt>
      <trkpt lat="46.0849" lon="4.55641">
        <ele>812.6</ele>
        <time>2020-06-06T11:34:06Z</time>
      </trkpt>
      <trkpt lat="46.08486" lon="4.5565">
        <ele>813.2</ele>
        <time>2020-06-06T11:34:10Z</time>
      </trkpt>
      <trkpt lat="46.08483" lon="4.55658">
        <ele>813.6</ele>
        <time>2020-06-06T11:34:14Z</time>
      </trkpt>
      <trkpt lat="46.0848" lon="4.55666">
        <ele>814.6</ele>
        <time>2020-06-06T11:34:18Z</time>
      </trkpt>
      <trkpt lat="46.08479" lon="4.55674">
        <ele>814.8</ele>
        <time>2020-06-06T11:34:22Z</time>
      </trkpt>
      <trkpt lat="46.08479" lon="4.55685">
        <ele>815.6</ele>
        <time>2020-06-06T11:34:26Z</time>
      </trkpt>
      <trkpt lat="46.08478" lon="4.55697">
        <ele>815.8</ele>
        <time>2020-06-06T11:34:30Z</time>
      </trkpt>
      <trkpt lat="46.08476" lon="4.55707">
        <ele>817</ele>
        <time>2020-06-06T11:34:34Z</time>
      </trkpt>
      <trkpt lat="46.08476" lon="4.55718">
        <ele>817.2</ele>
        <time>2020-06-06T11:34:38Z</time>
      </trkpt>
      <trkpt lat="46.08476" lon="4.55729">
        <ele>818</ele>
        <time>2020-06-06T11:34:42Z</time>
      </trkpt>
      <trkpt lat="46.08475" lon="4.55738">
        <ele>818.6</ele>
        <time>2020-06-06T11:34:46Z</time>
      </trkpt>
      <trkpt lat="46.08474" lon="4.55749">
        <ele>818.4</ele>
        <time>2020-06-06T11:34:50Z</time>
      </trkpt>
      <trkpt lat="46.08472" lon="4.55758">
        <ele>819.8</ele>
        <time>2020-06-06T11:34:54Z</time>
      </trkpt>
      <trkpt lat="46.08472" lon="4.55771">
        <ele>820.2</ele>
        <time>2020-06-06T11:34:58Z</time>
      </trkpt>
      <trkpt lat="46.08473" lon="4.55783">
        <ele>821</ele>
        <time>2020-06-06T11:35:02Z</time>
      </trkpt>
      <trkpt lat="46.08473" lon="4.55796">
        <ele>821</ele>
        <time>2020-06-06T11:35:06Z</time>
      </trkpt>
      <trkpt lat="46.08473" lon="4.55808">
        <ele>821.8</ele>
        <time>2020-06-06T11:35:10Z</time>
      </trkpt>
      <trkpt lat="46.08471" lon="4.5582">
        <ele>822.4</ele>
        <time>2020-06-06T11:35:14Z</time>
      </trkpt>
      <trkpt lat="46.08474" lon="4.55832">
        <ele>823</ele>
        <time>2020-06-06T11:35:18Z</time>
      </trkpt>
      <trkpt lat="46.08474" lon="4.55842">
        <ele>823.6</ele>
        <time>2020-06-06T11:35:22Z</time>
      </trkpt>
      <trkpt lat="46.08477" lon="4.55852">
        <ele>824.6</ele>
        <time>2020-06-06T11:35:26Z</time>
      </trkpt>
      <trkpt lat="46.08479" lon="4.55862">
        <ele>825</ele>
        <time>2020-06-06T11:35:30Z</time>
      </trkpt>
      <trkpt lat="46.08484" lon="4.55872">
        <ele>825.6</ele>
        <time>2020-06-06T11:35:34Z</time>
      </trkpt>
      <trkpt lat="46.08484" lon="4.55883">
        <ele>826.4</ele>
        <time>2020-06-06T11:35:38Z</time>
      </trkpt>
      <trkpt lat="46.08485" lon="4.55892">
        <ele>826.8</ele>
        <time>2020-06-06T11:35:42Z</time>
      </trkpt>
      <trkpt lat="46.08486" lon="4.55899">
        <ele>827.8</ele>
        <time>2020-06-06T11:35:46Z</time>
      </trkpt>
      <trkpt lat="46.08487" lon="4.55908">
        <ele>828.2</ele>
        <time>2020-06-06T11:35:50Z</time>
      </trkpt>
      <trkpt lat="46.08489" lon="4.5592">
        <ele>828.8</ele>
        <time>2020-06-06T11:35:54Z</time>
      </trkpt>
      <trkpt lat="46.0849" lon="4.55931">
        <ele>829.2</ele>
        <time>2020-06-06T11:35:58Z</time>
      </trkpt>
      <trkpt lat="46.08491" lon="4.55941">
        <ele>829.8</ele>
        <time>2020-06-06T11:36:02Z</time>
      </trkpt>
      <trkpt lat="46.0849" lon="4.55953">
        <ele>830.8</ele>
        <time>2020-06-06T11:36:06Z</time>
      </trkpt>
      <trkpt lat="46.08489" lon="4.55964">
        <ele>830.8</ele>
        <time>2020-06-06T11:36:10Z</time>
      </trkpt>
      <trkpt lat="46.08488" lon="4.55974">
        <ele>831</ele>
        <time>2020-06-06T11:36:14Z</time>
      </trkpt>
      <trkpt lat="46.08488" lon="4.55986">
        <ele>831.6</ele>
        <time>2020-06-06T11:36:18Z</time>
      </trkpt>
      <trkpt lat="46.08489" lon="4.55998">
        <ele>832.8</ele>
        <time>2020-06-06T11:36:22Z</time>
      </trkpt>
      <trkpt lat="46.0849" lon="4.56005">
        <ele>833.8</ele>
        <time>2020-06-06T11:36:26Z</time>
      </trkpt>
      <trkpt lat="46.08488" lon="4.56012">
        <ele>834.4</ele>
        <time>2020-06-06T11:36:30Z</time>
      </trkpt>
      <trkpt lat="46.08482" lon="4.56013">
        <ele>834.8</ele>
        <time>2020-06-06T11:36:34Z</time>
      </trkpt>
      <trkpt lat="46.08482" lon="4.56006">
        <ele>835.4</ele>
        <time>2020-06-06T11:36:38Z</time>
      </trkpt>
      <trkpt lat="46.08482" lon="4.56">
        <ele>835.6</ele>
        <time>2020-06-06T11:36:42Z</time>
      </trkpt>
      <trkpt lat="46.08481" lon="4.55991">
        <ele>836.2</ele>
        <time>2020-06-06T11:36:46Z</time>
      </trkpt>
      <trkpt lat="46.08482" lon="4.55984">
        <ele>836.6</ele>
        <time>2020-06-06T11:36:50Z</time>
      </trkpt>
      <trkpt lat="46.08482" lon="4.55976">
        <ele>837</ele>
        <time>2020-06-06T11:36:54Z</time>
      </trkpt>
      <trkpt lat="46.08481" lon="4.55966">
        <ele>837.8</ele>
        <time>2020-06-06T11:36:58Z</time>
      </trkpt>
      <trkpt lat="46.08479" lon="4.55957">
        <ele>838.6</ele>
        <time>2020-06-06T11:37:02Z</time>
      </trkpt>
      <trkpt lat="46.08476" lon="4.55947">
        <ele>839.2</ele>
        <time>2020-06-06T11:37:06Z</time>
      </trkpt>
      <trkpt lat="46.08473" lon="4.55937">
        <ele>840</ele>
        <time>2020-06-06T11:37:10Z</time>
      </trkpt>
      <trkpt lat="46.08469" lon="4.5593">
        <ele>840.6</ele>
        <time>2020-06-06T11:37:14Z</time>
      </trkpt>
      <trkpt lat="46.08466" lon="4.55918">
        <ele>841.4</ele>
        <time>2020-06-06T11:37:18Z</time>
      </trkpt>
      <trkpt lat="46.08462" lon="4.55909">
        <ele>842.4</ele>
        <time>2020-06-06T11:37:22Z</time>
      </trkpt>
      <trkpt lat="46.08458" lon="4.55902">
        <ele>842.4</ele>
        <time>2020-06-06T11:37:26Z</time>
      </trkpt>
      <trkpt lat="46.08455" lon="4.55894">
        <ele>843</ele>
        <time>2020-06-06T11:37:30Z</time>
      </trkpt>
      <trkpt lat="46.08451" lon="4.55887">
        <ele>844.2</ele>
        <time>2020-06-06T11:37:34Z</time>
      </trkpt>
      <trkpt lat="46.08447" lon="4.55879">
        <ele>844.4</ele>
        <time>2020-06-06T11:37:38Z</time>
      </trkpt>
      <trkpt lat="46.08442" lon="4.55871">
        <ele>845.2</ele>
        <time>2020-06-06T11:37:42Z</time>
      </trkpt>
      <trkpt lat="46.08438" lon="4.55862">
        <ele>845.8</ele>
        <time>2020-06-06T11:37:46Z</time>
      </trkpt>
      <trkpt lat="46.08434" lon="4.55851">
        <ele>846.8</ele>
        <time>2020-06-06T11:37:50Z</time>
      </trkpt>
      <trkpt lat="46.0843" lon="4.55843">
        <ele>847.2</ele>
        <time>2020-06-06T11:37:54Z</time>
      </trkpt>
      <trkpt lat="46.08425" lon="4.55833">
        <ele>847.4</ele>
        <time>2020-06-06T11:37:58Z</time>
      </trkpt>
      <trkpt lat="46.08421" lon="4.55825">
        <ele>848.4</ele>
        <time>2020-06-06T11:38:02Z</time>
      </trkpt>
      <trkpt lat="46.08417" lon="4.55816">
        <ele>849</ele>
        <time>2020-06-06T11:38:06Z</time>
      </trkpt>
      <trkpt lat="46.08412" lon="4.55806">
        <ele>849.6</ele>
        <time>2020-06-06T11:38:10Z</time>
      </trkpt>
      <trkpt lat="46.08407" lon="4.55795">
        <ele>850</ele>
        <time>2020-06-06T11:38:14Z</time>
      </trkpt>
      <trkpt lat="46.08403" lon="4.55786">
        <ele>851.4</ele>
        <time>2020-06-06T11:38:18Z</time>
      </trkpt>
      <trkpt lat="46.08398" lon="4.55775">
        <ele>852</ele>
        <time>2020-06-06T11:38:22Z</time>
      </trkpt>
      <trkpt lat="46.08394" lon="4.55764">
        <ele>852.2</ele>
        <time>2020-06-06T11:38:26Z</time>
      </trkpt>
      <trkpt lat="46.08389" lon="4.55754">
        <ele>853.6</ele>
        <time>2020-06-06T11:38:30Z</time>
      </trkpt>
      <trkpt lat="46.08384" lon="4.55744">
        <ele>854.2</ele>
        <time>2020-06-06T11:38:34Z</time>
      </trkpt>
      <trkpt lat="46.08379" lon="4.55734">
        <ele>854.2</ele>
        <time>2020-06-06T11:38:38Z</time>
      </trkpt>
      <trkpt lat="46.08374" lon="4.55723">
        <ele>854.4</ele>
        <time>2020-06-06T11:38:42Z</time>
      </trkpt>
      <trkpt lat="46.08367" lon="4.55714">
        <ele>854.6</ele>
        <time>2020-06-06T11:38:46Z</time>
      </trkpt>
      <trkpt lat="46.08362" lon="4.55706">
        <ele>856</ele>
        <time>2020-06-06T11:38:50Z</time>
      </trkpt>
      <trkpt lat="46.08356" lon="4.55698">
        <ele>856.8</ele>
        <time>2020-06-06T11:38:54Z</time>
      </trkpt>
      <trkpt lat="46.0835" lon="4.55692">
        <ele>857.6</ele>
        <time>2020-06-06T11:38:58Z</time>
      </trkpt>
      <trkpt lat="46.08346" lon="4.55685">
        <ele>858</ele>
        <time>2020-06-06T11:39:02Z</time>
      </trkpt>
      <trkpt lat="46.08343" lon="4.55678">
        <ele>858.4</ele>
        <time>2020-06-06T11:39:06Z</time>
      </trkpt>
      <trkpt lat="46.08334" lon="4.55668">
        <ele>856.6</ele>
        <time>2020-06-06T11:40:25Z</time>
      </trkpt>
      <trkpt lat="46.08328" lon="4.55657">
        <ele>857.8</ele>
        <time>2020-06-06T11:40:29Z</time>
      </trkpt>
      <trkpt lat="46.08323" lon="4.55645">
        <ele>857.8</ele>
        <time>2020-06-06T11:40:33Z</time>
      </trkpt>
      <trkpt lat="46.08318" lon="4.55631">
        <ele>857.4</ele>
        <time>2020-06-06T11:40:37Z</time>
      </trkpt>
      <trkpt lat="46.08314" lon="4.55618">
        <ele>857.4</ele>
        <time>2020-06-06T11:40:41Z</time>
      </trkpt>
      <trkpt lat="46.0831" lon="4.55601">
        <ele>857.8</ele>
        <time>2020-06-06T11:40:45Z</time>
      </trkpt>
      <trkpt lat="46.08308" lon="4.55585">
        <ele>857.8</ele>
        <time>2020-06-06T11:40:49Z</time>
      </trkpt>
      <trkpt lat="46.08307" lon="4.5557">
        <ele>858</ele>
        <time>2020-06-06T11:40:53Z</time>
      </trkpt>
      <trkpt lat="46.08306" lon="4.55553">
        <ele>858.2</ele>
        <time>2020-06-06T11:40:57Z</time>
      </trkpt>
      <trkpt lat="46.08304" lon="4.55535">
        <ele>858.2</ele>
        <time>2020-06-06T11:41:01Z</time>
      </trkpt>
      <trkpt lat="46.08305" lon="4.55515">
        <ele>858.8</ele>
        <time>2020-06-06T11:41:05Z</time>
      </trkpt>
      <trkpt lat="46.08307" lon="4.55494">
        <ele>859.4</ele>
        <time>2020-06-06T11:41:09Z</time>
      </trkpt>
      <trkpt lat="46.08313" lon="4.55478">
        <ele>859.6</ele>
        <time>2020-06-06T11:41:13Z</time>
      </trkpt>
      <trkpt lat="46.08315" lon="4.55459">
        <ele>859.8</ele>
        <time>2020-06-06T11:41:17Z</time>
      </trkpt>
      <trkpt lat="46.08316" lon="4.5544">
        <ele>860.4</ele>
        <time>2020-06-06T11:41:21Z</time>
      </trkpt>
      <trkpt lat="46.08318" lon="4.5542">
        <ele>860.2</ele>
        <time>2020-06-06T11:41:25Z</time>
      </trkpt>
      <trkpt lat="46.08321" lon="4.554">
        <ele>859.8</ele>
        <time>2020-06-06T11:41:29Z</time>
      </trkpt>
      <trkpt lat="46.08323" lon="4.55378">
        <ele>859.4</ele>
        <time>2020-06-06T11:41:33Z</time>
      </trkpt>
      <trkpt lat="46.08326" lon="4.55356">
        <ele>860.2</ele>
        <time>2020-06-06T11:41:37Z</time>
      </trkpt>
      <trkpt lat="46.08328" lon="4.55335">
        <ele>860</ele>
        <time>2020-06-06T11:41:41Z</time>
      </trkpt>
      <trkpt lat="46.0833" lon="4.55315">
        <ele>860.2</ele>
        <time>2020-06-06T11:41:45Z</time>
      </trkpt>
      <trkpt lat="46.08332" lon="4.55295">
        <ele>860.2</ele>
        <time>2020-06-06T11:41:49Z</time>
      </trkpt>
      <trkpt lat="46.08333" lon="4.55273">
        <ele>861.2</ele>
        <time>2020-06-06T11:41:53Z</time>
      </trkpt>
      <trkpt lat="46.08332" lon="4.55251">
        <ele>861.4</ele>
        <time>2020-06-06T11:41:57Z</time>
      </trkpt>
      <trkpt lat="46.08332" lon="4.5523">
        <ele>861.8</ele>
        <time>2020-06-06T11:42:01Z</time>
      </trkpt>
      <trkpt lat="46.08331" lon="4.55209">
        <ele>861.6</ele>
        <time>2020-06-06T11:42:05Z</time>
      </trkpt>
      <trkpt lat="46.08328" lon="4.55186">
        <ele>861.6</ele>
        <time>2020-06-06T11:42:09Z</time>
      </trkpt>
      <trkpt lat="46.08322" lon="4.55163">
        <ele>861.2</ele>
        <time>2020-06-06T11:42:13Z</time>
      </trkpt>
      <trkpt lat="46.08315" lon="4.55141">
        <ele>861.2</ele>
        <time>2020-06-06T11:42:17Z</time>
      </trkpt>
      <trkpt lat="46.08305" lon="4.55121">
        <ele>861</ele>
        <time>2020-06-06T11:42:21Z</time>
      </trkpt>
      <trkpt lat="46.08291" lon="4.55104">
        <ele>860.8</ele>
        <time>2020-06-06T11:42:25Z</time>
      </trkpt>
      <trkpt lat="46.08279" lon="4.55085">
        <ele>860.2</ele>
        <time>2020-06-06T11:42:29Z</time>
      </trkpt>
      <trkpt lat="46.08268" lon="4.55069">
        <ele>861</ele>
        <time>2020-06-06T11:42:33Z</time>
      </trkpt>
      <trkpt lat="46.08255" lon="4.55057">
        <ele>861</ele>
        <time>2020-06-06T11:42:37Z</time>
      </trkpt>
      <trkpt lat="46.08241" lon="4.55043">
        <ele>861.2</ele>
        <time>2020-06-06T11:42:41Z</time>
      </trkpt>
      <trkpt lat="46.08223" lon="4.55033">
        <ele>861.6</ele>
        <time>2020-06-06T11:42:45Z</time>
      </trkpt>
      <trkpt lat="46.08207" lon="4.55024">
        <ele>861.6</ele>
        <time>2020-06-06T11:42:49Z</time>
      </trkpt>
      <trkpt lat="46.08189" lon="4.55014">
        <ele>861.8</ele>
        <time>2020-06-06T11:42:53Z</time>
      </trkpt>
      <trkpt lat="46.08174" lon="4.55003">
        <ele>862.2</ele>
        <time>2020-06-06T11:42:57Z</time>
      </trkpt>
      <trkpt lat="46.08158" lon="4.54994">
        <ele>863</ele>
        <time>2020-06-06T11:43:01Z</time>
      </trkpt>
      <trkpt lat="46.08142" lon="4.54988">
        <ele>863</ele>
        <time>2020-06-06T11:43:05Z</time>
      </trkpt>
      <trkpt lat="46.08123" lon="4.54983">
        <ele>862.6</ele>
        <time>2020-06-06T11:43:09Z</time>
      </trkpt>
      <trkpt lat="46.08107" lon="4.54983">
        <ele>863.6</ele>
        <time>2020-06-06T11:43:13Z</time>
      </trkpt>
      <trkpt lat="46.08093" lon="4.54984">
        <ele>864</ele>
        <time>2020-06-06T11:43:17Z</time>
      </trkpt>
      <trkpt lat="46.0808" lon="4.54986">
        <ele>864.4</ele>
        <time>2020-06-06T11:43:21Z</time>
      </trkpt>
      <trkpt lat="46.08069" lon="4.54982">
        <ele>864.8</ele>
        <time>2020-06-06T11:43:25Z</time>
      </trkpt>
      <trkpt lat="46.08059" lon="4.54974">
        <ele>865.6</ele>
        <time>2020-06-06T11:43:29Z</time>
      </trkpt>
      <trkpt lat="46.08051" lon="4.54965">
        <ele>866.2</ele>
        <time>2020-06-06T11:43:33Z</time>
      </trkpt>
      <trkpt lat="46.08042" lon="4.54957">
        <ele>867.2</ele>
        <time>2020-06-06T11:43:37Z</time>
      </trkpt>
      <trkpt lat="46.08034" lon="4.54944">
        <ele>867.8</ele>
        <time>2020-06-06T11:43:41Z</time>
      </trkpt>
      <trkpt lat="46.08026" lon="4.54932">
        <ele>867.8</ele>
        <time>2020-06-06T11:43:45Z</time>
      </trkpt>
      <trkpt lat="46.08019" lon="4.54918">
        <ele>868.6</ele>
        <time>2020-06-06T11:43:49Z</time>
      </trkpt>
      <trkpt lat="46.08013" lon="4.54905">
        <ele>868.6</ele>
        <time>2020-06-06T11:43:53Z</time>
      </trkpt>
      <trkpt lat="46.08011" lon="4.54891">
        <ele>869.6</ele>
        <time>2020-06-06T11:43:57Z</time>
      </trkpt>
      <trkpt lat="46.08011" lon="4.54881">
        <ele>870.2</ele>
        <time>2020-06-06T11:44:01Z</time>
      </trkpt>
      <trkpt lat="46.08006" lon="4.54889">
        <ele>870.6</ele>
        <time>2020-06-06T11:47:47Z</time>
      </trkpt>
      <trkpt lat="46.0801" lon="4.54909">
        <ele>869.8</ele>
        <time>2020-06-06T11:47:51Z</time>
      </trkpt>
      <trkpt lat="46.08019" lon="4.54931">
        <ele>868.4</ele>
        <time>2020-06-06T11:47:55Z</time>
      </trkpt>
      <trkpt lat="46.0803" lon="4.54953">
        <ele>867</ele>
        <time>2020-06-06T11:47:59Z</time>
      </trkpt>
      <trkpt lat="46.08047" lon="4.54971">
        <ele>866.6</ele>
        <time>2020-06-06T11:48:03Z</time>
      </trkpt>
      <trkpt lat="46.08053" lon="4.54987">
        <ele>864</ele>
        <time>2020-06-06T11:48:07Z</time>
      </trkpt>
      <trkpt lat="46.0804" lon="4.54987">
        <ele>862.4</ele>
        <time>2020-06-06T11:48:11Z</time>
      </trkpt>
      <trkpt lat="46.08023" lon="4.54971">
        <ele>860.8</ele>
        <time>2020-06-06T11:48:15Z</time>
      </trkpt>
      <trkpt lat="46.08002" lon="4.54953">
        <ele>857.6</ele>
        <time>2020-06-06T11:48:19Z</time>
      </trkpt>
      <trkpt lat="46.07975" lon="4.54941">
        <ele>854</ele>
        <time>2020-06-06T11:48:23Z</time>
      </trkpt>
      <trkpt lat="46.07941" lon="4.54936">
        <ele>850.6</ele>
        <time>2020-06-06T11:48:27Z</time>
      </trkpt>
      <trkpt lat="46.07901" lon="4.54937">
        <ele>846.4</ele>
        <time>2020-06-06T11:48:31Z</time>
      </trkpt>
      <trkpt lat="46.07858" lon="4.54941">
        <ele>842.4</ele>
        <time>2020-06-06T11:48:35Z</time>
      </trkpt>
      <trkpt lat="46.07813" lon="4.54952">
        <ele>838.6</ele>
        <time>2020-06-06T11:48:39Z</time>
      </trkpt>
      <trkpt lat="46.07771" lon="4.54953">
        <ele>833.4</ele>
        <time>2020-06-06T11:48:43Z</time>
      </trkpt>
      <trkpt lat="46.07725" lon="4.54959">
        <ele>828.4</ele>
        <time>2020-06-06T11:48:47Z</time>
      </trkpt>
      <trkpt lat="46.07679" lon="4.54971">
        <ele>825</ele>
        <time>2020-06-06T11:48:51Z</time>
      </trkpt>
      <trkpt lat="46.07633" lon="4.54981">
        <ele>823</ele>
        <time>2020-06-06T11:48:55Z</time>
      </trkpt>
      <trkpt lat="46.07595" lon="4.54991">
        <ele>822.6</ele>
        <time>2020-06-06T11:48:59Z</time>
      </trkpt>
      <trkpt lat="46.07577" lon="4.55011">
        <ele>821.8</ele>
        <time>2020-06-06T11:49:03Z</time>
      </trkpt>
      <trkpt lat="46.07588" lon="4.55021">
        <ele>818.8</ele>
        <time>2020-06-06T11:49:07Z</time>
      </trkpt>
      <trkpt lat="46.07606" lon="4.55021">
        <ele>816.4</ele>
        <time>2020-06-06T11:49:11Z</time>
      </trkpt>
      <trkpt lat="46.07628" lon="4.55024">
        <ele>813</ele>
        <time>2020-06-06T11:49:15Z</time>
      </trkpt>
      <trkpt lat="46.0766" lon="4.55032">
        <ele>810</ele>
        <time>2020-06-06T11:49:19Z</time>
      </trkpt>
      <trkpt lat="46.07695" lon="4.55048">
        <ele>807.8</ele>
        <time>2020-06-06T11:49:23Z</time>
      </trkpt>
      <trkpt lat="46.0773" lon="4.55066">
        <ele>807.8</ele>
        <time>2020-06-06T11:49:27Z</time>
      </trkpt>
      <trkpt lat="46.07749" lon="4.55086">
        <ele>805.2</ele>
        <time>2020-06-06T11:49:31Z</time>
      </trkpt>
      <trkpt lat="46.07733" lon="4.55098">
        <ele>802.4</ele>
        <time>2020-06-06T11:49:35Z</time>
      </trkpt>
      <trkpt lat="46.07708" lon="4.55095">
        <ele>800</ele>
        <time>2020-06-06T11:49:39Z</time>
      </trkpt>
      <trkpt lat="46.07676" lon="4.55094">
        <ele>796.2</ele>
        <time>2020-06-06T11:49:43Z</time>
      </trkpt>
      <trkpt lat="46.07639" lon="4.55097">
        <ele>794</ele>
        <time>2020-06-06T11:49:47Z</time>
      </trkpt>
      <trkpt lat="46.076" lon="4.5512">
        <ele>791.4</ele>
        <time>2020-06-06T11:49:51Z</time>
      </trkpt>
      <trkpt lat="46.07566" lon="4.55155">
        <ele>788.6</ele>
        <time>2020-06-06T11:49:55Z</time>
      </trkpt>
      <trkpt lat="46.07532" lon="4.55191">
        <ele>784.2</ele>
        <time>2020-06-06T11:49:59Z</time>
      </trkpt>
      <trkpt lat="46.075" lon="4.55233">
        <ele>783.2</ele>
        <time>2020-06-06T11:50:03Z</time>
      </trkpt>
      <trkpt lat="46.07469" lon="4.55271">
        <ele>778.2</ele>
        <time>2020-06-06T11:50:07Z</time>
      </trkpt>
      <trkpt lat="46.07431" lon="4.553">
        <ele>775.4</ele>
        <time>2020-06-06T11:50:11Z</time>
      </trkpt>
      <trkpt lat="46.07387" lon="4.55325">
        <ele>772</ele>
        <time>2020-06-06T11:50:15Z</time>
      </trkpt>
      <trkpt lat="46.07342" lon="4.55339">
        <ele>768.8</ele>
        <time>2020-06-06T11:50:19Z</time>
      </trkpt>
      <trkpt lat="46.073" lon="4.55386">
        <ele>766.4</ele>
        <time>2020-06-06T11:50:23Z</time>
      </trkpt>
      <trkpt lat="46.07265" lon="4.5543">
        <ele>763</ele>
        <time>2020-06-06T11:50:27Z</time>
      </trkpt>
      <trkpt lat="46.07229" lon="4.55467">
        <ele>759.4</ele>
        <time>2020-06-06T11:50:31Z</time>
      </trkpt>
      <trkpt lat="46.07192" lon="4.55507">
        <ele>755</ele>
        <time>2020-06-06T11:50:35Z</time>
      </trkpt>
      <trkpt lat="46.0716" lon="4.55556">
        <ele>754</ele>
        <time>2020-06-06T11:50:39Z</time>
      </trkpt>
      <trkpt lat="46.07132" lon="4.55603">
        <ele>751.4</ele>
        <time>2020-06-06T11:50:43Z</time>
      </trkpt>
      <trkpt lat="46.07101" lon="4.55641">
        <ele>750</ele>
        <time>2020-06-06T11:50:47Z</time>
      </trkpt>
      <trkpt lat="46.07069" lon="4.5567">
        <ele>749.6</ele>
        <time>2020-06-06T11:50:51Z</time>
      </trkpt>
      <trkpt lat="46.07046" lon="4.55694">
        <ele>747.4</ele>
        <time>2020-06-06T11:50:55Z</time>
      </trkpt>
      <trkpt lat="46.07029" lon="4.55693">
        <ele>749.4</ele>
        <time>2020-06-06T11:50:59Z</time>
      </trkpt>
      <trkpt lat="46.07023" lon="4.55686">
        <ele>750.4</ele>
        <time>2020-06-06T11:51:03Z</time>
      </trkpt>
      <trkpt lat="46.0702" lon="4.55678">
        <ele>751.2</ele>
        <time>2020-06-06T11:51:07Z</time>
      </trkpt>
      <trkpt lat="46.07018" lon="4.5567">
        <ele>752.6</ele>
        <time>2020-06-06T11:51:11Z</time>
      </trkpt>
      <trkpt lat="46.07015" lon="4.55662">
        <ele>753.2</ele>
        <time>2020-06-06T11:51:15Z</time>
      </trkpt>
      <trkpt lat="46.07013" lon="4.55654">
        <ele>754</ele>
        <time>2020-06-06T11:51:19Z</time>
      </trkpt>
      <trkpt lat="46.07011" lon="4.55645">
        <ele>754.2</ele>
        <time>2020-06-06T11:51:23Z</time>
      </trkpt>
      <trkpt lat="46.0701" lon="4.55636">
        <ele>755</ele>
        <time>2020-06-06T11:51:27Z</time>
      </trkpt>
      <trkpt lat="46.07008" lon="4.55627">
        <ele>755.6</ele>
        <time>2020-06-06T11:51:31Z</time>
      </trkpt>
      <trkpt lat="46.07005" lon="4.55619">
        <ele>755.6</ele>
        <time>2020-06-06T11:51:35Z</time>
      </trkpt>
      <trkpt lat="46.07003" lon="4.5561">
        <ele>756.6</ele>
        <time>2020-06-06T11:51:39Z</time>
      </trkpt>
      <trkpt lat="46.07001" lon="4.55601">
        <ele>756.8</ele>
        <time>2020-06-06T11:51:43Z</time>
      </trkpt>
      <trkpt lat="46.06998" lon="4.55593">
        <ele>758</ele>
        <time>2020-06-06T11:51:47Z</time>
      </trkpt>
      <trkpt lat="46.06995" lon="4.55585">
        <ele>758.2</ele>
        <time>2020-06-06T11:51:51Z</time>
      </trkpt>
      <trkpt lat="46.06991" lon="4.55577">
        <ele>759</ele>
        <time>2020-06-06T11:51:55Z</time>
      </trkpt>
      <trkpt lat="46.06986" lon="4.5557">
        <ele>759.6</ele>
        <time>2020-06-06T11:51:59Z</time>
      </trkpt>
      <trkpt lat="46.06981" lon="4.55562">
        <ele>760.2</ele>
        <time>2020-06-06T11:52:03Z</time>
      </trkpt>
      <trkpt lat="46.06976" lon="4.55555">
        <ele>760.8</ele>
        <time>2020-06-06T11:52:07Z</time>
      </trkpt>
      <trkpt lat="46.06971" lon="4.55548">
        <ele>761.4</ele>
        <time>2020-06-06T11:52:11Z</time>
      </trkpt>
      <trkpt lat="46.06966" lon="4.55541">
        <ele>762.8</ele>
        <time>2020-06-06T11:52:15Z</time>
      </trkpt>
      <trkpt lat="46.06961" lon="4.55533">
        <ele>762.2</ele>
        <time>2020-06-06T11:52:19Z</time>
      </trkpt>
      <trkpt lat="46.06956" lon="4.55524">
        <ele>762.4</ele>
        <time>2020-06-06T11:52:23Z</time>
      </trkpt>
      <trkpt lat="46.06952" lon="4.55516">
        <ele>763.2</ele>
        <time>2020-06-06T11:52:27Z</time>
      </trkpt>
      <trkpt lat="46.06949" lon="4.55508">
        <ele>764.2</ele>
        <time>2020-06-06T11:52:31Z</time>
      </trkpt>
      <trkpt lat="46.06946" lon="4.55498">
        <ele>764.8</ele>
        <time>2020-06-06T11:52:35Z</time>
      </trkpt>
      <trkpt lat="46.06943" lon="4.55488">
        <ele>764.8</ele>
        <time>2020-06-06T11:52:39Z</time>
      </trkpt>
      <trkpt lat="46.06941" lon="4.55478">
        <ele>765.2</ele>
        <time>2020-06-06T11:52:43Z</time>
      </trkpt>
      <trkpt lat="46.06939" lon="4.55468">
        <ele>766.2</ele>
        <time>2020-06-06T11:52:47Z</time>
      </trkpt>
      <trkpt lat="46.06938" lon="4.55458">
        <ele>766</ele>
        <time>2020-06-06T11:52:51Z</time>
      </trkpt>
      <trkpt lat="46.06937" lon="4.55448">
        <ele>767.2</ele>
        <time>2020-06-06T11:52:55Z</time>
      </trkpt>
      <trkpt lat="46.06936" lon="4.55438">
        <ele>767.8</ele>
        <time>2020-06-06T11:52:59Z</time>
      </trkpt>
      <trkpt lat="46.06935" lon="4.55427">
        <ele>768.2</ele>
        <time>2020-06-06T11:53:03Z</time>
      </trkpt>
      <trkpt lat="46.06935" lon="4.55416">
        <ele>769</ele>
        <time>2020-06-06T11:53:07Z</time>
      </trkpt>
      <trkpt lat="46.06936" lon="4.55405">
        <ele>769.6</ele>
        <time>2020-06-06T11:53:11Z</time>
      </trkpt>
      <trkpt lat="46.06937" lon="4.55395">
        <ele>770.4</ele>
        <time>2020-06-06T11:53:15Z</time>
      </trkpt>
      <trkpt lat="46.06938" lon="4.55385">
        <ele>770.2</ele>
        <time>2020-06-06T11:53:19Z</time>
      </trkpt>
      <trkpt lat="46.06939" lon="4.55375">
        <ele>770.8</ele>
        <time>2020-06-06T11:53:23Z</time>
      </trkpt>
      <trkpt lat="46.0694" lon="4.55364">
        <ele>771.4</ele>
        <time>2020-06-06T11:53:27Z</time>
      </trkpt>
      <trkpt lat="46.06941" lon="4.55354">
        <ele>772</ele>
        <time>2020-06-06T11:53:31Z</time>
      </trkpt>
      <trkpt lat="46.06943" lon="4.55345">
        <ele>773</ele>
        <time>2020-06-06T11:53:35Z</time>
      </trkpt>
      <trkpt lat="46.06945" lon="4.55336">
        <ele>773.6</ele>
        <time>2020-06-06T11:53:39Z</time>
      </trkpt>
      <trkpt lat="46.06947" lon="4.55327">
        <ele>773</ele>
        <time>2020-06-06T11:53:43Z</time>
      </trkpt>
      <trkpt lat="46.0695" lon="4.55319">
        <ele>773.6</ele>
        <time>2020-06-06T11:53:47Z</time>
      </trkpt>
      <trkpt lat="46.06953" lon="4.5531">
        <ele>774.4</ele>
        <time>2020-06-06T11:53:51Z</time>
      </trkpt>
      <trkpt lat="46.06956" lon="4.55302">
        <ele>775.6</ele>
        <time>2020-06-06T11:53:55Z</time>
      </trkpt>
      <trkpt lat="46.0696" lon="4.55294">
        <ele>775.8</ele>
        <time>2020-06-06T11:53:59Z</time>
      </trkpt>
      <trkpt lat="46.06963" lon="4.55287">
        <ele>777</ele>
        <time>2020-06-06T11:54:03Z</time>
      </trkpt>
      <trkpt lat="46.06967" lon="4.55278">
        <ele>777.2</ele>
        <time>2020-06-06T11:54:07Z</time>
      </trkpt>
      <trkpt lat="46.06971" lon="4.5527">
        <ele>777.6</ele>
        <time>2020-06-06T11:54:11Z</time>
      </trkpt>
      <trkpt lat="46.06974" lon="4.55261">
        <ele>778</ele>
        <time>2020-06-06T11:54:15Z</time>
      </trkpt>
      <trkpt lat="46.06978" lon="4.55252">
        <ele>778.8</ele>
        <time>2020-06-06T11:54:19Z</time>
      </trkpt>
      <trkpt lat="46.06981" lon="4.55245">
        <ele>779.6</ele>
        <time>2020-06-06T11:54:23Z</time>
      </trkpt>
      <trkpt lat="46.06985" lon="4.55238">
        <ele>780</ele>
        <time>2020-06-06T11:54:27Z</time>
      </trkpt>
      <trkpt lat="46.06989" lon="4.55229">
        <ele>780.6</ele>
        <time>2020-06-06T11:54:31Z</time>
      </trkpt>
      <trkpt lat="46.06992" lon="4.55221">
        <ele>781</ele>
        <time>2020-06-06T11:54:35Z</time>
      </trkpt>
      <trkpt lat="46.06996" lon="4.55212">
        <ele>781.4</ele>
        <time>2020-06-06T11:54:39Z</time>
      </trkpt>
      <trkpt lat="46.06999" lon="4.55204">
        <ele>782.2</ele>
        <time>2020-06-06T11:54:43Z</time>
      </trkpt>
      <trkpt lat="46.07002" lon="4.55195">
        <ele>782.8</ele>
        <time>2020-06-06T11:54:47Z</time>
      </trkpt>
      <trkpt lat="46.07006" lon="4.55186">
        <ele>783</ele>
        <time>2020-06-06T11:54:51Z</time>
      </trkpt>
      <trkpt lat="46.0701" lon="4.55178">
        <ele>783.4</ele>
        <time>2020-06-06T11:54:55Z</time>
      </trkpt>
      <trkpt lat="46.07013" lon="4.5517">
        <ele>784.6</ele>
        <time>2020-06-06T11:54:59Z</time>
      </trkpt>
      <trkpt lat="46.07016" lon="4.55161">
        <ele>785</ele>
        <time>2020-06-06T11:55:03Z</time>
      </trkpt>
      <trkpt lat="46.0702" lon="4.55152">
        <ele>786.2</ele>
        <time>2020-06-06T11:55:07Z</time>
      </trkpt>
      <trkpt lat="46.07023" lon="4.55144">
        <ele>786.4</ele>
        <time>2020-06-06T11:55:11Z</time>
      </trkpt>
      <trkpt lat="46.07026" lon="4.55136">
        <ele>787</ele>
        <time>2020-06-06T11:55:15Z</time>
      </trkpt>
      <trkpt lat="46.07029" lon="4.55128">
        <ele>787.8</ele>
        <time>2020-06-06T11:55:19Z</time>
      </trkpt>
      <trkpt lat="46.07033" lon="4.55119">
        <ele>788.6</ele>
        <time>2020-06-06T11:55:23Z</time>
      </trkpt>
      <trkpt lat="46.07036" lon="4.55111">
        <ele>789.4</ele>
        <time>2020-06-06T11:55:27Z</time>
      </trkpt>
      <trkpt lat="46.0704" lon="4.55102">
        <ele>789.8</ele>
        <time>2020-06-06T11:55:31Z</time>
      </trkpt>
      <trkpt lat="46.07043" lon="4.55093">
        <ele>790.4</ele>
        <time>2020-06-06T11:55:35Z</time>
      </trkpt>
      <trkpt lat="46.07046" lon="4.55083">
        <ele>791.2</ele>
        <time>2020-06-06T11:55:39Z</time>
      </trkpt>
      <trkpt lat="46.07048" lon="4.55074">
        <ele>791.8</ele>
        <time>2020-06-06T11:55:43Z</time>
      </trkpt>
      <trkpt lat="46.0705" lon="4.55064">
        <ele>792.4</ele>
        <time>2020-06-06T11:55:47Z</time>
      </trkpt>
      <trkpt lat="46.07051" lon="4.55054">
        <ele>793</ele>
        <time>2020-06-06T11:55:51Z</time>
      </trkpt>
      <trkpt lat="46.07052" lon="4.55042">
        <ele>793.2</ele>
        <time>2020-06-06T11:55:55Z</time>
      </trkpt>
      <trkpt lat="46.07053" lon="4.55031">
        <ele>793.4</ele>
        <time>2020-06-06T11:55:59Z</time>
      </trkpt>
      <trkpt lat="46.07055" lon="4.55021">
        <ele>794.4</ele>
        <time>2020-06-06T11:56:03Z</time>
      </trkpt>
      <trkpt lat="46.07057" lon="4.5501">
        <ele>795.8</ele>
        <time>2020-06-06T11:56:07Z</time>
      </trkpt>
      <trkpt lat="46.07059" lon="4.55">
        <ele>796.8</ele>
        <time>2020-06-06T11:56:11Z</time>
      </trkpt>
      <trkpt lat="46.07061" lon="4.5499">
        <ele>797</ele>
        <time>2020-06-06T11:56:15Z</time>
      </trkpt>
      <trkpt lat="46.07063" lon="4.5498">
        <ele>797.4</ele>
        <time>2020-06-06T11:56:19Z</time>
      </trkpt>
      <trkpt lat="46.07064" lon="4.5497">
        <ele>798.4</ele>
        <time>2020-06-06T11:56:23Z</time>
      </trkpt>
      <trkpt lat="46.07064" lon="4.54959">
        <ele>798.6</ele>
        <time>2020-06-06T11:56:27Z</time>
      </trkpt>
      <trkpt lat="46.07064" lon="4.54949">
        <ele>799.6</ele>
        <time>2020-06-06T11:56:31Z</time>
      </trkpt>
      <trkpt lat="46.07064" lon="4.54937">
        <ele>799.2</ele>
        <time>2020-06-06T11:56:35Z</time>
      </trkpt>
      <trkpt lat="46.07064" lon="4.54928">
        <ele>800</ele>
        <time>2020-06-06T11:56:39Z</time>
      </trkpt>
      <trkpt lat="46.07062" lon="4.54916">
        <ele>800.6</ele>
        <time>2020-06-06T11:56:43Z</time>
      </trkpt>
      <trkpt lat="46.0706" lon="4.54905">
        <ele>801.4</ele>
        <time>2020-06-06T11:56:47Z</time>
      </trkpt>
      <trkpt lat="46.07059" lon="4.54894">
        <ele>801.8</ele>
        <time>2020-06-06T11:56:51Z</time>
      </trkpt>
      <trkpt lat="46.07057" lon="4.54883">
        <ele>802.6</ele>
        <time>2020-06-06T11:56:55Z</time>
      </trkpt>
      <trkpt lat="46.07054" lon="4.54871">
        <ele>803</ele>
        <time>2020-06-06T11:56:59Z</time>
      </trkpt>
      <trkpt lat="46.07051" lon="4.54859">
        <ele>803.2</ele>
        <time>2020-06-06T11:57:03Z</time>
      </trkpt>
      <trkpt lat="46.07049" lon="4.54849">
        <ele>803.8</ele>
        <time>2020-06-06T11:57:07Z</time>
      </trkpt>
      <trkpt lat="46.07045" lon="4.54838">
        <ele>804.2</ele>
        <time>2020-06-06T11:57:11Z</time>
      </trkpt>
      <trkpt lat="46.07039" lon="4.54828">
        <ele>804.8</ele>
        <time>2020-06-06T11:57:15Z</time>
      </trkpt>
      <trkpt lat="46.07032" lon="4.54822">
        <ele>805.6</ele>
        <time>2020-06-06T11:57:19Z</time>
      </trkpt>
      <trkpt lat="46.07022" lon="4.54819">
        <ele>806.2</ele>
        <time>2020-06-06T11:57:23Z</time>
      </trkpt>
      <trkpt lat="46.07013" lon="4.54818">
        <ele>806.4</ele>
        <time>2020-06-06T11:57:27Z</time>
      </trkpt>
      <trkpt lat="46.07004" lon="4.54818">
        <ele>806.6</ele>
        <time>2020-06-06T11:57:31Z</time>
      </trkpt>
      <trkpt lat="46.06995" lon="4.54818">
        <ele>807.2</ele>
        <time>2020-06-06T11:57:35Z</time>
      </trkpt>
      <trkpt lat="46.06986" lon="4.54816">
        <ele>807.4</ele>
        <time>2020-06-06T11:57:39Z</time>
      </trkpt>
      <trkpt lat="46.06977" lon="4.54813">
        <ele>807.6</ele>
        <time>2020-06-06T11:57:43Z</time>
      </trkpt>
      <trkpt lat="46.06969" lon="4.54807">
        <ele>808</ele>
        <time>2020-06-06T11:57:47Z</time>
      </trkpt>
      <trkpt lat="46.06962" lon="4.54798">
        <ele>808.6</ele>
        <time>2020-06-06T11:57:51Z</time>
      </trkpt>
      <trkpt lat="46.06957" lon="4.54787">
        <ele>809.2</ele>
        <time>2020-06-06T11:57:55Z</time>
      </trkpt>
      <trkpt lat="46.06954" lon="4.54775">
        <ele>809.4</ele>
        <time>2020-06-06T11:57:59Z</time>
      </trkpt>
      <trkpt lat="46.06954" lon="4.54762">
        <ele>810.2</ele>
        <time>2020-06-06T11:58:03Z</time>
      </trkpt>
      <trkpt lat="46.06955" lon="4.54749">
        <ele>811.8</ele>
        <time>2020-06-06T11:58:07Z</time>
      </trkpt>
      <trkpt lat="46.06956" lon="4.54737">
        <ele>811.6</ele>
        <time>2020-06-06T11:58:11Z</time>
      </trkpt>
      <trkpt lat="46.06958" lon="4.54724">
        <ele>812.4</ele>
        <time>2020-06-06T11:58:15Z</time>
      </trkpt>
      <trkpt lat="46.0696" lon="4.54713">
        <ele>813.4</ele>
        <time>2020-06-06T11:58:19Z</time>
      </trkpt>
      <trkpt lat="46.06962" lon="4.54702">
        <ele>814.4</ele>
        <time>2020-06-06T11:58:23Z</time>
      </trkpt>
      <trkpt lat="46.06963" lon="4.54692">
        <ele>814.6</ele>
        <time>2020-06-06T11:58:27Z</time>
      </trkpt>
      <trkpt lat="46.06965" lon="4.54682">
        <ele>815.2</ele>
        <time>2020-06-06T11:58:31Z</time>
      </trkpt>
      <trkpt lat="46.06967" lon="4.54672">
        <ele>815.6</ele>
        <time>2020-06-06T11:58:35Z</time>
      </trkpt>
      <trkpt lat="46.06968" lon="4.54664">
        <ele>816.4</ele>
        <time>2020-06-06T11:58:39Z</time>
      </trkpt>
      <trkpt lat="46.06968" lon="4.54654">
        <ele>816.8</ele>
        <time>2020-06-06T11:58:43Z</time>
      </trkpt>
      <trkpt lat="46.06966" lon="4.54644">
        <ele>818</ele>
        <time>2020-06-06T11:58:47Z</time>
      </trkpt>
      <trkpt lat="46.06962" lon="4.54634">
        <ele>818</ele>
        <time>2020-06-06T11:58:51Z</time>
      </trkpt>
      <trkpt lat="46.06958" lon="4.54626">
        <ele>818.8</ele>
        <time>2020-06-06T11:58:55Z</time>
      </trkpt>
      <trkpt lat="46.06951" lon="4.54618">
        <ele>819.2</ele>
        <time>2020-06-06T11:58:59Z</time>
      </trkpt>
      <trkpt lat="46.06945" lon="4.54612">
        <ele>819.6</ele>
        <time>2020-06-06T11:59:03Z</time>
      </trkpt>
      <trkpt lat="46.06939" lon="4.54606">
        <ele>820.2</ele>
        <time>2020-06-06T11:59:07Z</time>
      </trkpt>
      <trkpt lat="46.06933" lon="4.54599">
        <ele>821.2</ele>
        <time>2020-06-06T11:59:11Z</time>
      </trkpt>
      <trkpt lat="46.06927" lon="4.54589">
        <ele>821.8</ele>
        <time>2020-06-06T11:59:15Z</time>
      </trkpt>
      <trkpt lat="46.06921" lon="4.54581">
        <ele>822</ele>
        <time>2020-06-06T11:59:19Z</time>
      </trkpt>
      <trkpt lat="46.06914" lon="4.54574">
        <ele>822.8</ele>
        <time>2020-06-06T11:59:23Z</time>
      </trkpt>
      <trkpt lat="46.06906" lon="4.54569">
        <ele>823</ele>
        <time>2020-06-06T11:59:27Z</time>
      </trkpt>
      <trkpt lat="46.06897" lon="4.54565">
        <ele>824</ele>
        <time>2020-06-06T11:59:31Z</time>
      </trkpt>
      <trkpt lat="46.06888" lon="4.54565">
        <ele>824.2</ele>
        <time>2020-06-06T11:59:35Z</time>
      </trkpt>
      <trkpt lat="46.0688" lon="4.54566">
        <ele>824.6</ele>
        <time>2020-06-06T11:59:39Z</time>
      </trkpt>
      <trkpt lat="46.06872" lon="4.54568">
        <ele>824.8</ele>
        <time>2020-06-06T11:59:43Z</time>
      </trkpt>
      <trkpt lat="46.06864" lon="4.54569">
        <ele>826</ele>
        <time>2020-06-06T11:59:47Z</time>
      </trkpt>
      <trkpt lat="46.06855" lon="4.54568">
        <ele>827</ele>
        <time>2020-06-06T11:59:51Z</time>
      </trkpt>
      <trkpt lat="46.06846" lon="4.54565">
        <ele>827.8</ele>
        <time>2020-06-06T11:59:55Z</time>
      </trkpt>
      <trkpt lat="46.06838" lon="4.5456">
        <ele>828.2</ele>
        <time>2020-06-06T11:59:59Z</time>
      </trkpt>
      <trkpt lat="46.06832" lon="4.54551">
        <ele>828.8</ele>
        <time>2020-06-06T12:00:03Z</time>
      </trkpt>
      <trkpt lat="46.06827" lon="4.54542">
        <ele>829.4</ele>
        <time>2020-06-06T12:00:07Z</time>
      </trkpt>
      <trkpt lat="46.06823" lon="4.54531">
        <ele>829.6</ele>
        <time>2020-06-06T12:00:11Z</time>
      </trkpt>
      <trkpt lat="46.06818" lon="4.54522">
        <ele>830.2</ele>
        <time>2020-06-06T12:00:15Z</time>
      </trkpt>
      <trkpt lat="46.06816" lon="4.54513">
        <ele>830.8</ele>
        <time>2020-06-06T12:00:19Z</time>
      </trkpt>
      <trkpt lat="46.06814" lon="4.54502">
        <ele>830.8</ele>
        <time>2020-06-06T12:00:23Z</time>
      </trkpt>
      <trkpt lat="46.06811" lon="4.54491">
        <ele>831.4</ele>
        <time>2020-06-06T12:00:27Z</time>
      </trkpt>
      <trkpt lat="46.06807" lon="4.5448">
        <ele>831.8</ele>
        <time>2020-06-06T12:00:31Z</time>
      </trkpt>
      <trkpt lat="46.06802" lon="4.5447">
        <ele>832.6</ele>
        <time>2020-06-06T12:00:35Z</time>
      </trkpt>
      <trkpt lat="46.06795" lon="4.5446">
        <ele>832.8</ele>
        <time>2020-06-06T12:00:39Z</time>
      </trkpt>
      <trkpt lat="46.06788" lon="4.54453">
        <ele>834.2</ele>
        <time>2020-06-06T12:00:43Z</time>
      </trkpt>
      <trkpt lat="46.06779" lon="4.54448">
        <ele>835</ele>
        <time>2020-06-06T12:00:47Z</time>
      </trkpt>
      <trkpt lat="46.0677" lon="4.54442">
        <ele>835.4</ele>
        <time>2020-06-06T12:00:51Z</time>
      </trkpt>
      <trkpt lat="46.06762" lon="4.54438">
        <ele>835.4</ele>
        <time>2020-06-06T12:00:55Z</time>
      </trkpt>
      <trkpt lat="46.06753" lon="4.54432">
        <ele>836.6</ele>
        <time>2020-06-06T12:00:59Z</time>
      </trkpt>
      <trkpt lat="46.06745" lon="4.54425">
        <ele>837.4</ele>
        <time>2020-06-06T12:01:03Z</time>
      </trkpt>
      <trkpt lat="46.06739" lon="4.54419">
        <ele>837.8</ele>
        <time>2020-06-06T12:01:07Z</time>
      </trkpt>
      <trkpt lat="46.06731" lon="4.54412">
        <ele>838.6</ele>
        <time>2020-06-06T12:01:11Z</time>
      </trkpt>
      <trkpt lat="46.06722" lon="4.54408">
        <ele>839.2</ele>
        <time>2020-06-06T12:01:15Z</time>
      </trkpt>
      <trkpt lat="46.06713" lon="4.54408">
        <ele>840</ele>
        <time>2020-06-06T12:01:19Z</time>
      </trkpt>
      <trkpt lat="46.06706" lon="4.54407">
        <ele>840.8</ele>
        <time>2020-06-06T12:01:23Z</time>
      </trkpt>
      <trkpt lat="46.06697" lon="4.54409">
        <ele>840.8</ele>
        <time>2020-06-06T12:01:27Z</time>
      </trkpt>
      <trkpt lat="46.06692" lon="4.5441">
        <ele>841.8</ele>
        <time>2020-06-06T12:01:31Z</time>
      </trkpt>
      <trkpt lat="46.06687" lon="4.54409">
        <ele>842</ele>
        <time>2020-06-06T12:01:35Z</time>
      </trkpt>
      <trkpt lat="46.06681" lon="4.54414">
        <ele>842.4</ele>
        <time>2020-06-06T12:01:39Z</time>
      </trkpt>
      <trkpt lat="46.06674" lon="4.54418">
        <ele>843</ele>
        <time>2020-06-06T12:01:43Z</time>
      </trkpt>
      <trkpt lat="46.06674" lon="4.54418">
        <ele>843.6</ele>
        <time>2020-06-06T12:01:47Z</time>
      </trkpt>
      <trkpt lat="46.06663" lon="4.54427">
        <ele>844.4</ele>
        <time>2020-06-06T12:01:51Z</time>
      </trkpt>
      <trkpt lat="46.06655" lon="4.5443">
        <ele>844.8</ele>
        <time>2020-06-06T12:01:55Z</time>
      </trkpt>
      <trkpt lat="46.06645" lon="4.54435">
        <ele>845.4</ele>
        <time>2020-06-06T12:01:59Z</time>
      </trkpt>
      <trkpt lat="46.06636" lon="4.54438">
        <ele>846.6</ele>
        <time>2020-06-06T12:02:03Z</time>
      </trkpt>
      <trkpt lat="46.06628" lon="4.54442">
        <ele>847.2</ele>
        <time>2020-06-06T12:02:07Z</time>
      </trkpt>
      <trkpt lat="46.0662" lon="4.54446">
        <ele>847.8</ele>
        <time>2020-06-06T12:02:11Z</time>
      </trkpt>
      <trkpt lat="46.06611" lon="4.54452">
        <ele>848.4</ele>
        <time>2020-06-06T12:02:15Z</time>
      </trkpt>
      <trkpt lat="46.06603" lon="4.54456">
        <ele>848.4</ele>
        <time>2020-06-06T12:02:19Z</time>
      </trkpt>
      <trkpt lat="46.06593" lon="4.5446">
        <ele>850.2</ele>
        <time>2020-06-06T12:02:23Z</time>
      </trkpt>
      <trkpt lat="46.06583" lon="4.54463">
        <ele>850</ele>
        <time>2020-06-06T12:02:27Z</time>
      </trkpt>
      <trkpt lat="46.06571" lon="4.54466">
        <ele>850.4</ele>
        <time>2020-06-06T12:02:31Z</time>
      </trkpt>
      <trkpt lat="46.06559" lon="4.54462">
        <ele>851.4</ele>
        <time>2020-06-06T12:02:35Z</time>
      </trkpt>
      <trkpt lat="46.06552" lon="4.54452">
        <ele>851.4</ele>
        <time>2020-06-06T12:02:39Z</time>
      </trkpt>
      <trkpt lat="46.06548" lon="4.5444">
        <ele>851.6</ele>
        <time>2020-06-06T12:02:43Z</time>
      </trkpt>
      <trkpt lat="46.06546" lon="4.54425">
        <ele>851.8</ele>
        <time>2020-06-06T12:02:47Z</time>
      </trkpt>
      <trkpt lat="46.06546" lon="4.5441">
        <ele>852.6</ele>
        <time>2020-06-06T12:02:51Z</time>
      </trkpt>
      <trkpt lat="46.06546" lon="4.54396">
        <ele>852.4</ele>
        <time>2020-06-06T12:02:55Z</time>
      </trkpt>
      <trkpt lat="46.06546" lon="4.54381">
        <ele>853.2</ele>
        <time>2020-06-06T12:02:59Z</time>
      </trkpt>
      <trkpt lat="46.06546" lon="4.54369">
        <ele>852.8</ele>
        <time>2020-06-06T12:03:03Z</time>
      </trkpt>
      <trkpt lat="46.06545" lon="4.54355">
        <ele>853.4</ele>
        <time>2020-06-06T12:03:07Z</time>
      </trkpt>
      <trkpt lat="46.06545" lon="4.5434">
        <ele>853.2</ele>
        <time>2020-06-06T12:03:11Z</time>
      </trkpt>
      <trkpt lat="46.06546" lon="4.54325">
        <ele>854.6</ele>
        <time>2020-06-06T12:03:15Z</time>
      </trkpt>
      <trkpt lat="46.06545" lon="4.5431">
        <ele>854.6</ele>
        <time>2020-06-06T12:03:19Z</time>
      </trkpt>
      <trkpt lat="46.06545" lon="4.54294">
        <ele>854.6</ele>
        <time>2020-06-06T12:03:23Z</time>
      </trkpt>
      <trkpt lat="46.06545" lon="4.54279">
        <ele>854.6</ele>
        <time>2020-06-06T12:03:27Z</time>
      </trkpt>
      <trkpt lat="46.06545" lon="4.54264">
        <ele>855.6</ele>
        <time>2020-06-06T12:03:31Z</time>
      </trkpt>
      <trkpt lat="46.06544" lon="4.54251">
        <ele>856</ele>
        <time>2020-06-06T12:03:35Z</time>
      </trkpt>
      <trkpt lat="46.06543" lon="4.54237">
        <ele>856.6</ele>
        <time>2020-06-06T12:03:39Z</time>
      </trkpt>
      <trkpt lat="46.06541" lon="4.5422">
        <ele>857</ele>
        <time>2020-06-06T12:03:43Z</time>
      </trkpt>
      <trkpt lat="46.06538" lon="4.54205">
        <ele>857.8</ele>
        <time>2020-06-06T12:03:47Z</time>
      </trkpt>
      <trkpt lat="46.06534" lon="4.54189">
        <ele>858.4</ele>
        <time>2020-06-06T12:03:51Z</time>
      </trkpt>
      <trkpt lat="46.06529" lon="4.54175">
        <ele>858.8</ele>
        <time>2020-06-06T12:03:55Z</time>
      </trkpt>
      <trkpt lat="46.06524" lon="4.5416">
        <ele>858.8</ele>
        <time>2020-06-06T12:03:59Z</time>
      </trkpt>
      <trkpt lat="46.0652" lon="4.54144">
        <ele>858.6</ele>
        <time>2020-06-06T12:04:03Z</time>
      </trkpt>
      <trkpt lat="46.06514" lon="4.5413">
        <ele>860.2</ele>
        <time>2020-06-06T12:04:07Z</time>
      </trkpt>
      <trkpt lat="46.06507" lon="4.54119">
        <ele>860.6</ele>
        <time>2020-06-06T12:04:11Z</time>
      </trkpt>
      <trkpt lat="46.06498" lon="4.54107">
        <ele>860.8</ele>
        <time>2020-06-06T12:04:15Z</time>
      </trkpt>
      <trkpt lat="46.06488" lon="4.54097">
        <ele>861.4</ele>
        <time>2020-06-06T12:04:19Z</time>
      </trkpt>
      <trkpt lat="46.06483" lon="4.54085">
        <ele>861.2</ele>
        <time>2020-06-06T12:04:23Z</time>
      </trkpt>
      <trkpt lat="46.06476" lon="4.54076">
        <ele>861.8</ele>
        <time>2020-06-06T12:04:27Z</time>
      </trkpt>
      <trkpt lat="46.06466" lon="4.54067">
        <ele>861.4</ele>
        <time>2020-06-06T12:04:31Z</time>
      </trkpt>
      <trkpt lat="46.06453" lon="4.54063">
        <ele>862</ele>
        <time>2020-06-06T12:04:35Z</time>
      </trkpt>
      <trkpt lat="46.06439" lon="4.54065">
        <ele>862</ele>
        <time>2020-06-06T12:04:39Z</time>
      </trkpt>
      <trkpt lat="46.06428" lon="4.54068">
        <ele>862.4</ele>
        <time>2020-06-06T12:04:43Z</time>
      </trkpt>
      <trkpt lat="46.06416" lon="4.5407">
        <ele>862.6</ele>
        <time>2020-06-06T12:04:47Z</time>
      </trkpt>
      <trkpt lat="46.06405" lon="4.54072">
        <ele>863.4</ele>
        <time>2020-06-06T12:04:51Z</time>
      </trkpt>
      <trkpt lat="46.06395" lon="4.5407">
        <ele>864.4</ele>
        <time>2020-06-06T12:04:55Z</time>
      </trkpt>
      <trkpt lat="46.06384" lon="4.5407">
        <ele>864.4</ele>
        <time>2020-06-06T12:04:59Z</time>
      </trkpt>
      <trkpt lat="46.06374" lon="4.54071">
        <ele>864.8</ele>
        <time>2020-06-06T12:05:03Z</time>
      </trkpt>
      <trkpt lat="46.06366" lon="4.54072">
        <ele>865</ele>
        <time>2020-06-06T12:05:07Z</time>
      </trkpt>
      <trkpt lat="46.06358" lon="4.54071">
        <ele>866.2</ele>
        <time>2020-06-06T12:05:11Z</time>
      </trkpt>
      <trkpt lat="46.06348" lon="4.54071">
        <ele>866.2</ele>
        <time>2020-06-06T12:05:15Z</time>
      </trkpt>
      <trkpt lat="46.06337" lon="4.5407">
        <ele>866.8</ele>
        <time>2020-06-06T12:05:19Z</time>
      </trkpt>
      <trkpt lat="46.06329" lon="4.54066">
        <ele>867.4</ele>
        <time>2020-06-06T12:05:23Z</time>
      </trkpt>
      <trkpt lat="46.06316" lon="4.54066">
        <ele>867.8</ele>
        <time>2020-06-06T12:05:27Z</time>
      </trkpt>
      <trkpt lat="46.06304" lon="4.54067">
        <ele>868.6</ele>
        <time>2020-06-06T12:05:31Z</time>
      </trkpt>
      <trkpt lat="46.0629" lon="4.54068">
        <ele>869.2</ele>
        <time>2020-06-06T12:05:35Z</time>
      </trkpt>
      <trkpt lat="46.06282" lon="4.54067">
        <ele>869.6</ele>
        <time>2020-06-06T12:05:39Z</time>
      </trkpt>
      <trkpt lat="46.06272" lon="4.54069">
        <ele>869.6</ele>
        <time>2020-06-06T12:05:43Z</time>
      </trkpt>
      <trkpt lat="46.06263" lon="4.54068">
        <ele>869.8</ele>
        <time>2020-06-06T12:05:47Z</time>
      </trkpt>
      <trkpt lat="46.06251" lon="4.54069">
        <ele>870.4</ele>
        <time>2020-06-06T12:05:51Z</time>
      </trkpt>
      <trkpt lat="46.06241" lon="4.54069">
        <ele>871.2</ele>
        <time>2020-06-06T12:05:55Z</time>
      </trkpt>
      <trkpt lat="46.0623" lon="4.54068">
        <ele>872</ele>
        <time>2020-06-06T12:05:59Z</time>
      </trkpt>
      <trkpt lat="46.06219" lon="4.54066">
        <ele>872.4</ele>
        <time>2020-06-06T12:06:03Z</time>
      </trkpt>
      <trkpt lat="46.06208" lon="4.54066">
        <ele>873.2</ele>
        <time>2020-06-06T12:06:07Z</time>
      </trkpt>
      <trkpt lat="46.06199" lon="4.54066">
        <ele>873</ele>
        <time>2020-06-06T12:06:11Z</time>
      </trkpt>
      <trkpt lat="46.06188" lon="4.54067">
        <ele>874.4</ele>
        <time>2020-06-06T12:06:15Z</time>
      </trkpt>
      <trkpt lat="46.06178" lon="4.54071">
        <ele>874.2</ele>
        <time>2020-06-06T12:06:19Z</time>
      </trkpt>
      <trkpt lat="46.06169" lon="4.54073">
        <ele>874.6</ele>
        <time>2020-06-06T12:06:23Z</time>
      </trkpt>
      <trkpt lat="46.0616" lon="4.54076">
        <ele>874.8</ele>
        <time>2020-06-06T12:06:27Z</time>
      </trkpt>
      <trkpt lat="46.06151" lon="4.54079">
        <ele>875.2</ele>
        <time>2020-06-06T12:06:31Z</time>
      </trkpt>
      <trkpt lat="46.06139" lon="4.5408">
        <ele>876.4</ele>
        <time>2020-06-06T12:06:35Z</time>
      </trkpt>
      <trkpt lat="46.06124" lon="4.5408">
        <ele>875.6</ele>
        <time>2020-06-06T12:06:39Z</time>
      </trkpt>
      <trkpt lat="46.06114" lon="4.54074">
        <ele>876.6</ele>
        <time>2020-06-06T12:06:43Z</time>
      </trkpt>
      <trkpt lat="46.06105" lon="4.54064">
        <ele>876</ele>
        <time>2020-06-06T12:06:47Z</time>
      </trkpt>
      <trkpt lat="46.06097" lon="4.54054">
        <ele>876.6</ele>
        <time>2020-06-06T12:06:51Z</time>
      </trkpt>
      <trkpt lat="46.06089" lon="4.54044">
        <ele>877.6</ele>
        <time>2020-06-06T12:06:55Z</time>
      </trkpt>
      <trkpt lat="46.06081" lon="4.54033">
        <ele>878</ele>
        <time>2020-06-06T12:06:59Z</time>
      </trkpt>
      <trkpt lat="46.06074" lon="4.54023">
        <ele>878.2</ele>
        <time>2020-06-06T12:07:03Z</time>
      </trkpt>
      <trkpt lat="46.06066" lon="4.54013">
        <ele>878.2</ele>
        <time>2020-06-06T12:07:07Z</time>
      </trkpt>
      <trkpt lat="46.06058" lon="4.54003">
        <ele>879</ele>
        <time>2020-06-06T12:07:11Z</time>
      </trkpt>
      <trkpt lat="46.0605" lon="4.53993">
        <ele>879.2</ele>
        <time>2020-06-06T12:07:15Z</time>
      </trkpt>
      <trkpt lat="46.06043" lon="4.53983">
        <ele>879.4</ele>
        <time>2020-06-06T12:07:19Z</time>
      </trkpt>
      <trkpt lat="46.06035" lon="4.53972">
        <ele>879.6</ele>
        <time>2020-06-06T12:07:23Z</time>
      </trkpt>
      <trkpt lat="46.06028" lon="4.53961">
        <ele>880.4</ele>
        <time>2020-06-06T12:07:27Z</time>
      </trkpt>
      <trkpt lat="46.06021" lon="4.53949">
        <ele>880.8</ele>
        <time>2020-06-06T12:07:31Z</time>
      </trkpt>
      <trkpt lat="46.06013" lon="4.53939">
        <ele>881.6</ele>
        <time>2020-06-06T12:07:35Z</time>
      </trkpt>
      <trkpt lat="46.06007" lon="4.53928">
        <ele>882.2</ele>
        <time>2020-06-06T12:07:39Z</time>
      </trkpt>
      <trkpt lat="46.05999" lon="4.53917">
        <ele>882.4</ele>
        <time>2020-06-06T12:07:43Z</time>
      </trkpt>
      <trkpt lat="46.05992" lon="4.53905">
        <ele>882.6</ele>
        <time>2020-06-06T12:07:47Z</time>
      </trkpt>
      <trkpt lat="46.05985" lon="4.53893">
        <ele>883.2</ele>
        <time>2020-06-06T12:07:51Z</time>
      </trkpt>
      <trkpt lat="46.05978" lon="4.53883">
        <ele>883.6</ele>
        <time>2020-06-06T12:07:55Z</time>
      </trkpt>
      <trkpt lat="46.05971" lon="4.53871">
        <ele>884</ele>
        <time>2020-06-06T12:07:59Z</time>
      </trkpt>
      <trkpt lat="46.05963" lon="4.5386">
        <ele>884</ele>
        <time>2020-06-06T12:08:03Z</time>
      </trkpt>
      <trkpt lat="46.05957" lon="4.53848">
        <ele>884.2</ele>
        <time>2020-06-06T12:08:07Z</time>
      </trkpt>
      <trkpt lat="46.0595" lon="4.53835">
        <ele>884.2</ele>
        <time>2020-06-06T12:08:11Z</time>
      </trkpt>
      <trkpt lat="46.05943" lon="4.53823">
        <ele>884.8</ele>
        <time>2020-06-06T12:08:15Z</time>
      </trkpt>
      <trkpt lat="46.05939" lon="4.53811">
        <ele>886</ele>
        <time>2020-06-06T12:08:19Z</time>
      </trkpt>
      <trkpt lat="46.05934" lon="4.53799">
        <ele>886.2</ele>
        <time>2020-06-06T12:08:23Z</time>
      </trkpt>
      <trkpt lat="46.0593" lon="4.53787">
        <ele>886.4</ele>
        <time>2020-06-06T12:08:27Z</time>
      </trkpt>
      <trkpt lat="46.05927" lon="4.53775">
        <ele>887</ele>
        <time>2020-06-06T12:08:31Z</time>
      </trkpt>
      <trkpt lat="46.05925" lon="4.53766">
        <ele>887</ele>
        <time>2020-06-06T12:08:35Z</time>
      </trkpt>
      <trkpt lat="46.05913" lon="4.53765">
        <ele>887.2</ele>
        <time>2020-06-06T12:13:51Z</time>
      </trkpt>
      <trkpt lat="46.05909" lon="4.53777">
        <ele>887</ele>
        <time>2020-06-06T12:13:55Z</time>
      </trkpt>
      <trkpt lat="46.05902" lon="4.53788">
        <ele>886.2</ele>
        <time>2020-06-06T12:13:59Z</time>
      </trkpt>
      <trkpt lat="46.05896" lon="4.53794">
        <ele>885.2</ele>
        <time>2020-06-06T12:14:03Z</time>
      </trkpt>
      <trkpt lat="46.05889" lon="4.53798">
        <ele>884</ele>
        <time>2020-06-06T12:14:07Z</time>
      </trkpt>
      <trkpt lat="46.05871" lon="4.53807">
        <ele>881.6</ele>
        <time>2020-06-06T12:14:11Z</time>
      </trkpt>
      <trkpt lat="46.05847" lon="4.53823">
        <ele>879.4</ele>
        <time>2020-06-06T12:14:15Z</time>
      </trkpt>
      <trkpt lat="46.05823" lon="4.53834">
        <ele>877.4</ele>
        <time>2020-06-06T12:14:19Z</time>
      </trkpt>
      <trkpt lat="46.05794" lon="4.53843">
        <ele>873.8</ele>
        <time>2020-06-06T12:14:23Z</time>
      </trkpt>
      <trkpt lat="46.05758" lon="4.53858">
        <ele>869.8</ele>
        <time>2020-06-06T12:14:27Z</time>
      </trkpt>
      <trkpt lat="46.05719" lon="4.53863">
        <ele>866.2</ele>
        <time>2020-06-06T12:14:31Z</time>
      </trkpt>
      <trkpt lat="46.0568" lon="4.5386">
        <ele>862.8</ele>
        <time>2020-06-06T12:14:35Z</time>
      </trkpt>
      <trkpt lat="46.05637" lon="4.5388">
        <ele>859.4</ele>
        <time>2020-06-06T12:14:39Z</time>
      </trkpt>
      <trkpt lat="46.05612" lon="4.53931">
        <ele>856.4</ele>
        <time>2020-06-06T12:14:43Z</time>
      </trkpt>
      <trkpt lat="46.05602" lon="4.53995">
        <ele>851.6</ele>
        <time>2020-06-06T12:14:47Z</time>
      </trkpt>
      <trkpt lat="46.05594" lon="4.54056">
        <ele>848.2</ele>
        <time>2020-06-06T12:14:51Z</time>
      </trkpt>
      <trkpt lat="46.0558" lon="4.54121">
        <ele>846.4</ele>
        <time>2020-06-06T12:14:55Z</time>
      </trkpt>
      <trkpt lat="46.05564" lon="4.54188">
        <ele>843.2</ele>
        <time>2020-06-06T12:14:59Z</time>
      </trkpt>
      <trkpt lat="46.05545" lon="4.54249">
        <ele>840.8</ele>
        <time>2020-06-06T12:15:03Z</time>
      </trkpt>
      <trkpt lat="46.05524" lon="4.54301">
        <ele>838</ele>
        <time>2020-06-06T12:15:07Z</time>
      </trkpt>
      <trkpt lat="46.0549" lon="4.54323">
        <ele>836.4</ele>
        <time>2020-06-06T12:15:11Z</time>
      </trkpt>
      <trkpt lat="46.05455" lon="4.54307">
        <ele>833</ele>
        <time>2020-06-06T12:15:15Z</time>
      </trkpt>
      <trkpt lat="46.05421" lon="4.54285">
        <ele>830.6</ele>
        <time>2020-06-06T12:15:19Z</time>
      </trkpt>
      <trkpt lat="46.05384" lon="4.54263">
        <ele>828.6</ele>
        <time>2020-06-06T12:15:23Z</time>
      </trkpt>
      <trkpt lat="46.05346" lon="4.54236">
        <ele>825.2</ele>
        <time>2020-06-06T12:15:27Z</time>
      </trkpt>
      <trkpt lat="46.05316" lon="4.54192">
        <ele>822.2</ele>
        <time>2020-06-06T12:15:31Z</time>
      </trkpt>
      <trkpt lat="46.05289" lon="4.5414">
        <ele>820.2</ele>
        <time>2020-06-06T12:15:35Z</time>
      </trkpt>
      <trkpt lat="46.05266" lon="4.54089">
        <ele>818.6</ele>
        <time>2020-06-06T12:15:39Z</time>
      </trkpt>
      <trkpt lat="46.05237" lon="4.54056">
        <ele>817.4</ele>
        <time>2020-06-06T12:15:43Z</time>
      </trkpt>
      <trkpt lat="46.05204" lon="4.54068">
        <ele>817</ele>
        <time>2020-06-06T12:15:47Z</time>
      </trkpt>
      <trkpt lat="46.05174" lon="4.54088">
        <ele>814.2</ele>
        <time>2020-06-06T12:15:51Z</time>
      </trkpt>
      <trkpt lat="46.05142" lon="4.54112">
        <ele>813</ele>
        <time>2020-06-06T12:15:55Z</time>
      </trkpt>
      <trkpt lat="46.05109" lon="4.54128">
        <ele>810.8</ele>
        <time>2020-06-06T12:15:59Z</time>
      </trkpt>
      <trkpt lat="46.05081" lon="4.54112">
        <ele>809</ele>
        <time>2020-06-06T12:16:03Z</time>
      </trkpt>
      <trkpt lat="46.05062" lon="4.5408">
        <ele>807.8</ele>
        <time>2020-06-06T12:16:07Z</time>
      </trkpt>
      <trkpt lat="46.05046" lon="4.54038">
        <ele>807.4</ele>
        <time>2020-06-06T12:16:11Z</time>
      </trkpt>
      <trkpt lat="46.05027" lon="4.53998">
        <ele>805</ele>
        <time>2020-06-06T12:16:15Z</time>
      </trkpt>
      <trkpt lat="46.04998" lon="4.53999">
        <ele>805.6</ele>
        <time>2020-06-06T12:16:19Z</time>
      </trkpt>
      <trkpt lat="46.04973" lon="4.54024">
        <ele>800.6</ele>
        <time>2020-06-06T12:16:23Z</time>
      </trkpt>
      <trkpt lat="46.04947" lon="4.54064">
        <ele>799.4</ele>
        <time>2020-06-06T12:16:27Z</time>
      </trkpt>
      <trkpt lat="46.04922" lon="4.54103">
        <ele>796.6</ele>
        <time>2020-06-06T12:16:31Z</time>
      </trkpt>
      <trkpt lat="46.04903" lon="4.54147">
        <ele>794.2</ele>
        <time>2020-06-06T12:16:35Z</time>
      </trkpt>
      <trkpt lat="46.04904" lon="4.542">
        <ele>791.8</ele>
        <time>2020-06-06T12:16:39Z</time>
      </trkpt>
      <trkpt lat="46.04906" lon="4.54257">
        <ele>789.6</ele>
        <time>2020-06-06T12:16:43Z</time>
      </trkpt>
      <trkpt lat="46.0491" lon="4.54318">
        <ele>788.2</ele>
        <time>2020-06-06T12:16:47Z</time>
      </trkpt>
      <trkpt lat="46.04922" lon="4.54369">
        <ele>784.8</ele>
        <time>2020-06-06T12:16:51Z</time>
      </trkpt>
      <trkpt lat="46.04944" lon="4.54417">
        <ele>784.2</ele>
        <time>2020-06-06T12:16:55Z</time>
      </trkpt>
      <trkpt lat="46.0496" lon="4.5447">
        <ele>781.2</ele>
        <time>2020-06-06T12:16:59Z</time>
      </trkpt>
      <trkpt lat="46.04972" lon="4.54518">
        <ele>778.8</ele>
        <time>2020-06-06T12:17:03Z</time>
      </trkpt>
      <trkpt lat="46.04984" lon="4.5457">
        <ele>776.4</ele>
        <time>2020-06-06T12:17:07Z</time>
      </trkpt>
      <trkpt lat="46.04993" lon="4.54626">
        <ele>773.2</ele>
        <time>2020-06-06T12:17:11Z</time>
      </trkpt>
      <trkpt lat="46.04998" lon="4.54685">
        <ele>770.4</ele>
        <time>2020-06-06T12:17:15Z</time>
      </trkpt>
      <trkpt lat="46.04993" lon="4.5474">
        <ele>768.2</ele>
        <time>2020-06-06T12:17:19Z</time>
      </trkpt>
      <trkpt lat="46.04979" lon="4.54785">
        <ele>766</ele>
        <time>2020-06-06T12:17:23Z</time>
      </trkpt>
      <trkpt lat="46.04958" lon="4.54827">
        <ele>763.2</ele>
        <time>2020-06-06T12:17:27Z</time>
      </trkpt>
      <trkpt lat="46.04938" lon="4.54883">
        <ele>758.6</ele>
        <time>2020-06-06T12:17:31Z</time>
      </trkpt>
      <trkpt lat="46.04927" lon="4.54943">
        <ele>756.4</ele>
        <time>2020-06-06T12:17:35Z</time>
      </trkpt>
      <trkpt lat="46.04917" lon="4.55003">
        <ele>754.6</ele>
        <time>2020-06-06T12:17:39Z</time>
      </trkpt>
      <trkpt lat="46.049" lon="4.55051">
        <ele>753.4</ele>
        <time>2020-06-06T12:17:43Z</time>
      </trkpt>
      <trkpt lat="46.04871" lon="4.5506">
        <ele>753.2</ele>
        <time>2020-06-06T12:17:47Z</time>
      </trkpt>
      <trkpt lat="46.04848" lon="4.55029">
        <ele>749.4</ele>
        <time>2020-06-06T12:17:51Z</time>
      </trkpt>
      <trkpt lat="46.04829" lon="4.5499">
        <ele>747.4</ele>
        <time>2020-06-06T12:17:55Z</time>
      </trkpt>
      <trkpt lat="46.048" lon="4.54963">
        <ele>746.8</ele>
        <time>2020-06-06T12:17:59Z</time>
      </trkpt>
      <trkpt lat="46.0477" lon="4.54937">
        <ele>744.2</ele>
        <time>2020-06-06T12:18:03Z</time>
      </trkpt>
      <trkpt lat="46.04743" lon="4.54906">
        <ele>741.4</ele>
        <time>2020-06-06T12:18:07Z</time>
      </trkpt>
      <trkpt lat="46.04718" lon="4.54863">
        <ele>739.4</ele>
        <time>2020-06-06T12:18:11Z</time>
      </trkpt>
      <trkpt lat="46.04694" lon="4.54821">
        <ele>735.8</ele>
        <time>2020-06-06T12:18:15Z</time>
      </trkpt>
      <trkpt lat="46.04656" lon="4.54807">
        <ele>734.6</ele>
        <time>2020-06-06T12:18:19Z</time>
      </trkpt>
      <trkpt lat="46.04623" lon="4.54774">
        <ele>732.2</ele>
        <time>2020-06-06T12:18:23Z</time>
      </trkpt>
      <trkpt lat="46.04599" lon="4.54729">
        <ele>730.4</ele>
        <time>2020-06-06T12:18:27Z</time>
      </trkpt>
      <trkpt lat="46.04575" lon="4.54688">
        <ele>728.2</ele>
        <time>2020-06-06T12:18:31Z</time>
      </trkpt>
      <trkpt lat="46.04548" lon="4.5467">
        <ele>727.8</ele>
        <time>2020-06-06T12:18:35Z</time>
      </trkpt>
      <trkpt lat="46.04527" lon="4.54703">
        <ele>728.2</ele>
        <time>2020-06-06T12:18:39Z</time>
      </trkpt>
      <trkpt lat="46.04516" lon="4.54736">
        <ele>728.8</ele>
        <time>2020-06-06T12:18:43Z</time>
      </trkpt>
      <trkpt lat="46.04508" lon="4.54761">
        <ele>730</ele>
        <time>2020-06-06T12:18:47Z</time>
      </trkpt>
      <trkpt lat="46.045" lon="4.5478">
        <ele>730.8</ele>
        <time>2020-06-06T12:18:51Z</time>
      </trkpt>
      <trkpt lat="46.04494" lon="4.54792">
        <ele>731.8</ele>
        <time>2020-06-06T12:18:55Z</time>
      </trkpt>
      <trkpt lat="46.04486" lon="4.54803">
        <ele>732.2</ele>
        <time>2020-06-06T12:18:59Z</time>
      </trkpt>
      <trkpt lat="46.04479" lon="4.54813">
        <ele>733.2</ele>
        <time>2020-06-06T12:19:03Z</time>
      </trkpt>
      <trkpt lat="46.04472" lon="4.54819">
        <ele>733.8</ele>
        <time>2020-06-06T12:19:07Z</time>
      </trkpt>
      <trkpt lat="46.04464" lon="4.54823">
        <ele>733.6</ele>
        <time>2020-06-06T12:19:11Z</time>
      </trkpt>
      <trkpt lat="46.04458" lon="4.54828">
        <ele>734.6</ele>
        <time>2020-06-06T12:19:15Z</time>
      </trkpt>
      <trkpt lat="46.04456" lon="4.54832">
        <ele>735.4</ele>
        <time>2020-06-06T12:19:19Z</time>
      </trkpt>
      <trkpt lat="46.04449" lon="4.54846">
        <ele>735.4</ele>
        <time>2020-06-06T12:19:23Z</time>
      </trkpt>
      <trkpt lat="46.04446" lon="4.54858">
        <ele>736.6</ele>
        <time>2020-06-06T12:19:27Z</time>
      </trkpt>
      <trkpt lat="46.04449" lon="4.54868">
        <ele>736.6</ele>
        <time>2020-06-06T12:19:31Z</time>
      </trkpt>
      <trkpt lat="46.0445" lon="4.54881">
        <ele>737.4</ele>
        <time>2020-06-06T12:19:35Z</time>
      </trkpt>
      <trkpt lat="46.04454" lon="4.54893">
        <ele>737.8</ele>
        <time>2020-06-06T12:19:39Z</time>
      </trkpt>
      <trkpt lat="46.04455" lon="4.54908">
        <ele>737.6</ele>
        <time>2020-06-06T12:19:43Z</time>
      </trkpt>
      <trkpt lat="46.04457" lon="4.54922">
        <ele>738.6</ele>
        <time>2020-06-06T12:19:47Z</time>
      </trkpt>
      <trkpt lat="46.04456" lon="4.54936">
        <ele>739.4</ele>
        <time>2020-06-06T12:19:51Z</time>
      </trkpt>
      <trkpt lat="46.04455" lon="4.54948">
        <ele>739.4</ele>
        <time>2020-06-06T12:19:55Z</time>
      </trkpt>
      <trkpt lat="46.04454" lon="4.5496">
        <ele>740.4</ele>
        <time>2020-06-06T12:19:59Z</time>
      </trkpt>
      <trkpt lat="46.04448" lon="4.54971">
        <ele>741</ele>
        <time>2020-06-06T12:20:03Z</time>
      </trkpt>
      <trkpt lat="46.04441" lon="4.54983">
        <ele>741.8</ele>
        <time>2020-06-06T12:20:07Z</time>
      </trkpt>
      <trkpt lat="46.04433" lon="4.54997">
        <ele>742</ele>
        <time>2020-06-06T12:20:11Z</time>
      </trkpt>
      <trkpt lat="46.04428" lon="4.55008">
        <ele>742.4</ele>
        <time>2020-06-06T12:20:15Z</time>
      </trkpt>
      <trkpt lat="46.04423" lon="4.55018">
        <ele>742.6</ele>
        <time>2020-06-06T12:20:19Z</time>
      </trkpt>
      <trkpt lat="46.04416" lon="4.5503">
        <ele>743.2</ele>
        <time>2020-06-06T12:20:23Z</time>
      </trkpt>
      <trkpt lat="46.04411" lon="4.55041">
        <ele>743.8</ele>
        <time>2020-06-06T12:20:27Z</time>
      </trkpt>
      <trkpt lat="46.04404" lon="4.55056">
        <ele>744</ele>
        <time>2020-06-06T12:20:31Z</time>
      </trkpt>
      <trkpt lat="46.04402" lon="4.55069">
        <ele>744.2</ele>
        <time>2020-06-06T12:20:35Z</time>
      </trkpt>
      <trkpt lat="46.04399" lon="4.55084">
        <ele>744.6</ele>
        <time>2020-06-06T12:20:39Z</time>
      </trkpt>
      <trkpt lat="46.04395" lon="4.55101">
        <ele>744.8</ele>
        <time>2020-06-06T12:20:43Z</time>
      </trkpt>
      <trkpt lat="46.04393" lon="4.55116">
        <ele>745.4</ele>
        <time>2020-06-06T12:20:47Z</time>
      </trkpt>
      <trkpt lat="46.04389" lon="4.5513">
        <ele>746</ele>
        <time>2020-06-06T12:20:51Z</time>
      </trkpt>
      <trkpt lat="46.04386" lon="4.55147">
        <ele>746.8</ele>
        <time>2020-06-06T12:20:55Z</time>
      </trkpt>
      <trkpt lat="46.0438" lon="4.55165">
        <ele>746.6</ele>
        <time>2020-06-06T12:20:59Z</time>
      </trkpt>
      <trkpt lat="46.04376" lon="4.55184">
        <ele>747.8</ele>
        <time>2020-06-06T12:21:03Z</time>
      </trkpt>
      <trkpt lat="46.04374" lon="4.55201">
        <ele>748.8</ele>
        <time>2020-06-06T12:21:07Z</time>
      </trkpt>
      <trkpt lat="46.04372" lon="4.55218">
        <ele>748.2</ele>
        <time>2020-06-06T12:21:11Z</time>
      </trkpt>
      <trkpt lat="46.0437" lon="4.55235">
        <ele>749.2</ele>
        <time>2020-06-06T12:21:15Z</time>
      </trkpt>
      <trkpt lat="46.04364" lon="4.55252">
        <ele>750.2</ele>
        <time>2020-06-06T12:21:19Z</time>
      </trkpt>
      <trkpt lat="46.04363" lon="4.55268">
        <ele>749.8</ele>
        <time>2020-06-06T12:21:23Z</time>
      </trkpt>
      <trkpt lat="46.04357" lon="4.55291">
        <ele>750.2</ele>
        <time>2020-06-06T12:21:27Z</time>
      </trkpt>
      <trkpt lat="46.04349" lon="4.55309">
        <ele>750.8</ele>
        <time>2020-06-06T12:21:31Z</time>
      </trkpt>
      <trkpt lat="46.0434" lon="4.55325">
        <ele>751.6</ele>
        <time>2020-06-06T12:21:35Z</time>
      </trkpt>
      <trkpt lat="46.04328" lon="4.55333">
        <ele>752.4</ele>
        <time>2020-06-06T12:21:39Z</time>
      </trkpt>
      <trkpt lat="46.04317" lon="4.55334">
        <ele>752.2</ele>
        <time>2020-06-06T12:21:43Z</time>
      </trkpt>
      <trkpt lat="46.04307" lon="4.55331">
        <ele>752.6</ele>
        <time>2020-06-06T12:21:47Z</time>
      </trkpt>
      <trkpt lat="46.04297" lon="4.55327">
        <ele>752.8</ele>
        <time>2020-06-06T12:21:51Z</time>
      </trkpt>
      <trkpt lat="46.0429" lon="4.55323">
        <ele>754.2</ele>
        <time>2020-06-06T12:21:55Z</time>
      </trkpt>
      <trkpt lat="46.04256" lon="4.55311">
        <ele>755</ele>
        <time>2020-06-06T12:23:25Z</time>
      </trkpt>
      <trkpt lat="46.04247" lon="4.55306">
        <ele>755.6</ele>
        <time>2020-06-06T12:23:29Z</time>
      </trkpt>
      <trkpt lat="46.04238" lon="4.55299">
        <ele>756</ele>
        <time>2020-06-06T12:23:33Z</time>
      </trkpt>
      <trkpt lat="46.04229" lon="4.55294">
        <ele>756.8</ele>
        <time>2020-06-06T12:23:37Z</time>
      </trkpt>
      <trkpt lat="46.04221" lon="4.55287">
        <ele>757.2</ele>
        <time>2020-06-06T12:23:41Z</time>
      </trkpt>
      <trkpt lat="46.04212" lon="4.55279">
        <ele>757.6</ele>
        <time>2020-06-06T12:23:45Z</time>
      </trkpt>
      <trkpt lat="46.04204" lon="4.55273">
        <ele>757.8</ele>
        <time>2020-06-06T12:23:49Z</time>
      </trkpt>
      <trkpt lat="46.04196" lon="4.55266">
        <ele>758.2</ele>
        <time>2020-06-06T12:23:53Z</time>
      </trkpt>
      <trkpt lat="46.04187" lon="4.55258">
        <ele>758.2</ele>
        <time>2020-06-06T12:23:57Z</time>
      </trkpt>
      <trkpt lat="46.04179" lon="4.55251">
        <ele>759.2</ele>
        <time>2020-06-06T12:24:01Z</time>
      </trkpt>
      <trkpt lat="46.0417" lon="4.55243">
        <ele>759.6</ele>
        <time>2020-06-06T12:24:05Z</time>
      </trkpt>
      <trkpt lat="46.04162" lon="4.55234">
        <ele>760.2</ele>
        <time>2020-06-06T12:24:09Z</time>
      </trkpt>
      <trkpt lat="46.04153" lon="4.55227">
        <ele>761</ele>
        <time>2020-06-06T12:24:13Z</time>
      </trkpt>
      <trkpt lat="46.04142" lon="4.5522">
        <ele>761.4</ele>
        <time>2020-06-06T12:24:17Z</time>
      </trkpt>
      <trkpt lat="46.04131" lon="4.55217">
        <ele>762.4</ele>
        <time>2020-06-06T12:24:21Z</time>
      </trkpt>
      <trkpt lat="46.04131" lon="4.55217">
        <ele>762</ele>
        <time>2020-06-06T12:24:25Z</time>
      </trkpt>
      <trkpt lat="46.04116" lon="4.55214">
        <ele>762.4</ele>
        <time>2020-06-06T12:24:29Z</time>
      </trkpt>
      <trkpt lat="46.04107" lon="4.55211">
        <ele>763</ele>
        <time>2020-06-06T12:24:33Z</time>
      </trkpt>
      <trkpt lat="46.04097" lon="4.55207">
        <ele>763.6</ele>
        <time>2020-06-06T12:24:37Z</time>
      </trkpt>
      <trkpt lat="46.04086" lon="4.55205">
        <ele>763.6</ele>
        <time>2020-06-06T12:24:41Z</time>
      </trkpt>
      <trkpt lat="46.04075" lon="4.55205">
        <ele>764.2</ele>
        <time>2020-06-06T12:24:45Z</time>
      </trkpt>
      <trkpt lat="46.04063" lon="4.55205">
        <ele>764.6</ele>
        <time>2020-06-06T12:24:49Z</time>
      </trkpt>
      <trkpt lat="46.04052" lon="4.55204">
        <ele>765.4</ele>
        <time>2020-06-06T12:24:53Z</time>
      </trkpt>
      <trkpt lat="46.0404" lon="4.55204">
        <ele>765.8</ele>
        <time>2020-06-06T12:24:57Z</time>
      </trkpt>
      <trkpt lat="46.04028" lon="4.55207">
        <ele>765.2</ele>
        <time>2020-06-06T12:25:01Z</time>
      </trkpt>
      <trkpt lat="46.04016" lon="4.55212">
        <ele>766</ele>
        <time>2020-06-06T12:25:05Z</time>
      </trkpt>
      <trkpt lat="46.04005" lon="4.55223">
        <ele>767.2</ele>
        <time>2020-06-06T12:25:09Z</time>
      </trkpt>
      <trkpt lat="46.03994" lon="4.55234">
        <ele>767.2</ele>
        <time>2020-06-06T12:25:13Z</time>
      </trkpt>
      <trkpt lat="46.03984" lon="4.55246">
        <ele>767.4</ele>
        <time>2020-06-06T12:25:17Z</time>
      </trkpt>
      <trkpt lat="46.03975" lon="4.55257">
        <ele>768</ele>
        <time>2020-06-06T12:25:21Z</time>
      </trkpt>
      <trkpt lat="46.03966" lon="4.55269">
        <ele>768.4</ele>
        <time>2020-06-06T12:25:25Z</time>
      </trkpt>
      <trkpt lat="46.03956" lon="4.55281">
        <ele>769</ele>
        <time>2020-06-06T12:25:29Z</time>
      </trkpt>
      <trkpt lat="46.03947" lon="4.55292">
        <ele>770</ele>
        <time>2020-06-06T12:25:33Z</time>
      </trkpt>
      <trkpt lat="46.03939" lon="4.55305">
        <ele>769.6</ele>
        <time>2020-06-06T12:25:37Z</time>
      </trkpt>
      <trkpt lat="46.0393" lon="4.55317">
        <ele>770.4</ele>
        <time>2020-06-06T12:25:41Z</time>
      </trkpt>
      <trkpt lat="46.03923" lon="4.5533">
        <ele>771</ele>
        <time>2020-06-06T12:25:45Z</time>
      </trkpt>
      <trkpt lat="46.03914" lon="4.55342">
        <ele>771.2</ele>
        <time>2020-06-06T12:25:49Z</time>
      </trkpt>
      <trkpt lat="46.03904" lon="4.55353">
        <ele>771.6</ele>
        <time>2020-06-06T12:25:53Z</time>
      </trkpt>
      <trkpt lat="46.03894" lon="4.5536">
        <ele>772.2</ele>
        <time>2020-06-06T12:25:57Z</time>
      </trkpt>
      <trkpt lat="46.03883" lon="4.55365">
        <ele>772.6</ele>
        <time>2020-06-06T12:26:01Z</time>
      </trkpt>
      <trkpt lat="46.0387" lon="4.55367">
        <ele>773.2</ele>
        <time>2020-06-06T12:26:05Z</time>
      </trkpt>
      <trkpt lat="46.03858" lon="4.55365">
        <ele>773.6</ele>
        <time>2020-06-06T12:26:09Z</time>
      </trkpt>
      <trkpt lat="46.03847" lon="4.55361">
        <ele>774.2</ele>
        <time>2020-06-06T12:26:13Z</time>
      </trkpt>
      <trkpt lat="46.03836" lon="4.55357">
        <ele>775</ele>
        <time>2020-06-06T12:26:17Z</time>
      </trkpt>
      <trkpt lat="46.03825" lon="4.55355">
        <ele>775.2</ele>
        <time>2020-06-06T12:26:21Z</time>
      </trkpt>
      <trkpt lat="46.03813" lon="4.55354">
        <ele>776.2</ele>
        <time>2020-06-06T12:26:25Z</time>
      </trkpt>
      <trkpt lat="46.03801" lon="4.55356">
        <ele>777</ele>
        <time>2020-06-06T12:26:29Z</time>
      </trkpt>
      <trkpt lat="46.03789" lon="4.55361">
        <ele>777.2</ele>
        <time>2020-06-06T12:26:33Z</time>
      </trkpt>
      <trkpt lat="46.03777" lon="4.55369">
        <ele>777.6</ele>
        <time>2020-06-06T12:26:37Z</time>
      </trkpt>
      <trkpt lat="46.03765" lon="4.55378">
        <ele>777.2</ele>
        <time>2020-06-06T12:26:41Z</time>
      </trkpt>
      <trkpt lat="46.03754" lon="4.55387">
        <ele>777.8</ele>
        <time>2020-06-06T12:26:45Z</time>
      </trkpt>
      <trkpt lat="46.03741" lon="4.55396">
        <ele>778.6</ele>
        <time>2020-06-06T12:26:49Z</time>
      </trkpt>
      <trkpt lat="46.03729" lon="4.55404">
        <ele>778.8</ele>
        <time>2020-06-06T12:26:53Z</time>
      </trkpt>
      <trkpt lat="46.03717" lon="4.55408">
        <ele>780.2</ele>
        <time>2020-06-06T12:26:57Z</time>
      </trkpt>
      <trkpt lat="46.03705" lon="4.55411">
        <ele>781</ele>
        <time>2020-06-06T12:27:01Z</time>
      </trkpt>
      <trkpt lat="46.03693" lon="4.55416">
        <ele>780.6</ele>
        <time>2020-06-06T12:27:05Z</time>
      </trkpt>
      <trkpt lat="46.03682" lon="4.55424">
        <ele>781.2</ele>
        <time>2020-06-06T12:27:09Z</time>
      </trkpt>
      <trkpt lat="46.0367" lon="4.55434">
        <ele>781.8</ele>
        <time>2020-06-06T12:27:13Z</time>
      </trkpt>
      <trkpt lat="46.03659" lon="4.55446">
        <ele>782.2</ele>
        <time>2020-06-06T12:27:17Z</time>
      </trkpt>
      <trkpt lat="46.03649" lon="4.55458">
        <ele>782.2</ele>
        <time>2020-06-06T12:27:21Z</time>
      </trkpt>
      <trkpt lat="46.03639" lon="4.55469">
        <ele>782.8</ele>
        <time>2020-06-06T12:27:25Z</time>
      </trkpt>
      <trkpt lat="46.03628" lon="4.55479">
        <ele>783.4</ele>
        <time>2020-06-06T12:27:29Z</time>
      </trkpt>
      <trkpt lat="46.03615" lon="4.55484">
        <ele>784.2</ele>
        <time>2020-06-06T12:27:33Z</time>
      </trkpt>
      <trkpt lat="46.03603" lon="4.5548">
        <ele>785.2</ele>
        <time>2020-06-06T12:27:37Z</time>
      </trkpt>
      <trkpt lat="46.03592" lon="4.5547">
        <ele>786.2</ele>
        <time>2020-06-06T12:27:41Z</time>
      </trkpt>
      <trkpt lat="46.03584" lon="4.55457">
        <ele>786.4</ele>
        <time>2020-06-06T12:27:45Z</time>
      </trkpt>
      <trkpt lat="46.03576" lon="4.55444">
        <ele>787.6</ele>
        <time>2020-06-06T12:27:49Z</time>
      </trkpt>
      <trkpt lat="46.03569" lon="4.55431">
        <ele>788</ele>
        <time>2020-06-06T12:27:53Z</time>
      </trkpt>
      <trkpt lat="46.03562" lon="4.55419">
        <ele>788.2</ele>
        <time>2020-06-06T12:27:57Z</time>
      </trkpt>
      <trkpt lat="46.03553" lon="4.55408">
        <ele>789.2</ele>
        <time>2020-06-06T12:28:01Z</time>
      </trkpt>
      <trkpt lat="46.03542" lon="4.554">
        <ele>789</ele>
        <time>2020-06-06T12:28:05Z</time>
      </trkpt>
      <trkpt lat="46.03531" lon="4.55393">
        <ele>789.2</ele>
        <time>2020-06-06T12:28:09Z</time>
      </trkpt>
      <trkpt lat="46.03521" lon="4.55389">
        <ele>789.8</ele>
        <time>2020-06-06T12:28:13Z</time>
      </trkpt>
      <trkpt lat="46.0351" lon="4.55386">
        <ele>790.8</ele>
        <time>2020-06-06T12:28:17Z</time>
      </trkpt>
      <trkpt lat="46.03499" lon="4.55383">
        <ele>791.6</ele>
        <time>2020-06-06T12:28:21Z</time>
      </trkpt>
      <trkpt lat="46.03488" lon="4.5538">
        <ele>792.2</ele>
        <time>2020-06-06T12:28:25Z</time>
      </trkpt>
      <trkpt lat="46.03477" lon="4.55376">
        <ele>792.6</ele>
        <time>2020-06-06T12:28:29Z</time>
      </trkpt>
      <trkpt lat="46.03466" lon="4.5537">
        <ele>793.4</ele>
        <time>2020-06-06T12:28:33Z</time>
      </trkpt>
      <trkpt lat="46.03456" lon="4.55363">
        <ele>794</ele>
        <time>2020-06-06T12:28:37Z</time>
      </trkpt>
      <trkpt lat="46.03446" lon="4.55357">
        <ele>795</ele>
        <time>2020-06-06T12:28:41Z</time>
      </trkpt>
      <trkpt lat="46.03437" lon="4.55351">
        <ele>795.8</ele>
        <time>2020-06-06T12:28:45Z</time>
      </trkpt>
      <trkpt lat="46.03429" lon="4.55348">
        <ele>796.4</ele>
        <time>2020-06-06T12:28:49Z</time>
      </trkpt>
      <trkpt lat="46.03419" lon="4.55346">
        <ele>797</ele>
        <time>2020-06-06T12:28:53Z</time>
      </trkpt>
      <trkpt lat="46.0341" lon="4.55344">
        <ele>797.8</ele>
        <time>2020-06-06T12:28:57Z</time>
      </trkpt>
      <trkpt lat="46.03401" lon="4.55342">
        <ele>798.4</ele>
        <time>2020-06-06T12:29:01Z</time>
      </trkpt>
      <trkpt lat="46.03392" lon="4.5534">
        <ele>799.2</ele>
        <time>2020-06-06T12:29:05Z</time>
      </trkpt>
      <trkpt lat="46.03384" lon="4.55337">
        <ele>799.8</ele>
        <time>2020-06-06T12:29:09Z</time>
      </trkpt>
      <trkpt lat="46.03376" lon="4.55335">
        <ele>800</ele>
        <time>2020-06-06T12:29:13Z</time>
      </trkpt>
      <trkpt lat="46.03367" lon="4.55331">
        <ele>801.4</ele>
        <time>2020-06-06T12:29:17Z</time>
      </trkpt>
      <trkpt lat="46.0336" lon="4.55328">
        <ele>801.2</ele>
        <time>2020-06-06T12:29:21Z</time>
      </trkpt>
      <trkpt lat="46.03352" lon="4.55326">
        <ele>801.8</ele>
        <time>2020-06-06T12:29:25Z</time>
      </trkpt>
      <trkpt lat="46.03344" lon="4.55327">
        <ele>802.4</ele>
        <time>2020-06-06T12:29:29Z</time>
      </trkpt>
      <trkpt lat="46.03336" lon="4.55331">
        <ele>802.8</ele>
        <time>2020-06-06T12:29:33Z</time>
      </trkpt>
      <trkpt lat="46.03328" lon="4.55337">
        <ele>803.6</ele>
        <time>2020-06-06T12:29:37Z</time>
      </trkpt>
      <trkpt lat="46.03322" lon="4.55346">
        <ele>804</ele>
        <time>2020-06-06T12:29:41Z</time>
      </trkpt>
      <trkpt lat="46.03315" lon="4.55354">
        <ele>804.8</ele>
        <time>2020-06-06T12:29:45Z</time>
      </trkpt>
      <trkpt lat="46.03309" lon="4.55363">
        <ele>805.6</ele>
        <time>2020-06-06T12:29:49Z</time>
      </trkpt>
      <trkpt lat="46.03303" lon="4.5537">
        <ele>806.2</ele>
        <time>2020-06-06T12:29:53Z</time>
      </trkpt>
      <trkpt lat="46.03295" lon="4.55376">
        <ele>807</ele>
        <time>2020-06-06T12:29:57Z</time>
      </trkpt>
      <trkpt lat="46.03285" lon="4.55379">
        <ele>807.6</ele>
        <time>2020-06-06T12:30:01Z</time>
      </trkpt>
      <trkpt lat="46.03276" lon="4.55381">
        <ele>808</ele>
        <time>2020-06-06T12:30:05Z</time>
      </trkpt>
      <trkpt lat="46.03266" lon="4.55382">
        <ele>809</ele>
        <time>2020-06-06T12:30:09Z</time>
      </trkpt>
      <trkpt lat="46.03256" lon="4.55383">
        <ele>808.8</ele>
        <time>2020-06-06T12:30:13Z</time>
      </trkpt>
      <trkpt lat="46.03246" lon="4.55382">
        <ele>810.2</ele>
        <time>2020-06-06T12:30:17Z</time>
      </trkpt>
      <trkpt lat="46.03235" lon="4.55381">
        <ele>810</ele>
        <time>2020-06-06T12:30:21Z</time>
      </trkpt>
      <trkpt lat="46.03225" lon="4.55378">
        <ele>810.6</ele>
        <time>2020-06-06T12:30:25Z</time>
      </trkpt>
      <trkpt lat="46.03214" lon="4.55377">
        <ele>811</ele>
        <time>2020-06-06T12:30:29Z</time>
      </trkpt>
      <trkpt lat="46.03204" lon="4.55375">
        <ele>812.4</ele>
        <time>2020-06-06T12:30:33Z</time>
      </trkpt>
      <trkpt lat="46.03195" lon="4.55372">
        <ele>812.4</ele>
        <time>2020-06-06T12:30:37Z</time>
      </trkpt>
      <trkpt lat="46.03186" lon="4.5537">
        <ele>812.6</ele>
        <time>2020-06-06T12:30:41Z</time>
      </trkpt>
      <trkpt lat="46.0318" lon="4.5537">
        <ele>813.2</ele>
        <time>2020-06-06T12:30:45Z</time>
      </trkpt>
      <trkpt lat="46.03175" lon="4.55371">
        <ele>814.2</ele>
        <time>2020-06-06T12:30:49Z</time>
      </trkpt>
      <trkpt lat="46.03174" lon="4.55383">
        <ele>814.2</ele>
        <time>2020-06-06T12:30:53Z</time>
      </trkpt>
      <trkpt lat="46.03178" lon="4.55398">
        <ele>813.6</ele>
        <time>2020-06-06T12:30:57Z</time>
      </trkpt>
      <trkpt lat="46.03179" lon="4.55415">
        <ele>813.4</ele>
        <time>2020-06-06T12:31:01Z</time>
      </trkpt>
      <trkpt lat="46.0318" lon="4.55434">
        <ele>812.8</ele>
        <time>2020-06-06T12:31:05Z</time>
      </trkpt>
      <trkpt lat="46.03182" lon="4.5546">
        <ele>812.6</ele>
        <time>2020-06-06T12:33:14Z</time>
      </trkpt>
      <trkpt lat="46.03178" lon="4.55475">
        <ele>812.6</ele>
        <time>2020-06-06T12:33:18Z</time>
      </trkpt>
      <trkpt lat="46.03177" lon="4.55495">
        <ele>812.2</ele>
        <time>2020-06-06T12:33:22Z</time>
      </trkpt>
      <trkpt lat="46.03174" lon="4.55517">
        <ele>811.8</ele>
        <time>2020-06-06T12:33:26Z</time>
      </trkpt>
      <trkpt lat="46.03167" lon="4.55539">
        <ele>810</ele>
        <time>2020-06-06T12:33:30Z</time>
      </trkpt>
      <trkpt lat="46.03154" lon="4.55559">
        <ele>809</ele>
        <time>2020-06-06T12:33:34Z</time>
      </trkpt>
      <trkpt lat="46.03138" lon="4.55576">
        <ele>808.2</ele>
        <time>2020-06-06T12:33:38Z</time>
      </trkpt>
      <trkpt lat="46.03119" lon="4.55588">
        <ele>807.6</ele>
        <time>2020-06-06T12:33:42Z</time>
      </trkpt>
      <trkpt lat="46.03098" lon="4.55594">
        <ele>807</ele>
        <time>2020-06-06T12:33:46Z</time>
      </trkpt>
      <trkpt lat="46.03076" lon="4.55596">
        <ele>805.8</ele>
        <time>2020-06-06T12:33:50Z</time>
      </trkpt>
      <trkpt lat="46.03054" lon="4.55597">
        <ele>806</ele>
        <time>2020-06-06T12:33:54Z</time>
      </trkpt>
      <trkpt lat="46.03033" lon="4.55599">
        <ele>805.6</ele>
        <time>2020-06-06T12:33:58Z</time>
      </trkpt>
      <trkpt lat="46.03015" lon="4.55612">
        <ele>804.8</ele>
        <time>2020-06-06T12:34:02Z</time>
      </trkpt>
      <trkpt lat="46.03" lon="4.55632">
        <ele>804.8</ele>
        <time>2020-06-06T12:34:06Z</time>
      </trkpt>
      <trkpt lat="46.02991" lon="4.55656">
        <ele>803.8</ele>
        <time>2020-06-06T12:34:10Z</time>
      </trkpt>
      <trkpt lat="46.02984" lon="4.55688">
        <ele>802.4</ele>
        <time>2020-06-06T12:34:14Z</time>
      </trkpt>
      <trkpt lat="46.02976" lon="4.55718">
        <ele>802.6</ele>
        <time>2020-06-06T12:34:18Z</time>
      </trkpt>
      <trkpt lat="46.02964" lon="4.55749">
        <ele>801.2</ele>
        <time>2020-06-06T12:34:22Z</time>
      </trkpt>
      <trkpt lat="46.02945" lon="4.55781">
        <ele>800.8</ele>
        <time>2020-06-06T12:34:26Z</time>
      </trkpt>
      <trkpt lat="46.02925" lon="4.55807">
        <ele>800.4</ele>
        <time>2020-06-06T12:34:30Z</time>
      </trkpt>
      <trkpt lat="46.02905" lon="4.55828">
        <ele>799.2</ele>
        <time>2020-06-06T12:34:34Z</time>
      </trkpt>
      <trkpt lat="46.02884" lon="4.55851">
        <ele>798.6</ele>
        <time>2020-06-06T12:34:38Z</time>
      </trkpt>
      <trkpt lat="46.02862" lon="4.55871">
        <ele>797.8</ele>
        <time>2020-06-06T12:34:42Z</time>
      </trkpt>
      <trkpt lat="46.02838" lon="4.55885">
        <ele>797.6</ele>
        <time>2020-06-06T12:34:46Z</time>
      </trkpt>
      <trkpt lat="46.02813" lon="4.55888">
        <ele>798</ele>
        <time>2020-06-06T12:34:50Z</time>
      </trkpt>
      <trkpt lat="46.02788" lon="4.55883">
        <ele>796.8</ele>
        <time>2020-06-06T12:34:54Z</time>
      </trkpt>
      <trkpt lat="46.02762" lon="4.55876">
        <ele>796</ele>
        <time>2020-06-06T12:34:58Z</time>
      </trkpt>
      <trkpt lat="46.02737" lon="4.55865">
        <ele>794.2</ele>
        <time>2020-06-06T12:35:02Z</time>
      </trkpt>
      <trkpt lat="46.02711" lon="4.55856">
        <ele>793.8</ele>
        <time>2020-06-06T12:35:06Z</time>
      </trkpt>
      <trkpt lat="46.02685" lon="4.55846">
        <ele>792.8</ele>
        <time>2020-06-06T12:35:10Z</time>
      </trkpt>
      <trkpt lat="46.02659" lon="4.55838">
        <ele>792.6</ele>
        <time>2020-06-06T12:35:14Z</time>
      </trkpt>
      <trkpt lat="46.02637" lon="4.55836">
        <ele>793.6</ele>
        <time>2020-06-06T12:35:18Z</time>
      </trkpt>
      <trkpt lat="46.02621" lon="4.55841">
        <ele>792.4</ele>
        <time>2020-06-06T12:36:23Z</time>
      </trkpt>
      <trkpt lat="46.02611" lon="4.55847">
        <ele>792</ele>
        <time>2020-06-06T12:36:27Z</time>
      </trkpt>
      <trkpt lat="46.026" lon="4.55856">
        <ele>792</ele>
        <time>2020-06-06T12:36:31Z</time>
      </trkpt>
      <trkpt lat="46.02588" lon="4.55869">
        <ele>791.4</ele>
        <time>2020-06-06T12:36:35Z</time>
      </trkpt>
      <trkpt lat="46.02578" lon="4.55888">
        <ele>791.4</ele>
        <time>2020-06-06T12:36:39Z</time>
      </trkpt>
      <trkpt lat="46.02568" lon="4.55909">
        <ele>790.6</ele>
        <time>2020-06-06T12:36:43Z</time>
      </trkpt>
      <trkpt lat="46.02561" lon="4.55933">
        <ele>789.8</ele>
        <time>2020-06-06T12:36:47Z</time>
      </trkpt>
      <trkpt lat="46.02555" lon="4.55958">
        <ele>789.4</ele>
        <time>2020-06-06T12:36:51Z</time>
      </trkpt>
      <trkpt lat="46.02551" lon="4.55982">
        <ele>788.2</ele>
        <time>2020-06-06T12:36:55Z</time>
      </trkpt>
      <trkpt lat="46.02548" lon="4.56009">
        <ele>787.6</ele>
        <time>2020-06-06T12:36:59Z</time>
      </trkpt>
      <trkpt lat="46.02548" lon="4.56036">
        <ele>787</ele>
        <time>2020-06-06T12:37:03Z</time>
      </trkpt>
      <trkpt lat="46.02549" lon="4.56063">
        <ele>786.8</ele>
        <time>2020-06-06T12:37:07Z</time>
      </trkpt>
      <trkpt lat="46.02549" lon="4.56091">
        <ele>785.4</ele>
        <time>2020-06-06T12:37:11Z</time>
      </trkpt>
      <trkpt lat="46.02542" lon="4.56122">
        <ele>785.4</ele>
        <time>2020-06-06T12:37:15Z</time>
      </trkpt>
      <trkpt lat="46.02524" lon="4.56151">
        <ele>784</ele>
        <time>2020-06-06T12:37:19Z</time>
      </trkpt>
      <trkpt lat="46.02506" lon="4.56175">
        <ele>782.8</ele>
        <time>2020-06-06T12:37:23Z</time>
      </trkpt>
      <trkpt lat="46.0249" lon="4.56205">
        <ele>781.6</ele>
        <time>2020-06-06T12:37:27Z</time>
      </trkpt>
      <trkpt lat="46.02477" lon="4.56232">
        <ele>783</ele>
        <time>2020-06-06T12:37:31Z</time>
      </trkpt>
      <trkpt lat="46.02472" lon="4.56244">
        <ele>782.4</ele>
        <time>2020-06-06T12:38:48Z</time>
      </trkpt>
      <trkpt lat="46.02467" lon="4.56256">
        <ele>781.8</ele>
        <time>2020-06-06T12:38:52Z</time>
      </trkpt>
      <trkpt lat="46.02459" lon="4.56272">
        <ele>780.4</ele>
        <time>2020-06-06T12:38:56Z</time>
      </trkpt>
      <trkpt lat="46.02449" lon="4.56293">
        <ele>779.6</ele>
        <time>2020-06-06T12:39:00Z</time>
      </trkpt>
      <trkpt lat="46.02437" lon="4.56318">
        <ele>777.2</ele>
        <time>2020-06-06T12:39:04Z</time>
      </trkpt>
      <trkpt lat="46.02423" lon="4.56346">
        <ele>776</ele>
        <time>2020-06-06T12:39:08Z</time>
      </trkpt>
      <trkpt lat="46.02406" lon="4.56375">
        <ele>775.4</ele>
        <time>2020-06-06T12:39:12Z</time>
      </trkpt>
      <trkpt lat="46.02385" lon="4.56404">
        <ele>773.2</ele>
        <time>2020-06-06T12:39:16Z</time>
      </trkpt>
      <trkpt lat="46.02361" lon="4.56431">
        <ele>771.4</ele>
        <time>2020-06-06T12:39:20Z</time>
      </trkpt>
      <trkpt lat="46.02336" lon="4.5646">
        <ele>768</ele>
        <time>2020-06-06T12:39:24Z</time>
      </trkpt>
      <trkpt lat="46.0231" lon="4.56491">
        <ele>766.8</ele>
        <time>2020-06-06T12:39:28Z</time>
      </trkpt>
      <trkpt lat="46.02284" lon="4.56525">
        <ele>764.8</ele>
        <time>2020-06-06T12:39:32Z</time>
      </trkpt>
      <trkpt lat="46.02274" lon="4.56571">
        <ele>762.4</ele>
        <time>2020-06-06T12:39:36Z</time>
      </trkpt>
      <trkpt lat="46.02289" lon="4.56617">
        <ele>760.4</ele>
        <time>2020-06-06T12:39:40Z</time>
      </trkpt>
      <trkpt lat="46.02318" lon="4.56652">
        <ele>757.8</ele>
        <time>2020-06-06T12:39:44Z</time>
      </trkpt>
      <trkpt lat="46.02347" lon="4.56686">
        <ele>756</ele>
        <time>2020-06-06T12:39:48Z</time>
      </trkpt>
      <trkpt lat="46.02371" lon="4.5673">
        <ele>753.6</ele>
        <time>2020-06-06T12:39:52Z</time>
      </trkpt>
      <trkpt lat="46.02388" lon="4.56782">
        <ele>751.4</ele>
        <time>2020-06-06T12:39:56Z</time>
      </trkpt>
      <trkpt lat="46.02411" lon="4.56826">
        <ele>749</ele>
        <time>2020-06-06T12:40:00Z</time>
      </trkpt>
      <trkpt lat="46.02445" lon="4.56854">
        <ele>747.4</ele>
        <time>2020-06-06T12:40:04Z</time>
      </trkpt>
      <trkpt lat="46.02472" lon="4.56896">
        <ele>744.8</ele>
        <time>2020-06-06T12:40:08Z</time>
      </trkpt>
      <trkpt lat="46.02468" lon="4.56953">
        <ele>740.8</ele>
        <time>2020-06-06T12:40:12Z</time>
      </trkpt>
      <trkpt lat="46.02439" lon="4.56994">
        <ele>740.2</ele>
        <time>2020-06-06T12:40:16Z</time>
      </trkpt>
      <trkpt lat="46.02405" lon="4.57027">
        <ele>738.8</ele>
        <time>2020-06-06T12:40:20Z</time>
      </trkpt>
      <trkpt lat="46.0237" lon="4.57057">
        <ele>735.8</ele>
        <time>2020-06-06T12:40:24Z</time>
      </trkpt>
      <trkpt lat="46.02331" lon="4.57077">
        <ele>733.4</ele>
        <time>2020-06-06T12:40:28Z</time>
      </trkpt>
      <trkpt lat="46.0229" lon="4.5709">
        <ele>731</ele>
        <time>2020-06-06T12:40:32Z</time>
      </trkpt>
      <trkpt lat="46.02248" lon="4.57104">
        <ele>728.2</ele>
        <time>2020-06-06T12:40:36Z</time>
      </trkpt>
      <trkpt lat="46.02208" lon="4.57123">
        <ele>724.8</ele>
        <time>2020-06-06T12:40:40Z</time>
      </trkpt>
      <trkpt lat="46.02169" lon="4.57143">
        <ele>723.4</ele>
        <time>2020-06-06T12:40:44Z</time>
      </trkpt>
      <trkpt lat="46.02129" lon="4.57162">
        <ele>720.8</ele>
        <time>2020-06-06T12:40:48Z</time>
      </trkpt>
      <trkpt lat="46.02087" lon="4.57175">
        <ele>718.2</ele>
        <time>2020-06-06T12:40:52Z</time>
      </trkpt>
      <trkpt lat="46.02045" lon="4.57183">
        <ele>716.6</ele>
        <time>2020-06-06T12:40:56Z</time>
      </trkpt>
      <trkpt lat="46.02003" lon="4.57192">
        <ele>714.8</ele>
        <time>2020-06-06T12:41:00Z</time>
      </trkpt>
      <trkpt lat="46.01962" lon="4.57213">
        <ele>711.2</ele>
        <time>2020-06-06T12:41:04Z</time>
      </trkpt>
      <trkpt lat="46.01928" lon="4.57249">
        <ele>709</ele>
        <time>2020-06-06T12:41:08Z</time>
      </trkpt>
      <trkpt lat="46.01915" lon="4.57305">
        <ele>707.6</ele>
        <time>2020-06-06T12:41:12Z</time>
      </trkpt>
      <trkpt lat="46.01925" lon="4.5736">
        <ele>704.6</ele>
        <time>2020-06-06T12:41:16Z</time>
      </trkpt>
      <trkpt lat="46.01911" lon="4.57418">
        <ele>703.2</ele>
        <time>2020-06-06T12:41:20Z</time>
      </trkpt>
      <trkpt lat="46.0188" lon="4.57461">
        <ele>700.2</ele>
        <time>2020-06-06T12:41:24Z</time>
      </trkpt>
      <trkpt lat="46.01841" lon="4.57487">
        <ele>697.4</ele>
        <time>2020-06-06T12:41:28Z</time>
      </trkpt>
      <trkpt lat="46.01801" lon="4.57505">
        <ele>696</ele>
        <time>2020-06-06T12:41:32Z</time>
      </trkpt>
      <trkpt lat="46.0176" lon="4.57522">
        <ele>694.2</ele>
        <time>2020-06-06T12:41:36Z</time>
      </trkpt>
      <trkpt lat="46.01723" lon="4.57545">
        <ele>691.2</ele>
        <time>2020-06-06T12:41:40Z</time>
      </trkpt>
      <trkpt lat="46.01688" lon="4.5758">
        <ele>687.6</ele>
        <time>2020-06-06T12:41:44Z</time>
      </trkpt>
      <trkpt lat="46.01654" lon="4.57619">
        <ele>685</ele>
        <time>2020-06-06T12:41:48Z</time>
      </trkpt>
      <trkpt lat="46.0162" lon="4.5766">
        <ele>682.2</ele>
        <time>2020-06-06T12:41:52Z</time>
      </trkpt>
      <trkpt lat="46.01595" lon="4.57713">
        <ele>680</ele>
        <time>2020-06-06T12:41:56Z</time>
      </trkpt>
      <trkpt lat="46.0157" lon="4.57765">
        <ele>678.2</ele>
        <time>2020-06-06T12:42:00Z</time>
      </trkpt>
      <trkpt lat="46.01536" lon="4.57803">
        <ele>675</ele>
        <time>2020-06-06T12:42:04Z</time>
      </trkpt>
      <trkpt lat="46.01501" lon="4.57839">
        <ele>673.2</ele>
        <time>2020-06-06T12:42:08Z</time>
      </trkpt>
      <trkpt lat="46.01465" lon="4.57875">
        <ele>671.2</ele>
        <time>2020-06-06T12:42:12Z</time>
      </trkpt>
      <trkpt lat="46.0143" lon="4.57911">
        <ele>669.8</ele>
        <time>2020-06-06T12:42:16Z</time>
      </trkpt>
      <trkpt lat="46.01396" lon="4.57946">
        <ele>668.4</ele>
        <time>2020-06-06T12:42:20Z</time>
      </trkpt>
      <trkpt lat="46.01363" lon="4.57981">
        <ele>666.8</ele>
        <time>2020-06-06T12:42:24Z</time>
      </trkpt>
      <trkpt lat="46.01333" lon="4.58021">
        <ele>665</ele>
        <time>2020-06-06T12:42:28Z</time>
      </trkpt>
      <trkpt lat="46.01311" lon="4.58066">
        <ele>664.8</ele>
        <time>2020-06-06T12:42:32Z</time>
      </trkpt>
      <trkpt lat="46.01305" lon="4.58119">
        <ele>664.2</ele>
        <time>2020-06-06T12:42:36Z</time>
      </trkpt>
      <trkpt lat="46.01312" lon="4.5817">
        <ele>663.4</ele>
        <time>2020-06-06T12:42:40Z</time>
      </trkpt>
      <trkpt lat="46.01333" lon="4.58211">
        <ele>662.4</ele>
        <time>2020-06-06T12:42:44Z</time>
      </trkpt>
      <trkpt lat="46.01373" lon="4.58233">
        <ele>660.2</ele>
        <time>2020-06-06T12:42:48Z</time>
      </trkpt>
      <trkpt lat="46.01408" lon="4.58244">
        <ele>659.6</ele>
        <time>2020-06-06T12:42:52Z</time>
      </trkpt>
      <trkpt lat="46.01441" lon="4.58247">
        <ele>659.2</ele>
        <time>2020-06-06T12:42:56Z</time>
      </trkpt>
      <trkpt lat="46.01474" lon="4.58252">
        <ele>657.4</ele>
        <time>2020-06-06T12:43:00Z</time>
      </trkpt>
      <trkpt lat="46.01503" lon="4.58259">
        <ele>656.6</ele>
        <time>2020-06-06T12:43:04Z</time>
      </trkpt>
      <trkpt lat="46.01534" lon="4.58255">
        <ele>655.2</ele>
        <time>2020-06-06T12:43:08Z</time>
      </trkpt>
      <trkpt lat="46.01566" lon="4.58262">
        <ele>653.4</ele>
        <time>2020-06-06T12:43:12Z</time>
      </trkpt>
      <trkpt lat="46.01595" lon="4.58283">
        <ele>653.8</ele>
        <time>2020-06-06T12:43:16Z</time>
      </trkpt>
      <trkpt lat="46.01627" lon="4.58294">
        <ele>651</ele>
        <time>2020-06-06T12:43:20Z</time>
      </trkpt>
      <trkpt lat="46.01662" lon="4.58298">
        <ele>650</ele>
        <time>2020-06-06T12:43:24Z</time>
      </trkpt>
      <trkpt lat="46.01696" lon="4.58301">
        <ele>649.2</ele>
        <time>2020-06-06T12:43:28Z</time>
      </trkpt>
      <trkpt lat="46.0173" lon="4.58297">
        <ele>647.8</ele>
        <time>2020-06-06T12:43:32Z</time>
      </trkpt>
      <trkpt lat="46.01765" lon="4.5829">
        <ele>646</ele>
        <time>2020-06-06T12:43:36Z</time>
      </trkpt>
      <trkpt lat="46.01801" lon="4.58293">
        <ele>645</ele>
        <time>2020-06-06T12:43:40Z</time>
      </trkpt>
      <trkpt lat="46.01838" lon="4.58299">
        <ele>641</ele>
        <time>2020-06-06T12:43:44Z</time>
      </trkpt>
      <trkpt lat="46.01874" lon="4.583">
        <ele>639.6</ele>
        <time>2020-06-06T12:43:48Z</time>
      </trkpt>
      <trkpt lat="46.01911" lon="4.58292">
        <ele>638.2</ele>
        <time>2020-06-06T12:43:52Z</time>
      </trkpt>
      <trkpt lat="46.01946" lon="4.58283">
        <ele>635.8</ele>
        <time>2020-06-06T12:43:56Z</time>
      </trkpt>
      <trkpt lat="46.01982" lon="4.58274">
        <ele>633.8</ele>
        <time>2020-06-06T12:44:00Z</time>
      </trkpt>
      <trkpt lat="46.02001" lon="4.58305">
        <ele>633.8</ele>
        <time>2020-06-06T12:44:04Z</time>
      </trkpt>
      <trkpt lat="46.01979" lon="4.5834">
        <ele>631.8</ele>
        <time>2020-06-06T12:44:08Z</time>
      </trkpt>
      <trkpt lat="46.01947" lon="4.58367">
        <ele>629.6</ele>
        <time>2020-06-06T12:44:12Z</time>
      </trkpt>
      <trkpt lat="46.01912" lon="4.58395">
        <ele>627</ele>
        <time>2020-06-06T12:44:16Z</time>
      </trkpt>
      <trkpt lat="46.01874" lon="4.58424">
        <ele>624.6</ele>
        <time>2020-06-06T12:44:20Z</time>
      </trkpt>
      <trkpt lat="46.01836" lon="4.58456">
        <ele>619.6</ele>
        <time>2020-06-06T12:44:24Z</time>
      </trkpt>
      <trkpt lat="46.01802" lon="4.58498">
        <ele>616.6</ele>
        <time>2020-06-06T12:44:28Z</time>
      </trkpt>
      <trkpt lat="46.01764" lon="4.58536">
        <ele>613.8</ele>
        <time>2020-06-06T12:44:32Z</time>
      </trkpt>
      <trkpt lat="46.01721" lon="4.58552">
        <ele>611.2</ele>
        <time>2020-06-06T12:44:36Z</time>
      </trkpt>
      <trkpt lat="46.01676" lon="4.58563">
        <ele>607.4</ele>
        <time>2020-06-06T12:44:40Z</time>
      </trkpt>
      <trkpt lat="46.01632" lon="4.58574">
        <ele>605.4</ele>
        <time>2020-06-06T12:44:44Z</time>
      </trkpt>
      <trkpt lat="46.01588" lon="4.58586">
        <ele>603.2</ele>
        <time>2020-06-06T12:44:48Z</time>
      </trkpt>
      <trkpt lat="46.01545" lon="4.586">
        <ele>600.6</ele>
        <time>2020-06-06T12:44:52Z</time>
      </trkpt>
      <trkpt lat="46.01505" lon="4.58624">
        <ele>596.8</ele>
        <time>2020-06-06T12:44:56Z</time>
      </trkpt>
      <trkpt lat="46.01465" lon="4.58646">
        <ele>594.6</ele>
        <time>2020-06-06T12:45:00Z</time>
      </trkpt>
      <trkpt lat="46.01422" lon="4.58649">
        <ele>593</ele>
        <time>2020-06-06T12:45:04Z</time>
      </trkpt>
      <trkpt lat="46.01382" lon="4.58626">
        <ele>590.6</ele>
        <time>2020-06-06T12:45:08Z</time>
      </trkpt>
      <trkpt lat="46.01353" lon="4.58584">
        <ele>588.4</ele>
        <time>2020-06-06T12:45:12Z</time>
      </trkpt>
      <trkpt lat="46.01316" lon="4.5856">
        <ele>586.6</ele>
        <time>2020-06-06T12:45:16Z</time>
      </trkpt>
      <trkpt lat="46.01274" lon="4.58558">
        <ele>585</ele>
        <time>2020-06-06T12:45:20Z</time>
      </trkpt>
      <trkpt lat="46.01232" lon="4.5856">
        <ele>582.4</ele>
        <time>2020-06-06T12:45:24Z</time>
      </trkpt>
      <trkpt lat="46.0119" lon="4.58548">
        <ele>579.6</ele>
        <time>2020-06-06T12:45:28Z</time>
      </trkpt>
      <trkpt lat="46.01147" lon="4.58534">
        <ele>576.2</ele>
        <time>2020-06-06T12:45:32Z</time>
      </trkpt>
      <trkpt lat="46.01105" lon="4.58537">
        <ele>574.2</ele>
        <time>2020-06-06T12:45:36Z</time>
      </trkpt>
      <trkpt lat="46.01063" lon="4.58559">
        <ele>571.2</ele>
        <time>2020-06-06T12:45:40Z</time>
      </trkpt>
      <trkpt lat="46.01024" lon="4.5859">
        <ele>570.6</ele>
        <time>2020-06-06T12:45:44Z</time>
      </trkpt>
      <trkpt lat="46.00986" lon="4.58623">
        <ele>567.4</ele>
        <time>2020-06-06T12:45:48Z</time>
      </trkpt>
      <trkpt lat="46.0095" lon="4.58662">
        <ele>565.8</ele>
        <time>2020-06-06T12:45:52Z</time>
      </trkpt>
      <trkpt lat="46.0092" lon="4.58711">
        <ele>562</ele>
        <time>2020-06-06T12:45:56Z</time>
      </trkpt>
      <trkpt lat="46.00885" lon="4.58753">
        <ele>561.2</ele>
        <time>2020-06-06T12:46:00Z</time>
      </trkpt>
      <trkpt lat="46.00852" lon="4.58799">
        <ele>557</ele>
        <time>2020-06-06T12:46:04Z</time>
      </trkpt>
      <trkpt lat="46.00821" lon="4.58848">
        <ele>553.6</ele>
        <time>2020-06-06T12:46:08Z</time>
      </trkpt>
      <trkpt lat="46.00785" lon="4.5889">
        <ele>550.6</ele>
        <time>2020-06-06T12:46:12Z</time>
      </trkpt>
      <trkpt lat="46.00748" lon="4.58929">
        <ele>549.6</ele>
        <time>2020-06-06T12:46:16Z</time>
      </trkpt>
      <trkpt lat="46.00713" lon="4.58966">
        <ele>546.8</ele>
        <time>2020-06-06T12:46:20Z</time>
      </trkpt>
      <trkpt lat="46.00674" lon="4.58995">
        <ele>545</ele>
        <time>2020-06-06T12:46:24Z</time>
      </trkpt>
      <trkpt lat="46.00634" lon="4.59022">
        <ele>543</ele>
        <time>2020-06-06T12:46:28Z</time>
      </trkpt>
      <trkpt lat="46.00604" lon="4.59065">
        <ele>540.4</ele>
        <time>2020-06-06T12:46:32Z</time>
      </trkpt>
      <trkpt lat="46.00606" lon="4.59128">
        <ele>536.8</ele>
        <time>2020-06-06T12:46:36Z</time>
      </trkpt>
      <trkpt lat="46.00599" lon="4.59192">
        <ele>533</ele>
        <time>2020-06-06T12:46:40Z</time>
      </trkpt>
      <trkpt lat="46.00584" lon="4.59254">
        <ele>530.4</ele>
        <time>2020-06-06T12:46:44Z</time>
      </trkpt>
      <trkpt lat="46.00592" lon="4.59316">
        <ele>528</ele>
        <time>2020-06-06T12:46:48Z</time>
      </trkpt>
      <trkpt lat="46.00609" lon="4.59375">
        <ele>524.8</ele>
        <time>2020-06-06T12:46:52Z</time>
      </trkpt>
      <trkpt lat="46.00615" lon="4.59441">
        <ele>522.6</ele>
        <time>2020-06-06T12:46:56Z</time>
      </trkpt>
      <trkpt lat="46.00619" lon="4.59507">
        <ele>519</ele>
        <time>2020-06-06T12:47:00Z</time>
      </trkpt>
      <trkpt lat="46.0062" lon="4.59573">
        <ele>516</ele>
        <time>2020-06-06T12:47:04Z</time>
      </trkpt>
      <trkpt lat="46.00618" lon="4.5964">
        <ele>513.8</ele>
        <time>2020-06-06T12:47:08Z</time>
      </trkpt>
      <trkpt lat="46.00616" lon="4.59707">
        <ele>510.4</ele>
        <time>2020-06-06T12:47:12Z</time>
      </trkpt>
      <trkpt lat="46.00614" lon="4.59774">
        <ele>508.2</ele>
        <time>2020-06-06T12:47:16Z</time>
      </trkpt>
      <trkpt lat="46.00611" lon="4.59842">
        <ele>504.4</ele>
        <time>2020-06-06T12:47:20Z</time>
      </trkpt>
      <trkpt lat="46.00608" lon="4.5991">
        <ele>503.4</ele>
        <time>2020-06-06T12:47:24Z</time>
      </trkpt>
      <trkpt lat="46.00603" lon="4.59976">
        <ele>501.8</ele>
        <time>2020-06-06T12:47:28Z</time>
      </trkpt>
      <trkpt lat="46.00607" lon="4.60039">
        <ele>500.6</ele>
        <time>2020-06-06T12:47:32Z</time>
      </trkpt>
      <trkpt lat="46.00606" lon="4.60099">
        <ele>499.2</ele>
        <time>2020-06-06T12:47:36Z</time>
      </trkpt>
      <trkpt lat="46.00602" lon="4.6015">
        <ele>497.8</ele>
        <time>2020-06-06T12:47:40Z</time>
      </trkpt>
      <trkpt lat="46.00591" lon="4.60197">
        <ele>496</ele>
        <time>2020-06-06T12:47:44Z</time>
      </trkpt>
      <trkpt lat="46.00577" lon="4.60243">
        <ele>495.8</ele>
        <time>2020-06-06T12:47:48Z</time>
      </trkpt>
      <trkpt lat="46.00562" lon="4.60283">
        <ele>495.8</ele>
        <time>2020-06-06T12:47:52Z</time>
      </trkpt>
      <trkpt lat="46.00551" lon="4.60321">
        <ele>494.8</ele>
        <time>2020-06-06T12:47:56Z</time>
      </trkpt>
      <trkpt lat="46.00537" lon="4.60361">
        <ele>492.4</ele>
        <time>2020-06-06T12:48:00Z</time>
      </trkpt>
      <trkpt lat="46.00523" lon="4.60402">
        <ele>491.8</ele>
        <time>2020-06-06T12:48:04Z</time>
      </trkpt>
      <trkpt lat="46.00508" lon="4.60438">
        <ele>492.4</ele>
        <time>2020-06-06T12:48:08Z</time>
      </trkpt>
      <trkpt lat="46.00497" lon="4.60473">
        <ele>491.6</ele>
        <time>2020-06-06T12:48:12Z</time>
      </trkpt>
      <trkpt lat="46.00486" lon="4.6051">
        <ele>492</ele>
        <time>2020-06-06T12:48:16Z</time>
      </trkpt>
      <trkpt lat="46.00474" lon="4.60543">
        <ele>491.6</ele>
        <time>2020-06-06T12:48:20Z</time>
      </trkpt>
      <trkpt lat="46.00462" lon="4.60575">
        <ele>490.8</ele>
        <time>2020-06-06T12:48:24Z</time>
      </trkpt>
      <trkpt lat="46.00449" lon="4.60607">
        <ele>489.8</ele>
        <time>2020-06-06T12:48:28Z</time>
      </trkpt>
      <trkpt lat="46.00436" lon="4.6064">
        <ele>489.2</ele>
        <time>2020-06-06T12:48:32Z</time>
      </trkpt>
      <trkpt lat="46.00419" lon="4.60669">
        <ele>489.2</ele>
        <time>2020-06-06T12:48:36Z</time>
      </trkpt>
      <trkpt lat="46.00401" lon="4.60691">
        <ele>489.4</ele>
        <time>2020-06-06T12:48:40Z</time>
      </trkpt>
      <trkpt lat="46.0039" lon="4.60713">
        <ele>489.6</ele>
        <time>2020-06-06T12:48:44Z</time>
      </trkpt>
      <trkpt lat="46.00381" lon="4.60731">
        <ele>490</ele>
        <time>2020-06-06T12:48:48Z</time>
      </trkpt>
      <trkpt lat="46.00374" lon="4.6075">
        <ele>490.8</ele>
        <time>2020-06-06T12:48:52Z</time>
      </trkpt>
      <trkpt lat="46.00369" lon="4.60771">
        <ele>490.6</ele>
        <time>2020-06-06T12:48:56Z</time>
      </trkpt>
      <trkpt lat="46.00362" lon="4.60791">
        <ele>491</ele>
        <time>2020-06-06T12:49:00Z</time>
      </trkpt>
      <trkpt lat="46.00356" lon="4.60811">
        <ele>490.8</ele>
        <time>2020-06-06T12:49:04Z</time>
      </trkpt>
      <trkpt lat="46.0035" lon="4.60832">
        <ele>491</ele>
        <time>2020-06-06T12:49:08Z</time>
      </trkpt>
      <trkpt lat="46.00344" lon="4.60852">
        <ele>491.2</ele>
        <time>2020-06-06T12:49:12Z</time>
      </trkpt>
      <trkpt lat="46.00337" lon="4.60872">
        <ele>491.4</ele>
        <time>2020-06-06T12:49:16Z</time>
      </trkpt>
      <trkpt lat="46.00331" lon="4.60893">
        <ele>491</ele>
        <time>2020-06-06T12:49:20Z</time>
      </trkpt>
      <trkpt lat="46.00325" lon="4.60914">
        <ele>491.8</ele>
        <time>2020-06-06T12:49:24Z</time>
      </trkpt>
      <trkpt lat="46.00319" lon="4.60934">
        <ele>491.6</ele>
        <time>2020-06-06T12:49:28Z</time>
      </trkpt>
      <trkpt lat="46.00313" lon="4.60954">
        <ele>491.8</ele>
        <time>2020-06-06T12:49:32Z</time>
      </trkpt>
      <trkpt lat="46.00307" lon="4.60975">
        <ele>492</ele>
        <time>2020-06-06T12:49:36Z</time>
      </trkpt>
      <trkpt lat="46.003" lon="4.60996">
        <ele>492</ele>
        <time>2020-06-06T12:49:40Z</time>
      </trkpt>
      <trkpt lat="46.00294" lon="4.61017">
        <ele>492.2</ele>
        <time>2020-06-06T12:49:44Z</time>
      </trkpt>
      <trkpt lat="46.00289" lon="4.61039">
        <ele>492</ele>
        <time>2020-06-06T12:49:48Z</time>
      </trkpt>
      <trkpt lat="46.00282" lon="4.61059">
        <ele>492.4</ele>
        <time>2020-06-06T12:49:52Z</time>
      </trkpt>
      <trkpt lat="46.00275" lon="4.61081">
        <ele>492.8</ele>
        <time>2020-06-06T12:49:56Z</time>
      </trkpt>
      <trkpt lat="46.00269" lon="4.61101">
        <ele>493.2</ele>
        <time>2020-06-06T12:50:00Z</time>
      </trkpt>
      <trkpt lat="46.00263" lon="4.61122">
        <ele>493.6</ele>
        <time>2020-06-06T12:50:04Z</time>
      </trkpt>
      <trkpt lat="46.00256" lon="4.61143">
        <ele>494.2</ele>
        <time>2020-06-06T12:50:08Z</time>
      </trkpt>
      <trkpt lat="46.0025" lon="4.61165">
        <ele>494</ele>
        <time>2020-06-06T12:50:12Z</time>
      </trkpt>
      <trkpt lat="46.00243" lon="4.61187">
        <ele>494</ele>
        <time>2020-06-06T12:50:16Z</time>
      </trkpt>
      <trkpt lat="46.00236" lon="4.61211">
        <ele>494</ele>
        <time>2020-06-06T12:50:20Z</time>
      </trkpt>
      <trkpt lat="46.00229" lon="4.61233">
        <ele>494.4</ele>
        <time>2020-06-06T12:50:24Z</time>
      </trkpt>
      <trkpt lat="46.00223" lon="4.61255">
        <ele>494.4</ele>
        <time>2020-06-06T12:50:28Z</time>
      </trkpt>
      <trkpt lat="46.00215" lon="4.61279">
        <ele>494.4</ele>
        <time>2020-06-06T12:50:32Z</time>
      </trkpt>
      <trkpt lat="46.00207" lon="4.61301">
        <ele>495.2</ele>
        <time>2020-06-06T12:50:36Z</time>
      </trkpt>
      <trkpt lat="46.002" lon="4.61323">
        <ele>495.6</ele>
        <time>2020-06-06T12:50:40Z</time>
      </trkpt>
      <trkpt lat="46.00193" lon="4.61346">
        <ele>496</ele>
        <time>2020-06-06T12:50:44Z</time>
      </trkpt>
      <trkpt lat="46.00187" lon="4.61368">
        <ele>494.2</ele>
        <time>2020-06-06T12:50:48Z</time>
      </trkpt>
      <trkpt lat="46.00179" lon="4.61392">
        <ele>495.4</ele>
        <time>2020-06-06T12:50:52Z</time>
      </trkpt>
      <trkpt lat="46.00172" lon="4.61415">
        <ele>495.4</ele>
        <time>2020-06-06T12:50:56Z</time>
      </trkpt>
      <trkpt lat="46.00165" lon="4.61438">
        <ele>496</ele>
        <time>2020-06-06T12:51:00Z</time>
      </trkpt>
      <trkpt lat="46.00158" lon="4.61461">
        <ele>495.8</ele>
        <time>2020-06-06T12:51:04Z</time>
      </trkpt>
      <trkpt lat="46.00149" lon="4.61484">
        <ele>496</ele>
        <time>2020-06-06T12:51:08Z</time>
      </trkpt>
      <trkpt lat="46.00141" lon="4.61507">
        <ele>496.2</ele>
        <time>2020-06-06T12:51:12Z</time>
      </trkpt>
      <trkpt lat="46.00132" lon="4.61529">
        <ele>496.8</ele>
        <time>2020-06-06T12:51:16Z</time>
      </trkpt>
      <trkpt lat="46.00122" lon="4.61549">
        <ele>496.4</ele>
        <time>2020-06-06T12:51:20Z</time>
      </trkpt>
      <trkpt lat="46.00113" lon="4.61571">
        <ele>496.6</ele>
        <time>2020-06-06T12:51:24Z</time>
      </trkpt>
      <trkpt lat="46.00105" lon="4.61595">
        <ele>496.6</ele>
        <time>2020-06-06T12:51:28Z</time>
      </trkpt>
      <trkpt lat="46.00099" lon="4.6162">
        <ele>496.8</ele>
        <time>2020-06-06T12:51:32Z</time>
      </trkpt>
      <trkpt lat="46.00093" lon="4.61646">
        <ele>496.6</ele>
        <time>2020-06-06T12:51:36Z</time>
      </trkpt>
      <trkpt lat="46.00089" lon="4.61673">
        <ele>497</ele>
        <time>2020-06-06T12:51:40Z</time>
      </trkpt>
      <trkpt lat="46.00085" lon="4.61701">
        <ele>496.8</ele>
        <time>2020-06-06T12:51:44Z</time>
      </trkpt>
      <trkpt lat="46.00084" lon="4.61729">
        <ele>496.6</ele>
        <time>2020-06-06T12:51:48Z</time>
      </trkpt>
      <trkpt lat="46.00081" lon="4.61757">
        <ele>497</ele>
        <time>2020-06-06T12:51:52Z</time>
      </trkpt>
      <trkpt lat="46.00079" lon="4.61785">
        <ele>497</ele>
        <time>2020-06-06T12:51:56Z</time>
      </trkpt>
      <trkpt lat="46.00077" lon="4.61812">
        <ele>497</ele>
        <time>2020-06-06T12:52:00Z</time>
      </trkpt>
      <trkpt lat="46.00074" lon="4.61839">
        <ele>497.2</ele>
        <time>2020-06-06T12:52:04Z</time>
      </trkpt>
      <trkpt lat="46.00072" lon="4.61867">
        <ele>496.8</ele>
        <time>2020-06-06T12:52:08Z</time>
      </trkpt>
      <trkpt lat="46.0007" lon="4.61895">
        <ele>497.4</ele>
        <time>2020-06-06T12:52:12Z</time>
      </trkpt>
      <trkpt lat="46.00067" lon="4.61922">
        <ele>497.4</ele>
        <time>2020-06-06T12:52:16Z</time>
      </trkpt>
      <trkpt lat="46.00064" lon="4.61949">
        <ele>497.4</ele>
        <time>2020-06-06T12:52:20Z</time>
      </trkpt>
      <trkpt lat="46.00062" lon="4.61976">
        <ele>497.6</ele>
        <time>2020-06-06T12:52:24Z</time>
      </trkpt>
      <trkpt lat="46.0006" lon="4.62003">
        <ele>496.4</ele>
        <time>2020-06-06T12:52:28Z</time>
      </trkpt>
      <trkpt lat="46.00056" lon="4.62033">
        <ele>496.4</ele>
        <time>2020-06-06T12:52:32Z</time>
      </trkpt>
      <trkpt lat="46.00051" lon="4.62064">
        <ele>495.6</ele>
        <time>2020-06-06T12:52:36Z</time>
      </trkpt>
      <trkpt lat="46.00044" lon="4.62095">
        <ele>496.2</ele>
        <time>2020-06-06T12:52:40Z</time>
      </trkpt>
      <trkpt lat="46.00035" lon="4.62124">
        <ele>494.6</ele>
        <time>2020-06-06T12:52:44Z</time>
      </trkpt>
      <trkpt lat="46.00023" lon="4.62152">
        <ele>494.4</ele>
        <time>2020-06-06T12:52:48Z</time>
      </trkpt>
      <trkpt lat="46.00009" lon="4.62178">
        <ele>493.6</ele>
        <time>2020-06-06T12:52:52Z</time>
      </trkpt>
      <trkpt lat="45.99991" lon="4.622">
        <ele>492.4</ele>
        <time>2020-06-06T12:52:56Z</time>
      </trkpt>
      <trkpt lat="45.99972" lon="4.6222">
        <ele>492.2</ele>
        <time>2020-06-06T12:53:00Z</time>
      </trkpt>
      <trkpt lat="45.99954" lon="4.6224">
        <ele>492.6</ele>
        <time>2020-06-06T12:53:04Z</time>
      </trkpt>
      <trkpt lat="45.99942" lon="4.62265">
        <ele>491.6</ele>
        <time>2020-06-06T12:53:08Z</time>
      </trkpt>
      <trkpt lat="45.99934" lon="4.62294">
        <ele>491.8</ele>
        <time>2020-06-06T12:53:12Z</time>
      </trkpt>
      <trkpt lat="45.99931" lon="4.62325">
        <ele>492</ele>
        <time>2020-06-06T12:53:16Z</time>
      </trkpt>
      <trkpt lat="45.9993" lon="4.62355">
        <ele>492</ele>
        <time>2020-06-06T12:53:20Z</time>
      </trkpt>
      <trkpt lat="45.99929" lon="4.62384">
        <ele>492.2</ele>
        <time>2020-06-06T12:53:24Z</time>
      </trkpt>
      <trkpt lat="45.99928" lon="4.62411">
        <ele>492.6</ele>
        <time>2020-06-06T12:53:28Z</time>
      </trkpt>
      <trkpt lat="45.99927" lon="4.62437">
        <ele>493.2</ele>
        <time>2020-06-06T12:53:32Z</time>
      </trkpt>
      <trkpt lat="45.99927" lon="4.62461">
        <ele>493.4</ele>
        <time>2020-06-06T12:53:36Z</time>
      </trkpt>
      <trkpt lat="45.99927" lon="4.62482">
        <ele>494.2</ele>
        <time>2020-06-06T12:53:40Z</time>
      </trkpt>
      <trkpt lat="45.99927" lon="4.62504">
        <ele>494.4</ele>
        <time>2020-06-06T12:53:44Z</time>
      </trkpt>
      <trkpt lat="45.99926" lon="4.62525">
        <ele>494.8</ele>
        <time>2020-06-06T12:53:48Z</time>
      </trkpt>
      <trkpt lat="45.99926" lon="4.62546">
        <ele>494.8</ele>
        <time>2020-06-06T12:53:52Z</time>
      </trkpt>
      <trkpt lat="45.99924" lon="4.62567">
        <ele>495.2</ele>
        <time>2020-06-06T12:53:56Z</time>
      </trkpt>
      <trkpt lat="45.9992" lon="4.62587">
        <ele>495.6</ele>
        <time>2020-06-06T12:54:00Z</time>
      </trkpt>
      <trkpt lat="45.99911" lon="4.62606">
        <ele>495.4</ele>
        <time>2020-06-06T12:54:04Z</time>
      </trkpt>
      <trkpt lat="45.99901" lon="4.62624">
        <ele>495.2</ele>
        <time>2020-06-06T12:54:08Z</time>
      </trkpt>
      <trkpt lat="45.99887" lon="4.62629">
        <ele>495.4</ele>
        <time>2020-06-06T12:54:12Z</time>
      </trkpt>
      <trkpt lat="45.99875" lon="4.62626">
        <ele>496.6</ele>
        <time>2020-06-06T12:54:16Z</time>
      </trkpt>
      <trkpt lat="45.99866" lon="4.62628">
        <ele>496.8</ele>
        <time>2020-06-06T12:54:20Z</time>
      </trkpt>
      <trkpt lat="45.99858" lon="4.62636">
        <ele>497.2</ele>
        <time>2020-06-06T12:54:24Z</time>
      </trkpt>
      <trkpt lat="45.99854" lon="4.62648">
        <ele>498</ele>
        <time>2020-06-06T12:54:28Z</time>
      </trkpt>
      <trkpt lat="45.99851" lon="4.62662">
        <ele>498.4</ele>
        <time>2020-06-06T12:54:32Z</time>
      </trkpt>
      <trkpt lat="45.99849" lon="4.62675">
        <ele>498.4</ele>
        <time>2020-06-06T12:54:36Z</time>
      </trkpt>
      <trkpt lat="45.99844" lon="4.62686">
        <ele>499.4</ele>
        <time>2020-06-06T12:54:40Z</time>
      </trkpt>
      <trkpt lat="45.99838" lon="4.62692">
        <ele>500.4</ele>
        <time>2020-06-06T12:54:44Z</time>
      </trkpt>
      <trkpt lat="45.99831" lon="4.62692">
        <ele>501.2</ele>
        <time>2020-06-06T12:54:48Z</time>
      </trkpt>
      <trkpt lat="45.99824" lon="4.62689">
        <ele>501.8</ele>
        <time>2020-06-06T12:54:52Z</time>
      </trkpt>
      <trkpt lat="45.99818" lon="4.62684">
        <ele>502.4</ele>
        <time>2020-06-06T12:54:56Z</time>
      </trkpt>
      <trkpt lat="45.99814" lon="4.62676">
        <ele>503.2</ele>
        <time>2020-06-06T12:55:00Z</time>
      </trkpt>
      <trkpt lat="45.99809" lon="4.62666">
        <ele>503.8</ele>
        <time>2020-06-06T12:55:04Z</time>
      </trkpt>
      <trkpt lat="45.99805" lon="4.62658">
        <ele>504.6</ele>
        <time>2020-06-06T12:55:08Z</time>
      </trkpt>
      <trkpt lat="45.99801" lon="4.62647">
        <ele>505</ele>
        <time>2020-06-06T12:55:12Z</time>
      </trkpt>
      <trkpt lat="45.99801" lon="4.62634">
        <ele>505.6</ele>
        <time>2020-06-06T12:55:16Z</time>
      </trkpt>
      <trkpt lat="45.99805" lon="4.62621">
        <ele>504.8</ele>
        <time>2020-06-06T12:55:20Z</time>
      </trkpt>
      <trkpt lat="45.99811" lon="4.62612">
        <ele>506.2</ele>
        <time>2020-06-06T12:55:24Z</time>
      </trkpt>
      <trkpt lat="45.99819" lon="4.62609">
        <ele>507.4</ele>
        <time>2020-06-06T12:55:28Z</time>
      </trkpt>
      <trkpt lat="45.99827" lon="4.62606">
        <ele>507.6</ele>
        <time>2020-06-06T12:55:32Z</time>
      </trkpt>
      <trkpt lat="45.99836" lon="4.62603">
        <ele>508</ele>
        <time>2020-06-06T12:55:36Z</time>
      </trkpt>
      <trkpt lat="45.99844" lon="4.62598">
        <ele>508.8</ele>
        <time>2020-06-06T12:55:40Z</time>
      </trkpt>
      <trkpt lat="45.9985" lon="4.62589">
        <ele>509</ele>
        <time>2020-06-06T12:55:44Z</time>
      </trkpt>
      <trkpt lat="45.99853" lon="4.62578">
        <ele>510</ele>
        <time>2020-06-06T12:55:48Z</time>
      </trkpt>
      <trkpt lat="45.99853" lon="4.62566">
        <ele>510.2</ele>
        <time>2020-06-06T12:55:52Z</time>
      </trkpt>
      <trkpt lat="45.9985" lon="4.62554">
        <ele>510.8</ele>
        <time>2020-06-06T12:55:56Z</time>
      </trkpt>
      <trkpt lat="45.99844" lon="4.62545">
        <ele>511.8</ele>
        <time>2020-06-06T12:56:00Z</time>
      </trkpt>
      <trkpt lat="45.99837" lon="4.62537">
        <ele>511.8</ele>
        <time>2020-06-06T12:56:04Z</time>
      </trkpt>
      <trkpt lat="45.9983" lon="4.62528">
        <ele>512.8</ele>
        <time>2020-06-06T12:56:08Z</time>
      </trkpt>
      <trkpt lat="45.99823" lon="4.6252">
        <ele>513.2</ele>
        <time>2020-06-06T12:56:12Z</time>
      </trkpt>
      <trkpt lat="45.99816" lon="4.62511">
        <ele>514.2</ele>
        <time>2020-06-06T12:56:16Z</time>
      </trkpt>
      <trkpt lat="45.99809" lon="4.62503">
        <ele>514.8</ele>
        <time>2020-06-06T12:56:20Z</time>
      </trkpt>
      <trkpt lat="45.99802" lon="4.62494">
        <ele>516</ele>
        <time>2020-06-06T12:56:24Z</time>
      </trkpt>
      <trkpt lat="45.99794" lon="4.62486">
        <ele>516.2</ele>
        <time>2020-06-06T12:56:28Z</time>
      </trkpt>
      <trkpt lat="45.99787" lon="4.62478">
        <ele>516.4</ele>
        <time>2020-06-06T12:56:32Z</time>
      </trkpt>
      <trkpt lat="45.99779" lon="4.62471">
        <ele>517.8</ele>
        <time>2020-06-06T12:56:36Z</time>
      </trkpt>
      <trkpt lat="45.99771" lon="4.62465">
        <ele>518.6</ele>
        <time>2020-06-06T12:56:40Z</time>
      </trkpt>
      <trkpt lat="45.99762" lon="4.6246">
        <ele>519.2</ele>
        <time>2020-06-06T12:56:44Z</time>
      </trkpt>
      <trkpt lat="45.99753" lon="4.62459">
        <ele>519.2</ele>
        <time>2020-06-06T12:56:48Z</time>
      </trkpt>
      <trkpt lat="45.99744" lon="4.62459">
        <ele>519.8</ele>
        <time>2020-06-06T12:56:52Z</time>
      </trkpt>
      <trkpt lat="45.99735" lon="4.62459">
        <ele>520.4</ele>
        <time>2020-06-06T12:56:56Z</time>
      </trkpt>
      <trkpt lat="45.99725" lon="4.62459">
        <ele>521.4</ele>
        <time>2020-06-06T12:57:00Z</time>
      </trkpt>
      <trkpt lat="45.99716" lon="4.6246">
        <ele>522.4</ele>
        <time>2020-06-06T12:57:04Z</time>
      </trkpt>
      <trkpt lat="45.99707" lon="4.62461">
        <ele>522.6</ele>
        <time>2020-06-06T12:57:08Z</time>
      </trkpt>
      <trkpt lat="45.99697" lon="4.62461">
        <ele>523.4</ele>
        <time>2020-06-06T12:57:12Z</time>
      </trkpt>
      <trkpt lat="45.99687" lon="4.62461">
        <ele>524.2</ele>
        <time>2020-06-06T12:57:16Z</time>
      </trkpt>
      <trkpt lat="45.99678" lon="4.62461">
        <ele>524.4</ele>
        <time>2020-06-06T12:57:20Z</time>
      </trkpt>
      <trkpt lat="45.99668" lon="4.62461">
        <ele>525</ele>
        <time>2020-06-06T12:57:24Z</time>
      </trkpt>
      <trkpt lat="45.99658" lon="4.62461">
        <ele>526</ele>
        <time>2020-06-06T12:57:28Z</time>
      </trkpt>
      <trkpt lat="45.99649" lon="4.62461">
        <ele>526</ele>
        <time>2020-06-06T12:57:32Z</time>
      </trkpt>
      <trkpt lat="45.99639" lon="4.62461">
        <ele>526.8</ele>
        <time>2020-06-06T12:57:36Z</time>
      </trkpt>
      <trkpt lat="45.99628" lon="4.6246">
        <ele>527.4</ele>
        <time>2020-06-06T12:57:40Z</time>
      </trkpt>
      <trkpt lat="45.99617" lon="4.62457">
        <ele>528.2</ele>
        <time>2020-06-06T12:57:44Z</time>
      </trkpt>
      <trkpt lat="45.99607" lon="4.62453">
        <ele>528.6</ele>
        <time>2020-06-06T12:57:48Z</time>
      </trkpt>
      <trkpt lat="45.99596" lon="4.62447">
        <ele>529</ele>
        <time>2020-06-06T12:57:52Z</time>
      </trkpt>
      <trkpt lat="45.99585" lon="4.62441">
        <ele>529.2</ele>
        <time>2020-06-06T12:57:56Z</time>
      </trkpt>
      <trkpt lat="45.99575" lon="4.62435">
        <ele>530</ele>
        <time>2020-06-06T12:58:00Z</time>
      </trkpt>
      <trkpt lat="45.99565" lon="4.62429">
        <ele>530.8</ele>
        <time>2020-06-06T12:58:04Z</time>
      </trkpt>
      <trkpt lat="45.99555" lon="4.62423">
        <ele>531.2</ele>
        <time>2020-06-06T12:58:08Z</time>
      </trkpt>
      <trkpt lat="45.99545" lon="4.62418">
        <ele>531.6</ele>
        <time>2020-06-06T12:58:12Z</time>
      </trkpt>
      <trkpt lat="45.99534" lon="4.62412">
        <ele>532</ele>
        <time>2020-06-06T12:58:16Z</time>
      </trkpt>
      <trkpt lat="45.99523" lon="4.62405">
        <ele>532.8</ele>
        <time>2020-06-06T12:58:20Z</time>
      </trkpt>
      <trkpt lat="45.99512" lon="4.62399">
        <ele>533</ele>
        <time>2020-06-06T12:58:24Z</time>
      </trkpt>
      <trkpt lat="45.995" lon="4.62393">
        <ele>533.4</ele>
        <time>2020-06-06T12:58:28Z</time>
      </trkpt>
      <trkpt lat="45.99488" lon="4.62386">
        <ele>533.6</ele>
        <time>2020-06-06T12:58:32Z</time>
      </trkpt>
      <trkpt lat="45.99476" lon="4.62381">
        <ele>534</ele>
        <time>2020-06-06T12:58:36Z</time>
      </trkpt>
      <trkpt lat="45.99463" lon="4.62377">
        <ele>534.2</ele>
        <time>2020-06-06T12:58:40Z</time>
      </trkpt>
      <trkpt lat="45.9945" lon="4.62375">
        <ele>534.2</ele>
        <time>2020-06-06T12:58:44Z</time>
      </trkpt>
      <trkpt lat="45.99436" lon="4.62376">
        <ele>533.6</ele>
        <time>2020-06-06T12:58:48Z</time>
      </trkpt>
      <trkpt lat="45.99421" lon="4.62379">
        <ele>533.8</ele>
        <time>2020-06-06T12:58:52Z</time>
      </trkpt>
      <trkpt lat="45.99407" lon="4.62382">
        <ele>533.6</ele>
        <time>2020-06-06T12:58:56Z</time>
      </trkpt>
      <trkpt lat="45.99391" lon="4.62382">
        <ele>533.8</ele>
        <time>2020-06-06T12:59:00Z</time>
      </trkpt>
      <trkpt lat="45.99375" lon="4.6238">
        <ele>533.6</ele>
        <time>2020-06-06T12:59:04Z</time>
      </trkpt>
      <trkpt lat="45.99359" lon="4.62375">
        <ele>534</ele>
        <time>2020-06-06T12:59:08Z</time>
      </trkpt>
      <trkpt lat="45.99343" lon="4.62372">
        <ele>533.8</ele>
        <time>2020-06-06T12:59:12Z</time>
      </trkpt>
      <trkpt lat="45.99327" lon="4.62372">
        <ele>533.6</ele>
        <time>2020-06-06T12:59:16Z</time>
      </trkpt>
      <trkpt lat="45.9931" lon="4.62379">
        <ele>533.4</ele>
        <time>2020-06-06T12:59:20Z</time>
      </trkpt>
      <trkpt lat="45.99295" lon="4.6239">
        <ele>533.2</ele>
        <time>2020-06-06T12:59:24Z</time>
      </trkpt>
      <trkpt lat="45.99281" lon="4.62401">
        <ele>533</ele>
        <time>2020-06-06T12:59:28Z</time>
      </trkpt>
      <trkpt lat="45.99267" lon="4.62413">
        <ele>533.2</ele>
        <time>2020-06-06T12:59:32Z</time>
      </trkpt>
      <trkpt lat="45.99253" lon="4.62424">
        <ele>534.2</ele>
        <time>2020-06-06T12:59:36Z</time>
      </trkpt>
      <trkpt lat="45.99239" lon="4.62432">
        <ele>535.4</ele>
        <time>2020-06-06T12:59:40Z</time>
      </trkpt>
      <trkpt lat="45.99226" lon="4.62438">
        <ele>536</ele>
        <time>2020-06-06T12:59:44Z</time>
      </trkpt>
      <trkpt lat="45.99213" lon="4.62441">
        <ele>536.6</ele>
        <time>2020-06-06T12:59:48Z</time>
      </trkpt>
      <trkpt lat="45.99202" lon="4.62444">
        <ele>537.6</ele>
        <time>2020-06-06T12:59:52Z</time>
      </trkpt>
      <trkpt lat="45.99191" lon="4.62449">
        <ele>538.2</ele>
        <time>2020-06-06T12:59:56Z</time>
      </trkpt>
      <trkpt lat="45.99181" lon="4.62457">
        <ele>539.4</ele>
        <time>2020-06-06T13:00:00Z</time>
      </trkpt>
      <trkpt lat="45.99173" lon="4.62468">
        <ele>539.8</ele>
        <time>2020-06-06T13:00:04Z</time>
      </trkpt>
      <trkpt lat="45.99169" lon="4.6248">
        <ele>540</ele>
        <time>2020-06-06T13:00:08Z</time>
      </trkpt>
      <trkpt lat="45.99164" lon="4.62492">
        <ele>540.2</ele>
        <time>2020-06-06T13:00:12Z</time>
      </trkpt>
      <trkpt lat="45.99158" lon="4.62507">
        <ele>539.8</ele>
        <time>2020-06-06T13:00:16Z</time>
      </trkpt>
      <trkpt lat="45.99151" lon="4.62521">
        <ele>539.6</ele>
        <time>2020-06-06T13:00:20Z</time>
      </trkpt>
      <trkpt lat="45.99144" lon="4.62535">
        <ele>539.4</ele>
        <time>2020-06-06T13:00:24Z</time>
      </trkpt>
      <trkpt lat="45.99135" lon="4.62549">
        <ele>539.2</ele>
        <time>2020-06-06T13:00:28Z</time>
      </trkpt>
      <trkpt lat="45.9912" lon="4.62562">
        <ele>537.4</ele>
        <time>2020-06-06T13:00:32Z</time>
      </trkpt>
      <trkpt lat="45.99101" lon="4.62576">
        <ele>535.6</ele>
        <time>2020-06-06T13:00:36Z</time>
      </trkpt>
      <trkpt lat="45.99077" lon="4.62593">
        <ele>533.4</ele>
        <time>2020-06-06T13:00:40Z</time>
      </trkpt>
      <trkpt lat="45.99046" lon="4.62601">
        <ele>531.6</ele>
        <time>2020-06-06T13:00:44Z</time>
      </trkpt>
      <trkpt lat="45.99021" lon="4.62596">
        <ele>529.6</ele>
        <time>2020-06-06T13:00:48Z</time>
      </trkpt>
      <trkpt lat="45.98996" lon="4.62583">
        <ele>526.6</ele>
        <time>2020-06-06T13:00:52Z</time>
      </trkpt>
      <trkpt lat="45.98965" lon="4.62567">
        <ele>523.8</ele>
        <time>2020-06-06T13:00:56Z</time>
      </trkpt>
      <trkpt lat="45.98932" lon="4.62549">
        <ele>521</ele>
        <time>2020-06-06T13:01:00Z</time>
      </trkpt>
      <trkpt lat="45.989" lon="4.62528">
        <ele>518.4</ele>
        <time>2020-06-06T13:01:04Z</time>
      </trkpt>
      <trkpt lat="45.98867" lon="4.62508">
        <ele>516.2</ele>
        <time>2020-06-06T13:01:08Z</time>
      </trkpt>
      <trkpt lat="45.98833" lon="4.62489">
        <ele>514.6</ele>
        <time>2020-06-06T13:01:12Z</time>
      </trkpt>
      <trkpt lat="45.988" lon="4.6248">
        <ele>514</ele>
        <time>2020-06-06T13:01:16Z</time>
      </trkpt>
      <trkpt lat="45.98774" lon="4.62475">
        <ele>513.8</ele>
        <time>2020-06-06T13:01:20Z</time>
      </trkpt>
      <trkpt lat="45.98748" lon="4.62474">
        <ele>513</ele>
        <time>2020-06-06T13:01:24Z</time>
      </trkpt>
      <trkpt lat="45.98723" lon="4.62472">
        <ele>514.2</ele>
        <time>2020-06-06T13:01:28Z</time>
      </trkpt>
      <trkpt lat="45.98704" lon="4.62472">
        <ele>514.2</ele>
        <time>2020-06-06T13:01:32Z</time>
      </trkpt>
      <trkpt lat="45.98688" lon="4.62473">
        <ele>514.6</ele>
        <time>2020-06-06T13:01:36Z</time>
      </trkpt>
      <trkpt lat="45.98674" lon="4.62473">
        <ele>514.8</ele>
        <time>2020-06-06T13:01:40Z</time>
      </trkpt>
      <trkpt lat="45.98657" lon="4.62477">
        <ele>514.2</ele>
        <time>2020-06-06T13:01:44Z</time>
      </trkpt>
      <trkpt lat="45.98639" lon="4.62483">
        <ele>513.6</ele>
        <time>2020-06-06T13:01:48Z</time>
      </trkpt>
      <trkpt lat="45.98622" lon="4.6249">
        <ele>513.8</ele>
        <time>2020-06-06T13:01:52Z</time>
      </trkpt>
      <trkpt lat="45.98606" lon="4.62494">
        <ele>514.4</ele>
        <time>2020-06-06T13:01:56Z</time>
      </trkpt>
      <trkpt lat="45.98592" lon="4.62498">
        <ele>515.2</ele>
        <time>2020-06-06T13:02:00Z</time>
      </trkpt>
      <trkpt lat="45.9858" lon="4.62501">
        <ele>516.2</ele>
        <time>2020-06-06T13:02:04Z</time>
      </trkpt>
      <trkpt lat="45.98568" lon="4.62504">
        <ele>517</ele>
        <time>2020-06-06T13:02:08Z</time>
      </trkpt>
      <trkpt lat="45.98557" lon="4.62507">
        <ele>517.8</ele>
        <time>2020-06-06T13:02:12Z</time>
      </trkpt>
      <trkpt lat="45.98547" lon="4.6251">
        <ele>518.2</ele>
        <time>2020-06-06T13:02:16Z</time>
      </trkpt>
      <trkpt lat="45.98537" lon="4.62513">
        <ele>518.8</ele>
        <time>2020-06-06T13:02:20Z</time>
      </trkpt>
      <trkpt lat="45.98528" lon="4.62515">
        <ele>519.8</ele>
        <time>2020-06-06T13:02:24Z</time>
      </trkpt>
      <trkpt lat="45.98519" lon="4.62517">
        <ele>520.4</ele>
        <time>2020-06-06T13:02:28Z</time>
      </trkpt>
      <trkpt lat="45.9851" lon="4.62519">
        <ele>520.4</ele>
        <time>2020-06-06T13:02:32Z</time>
      </trkpt>
      <trkpt lat="45.98501" lon="4.6252">
        <ele>521.2</ele>
        <time>2020-06-06T13:02:36Z</time>
      </trkpt>
      <trkpt lat="45.98491" lon="4.62524">
        <ele>521.4</ele>
        <time>2020-06-06T13:02:40Z</time>
      </trkpt>
      <trkpt lat="45.98481" lon="4.62524">
        <ele>522.2</ele>
        <time>2020-06-06T13:02:44Z</time>
      </trkpt>
      <trkpt lat="45.98471" lon="4.62522">
        <ele>522.4</ele>
        <time>2020-06-06T13:02:48Z</time>
      </trkpt>
      <trkpt lat="45.98462" lon="4.6252">
        <ele>523.2</ele>
        <time>2020-06-06T13:02:52Z</time>
      </trkpt>
      <trkpt lat="45.98454" lon="4.62516">
        <ele>524.2</ele>
        <time>2020-06-06T13:02:56Z</time>
      </trkpt>
      <trkpt lat="45.98446" lon="4.6251">
        <ele>524.8</ele>
        <time>2020-06-06T13:03:00Z</time>
      </trkpt>
      <trkpt lat="45.98438" lon="4.62504">
        <ele>525</ele>
        <time>2020-06-06T13:03:04Z</time>
      </trkpt>
      <trkpt lat="45.98431" lon="4.62497">
        <ele>526</ele>
        <time>2020-06-06T13:03:08Z</time>
      </trkpt>
      <trkpt lat="45.98423" lon="4.6249">
        <ele>526</ele>
        <time>2020-06-06T13:03:12Z</time>
      </trkpt>
      <trkpt lat="45.98416" lon="4.62483">
        <ele>526.6</ele>
        <time>2020-06-06T13:03:16Z</time>
      </trkpt>
      <trkpt lat="45.9841" lon="4.62475">
        <ele>526.6</ele>
        <time>2020-06-06T13:03:20Z</time>
      </trkpt>
      <trkpt lat="45.98402" lon="4.62467">
        <ele>527.4</ele>
        <time>2020-06-06T13:03:24Z</time>
      </trkpt>
      <trkpt lat="45.98396" lon="4.62458">
        <ele>528</ele>
        <time>2020-06-06T13:03:28Z</time>
      </trkpt>
      <trkpt lat="45.9839" lon="4.62449">
        <ele>528.2</ele>
        <time>2020-06-06T13:03:32Z</time>
      </trkpt>
      <trkpt lat="45.98383" lon="4.62439">
        <ele>528.6</ele>
        <time>2020-06-06T13:03:36Z</time>
      </trkpt>
      <trkpt lat="45.98377" lon="4.62428">
        <ele>529.2</ele>
        <time>2020-06-06T13:03:40Z</time>
      </trkpt>
      <trkpt lat="45.98367" lon="4.62402">
        <ele>531</ele>
        <time>2020-06-06T13:07:31Z</time>
      </trkpt>
      <trkpt lat="45.98365" lon="4.6239">
        <ele>531.6</ele>
        <time>2020-06-06T13:07:35Z</time>
      </trkpt>
      <trkpt lat="45.98365" lon="4.62379">
        <ele>532.2</ele>
        <time>2020-06-06T13:07:39Z</time>
      </trkpt>
      <trkpt lat="45.98367" lon="4.62367">
        <ele>533.2</ele>
        <time>2020-06-06T13:07:43Z</time>
      </trkpt>
      <trkpt lat="45.98368" lon="4.62354">
        <ele>533.8</ele>
        <time>2020-06-06T13:07:47Z</time>
      </trkpt>
      <trkpt lat="45.98369" lon="4.62342">
        <ele>534.4</ele>
        <time>2020-06-06T13:07:51Z</time>
      </trkpt>
      <trkpt lat="45.9837" lon="4.62329">
        <ele>535</ele>
        <time>2020-06-06T13:07:55Z</time>
      </trkpt>
      <trkpt lat="45.98372" lon="4.62316">
        <ele>535.4</ele>
        <time>2020-06-06T13:07:59Z</time>
      </trkpt>
      <trkpt lat="45.98373" lon="4.62304">
        <ele>536.2</ele>
        <time>2020-06-06T13:08:03Z</time>
      </trkpt>
      <trkpt lat="45.98375" lon="4.62291">
        <ele>537</ele>
        <time>2020-06-06T13:08:07Z</time>
      </trkpt>
      <trkpt lat="45.98377" lon="4.62279">
        <ele>537.6</ele>
        <time>2020-06-06T13:08:11Z</time>
      </trkpt>
      <trkpt lat="45.98379" lon="4.62266">
        <ele>538.4</ele>
        <time>2020-06-06T13:08:15Z</time>
      </trkpt>
      <trkpt lat="45.9838" lon="4.62254">
        <ele>538.6</ele>
        <time>2020-06-06T13:08:19Z</time>
      </trkpt>
      <trkpt lat="45.98383" lon="4.62242">
        <ele>539.2</ele>
        <time>2020-06-06T13:08:23Z</time>
      </trkpt>
      <trkpt lat="45.98386" lon="4.62229">
        <ele>539.8</ele>
        <time>2020-06-06T13:08:27Z</time>
      </trkpt>
      <trkpt lat="45.9839" lon="4.62217">
        <ele>540.6</ele>
        <time>2020-06-06T13:08:31Z</time>
      </trkpt>
      <trkpt lat="45.98393" lon="4.62205">
        <ele>541</ele>
        <time>2020-06-06T13:08:35Z</time>
      </trkpt>
      <trkpt lat="45.98396" lon="4.62193">
        <ele>542.2</ele>
        <time>2020-06-06T13:08:39Z</time>
      </trkpt>
      <trkpt lat="45.984" lon="4.62181">
        <ele>542.4</ele>
        <time>2020-06-06T13:08:43Z</time>
      </trkpt>
      <trkpt lat="45.98404" lon="4.62169">
        <ele>543</ele>
        <time>2020-06-06T13:08:47Z</time>
      </trkpt>
      <trkpt lat="45.98408" lon="4.62157">
        <ele>543.6</ele>
        <time>2020-06-06T13:08:51Z</time>
      </trkpt>
      <trkpt lat="45.98412" lon="4.62145">
        <ele>544</ele>
        <time>2020-06-06T13:08:55Z</time>
      </trkpt>
      <trkpt lat="45.98416" lon="4.62133">
        <ele>545</ele>
        <time>2020-06-06T13:08:59Z</time>
      </trkpt>
      <trkpt lat="45.98419" lon="4.62121">
        <ele>545.6</ele>
        <time>2020-06-06T13:09:03Z</time>
      </trkpt>
      <trkpt lat="45.98422" lon="4.62107">
        <ele>546.2</ele>
        <time>2020-06-06T13:09:07Z</time>
      </trkpt>
      <trkpt lat="45.98425" lon="4.62094">
        <ele>546.6</ele>
        <time>2020-06-06T13:09:11Z</time>
      </trkpt>
      <trkpt lat="45.98427" lon="4.62081">
        <ele>548</ele>
        <time>2020-06-06T13:09:15Z</time>
      </trkpt>
      <trkpt lat="45.98428" lon="4.62067">
        <ele>548.6</ele>
        <time>2020-06-06T13:09:19Z</time>
      </trkpt>
      <trkpt lat="45.98429" lon="4.62054">
        <ele>549</ele>
        <time>2020-06-06T13:09:23Z</time>
      </trkpt>
      <trkpt lat="45.9843" lon="4.62041">
        <ele>549.8</ele>
        <time>2020-06-06T13:09:27Z</time>
      </trkpt>
      <trkpt lat="45.98431" lon="4.62028">
        <ele>550.4</ele>
        <time>2020-06-06T13:09:31Z</time>
      </trkpt>
      <trkpt lat="45.98432" lon="4.62015">
        <ele>550.6</ele>
        <time>2020-06-06T13:09:35Z</time>
      </trkpt>
      <trkpt lat="45.98432" lon="4.62002">
        <ele>550.8</ele>
        <time>2020-06-06T13:09:39Z</time>
      </trkpt>
      <trkpt lat="45.98433" lon="4.6199">
        <ele>551.6</ele>
        <time>2020-06-06T13:09:43Z</time>
      </trkpt>
      <trkpt lat="45.98435" lon="4.61977">
        <ele>552</ele>
        <time>2020-06-06T13:09:47Z</time>
      </trkpt>
      <trkpt lat="45.98436" lon="4.61964">
        <ele>552.8</ele>
        <time>2020-06-06T13:09:51Z</time>
      </trkpt>
      <trkpt lat="45.98436" lon="4.61951">
        <ele>553.4</ele>
        <time>2020-06-06T13:09:55Z</time>
      </trkpt>
      <trkpt lat="45.98436" lon="4.61938">
        <ele>553.8</ele>
        <time>2020-06-06T13:09:59Z</time>
      </trkpt>
      <trkpt lat="45.98435" lon="4.61925">
        <ele>554.4</ele>
        <time>2020-06-06T13:10:03Z</time>
      </trkpt>
      <trkpt lat="45.98434" lon="4.61912">
        <ele>554.6</ele>
        <time>2020-06-06T13:10:07Z</time>
      </trkpt>
      <trkpt lat="45.98432" lon="4.61899">
        <ele>555.6</ele>
        <time>2020-06-06T13:10:11Z</time>
      </trkpt>
      <trkpt lat="45.9843" lon="4.61886">
        <ele>555.6</ele>
        <time>2020-06-06T13:10:15Z</time>
      </trkpt>
      <trkpt lat="45.98428" lon="4.61873">
        <ele>556</ele>
        <time>2020-06-06T13:10:19Z</time>
      </trkpt>
      <trkpt lat="45.98425" lon="4.6186">
        <ele>556.6</ele>
        <time>2020-06-06T13:10:23Z</time>
      </trkpt>
      <trkpt lat="45.9842" lon="4.61848">
        <ele>556.8</ele>
        <time>2020-06-06T13:10:27Z</time>
      </trkpt>
      <trkpt lat="45.98416" lon="4.61836">
        <ele>557.8</ele>
        <time>2020-06-06T13:10:31Z</time>
      </trkpt>
      <trkpt lat="45.98412" lon="4.61824">
        <ele>558.4</ele>
        <time>2020-06-06T13:10:35Z</time>
      </trkpt>
      <trkpt lat="45.98407" lon="4.61812">
        <ele>559.4</ele>
        <time>2020-06-06T13:10:39Z</time>
      </trkpt>
      <trkpt lat="45.98402" lon="4.61801">
        <ele>560.2</ele>
        <time>2020-06-06T13:10:43Z</time>
      </trkpt>
      <trkpt lat="45.98397" lon="4.61789">
        <ele>561</ele>
        <time>2020-06-06T13:10:47Z</time>
      </trkpt>
      <trkpt lat="45.98393" lon="4.61776">
        <ele>561.6</ele>
        <time>2020-06-06T13:10:51Z</time>
      </trkpt>
      <trkpt lat="45.9839" lon="4.61764">
        <ele>562.4</ele>
        <time>2020-06-06T13:10:55Z</time>
      </trkpt>
      <trkpt lat="45.98387" lon="4.61752">
        <ele>563.2</ele>
        <time>2020-06-06T13:10:59Z</time>
      </trkpt>
      <trkpt lat="45.98384" lon="4.6174">
        <ele>563.4</ele>
        <time>2020-06-06T13:11:03Z</time>
      </trkpt>
      <trkpt lat="45.98383" lon="4.61726">
        <ele>564.6</ele>
        <time>2020-06-06T13:11:07Z</time>
      </trkpt>
      <trkpt lat="45.98381" lon="4.61713">
        <ele>565</ele>
        <time>2020-06-06T13:11:11Z</time>
      </trkpt>
      <trkpt lat="45.98379" lon="4.61699">
        <ele>565.8</ele>
        <time>2020-06-06T13:11:15Z</time>
      </trkpt>
      <trkpt lat="45.98377" lon="4.61684">
        <ele>566.6</ele>
        <time>2020-06-06T13:11:19Z</time>
      </trkpt>
      <trkpt lat="45.98376" lon="4.61668">
        <ele>567</ele>
        <time>2020-06-06T13:11:23Z</time>
      </trkpt>
      <trkpt lat="45.98375" lon="4.61653">
        <ele>568</ele>
        <time>2020-06-06T13:11:27Z</time>
      </trkpt>
      <trkpt lat="45.98374" lon="4.61641">
        <ele>568.4</ele>
        <time>2020-06-06T13:11:31Z</time>
      </trkpt>
      <trkpt lat="45.98375" lon="4.61633">
        <ele>569</ele>
        <time>2020-06-06T13:11:35Z</time>
      </trkpt>
      <trkpt lat="45.98373" lon="4.61615">
        <ele>568.4</ele>
        <time>2020-06-06T13:11:59Z</time>
      </trkpt>
      <trkpt lat="45.98374" lon="4.61598">
        <ele>568.8</ele>
        <time>2020-06-06T13:12:03Z</time>
      </trkpt>
      <trkpt lat="45.98379" lon="4.61581">
        <ele>569</ele>
        <time>2020-06-06T13:12:07Z</time>
      </trkpt>
      <trkpt lat="45.98385" lon="4.61564">
        <ele>569</ele>
        <time>2020-06-06T13:12:11Z</time>
      </trkpt>
      <trkpt lat="45.98395" lon="4.6155">
        <ele>569.6</ele>
        <time>2020-06-06T13:12:15Z</time>
      </trkpt>
      <trkpt lat="45.98406" lon="4.61539">
        <ele>569.6</ele>
        <time>2020-06-06T13:12:19Z</time>
      </trkpt>
      <trkpt lat="45.98417" lon="4.61528">
        <ele>569.6</ele>
        <time>2020-06-06T13:12:23Z</time>
      </trkpt>
      <trkpt lat="45.98428" lon="4.61516">
        <ele>569.8</ele>
        <time>2020-06-06T13:12:27Z</time>
      </trkpt>
      <trkpt lat="45.9844" lon="4.61505">
        <ele>569.6</ele>
        <time>2020-06-06T13:12:31Z</time>
      </trkpt>
      <trkpt lat="45.98453" lon="4.61492">
        <ele>569.6</ele>
        <time>2020-06-06T13:12:35Z</time>
      </trkpt>
      <trkpt lat="45.98465" lon="4.6148">
        <ele>570</ele>
        <time>2020-06-06T13:12:39Z</time>
      </trkpt>
      <trkpt lat="45.98477" lon="4.61468">
        <ele>570.4</ele>
        <time>2020-06-06T13:12:43Z</time>
      </trkpt>
      <trkpt lat="45.9849" lon="4.61456">
        <ele>570.8</ele>
        <time>2020-06-06T13:12:47Z</time>
      </trkpt>
      <trkpt lat="45.98501" lon="4.61444">
        <ele>570.6</ele>
        <time>2020-06-06T13:12:51Z</time>
      </trkpt>
      <trkpt lat="45.98512" lon="4.6143">
        <ele>571.4</ele>
        <time>2020-06-06T13:12:55Z</time>
      </trkpt>
      <trkpt lat="45.98521" lon="4.61415">
        <ele>571.4</ele>
        <time>2020-06-06T13:12:59Z</time>
      </trkpt>
      <trkpt lat="45.98529" lon="4.614">
        <ele>572.2</ele>
        <time>2020-06-06T13:13:03Z</time>
      </trkpt>
      <trkpt lat="45.98531" lon="4.6138">
        <ele>572.2</ele>
        <time>2020-06-06T13:13:07Z</time>
      </trkpt>
      <trkpt lat="45.98529" lon="4.6136">
        <ele>572.8</ele>
        <time>2020-06-06T13:13:11Z</time>
      </trkpt>
      <trkpt lat="45.98524" lon="4.61342">
        <ele>573.6</ele>
        <time>2020-06-06T13:13:15Z</time>
      </trkpt>
      <trkpt lat="45.98519" lon="4.61327">
        <ele>574.2</ele>
        <time>2020-06-06T13:13:19Z</time>
      </trkpt>
      <trkpt lat="45.98512" lon="4.61314">
        <ele>574.6</ele>
        <time>2020-06-06T13:13:23Z</time>
      </trkpt>
      <trkpt lat="45.98505" lon="4.61302">
        <ele>575</ele>
        <time>2020-06-06T13:13:27Z</time>
      </trkpt>
      <trkpt lat="45.98498" lon="4.61288">
        <ele>575.6</ele>
        <time>2020-06-06T13:13:31Z</time>
      </trkpt>
      <trkpt lat="45.9849" lon="4.61275">
        <ele>576.2</ele>
        <time>2020-06-06T13:13:35Z</time>
      </trkpt>
      <trkpt lat="45.98482" lon="4.61263">
        <ele>576</ele>
        <time>2020-06-06T13:13:39Z</time>
      </trkpt>
      <trkpt lat="45.98474" lon="4.6125">
        <ele>576.8</ele>
        <time>2020-06-06T13:13:43Z</time>
      </trkpt>
      <trkpt lat="45.98466" lon="4.61238">
        <ele>577.4</ele>
        <time>2020-06-06T13:13:47Z</time>
      </trkpt>
      <trkpt lat="45.98459" lon="4.61225">
        <ele>577.8</ele>
        <time>2020-06-06T13:13:51Z</time>
      </trkpt>
      <trkpt lat="45.98452" lon="4.61213">
        <ele>578</ele>
        <time>2020-06-06T13:13:55Z</time>
      </trkpt>
      <trkpt lat="45.98444" lon="4.61201">
        <ele>578.8</ele>
        <time>2020-06-06T13:13:59Z</time>
      </trkpt>
      <trkpt lat="45.98436" lon="4.61189">
        <ele>579.2</ele>
        <time>2020-06-06T13:14:03Z</time>
      </trkpt>
      <trkpt lat="45.98427" lon="4.61179">
        <ele>579.8</ele>
        <time>2020-06-06T13:14:07Z</time>
      </trkpt>
      <trkpt lat="45.98419" lon="4.61168">
        <ele>580.4</ele>
        <time>2020-06-06T13:14:11Z</time>
      </trkpt>
      <trkpt lat="45.98411" lon="4.61158">
        <ele>581.8</ele>
        <time>2020-06-06T13:14:15Z</time>
      </trkpt>
      <trkpt lat="45.98403" lon="4.61147">
        <ele>582</ele>
        <time>2020-06-06T13:14:19Z</time>
      </trkpt>
      <trkpt lat="45.98394" lon="4.61136">
        <ele>582</ele>
        <time>2020-06-06T13:14:23Z</time>
      </trkpt>
      <trkpt lat="45.98386" lon="4.61124">
        <ele>582.8</ele>
        <time>2020-06-06T13:14:27Z</time>
      </trkpt>
      <trkpt lat="45.98379" lon="4.6111">
        <ele>583.8</ele>
        <time>2020-06-06T13:14:31Z</time>
      </trkpt>
      <trkpt lat="45.98373" lon="4.61097">
        <ele>583.8</ele>
        <time>2020-06-06T13:14:35Z</time>
      </trkpt>
      <trkpt lat="45.98367" lon="4.61083">
        <ele>584.2</ele>
        <time>2020-06-06T13:14:39Z</time>
      </trkpt>
      <trkpt lat="45.98362" lon="4.61069">
        <ele>585</ele>
        <time>2020-06-06T13:14:43Z</time>
      </trkpt>
      <trkpt lat="45.98357" lon="4.61054">
        <ele>585.6</ele>
        <time>2020-06-06T13:14:47Z</time>
      </trkpt>
      <trkpt lat="45.98354" lon="4.61039">
        <ele>585.2</ele>
        <time>2020-06-06T13:14:51Z</time>
      </trkpt>
      <trkpt lat="45.98351" lon="4.61022">
        <ele>585.8</ele>
        <time>2020-06-06T13:14:55Z</time>
      </trkpt>
      <trkpt lat="45.98348" lon="4.61006">
        <ele>587</ele>
        <time>2020-06-06T13:14:59Z</time>
      </trkpt>
      <trkpt lat="45.98347" lon="4.6099">
        <ele>587</ele>
        <time>2020-06-06T13:15:03Z</time>
      </trkpt>
      <trkpt lat="45.98345" lon="4.60974">
        <ele>587.4</ele>
        <time>2020-06-06T13:15:07Z</time>
      </trkpt>
      <trkpt lat="45.98344" lon="4.60959">
        <ele>587.8</ele>
        <time>2020-06-06T13:15:11Z</time>
      </trkpt>
      <trkpt lat="45.98345" lon="4.60943">
        <ele>588.6</ele>
        <time>2020-06-06T13:15:15Z</time>
      </trkpt>
      <trkpt lat="45.98347" lon="4.60927">
        <ele>589.6</ele>
        <time>2020-06-06T13:15:19Z</time>
      </trkpt>
      <trkpt lat="45.9835" lon="4.60912">
        <ele>589.6</ele>
        <time>2020-06-06T13:15:23Z</time>
      </trkpt>
      <trkpt lat="45.98355" lon="4.60899">
        <ele>589.8</ele>
        <time>2020-06-06T13:15:27Z</time>
      </trkpt>
      <trkpt lat="45.98359" lon="4.60882">
        <ele>590.6</ele>
        <time>2020-06-06T13:15:31Z</time>
      </trkpt>
      <trkpt lat="45.98362" lon="4.60866">
        <ele>590.8</ele>
        <time>2020-06-06T13:15:35Z</time>
      </trkpt>
      <trkpt lat="45.98366" lon="4.60852">
        <ele>591.2</ele>
        <time>2020-06-06T13:15:39Z</time>
      </trkpt>
      <trkpt lat="45.98368" lon="4.60838">
        <ele>591.8</ele>
        <time>2020-06-06T13:15:43Z</time>
      </trkpt>
      <trkpt lat="45.98369" lon="4.60826">
        <ele>592.2</ele>
        <time>2020-06-06T13:15:47Z</time>
      </trkpt>
      <trkpt lat="45.9837" lon="4.60816">
        <ele>592.2</ele>
        <time>2020-06-06T13:15:51Z</time>
      </trkpt>
      <trkpt lat="45.98372" lon="4.60804">
        <ele>591.4</ele>
        <time>2020-06-06T13:15:55Z</time>
      </trkpt>
      <trkpt lat="45.98378" lon="4.60791">
        <ele>591.6</ele>
        <time>2020-06-06T13:15:59Z</time>
      </trkpt>
      <trkpt lat="45.98386" lon="4.60778">
        <ele>591</ele>
        <time>2020-06-06T13:16:03Z</time>
      </trkpt>
      <trkpt lat="45.98394" lon="4.60763">
        <ele>590.4</ele>
        <time>2020-06-06T13:16:07Z</time>
      </trkpt>
      <trkpt lat="45.98401" lon="4.60749">
        <ele>590.8</ele>
        <time>2020-06-06T13:16:11Z</time>
      </trkpt>
      <trkpt lat="45.98411" lon="4.60734">
        <ele>590.4</ele>
        <time>2020-06-06T13:16:15Z</time>
      </trkpt>
      <trkpt lat="45.9842" lon="4.60717">
        <ele>589.8</ele>
        <time>2020-06-06T13:16:19Z</time>
      </trkpt>
      <trkpt lat="45.98431" lon="4.60699">
        <ele>590.2</ele>
        <time>2020-06-06T13:16:23Z</time>
      </trkpt>
      <trkpt lat="45.98441" lon="4.60679">
        <ele>589.2</ele>
        <time>2020-06-06T13:16:27Z</time>
      </trkpt>
      <trkpt lat="45.98451" lon="4.60657">
        <ele>588.4</ele>
        <time>2020-06-06T13:16:31Z</time>
      </trkpt>
      <trkpt lat="45.98461" lon="4.60635">
        <ele>587.8</ele>
        <time>2020-06-06T13:16:35Z</time>
      </trkpt>
      <trkpt lat="45.98469" lon="4.60612">
        <ele>587.2</ele>
        <time>2020-06-06T13:16:39Z</time>
      </trkpt>
      <trkpt lat="45.98477" lon="4.60589">
        <ele>587.8</ele>
        <time>2020-06-06T13:16:43Z</time>
      </trkpt>
      <trkpt lat="45.98485" lon="4.60566">
        <ele>586.6</ele>
        <time>2020-06-06T13:16:47Z</time>
      </trkpt>
      <trkpt lat="45.98493" lon="4.60542">
        <ele>585.8</ele>
        <time>2020-06-06T13:16:51Z</time>
      </trkpt>
      <trkpt lat="45.98502" lon="4.60517">
        <ele>586.2</ele>
        <time>2020-06-06T13:16:55Z</time>
      </trkpt>
      <trkpt lat="45.9851" lon="4.60491">
        <ele>585.6</ele>
        <time>2020-06-06T13:16:59Z</time>
      </trkpt>
      <trkpt lat="45.98519" lon="4.60468">
        <ele>586</ele>
        <time>2020-06-06T13:17:03Z</time>
      </trkpt>
      <trkpt lat="45.98527" lon="4.60449">
        <ele>586.8</ele>
        <time>2020-06-06T13:17:07Z</time>
      </trkpt>
      <trkpt lat="45.98536" lon="4.60435">
        <ele>587.8</ele>
        <time>2020-06-06T13:17:11Z</time>
      </trkpt>
      <trkpt lat="45.98544" lon="4.60423">
        <ele>588.4</ele>
        <time>2020-06-06T13:17:15Z</time>
      </trkpt>
      <trkpt lat="45.98551" lon="4.60412">
        <ele>589</ele>
        <time>2020-06-06T13:17:19Z</time>
      </trkpt>
      <trkpt lat="45.98557" lon="4.60401">
        <ele>590</ele>
        <time>2020-06-06T13:17:23Z</time>
      </trkpt>
      <trkpt lat="45.98563" lon="4.60392">
        <ele>590.4</ele>
        <time>2020-06-06T13:17:27Z</time>
      </trkpt>
      <trkpt lat="45.98568" lon="4.60381">
        <ele>591.2</ele>
        <time>2020-06-06T13:17:31Z</time>
      </trkpt>
      <trkpt lat="45.98573" lon="4.60372">
        <ele>591.8</ele>
        <time>2020-06-06T13:17:35Z</time>
      </trkpt>
      <trkpt lat="45.98575" lon="4.60361">
        <ele>593</ele>
        <time>2020-06-06T13:17:39Z</time>
      </trkpt>
      <trkpt lat="45.98576" lon="4.60351">
        <ele>593.8</ele>
        <time>2020-06-06T13:17:43Z</time>
      </trkpt>
      <trkpt lat="45.98576" lon="4.60351">
        <ele>593.6</ele>
        <time>2020-06-06T13:17:47Z</time>
      </trkpt>
      <trkpt lat="45.98573" lon="4.60336">
        <ele>593.8</ele>
        <time>2020-06-06T13:21:04Z</time>
      </trkpt>
      <trkpt lat="45.98572" lon="4.60326">
        <ele>595</ele>
        <time>2020-06-06T13:21:08Z</time>
      </trkpt>
      <trkpt lat="45.98569" lon="4.60315">
        <ele>595.6</ele>
        <time>2020-06-06T13:21:12Z</time>
      </trkpt>
      <trkpt lat="45.98564" lon="4.60305">
        <ele>595.6</ele>
        <time>2020-06-06T13:21:16Z</time>
      </trkpt>
      <trkpt lat="45.98559" lon="4.60295">
        <ele>596.6</ele>
        <time>2020-06-06T13:21:20Z</time>
      </trkpt>
      <trkpt lat="45.98554" lon="4.60285">
        <ele>597</ele>
        <time>2020-06-06T13:21:24Z</time>
      </trkpt>
      <trkpt lat="45.9855" lon="4.60275">
        <ele>597.8</ele>
        <time>2020-06-06T13:21:28Z</time>
      </trkpt>
      <trkpt lat="45.98545" lon="4.60265">
        <ele>598</ele>
        <time>2020-06-06T13:21:32Z</time>
      </trkpt>
      <trkpt lat="45.98541" lon="4.60255">
        <ele>598.8</ele>
        <time>2020-06-06T13:21:36Z</time>
      </trkpt>
      <trkpt lat="45.98536" lon="4.60245">
        <ele>599</ele>
        <time>2020-06-06T13:21:40Z</time>
      </trkpt>
      <trkpt lat="45.98531" lon="4.60236">
        <ele>599.6</ele>
        <time>2020-06-06T13:21:44Z</time>
      </trkpt>
      <trkpt lat="45.98526" lon="4.60225">
        <ele>600.6</ele>
        <time>2020-06-06T13:21:48Z</time>
      </trkpt>
      <trkpt lat="45.98521" lon="4.60215">
        <ele>600.8</ele>
        <time>2020-06-06T13:21:52Z</time>
      </trkpt>
      <trkpt lat="45.98517" lon="4.60205">
        <ele>601.6</ele>
        <time>2020-06-06T13:21:56Z</time>
      </trkpt>
      <trkpt lat="45.98512" lon="4.60194">
        <ele>601.8</ele>
        <time>2020-06-06T13:22:00Z</time>
      </trkpt>
      <trkpt lat="45.98508" lon="4.60183">
        <ele>602.6</ele>
        <time>2020-06-06T13:22:04Z</time>
      </trkpt>
      <trkpt lat="45.98503" lon="4.60173">
        <ele>602.8</ele>
        <time>2020-06-06T13:22:08Z</time>
      </trkpt>
      <trkpt lat="45.98498" lon="4.60163">
        <ele>603.6</ele>
        <time>2020-06-06T13:22:12Z</time>
      </trkpt>
      <trkpt lat="45.98493" lon="4.60154">
        <ele>604.4</ele>
        <time>2020-06-06T13:22:16Z</time>
      </trkpt>
      <trkpt lat="45.98488" lon="4.60144">
        <ele>605.2</ele>
        <time>2020-06-06T13:22:20Z</time>
      </trkpt>
      <trkpt lat="45.98484" lon="4.60133">
        <ele>606</ele>
        <time>2020-06-06T13:22:24Z</time>
      </trkpt>
      <trkpt lat="45.98478" lon="4.60123">
        <ele>605.8</ele>
        <time>2020-06-06T13:22:28Z</time>
      </trkpt>
      <trkpt lat="45.98474" lon="4.60115">
        <ele>606.6</ele>
        <time>2020-06-06T13:22:32Z</time>
      </trkpt>
      <trkpt lat="45.98468" lon="4.60106">
        <ele>607.2</ele>
        <time>2020-06-06T13:22:36Z</time>
      </trkpt>
      <trkpt lat="45.9846" lon="4.60097">
        <ele>607.8</ele>
        <time>2020-06-06T13:22:40Z</time>
      </trkpt>
      <trkpt lat="45.98453" lon="4.60089">
        <ele>608.2</ele>
        <time>2020-06-06T13:22:44Z</time>
      </trkpt>
      <trkpt lat="45.98445" lon="4.60081">
        <ele>608.8</ele>
        <time>2020-06-06T13:22:48Z</time>
      </trkpt>
      <trkpt lat="45.98438" lon="4.60072">
        <ele>609.2</ele>
        <time>2020-06-06T13:22:52Z</time>
      </trkpt>
      <trkpt lat="45.9843" lon="4.60061">
        <ele>609.4</ele>
        <time>2020-06-06T13:22:56Z</time>
      </trkpt>
      <trkpt lat="45.98425" lon="4.60047">
        <ele>610.2</ele>
        <time>2020-06-06T13:23:00Z</time>
      </trkpt>
      <trkpt lat="45.98421" lon="4.60035">
        <ele>611.2</ele>
        <time>2020-06-06T13:23:04Z</time>
      </trkpt>
      <trkpt lat="45.9842" lon="4.60026">
        <ele>612.6</ele>
        <time>2020-06-06T13:23:08Z</time>
      </trkpt>
      <trkpt lat="45.9842" lon="4.60016">
        <ele>613</ele>
        <time>2020-06-06T13:23:12Z</time>
      </trkpt>
      <trkpt lat="45.98421" lon="4.60006">
        <ele>614.2</ele>
        <time>2020-06-06T13:23:16Z</time>
      </trkpt>
      <trkpt lat="45.98424" lon="4.59996">
        <ele>614.8</ele>
        <time>2020-06-06T13:23:20Z</time>
      </trkpt>
      <trkpt lat="45.98429" lon="4.59986">
        <ele>615.2</ele>
        <time>2020-06-06T13:23:24Z</time>
      </trkpt>
      <trkpt lat="45.98433" lon="4.59976">
        <ele>615.8</ele>
        <time>2020-06-06T13:23:28Z</time>
      </trkpt>
      <trkpt lat="45.98439" lon="4.59967">
        <ele>616</ele>
        <time>2020-06-06T13:23:32Z</time>
      </trkpt>
      <trkpt lat="45.98447" lon="4.59961">
        <ele>616.8</ele>
        <time>2020-06-06T13:23:36Z</time>
      </trkpt>
      <trkpt lat="45.98456" lon="4.5996">
        <ele>617.2</ele>
        <time>2020-06-06T13:23:40Z</time>
      </trkpt>
      <trkpt lat="45.98465" lon="4.5996">
        <ele>617.4</ele>
        <time>2020-06-06T13:23:44Z</time>
      </trkpt>
      <trkpt lat="45.98474" lon="4.5996">
        <ele>617.8</ele>
        <time>2020-06-06T13:23:48Z</time>
      </trkpt>
      <trkpt lat="45.98482" lon="4.59962">
        <ele>618</ele>
        <time>2020-06-06T13:23:52Z</time>
      </trkpt>
      <trkpt lat="45.98489" lon="4.59963">
        <ele>618.6</ele>
        <time>2020-06-06T13:23:56Z</time>
      </trkpt>
      <trkpt lat="45.98497" lon="4.59964">
        <ele>619.4</ele>
        <time>2020-06-06T13:24:00Z</time>
      </trkpt>
      <trkpt lat="45.98505" lon="4.59966">
        <ele>619.2</ele>
        <time>2020-06-06T13:24:04Z</time>
      </trkpt>
      <trkpt lat="45.98516" lon="4.59966">
        <ele>620</ele>
        <time>2020-06-06T13:24:08Z</time>
      </trkpt>
      <trkpt lat="45.98526" lon="4.59963">
        <ele>620.6</ele>
        <time>2020-06-06T13:24:12Z</time>
      </trkpt>
      <trkpt lat="45.98535" lon="4.59959">
        <ele>621</ele>
        <time>2020-06-06T13:24:16Z</time>
      </trkpt>
      <trkpt lat="45.98546" lon="4.59951">
        <ele>621.4</ele>
        <time>2020-06-06T13:24:20Z</time>
      </trkpt>
      <trkpt lat="45.98553" lon="4.5994">
        <ele>621.4</ele>
        <time>2020-06-06T13:24:24Z</time>
      </trkpt>
      <trkpt lat="45.98559" lon="4.59928">
        <ele>621.8</ele>
        <time>2020-06-06T13:24:28Z</time>
      </trkpt>
      <trkpt lat="45.98564" lon="4.59915">
        <ele>622.8</ele>
        <time>2020-06-06T13:24:32Z</time>
      </trkpt>
      <trkpt lat="45.98568" lon="4.59901">
        <ele>623</ele>
        <time>2020-06-06T13:24:36Z</time>
      </trkpt>
      <trkpt lat="45.98572" lon="4.59887">
        <ele>623.2</ele>
        <time>2020-06-06T13:24:40Z</time>
      </trkpt>
      <trkpt lat="45.98576" lon="4.59872">
        <ele>623.4</ele>
        <time>2020-06-06T13:24:44Z</time>
      </trkpt>
      <trkpt lat="45.9858" lon="4.59858">
        <ele>624</ele>
        <time>2020-06-06T13:24:48Z</time>
      </trkpt>
      <trkpt lat="45.98584" lon="4.59845">
        <ele>625.6</ele>
        <time>2020-06-06T13:24:52Z</time>
      </trkpt>
      <trkpt lat="45.98589" lon="4.59832">
        <ele>625.8</ele>
        <time>2020-06-06T13:24:56Z</time>
      </trkpt>
      <trkpt lat="45.98594" lon="4.59821">
        <ele>626.6</ele>
        <time>2020-06-06T13:25:00Z</time>
      </trkpt>
      <trkpt lat="45.98598" lon="4.5981">
        <ele>627.4</ele>
        <time>2020-06-06T13:25:04Z</time>
      </trkpt>
      <trkpt lat="45.98602" lon="4.59798">
        <ele>627.8</ele>
        <time>2020-06-06T13:25:08Z</time>
      </trkpt>
      <trkpt lat="45.98606" lon="4.59787">
        <ele>628.4</ele>
        <time>2020-06-06T13:25:12Z</time>
      </trkpt>
      <trkpt lat="45.98606" lon="4.59775">
        <ele>628.8</ele>
        <time>2020-06-06T13:25:16Z</time>
      </trkpt>
      <trkpt lat="45.98603" lon="4.59761">
        <ele>629.4</ele>
        <time>2020-06-06T13:25:20Z</time>
      </trkpt>
      <trkpt lat="45.98599" lon="4.59748">
        <ele>629.4</ele>
        <time>2020-06-06T13:25:24Z</time>
      </trkpt>
      <trkpt lat="45.98598" lon="4.59734">
        <ele>630</ele>
        <time>2020-06-06T13:25:28Z</time>
      </trkpt>
      <trkpt lat="45.98601" lon="4.59722">
        <ele>630.2</ele>
        <time>2020-06-06T13:25:32Z</time>
      </trkpt>
      <trkpt lat="45.98604" lon="4.59711">
        <ele>628.8</ele>
        <time>2020-06-06T13:25:36Z</time>
      </trkpt>
      <trkpt lat="45.98607" lon="4.59695">
        <ele>628</ele>
        <time>2020-06-06T13:25:40Z</time>
      </trkpt>
      <trkpt lat="45.98616" lon="4.59672">
        <ele>625.6</ele>
        <time>2020-06-06T13:25:44Z</time>
      </trkpt>
      <trkpt lat="45.98631" lon="4.5965">
        <ele>624</ele>
        <time>2020-06-06T13:25:48Z</time>
      </trkpt>
      <trkpt lat="45.98651" lon="4.59627">
        <ele>621.8</ele>
        <time>2020-06-06T13:25:52Z</time>
      </trkpt>
      <trkpt lat="45.9867" lon="4.59599">
        <ele>621.2</ele>
        <time>2020-06-06T13:25:56Z</time>
      </trkpt>
      <trkpt lat="45.98691" lon="4.59576">
        <ele>620.4</ele>
        <time>2020-06-06T13:26:00Z</time>
      </trkpt>
      <trkpt lat="45.98711" lon="4.59557">
        <ele>621</ele>
        <time>2020-06-06T13:26:04Z</time>
      </trkpt>
      <trkpt lat="45.98727" lon="4.59538">
        <ele>622.4</ele>
        <time>2020-06-06T13:26:08Z</time>
      </trkpt>
      <trkpt lat="45.98736" lon="4.59517">
        <ele>622.6</ele>
        <time>2020-06-06T13:26:12Z</time>
      </trkpt>
      <trkpt lat="45.98741" lon="4.59493">
        <ele>622.6</ele>
        <time>2020-06-06T13:26:16Z</time>
      </trkpt>
      <trkpt lat="45.98744" lon="4.59467">
        <ele>621.6</ele>
        <time>2020-06-06T13:26:20Z</time>
      </trkpt>
      <trkpt lat="45.98743" lon="4.59442">
        <ele>622</ele>
        <time>2020-06-06T13:26:24Z</time>
      </trkpt>
      <trkpt lat="45.9874" lon="4.59419">
        <ele>622.8</ele>
        <time>2020-06-06T13:26:28Z</time>
      </trkpt>
      <trkpt lat="45.98734" lon="4.59396">
        <ele>621.8</ele>
        <time>2020-06-06T13:26:32Z</time>
      </trkpt>
      <trkpt lat="45.98729" lon="4.59372">
        <ele>622.6</ele>
        <time>2020-06-06T13:26:36Z</time>
      </trkpt>
      <trkpt lat="45.98728" lon="4.59349">
        <ele>622.6</ele>
        <time>2020-06-06T13:26:40Z</time>
      </trkpt>
      <trkpt lat="45.98732" lon="4.59326">
        <ele>622.2</ele>
        <time>2020-06-06T13:26:44Z</time>
      </trkpt>
      <trkpt lat="45.9874" lon="4.59306">
        <ele>622.4</ele>
        <time>2020-06-06T13:26:48Z</time>
      </trkpt>
      <trkpt lat="45.9875" lon="4.59287">
        <ele>622.8</ele>
        <time>2020-06-06T13:26:52Z</time>
      </trkpt>
      <trkpt lat="45.9876" lon="4.59269">
        <ele>622</ele>
        <time>2020-06-06T13:26:56Z</time>
      </trkpt>
      <trkpt lat="45.98771" lon="4.59249">
        <ele>622.4</ele>
        <time>2020-06-06T13:27:00Z</time>
      </trkpt>
      <trkpt lat="45.98781" lon="4.59226">
        <ele>621.4</ele>
        <time>2020-06-06T13:27:04Z</time>
      </trkpt>
      <trkpt lat="45.98791" lon="4.59202">
        <ele>619.4</ele>
        <time>2020-06-06T13:27:08Z</time>
      </trkpt>
      <trkpt lat="45.98802" lon="4.59181">
        <ele>620.4</ele>
        <time>2020-06-06T13:27:12Z</time>
      </trkpt>
      <trkpt lat="45.98815" lon="4.59163">
        <ele>620.2</ele>
        <time>2020-06-06T13:27:16Z</time>
      </trkpt>
      <trkpt lat="45.98829" lon="4.59144">
        <ele>619</ele>
        <time>2020-06-06T13:27:20Z</time>
      </trkpt>
      <trkpt lat="45.98843" lon="4.59124">
        <ele>618.8</ele>
        <time>2020-06-06T13:27:24Z</time>
      </trkpt>
      <trkpt lat="45.98857" lon="4.59104">
        <ele>618.2</ele>
        <time>2020-06-06T13:27:28Z</time>
      </trkpt>
      <trkpt lat="45.98873" lon="4.59087">
        <ele>619</ele>
        <time>2020-06-06T13:27:32Z</time>
      </trkpt>
      <trkpt lat="45.9889" lon="4.59086">
        <ele>619.6</ele>
        <time>2020-06-06T13:27:36Z</time>
      </trkpt>
      <trkpt lat="45.98908" lon="4.59088">
        <ele>619.2</ele>
        <time>2020-06-06T13:27:40Z</time>
      </trkpt>
      <trkpt lat="45.98926" lon="4.59078">
        <ele>618.6</ele>
        <time>2020-06-06T13:27:44Z</time>
      </trkpt>
      <trkpt lat="45.98936" lon="4.59056">
        <ele>618.8</ele>
        <time>2020-06-06T13:27:48Z</time>
      </trkpt>
      <trkpt lat="45.98946" lon="4.59032">
        <ele>618.6</ele>
        <time>2020-06-06T13:27:52Z</time>
      </trkpt>
      <trkpt lat="45.9895" lon="4.59004">
        <ele>617.6</ele>
        <time>2020-06-06T13:27:56Z</time>
      </trkpt>
      <trkpt lat="45.9895" lon="4.58976">
        <ele>617.8</ele>
        <time>2020-06-06T13:28:00Z</time>
      </trkpt>
      <trkpt lat="45.98951" lon="4.58946">
        <ele>617.4</ele>
        <time>2020-06-06T13:28:04Z</time>
      </trkpt>
      <trkpt lat="45.98954" lon="4.58917">
        <ele>617.8</ele>
        <time>2020-06-06T13:28:08Z</time>
      </trkpt>
      <trkpt lat="45.98959" lon="4.58888">
        <ele>617.4</ele>
        <time>2020-06-06T13:28:12Z</time>
      </trkpt>
      <trkpt lat="45.98966" lon="4.5886">
        <ele>617.4</ele>
        <time>2020-06-06T13:28:16Z</time>
      </trkpt>
      <trkpt lat="45.98974" lon="4.58835">
        <ele>618.2</ele>
        <time>2020-06-06T13:28:20Z</time>
      </trkpt>
      <trkpt lat="45.98981" lon="4.58813">
        <ele>618.6</ele>
        <time>2020-06-06T13:28:24Z</time>
      </trkpt>
      <trkpt lat="45.98988" lon="4.58793">
        <ele>618.8</ele>
        <time>2020-06-06T13:28:28Z</time>
      </trkpt>
      <trkpt lat="45.98992" lon="4.58768">
        <ele>619.2</ele>
        <time>2020-06-06T13:28:32Z</time>
      </trkpt>
      <trkpt lat="45.98993" lon="4.58743">
        <ele>619.4</ele>
        <time>2020-06-06T13:28:36Z</time>
      </trkpt>
      <trkpt lat="45.98991" lon="4.58718">
        <ele>620</ele>
        <time>2020-06-06T13:28:40Z</time>
      </trkpt>
      <trkpt lat="45.98985" lon="4.58695">
        <ele>620.2</ele>
        <time>2020-06-06T13:28:44Z</time>
      </trkpt>
      <trkpt lat="45.98979" lon="4.58672">
        <ele>620.6</ele>
        <time>2020-06-06T13:28:48Z</time>
      </trkpt>
      <trkpt lat="45.98975" lon="4.58651">
        <ele>621</ele>
        <time>2020-06-06T13:28:52Z</time>
      </trkpt>
      <trkpt lat="45.98972" lon="4.58629">
        <ele>621.2</ele>
        <time>2020-06-06T13:28:56Z</time>
      </trkpt>
      <trkpt lat="45.98968" lon="4.58608">
        <ele>621.6</ele>
        <time>2020-06-06T13:29:00Z</time>
      </trkpt>
      <trkpt lat="45.98966" lon="4.58587">
        <ele>621.6</ele>
        <time>2020-06-06T13:29:04Z</time>
      </trkpt>
      <trkpt lat="45.98964" lon="4.58565">
        <ele>622.2</ele>
        <time>2020-06-06T13:29:08Z</time>
      </trkpt>
      <trkpt lat="45.98961" lon="4.58542">
        <ele>622.4</ele>
        <time>2020-06-06T13:29:12Z</time>
      </trkpt>
      <trkpt lat="45.98958" lon="4.58521">
        <ele>623</ele>
        <time>2020-06-06T13:29:16Z</time>
      </trkpt>
      <trkpt lat="45.98955" lon="4.58499">
        <ele>623.6</ele>
        <time>2020-06-06T13:29:20Z</time>
      </trkpt>
      <trkpt lat="45.98952" lon="4.58476">
        <ele>623.4</ele>
        <time>2020-06-06T13:29:24Z</time>
      </trkpt>
      <trkpt lat="45.98948" lon="4.58452">
        <ele>623.6</ele>
        <time>2020-06-06T13:29:28Z</time>
      </trkpt>
      <trkpt lat="45.98943" lon="4.5843">
        <ele>624.2</ele>
        <time>2020-06-06T13:29:32Z</time>
      </trkpt>
      <trkpt lat="45.9894" lon="4.5841">
        <ele>625</ele>
        <time>2020-06-06T13:29:36Z</time>
      </trkpt>
      <trkpt lat="45.98937" lon="4.58391">
        <ele>625.6</ele>
        <time>2020-06-06T13:29:40Z</time>
      </trkpt>
      <trkpt lat="45.98933" lon="4.5837">
        <ele>625.6</ele>
        <time>2020-06-06T13:29:44Z</time>
      </trkpt>
      <trkpt lat="45.9893" lon="4.58352">
        <ele>625.6</ele>
        <time>2020-06-06T13:29:48Z</time>
      </trkpt>
      <trkpt lat="45.98924" lon="4.58327">
        <ele>625.6</ele>
        <time>2020-06-06T13:29:52Z</time>
      </trkpt>
      <trkpt lat="45.98918" lon="4.58302">
        <ele>625.6</ele>
        <time>2020-06-06T13:29:56Z</time>
      </trkpt>
      <trkpt lat="45.98911" lon="4.58278">
        <ele>625.4</ele>
        <time>2020-06-06T13:30:00Z</time>
      </trkpt>
      <trkpt lat="45.98905" lon="4.58255">
        <ele>625.4</ele>
        <time>2020-06-06T13:30:04Z</time>
      </trkpt>
      <trkpt lat="45.98899" lon="4.58232">
        <ele>625.6</ele>
        <time>2020-06-06T13:30:08Z</time>
      </trkpt>
      <trkpt lat="45.98895" lon="4.5821">
        <ele>625.6</ele>
        <time>2020-06-06T13:30:12Z</time>
      </trkpt>
      <trkpt lat="45.98889" lon="4.58187">
        <ele>626</ele>
        <time>2020-06-06T13:30:16Z</time>
      </trkpt>
      <trkpt lat="45.9888" lon="4.58166">
        <ele>625.8</ele>
        <time>2020-06-06T13:30:20Z</time>
      </trkpt>
      <trkpt lat="45.98866" lon="4.58154">
        <ele>626</ele>
        <time>2020-06-06T13:30:24Z</time>
      </trkpt>
      <trkpt lat="45.98851" lon="4.58158">
        <ele>626.6</ele>
        <time>2020-06-06T13:30:28Z</time>
      </trkpt>
      <trkpt lat="45.98838" lon="4.58174">
        <ele>627.4</ele>
        <time>2020-06-06T13:30:32Z</time>
      </trkpt>
      <trkpt lat="45.98832" lon="4.58192">
        <ele>628.6</ele>
        <time>2020-06-06T13:30:36Z</time>
      </trkpt>
      <trkpt lat="45.98827" lon="4.5821">
        <ele>628.4</ele>
        <time>2020-06-06T13:30:40Z</time>
      </trkpt>
      <trkpt lat="45.98822" lon="4.58226">
        <ele>629.4</ele>
        <time>2020-06-06T13:30:44Z</time>
      </trkpt>
      <trkpt lat="45.98815" lon="4.58245">
        <ele>629.6</ele>
        <time>2020-06-06T13:30:48Z</time>
      </trkpt>
      <trkpt lat="45.98808" lon="4.58262">
        <ele>630.2</ele>
        <time>2020-06-06T13:30:52Z</time>
      </trkpt>
      <trkpt lat="45.988" lon="4.58277">
        <ele>630.6</ele>
        <time>2020-06-06T13:30:56Z</time>
      </trkpt>
      <trkpt lat="45.98794" lon="4.58291">
        <ele>631.2</ele>
        <time>2020-06-06T13:31:00Z</time>
      </trkpt>
      <trkpt lat="45.98787" lon="4.58302">
        <ele>631.8</ele>
        <time>2020-06-06T13:31:04Z</time>
      </trkpt>
      <trkpt lat="45.98779" lon="4.58315">
        <ele>632.2</ele>
        <time>2020-06-06T13:31:08Z</time>
      </trkpt>
      <trkpt lat="45.98771" lon="4.58327">
        <ele>632.8</ele>
        <time>2020-06-06T13:31:12Z</time>
      </trkpt>
      <trkpt lat="45.98764" lon="4.58339">
        <ele>633.6</ele>
        <time>2020-06-06T13:31:16Z</time>
      </trkpt>
      <trkpt lat="45.98758" lon="4.58349">
        <ele>634.4</ele>
        <time>2020-06-06T13:31:20Z</time>
      </trkpt>
      <trkpt lat="45.98754" lon="4.58354">
        <ele>634.4</ele>
        <time>2020-06-06T13:31:24Z</time>
      </trkpt>
      <trkpt lat="45.98749" lon="4.58362">
        <ele>634.4</ele>
        <time>2020-06-06T13:31:28Z</time>
      </trkpt>
      <trkpt lat="45.98743" lon="4.5837">
        <ele>635.8</ele>
        <time>2020-06-06T13:31:32Z</time>
      </trkpt>
      <trkpt lat="45.98736" lon="4.58377">
        <ele>636.2</ele>
        <time>2020-06-06T13:31:36Z</time>
      </trkpt>
      <trkpt lat="45.98728" lon="4.58385">
        <ele>637.2</ele>
        <time>2020-06-06T13:31:40Z</time>
      </trkpt>
      <trkpt lat="45.9872" lon="4.58392">
        <ele>637.6</ele>
        <time>2020-06-06T13:31:44Z</time>
      </trkpt>
      <trkpt lat="45.98712" lon="4.58398">
        <ele>638</ele>
        <time>2020-06-06T13:31:48Z</time>
      </trkpt>
      <trkpt lat="45.98703" lon="4.58406">
        <ele>638.8</ele>
        <time>2020-06-06T13:31:52Z</time>
      </trkpt>
      <trkpt lat="45.98695" lon="4.58413">
        <ele>639.2</ele>
        <time>2020-06-06T13:31:56Z</time>
      </trkpt>
      <trkpt lat="45.98686" lon="4.5842">
        <ele>639.8</ele>
        <time>2020-06-06T13:32:00Z</time>
      </trkpt>
      <trkpt lat="45.98677" lon="4.58427">
        <ele>640.6</ele>
        <time>2020-06-06T13:32:04Z</time>
      </trkpt>
      <trkpt lat="45.98668" lon="4.58433">
        <ele>641</ele>
        <time>2020-06-06T13:32:08Z</time>
      </trkpt>
      <trkpt lat="45.9866" lon="4.58439">
        <ele>641.8</ele>
        <time>2020-06-06T13:32:12Z</time>
      </trkpt>
      <trkpt lat="45.98651" lon="4.58445">
        <ele>642.6</ele>
        <time>2020-06-06T13:32:16Z</time>
      </trkpt>
      <trkpt lat="45.98643" lon="4.58452">
        <ele>642.8</ele>
        <time>2020-06-06T13:32:20Z</time>
      </trkpt>
      <trkpt lat="45.98633" lon="4.58459">
        <ele>643.4</ele>
        <time>2020-06-06T13:32:24Z</time>
      </trkpt>
      <trkpt lat="45.98624" lon="4.58464">
        <ele>643.8</ele>
        <time>2020-06-06T13:32:28Z</time>
      </trkpt>
      <trkpt lat="45.98615" lon="4.58467">
        <ele>644.4</ele>
        <time>2020-06-06T13:32:32Z</time>
      </trkpt>
      <trkpt lat="45.98605" lon="4.5847">
        <ele>644.8</ele>
        <time>2020-06-06T13:32:36Z</time>
      </trkpt>
      <trkpt lat="45.98595" lon="4.58472">
        <ele>645.6</ele>
        <time>2020-06-06T13:32:40Z</time>
      </trkpt>
      <trkpt lat="45.98585" lon="4.58477">
        <ele>646.2</ele>
        <time>2020-06-06T13:32:44Z</time>
      </trkpt>
      <trkpt lat="45.98576" lon="4.58485">
        <ele>647</ele>
        <time>2020-06-06T13:32:48Z</time>
      </trkpt>
      <trkpt lat="45.98568" lon="4.58495">
        <ele>647.2</ele>
        <time>2020-06-06T13:32:52Z</time>
      </trkpt>
      <trkpt lat="45.98561" lon="4.58506">
        <ele>647.8</ele>
        <time>2020-06-06T13:32:56Z</time>
      </trkpt>
      <trkpt lat="45.98555" lon="4.58518">
        <ele>648.6</ele>
        <time>2020-06-06T13:33:00Z</time>
      </trkpt>
      <trkpt lat="45.98549" lon="4.5853">
        <ele>649.8</ele>
        <time>2020-06-06T13:33:04Z</time>
      </trkpt>
      <trkpt lat="45.98543" lon="4.58542">
        <ele>650</ele>
        <time>2020-06-06T13:33:08Z</time>
      </trkpt>
      <trkpt lat="45.98537" lon="4.58554">
        <ele>651</ele>
        <time>2020-06-06T13:33:12Z</time>
      </trkpt>
      <trkpt lat="45.98532" lon="4.58566">
        <ele>651</ele>
        <time>2020-06-06T13:33:16Z</time>
      </trkpt>
      <trkpt lat="45.98525" lon="4.58578">
        <ele>651.4</ele>
        <time>2020-06-06T13:33:20Z</time>
      </trkpt>
      <trkpt lat="45.98518" lon="4.58589">
        <ele>652.4</ele>
        <time>2020-06-06T13:33:24Z</time>
      </trkpt>
      <trkpt lat="45.98511" lon="4.586">
        <ele>653.2</ele>
        <time>2020-06-06T13:33:28Z</time>
      </trkpt>
      <trkpt lat="45.98504" lon="4.5861">
        <ele>653.8</ele>
        <time>2020-06-06T13:33:32Z</time>
      </trkpt>
      <trkpt lat="45.98497" lon="4.58617">
        <ele>654.4</ele>
        <time>2020-06-06T13:33:36Z</time>
      </trkpt>
      <trkpt lat="45.98489" lon="4.58625">
        <ele>655.2</ele>
        <time>2020-06-06T13:33:40Z</time>
      </trkpt>
      <trkpt lat="45.9848" lon="4.58631">
        <ele>655.6</ele>
        <time>2020-06-06T13:33:44Z</time>
      </trkpt>
      <trkpt lat="45.9847" lon="4.58636">
        <ele>656.4</ele>
        <time>2020-06-06T13:33:48Z</time>
      </trkpt>
      <trkpt lat="45.98461" lon="4.5864">
        <ele>657.2</ele>
        <time>2020-06-06T13:33:52Z</time>
      </trkpt>
      <trkpt lat="45.98451" lon="4.58643">
        <ele>657.8</ele>
        <time>2020-06-06T13:33:56Z</time>
      </trkpt>
      <trkpt lat="45.98442" lon="4.58646">
        <ele>660.2</ele>
        <time>2020-06-06T13:34:00Z</time>
      </trkpt>
      <trkpt lat="45.98432" lon="4.58648">
        <ele>659.2</ele>
        <time>2020-06-06T13:34:04Z</time>
      </trkpt>
      <trkpt lat="45.98422" lon="4.58649">
        <ele>659.4</ele>
        <time>2020-06-06T13:34:08Z</time>
      </trkpt>
      <trkpt lat="45.98412" lon="4.5865">
        <ele>659.6</ele>
        <time>2020-06-06T13:34:12Z</time>
      </trkpt>
      <trkpt lat="45.98402" lon="4.58651">
        <ele>660.6</ele>
        <time>2020-06-06T13:34:16Z</time>
      </trkpt>
      <trkpt lat="45.98392" lon="4.58652">
        <ele>661</ele>
        <time>2020-06-06T13:34:20Z</time>
      </trkpt>
      <trkpt lat="45.98382" lon="4.58653">
        <ele>662</ele>
        <time>2020-06-06T13:34:24Z</time>
      </trkpt>
      <trkpt lat="45.98372" lon="4.58655">
        <ele>662.2</ele>
        <time>2020-06-06T13:34:28Z</time>
      </trkpt>
      <trkpt lat="45.98361" lon="4.58657">
        <ele>662.8</ele>
        <time>2020-06-06T13:34:32Z</time>
      </trkpt>
      <trkpt lat="45.98352" lon="4.58657">
        <ele>663.4</ele>
        <time>2020-06-06T13:34:36Z</time>
      </trkpt>
      <trkpt lat="45.98352" lon="4.58644">
        <ele>664.2</ele>
        <time>2020-06-06T13:35:58Z</time>
      </trkpt>
      <trkpt lat="45.98362" lon="4.58636">
        <ele>664.8</ele>
        <time>2020-06-06T13:36:02Z</time>
      </trkpt>
      <trkpt lat="45.98371" lon="4.58628">
        <ele>665</ele>
        <time>2020-06-06T13:36:06Z</time>
      </trkpt>
      <trkpt lat="45.98378" lon="4.58618">
        <ele>665.4</ele>
        <time>2020-06-06T13:36:10Z</time>
      </trkpt>
      <trkpt lat="45.98382" lon="4.58606">
        <ele>666.8</ele>
        <time>2020-06-06T13:36:14Z</time>
      </trkpt>
      <trkpt lat="45.98382" lon="4.58591">
        <ele>667.8</ele>
        <time>2020-06-06T13:36:18Z</time>
      </trkpt>
      <trkpt lat="45.98376" lon="4.5858">
        <ele>668.2</ele>
        <time>2020-06-06T13:36:22Z</time>
      </trkpt>
      <trkpt lat="45.98367" lon="4.58575">
        <ele>669</ele>
        <time>2020-06-06T13:36:26Z</time>
      </trkpt>
      <trkpt lat="45.98357" lon="4.58574">
        <ele>669.8</ele>
        <time>2020-06-06T13:36:30Z</time>
      </trkpt>
      <trkpt lat="45.98348" lon="4.58575">
        <ele>669.6</ele>
        <time>2020-06-06T13:36:34Z</time>
      </trkpt>
      <trkpt lat="45.98338" lon="4.58576">
        <ele>670.4</ele>
        <time>2020-06-06T13:36:38Z</time>
      </trkpt>
      <trkpt lat="45.98329" lon="4.58576">
        <ele>671</ele>
        <time>2020-06-06T13:36:42Z</time>
      </trkpt>
      <trkpt lat="45.9832" lon="4.58575">
        <ele>671.2</ele>
        <time>2020-06-06T13:36:46Z</time>
      </trkpt>
      <trkpt lat="45.9831" lon="4.58577">
        <ele>672</ele>
        <time>2020-06-06T13:36:50Z</time>
      </trkpt>
      <trkpt lat="45.983" lon="4.58579">
        <ele>672.4</ele>
        <time>2020-06-06T13:36:54Z</time>
      </trkpt>
      <trkpt lat="45.9829" lon="4.58579">
        <ele>673.4</ele>
        <time>2020-06-06T13:36:58Z</time>
      </trkpt>
      <trkpt lat="45.98281" lon="4.58579">
        <ele>674.6</ele>
        <time>2020-06-06T13:37:02Z</time>
      </trkpt>
      <trkpt lat="45.98271" lon="4.58579">
        <ele>674.8</ele>
        <time>2020-06-06T13:37:06Z</time>
      </trkpt>
      <trkpt lat="45.98261" lon="4.58579">
        <ele>675.4</ele>
        <time>2020-06-06T13:37:10Z</time>
      </trkpt>
      <trkpt lat="45.98251" lon="4.58579">
        <ele>676.2</ele>
        <time>2020-06-06T13:37:14Z</time>
      </trkpt>
      <trkpt lat="45.98241" lon="4.58577">
        <ele>677.2</ele>
        <time>2020-06-06T13:37:18Z</time>
      </trkpt>
      <trkpt lat="45.98232" lon="4.58575">
        <ele>677.8</ele>
        <time>2020-06-06T13:37:22Z</time>
      </trkpt>
      <trkpt lat="45.98222" lon="4.58574">
        <ele>678</ele>
        <time>2020-06-06T13:37:26Z</time>
      </trkpt>
      <trkpt lat="45.98213" lon="4.58571">
        <ele>678.2</ele>
        <time>2020-06-06T13:37:30Z</time>
      </trkpt>
      <trkpt lat="45.98203" lon="4.5857">
        <ele>678.8</ele>
        <time>2020-06-06T13:37:34Z</time>
      </trkpt>
      <trkpt lat="45.98194" lon="4.58569">
        <ele>679.6</ele>
        <time>2020-06-06T13:37:38Z</time>
      </trkpt>
      <trkpt lat="45.98184" lon="4.58567">
        <ele>680.6</ele>
        <time>2020-06-06T13:37:42Z</time>
      </trkpt>
      <trkpt lat="45.98174" lon="4.58566">
        <ele>681.4</ele>
        <time>2020-06-06T13:37:46Z</time>
      </trkpt>
      <trkpt lat="45.98164" lon="4.58564">
        <ele>682</ele>
        <time>2020-06-06T13:37:50Z</time>
      </trkpt>
      <trkpt lat="45.98155" lon="4.58562">
        <ele>682.8</ele>
        <time>2020-06-06T13:37:54Z</time>
      </trkpt>
      <trkpt lat="45.98145" lon="4.5856">
        <ele>684</ele>
        <time>2020-06-06T13:37:58Z</time>
      </trkpt>
      <trkpt lat="45.98135" lon="4.58559">
        <ele>684.6</ele>
        <time>2020-06-06T13:38:02Z</time>
      </trkpt>
      <trkpt lat="45.98125" lon="4.58557">
        <ele>685</ele>
        <time>2020-06-06T13:38:06Z</time>
      </trkpt>
      <trkpt lat="45.98115" lon="4.58555">
        <ele>685.2</ele>
        <time>2020-06-06T13:38:10Z</time>
      </trkpt>
      <trkpt lat="45.98105" lon="4.58553">
        <ele>685.6</ele>
        <time>2020-06-06T13:38:14Z</time>
      </trkpt>
      <trkpt lat="45.98095" lon="4.58552">
        <ele>686.6</ele>
        <time>2020-06-06T13:38:18Z</time>
      </trkpt>
      <trkpt lat="45.98086" lon="4.5855">
        <ele>687.2</ele>
        <time>2020-06-06T13:38:22Z</time>
      </trkpt>
      <trkpt lat="45.98076" lon="4.58548">
        <ele>687.6</ele>
        <time>2020-06-06T13:38:26Z</time>
      </trkpt>
      <trkpt lat="45.98066" lon="4.58546">
        <ele>688.4</ele>
        <time>2020-06-06T13:38:30Z</time>
      </trkpt>
      <trkpt lat="45.98056" lon="4.58544">
        <ele>689.2</ele>
        <time>2020-06-06T13:38:34Z</time>
      </trkpt>
      <trkpt lat="45.98045" lon="4.58543">
        <ele>689.8</ele>
        <time>2020-06-06T13:38:38Z</time>
      </trkpt>
      <trkpt lat="45.98035" lon="4.58542">
        <ele>690.8</ele>
        <time>2020-06-06T13:38:42Z</time>
      </trkpt>
      <trkpt lat="45.98025" lon="4.58542">
        <ele>691.6</ele>
        <time>2020-06-06T13:38:46Z</time>
      </trkpt>
      <trkpt lat="45.98015" lon="4.58542">
        <ele>692.2</ele>
        <time>2020-06-06T13:38:50Z</time>
      </trkpt>
      <trkpt lat="45.98005" lon="4.58542">
        <ele>692.8</ele>
        <time>2020-06-06T13:38:54Z</time>
      </trkpt>
      <trkpt lat="45.97994" lon="4.58542">
        <ele>693.4</ele>
        <time>2020-06-06T13:38:58Z</time>
      </trkpt>
      <trkpt lat="45.97984" lon="4.58543">
        <ele>694.4</ele>
        <time>2020-06-06T13:39:02Z</time>
      </trkpt>
      <trkpt lat="45.97974" lon="4.58543">
        <ele>695.6</ele>
        <time>2020-06-06T13:39:06Z</time>
      </trkpt>
      <trkpt lat="45.97964" lon="4.58544">
        <ele>695.6</ele>
        <time>2020-06-06T13:39:10Z</time>
      </trkpt>
      <trkpt lat="45.97954" lon="4.58545">
        <ele>695.8</ele>
        <time>2020-06-06T13:39:14Z</time>
      </trkpt>
      <trkpt lat="45.97943" lon="4.58545">
        <ele>696.8</ele>
        <time>2020-06-06T13:39:18Z</time>
      </trkpt>
      <trkpt lat="45.97933" lon="4.58545">
        <ele>697.2</ele>
        <time>2020-06-06T13:39:22Z</time>
      </trkpt>
      <trkpt lat="45.97922" lon="4.58546">
        <ele>698.4</ele>
        <time>2020-06-06T13:39:26Z</time>
      </trkpt>
      <trkpt lat="45.97912" lon="4.58547">
        <ele>699</ele>
        <time>2020-06-06T13:39:30Z</time>
      </trkpt>
      <trkpt lat="45.97902" lon="4.58547">
        <ele>699</ele>
        <time>2020-06-06T13:39:34Z</time>
      </trkpt>
      <trkpt lat="45.97892" lon="4.58547">
        <ele>699.8</ele>
        <time>2020-06-06T13:39:38Z</time>
      </trkpt>
      <trkpt lat="45.97882" lon="4.58547">
        <ele>700.2</ele>
        <time>2020-06-06T13:39:42Z</time>
      </trkpt>
      <trkpt lat="45.97872" lon="4.58548">
        <ele>701.4</ele>
        <time>2020-06-06T13:39:46Z</time>
      </trkpt>
      <trkpt lat="45.97862" lon="4.58549">
        <ele>701.6</ele>
        <time>2020-06-06T13:39:50Z</time>
      </trkpt>
      <trkpt lat="45.97853" lon="4.58548">
        <ele>701.8</ele>
        <time>2020-06-06T13:39:54Z</time>
      </trkpt>
      <trkpt lat="45.97843" lon="4.58544">
        <ele>702.4</ele>
        <time>2020-06-06T13:39:58Z</time>
      </trkpt>
      <trkpt lat="45.97836" lon="4.58537">
        <ele>703.8</ele>
        <time>2020-06-06T13:40:02Z</time>
      </trkpt>
      <trkpt lat="45.9783" lon="4.58528">
        <ele>704</ele>
        <time>2020-06-06T13:40:06Z</time>
      </trkpt>
      <trkpt lat="45.97826" lon="4.58516">
        <ele>705</ele>
        <time>2020-06-06T13:40:10Z</time>
      </trkpt>
      <trkpt lat="45.97825" lon="4.58502">
        <ele>705</ele>
        <time>2020-06-06T13:40:14Z</time>
      </trkpt>
      <trkpt lat="45.97824" lon="4.58489">
        <ele>706.4</ele>
        <time>2020-06-06T13:40:18Z</time>
      </trkpt>
      <trkpt lat="45.97824" lon="4.58475">
        <ele>707.2</ele>
        <time>2020-06-06T13:40:22Z</time>
      </trkpt>
      <trkpt lat="45.97824" lon="4.5846">
        <ele>708</ele>
        <time>2020-06-06T13:40:26Z</time>
      </trkpt>
      <trkpt lat="45.97823" lon="4.58447">
        <ele>707.8</ele>
        <time>2020-06-06T13:40:30Z</time>
      </trkpt>
      <trkpt lat="45.97823" lon="4.58433">
        <ele>708.6</ele>
        <time>2020-06-06T13:40:34Z</time>
      </trkpt>
      <trkpt lat="45.97823" lon="4.58419">
        <ele>709.8</ele>
        <time>2020-06-06T13:40:38Z</time>
      </trkpt>
      <trkpt lat="45.97823" lon="4.58404">
        <ele>709.6</ele>
        <time>2020-06-06T13:40:42Z</time>
      </trkpt>
      <trkpt lat="45.97823" lon="4.5839">
        <ele>710.6</ele>
        <time>2020-06-06T13:40:46Z</time>
      </trkpt>
      <trkpt lat="45.97823" lon="4.58375">
        <ele>711</ele>
        <time>2020-06-06T13:40:50Z</time>
      </trkpt>
      <trkpt lat="45.97822" lon="4.58359">
        <ele>711.2</ele>
        <time>2020-06-06T13:40:54Z</time>
      </trkpt>
      <trkpt lat="45.97818" lon="4.58347">
        <ele>711.8</ele>
        <time>2020-06-06T13:40:58Z</time>
      </trkpt>
      <trkpt lat="45.97809" lon="4.58355">
        <ele>712</ele>
        <time>2020-06-06T13:42:58Z</time>
      </trkpt>
      <trkpt lat="45.97805" lon="4.58373">
        <ele>712</ele>
        <time>2020-06-06T13:43:02Z</time>
      </trkpt>
      <trkpt lat="45.978" lon="4.5839">
        <ele>712.8</ele>
        <time>2020-06-06T13:43:06Z</time>
      </trkpt>
      <trkpt lat="45.97793" lon="4.58407">
        <ele>713</ele>
        <time>2020-06-06T13:43:10Z</time>
      </trkpt>
      <trkpt lat="45.97786" lon="4.58424">
        <ele>712.2</ele>
        <time>2020-06-06T13:43:14Z</time>
      </trkpt>
      <trkpt lat="45.97777" lon="4.58442">
        <ele>712</ele>
        <time>2020-06-06T13:43:18Z</time>
      </trkpt>
      <trkpt lat="45.97767" lon="4.5846">
        <ele>711</ele>
        <time>2020-06-06T13:43:22Z</time>
      </trkpt>
      <trkpt lat="45.97756" lon="4.58478">
        <ele>711.6</ele>
        <time>2020-06-06T13:43:26Z</time>
      </trkpt>
      <trkpt lat="45.97742" lon="4.58494">
        <ele>711.4</ele>
        <time>2020-06-06T13:43:30Z</time>
      </trkpt>
      <trkpt lat="45.9773" lon="4.58512">
        <ele>710.8</ele>
        <time>2020-06-06T13:43:34Z</time>
      </trkpt>
      <trkpt lat="45.97717" lon="4.5853">
        <ele>711</ele>
        <time>2020-06-06T13:43:38Z</time>
      </trkpt>
      <trkpt lat="45.97705" lon="4.58549">
        <ele>710.8</ele>
        <time>2020-06-06T13:43:42Z</time>
      </trkpt>
      <trkpt lat="45.97694" lon="4.58569">
        <ele>710.4</ele>
        <time>2020-06-06T13:43:46Z</time>
      </trkpt>
      <trkpt lat="45.97684" lon="4.58593">
        <ele>710.2</ele>
        <time>2020-06-06T13:43:50Z</time>
      </trkpt>
      <trkpt lat="45.97675" lon="4.58619">
        <ele>710.2</ele>
        <time>2020-06-06T13:43:54Z</time>
      </trkpt>
      <trkpt lat="45.97665" lon="4.58645">
        <ele>709.6</ele>
        <time>2020-06-06T13:43:58Z</time>
      </trkpt>
      <trkpt lat="45.97653" lon="4.5867">
        <ele>708.6</ele>
        <time>2020-06-06T13:44:02Z</time>
      </trkpt>
      <trkpt lat="45.97638" lon="4.58694">
        <ele>708.6</ele>
        <time>2020-06-06T13:44:06Z</time>
      </trkpt>
      <trkpt lat="45.97623" lon="4.58717">
        <ele>708</ele>
        <time>2020-06-06T13:44:10Z</time>
      </trkpt>
      <trkpt lat="45.97606" lon="4.58737">
        <ele>707.8</ele>
        <time>2020-06-06T13:44:14Z</time>
      </trkpt>
      <trkpt lat="45.97585" lon="4.58756">
        <ele>707.2</ele>
        <time>2020-06-06T13:44:18Z</time>
      </trkpt>
      <trkpt lat="45.9756" lon="4.58769">
        <ele>704</ele>
        <time>2020-06-06T13:44:22Z</time>
      </trkpt>
      <trkpt lat="45.97534" lon="4.58783">
        <ele>702.6</ele>
        <time>2020-06-06T13:44:26Z</time>
      </trkpt>
      <trkpt lat="45.97506" lon="4.58797">
        <ele>701.6</ele>
        <time>2020-06-06T13:44:30Z</time>
      </trkpt>
      <trkpt lat="45.97478" lon="4.58813">
        <ele>700</ele>
        <time>2020-06-06T13:44:34Z</time>
      </trkpt>
      <trkpt lat="45.97455" lon="4.58838">
        <ele>700.6</ele>
        <time>2020-06-06T13:44:38Z</time>
      </trkpt>
      <trkpt lat="45.97444" lon="4.5887">
        <ele>701</ele>
        <time>2020-06-06T13:44:42Z</time>
      </trkpt>
      <trkpt lat="45.97437" lon="4.58901">
        <ele>702.8</ele>
        <time>2020-06-06T13:44:46Z</time>
      </trkpt>
      <trkpt lat="45.97432" lon="4.58932">
        <ele>703.6</ele>
        <time>2020-06-06T13:44:50Z</time>
      </trkpt>
      <trkpt lat="45.97426" lon="4.5896">
        <ele>703.6</ele>
        <time>2020-06-06T13:44:54Z</time>
      </trkpt>
      <trkpt lat="45.97421" lon="4.58985">
        <ele>705</ele>
        <time>2020-06-06T13:44:58Z</time>
      </trkpt>
      <trkpt lat="45.97415" lon="4.59008">
        <ele>705.4</ele>
        <time>2020-06-06T13:45:02Z</time>
      </trkpt>
      <trkpt lat="45.97408" lon="4.59029">
        <ele>705.6</ele>
        <time>2020-06-06T13:45:06Z</time>
      </trkpt>
      <trkpt lat="45.97402" lon="4.59049">
        <ele>706.2</ele>
        <time>2020-06-06T13:45:10Z</time>
      </trkpt>
      <trkpt lat="45.97396" lon="4.59068">
        <ele>707.2</ele>
        <time>2020-06-06T13:45:14Z</time>
      </trkpt>
      <trkpt lat="45.97389" lon="4.59087">
        <ele>707</ele>
        <time>2020-06-06T13:45:18Z</time>
      </trkpt>
      <trkpt lat="45.97381" lon="4.59106">
        <ele>707.4</ele>
        <time>2020-06-06T13:45:22Z</time>
      </trkpt>
      <trkpt lat="45.97373" lon="4.59124">
        <ele>708.4</ele>
        <time>2020-06-06T13:45:26Z</time>
      </trkpt>
      <trkpt lat="45.97364" lon="4.59142">
        <ele>708.4</ele>
        <time>2020-06-06T13:45:30Z</time>
      </trkpt>
      <trkpt lat="45.97355" lon="4.5916">
        <ele>708.8</ele>
        <time>2020-06-06T13:45:34Z</time>
      </trkpt>
      <trkpt lat="45.97344" lon="4.59178">
        <ele>709</ele>
        <time>2020-06-06T13:45:38Z</time>
      </trkpt>
      <trkpt lat="45.97334" lon="4.59197">
        <ele>708.2</ele>
        <time>2020-06-06T13:45:42Z</time>
      </trkpt>
      <trkpt lat="45.97324" lon="4.59217">
        <ele>708</ele>
        <time>2020-06-06T13:45:46Z</time>
      </trkpt>
      <trkpt lat="45.97315" lon="4.59238">
        <ele>708.6</ele>
        <time>2020-06-06T13:45:50Z</time>
      </trkpt>
      <trkpt lat="45.97307" lon="4.59259">
        <ele>708.6</ele>
        <time>2020-06-06T13:45:54Z</time>
      </trkpt>
      <trkpt lat="45.97299" lon="4.5928">
        <ele>708.4</ele>
        <time>2020-06-06T13:45:58Z</time>
      </trkpt>
      <trkpt lat="45.97293" lon="4.59305">
        <ele>707.8</ele>
        <time>2020-06-06T13:46:02Z</time>
      </trkpt>
      <trkpt lat="45.97287" lon="4.59331">
        <ele>707</ele>
        <time>2020-06-06T13:46:06Z</time>
      </trkpt>
      <trkpt lat="45.97281" lon="4.59359">
        <ele>706.4</ele>
        <time>2020-06-06T13:46:10Z</time>
      </trkpt>
      <trkpt lat="45.9727" lon="4.59386">
        <ele>705.8</ele>
        <time>2020-06-06T13:46:14Z</time>
      </trkpt>
      <trkpt lat="45.97253" lon="4.59403">
        <ele>705</ele>
        <time>2020-06-06T13:46:18Z</time>
      </trkpt>
      <trkpt lat="45.97231" lon="4.59409">
        <ele>704</ele>
        <time>2020-06-06T13:46:22Z</time>
      </trkpt>
      <trkpt lat="45.97219" lon="4.59411">
        <ele>703.4</ele>
        <time>2020-06-06T13:46:26Z</time>
      </trkpt>
      <trkpt lat="45.97208" lon="4.59414">
        <ele>702.6</ele>
        <time>2020-06-06T13:46:30Z</time>
      </trkpt>
      <trkpt lat="45.97199" lon="4.59416">
        <ele>702</ele>
        <time>2020-06-06T13:46:34Z</time>
      </trkpt>
      <trkpt lat="45.97188" lon="4.59418">
        <ele>700.6</ele>
        <time>2020-06-06T13:46:38Z</time>
      </trkpt>
      <trkpt lat="45.97172" lon="4.59422">
        <ele>700.2</ele>
        <time>2020-06-06T13:46:42Z</time>
      </trkpt>
      <trkpt lat="45.97156" lon="4.59422">
        <ele>698.4</ele>
        <time>2020-06-06T13:46:46Z</time>
      </trkpt>
      <trkpt lat="45.97141" lon="4.59417">
        <ele>696.8</ele>
        <time>2020-06-06T13:46:50Z</time>
      </trkpt>
      <trkpt lat="45.9713" lon="4.59413">
        <ele>697.8</ele>
        <time>2020-06-06T13:46:54Z</time>
      </trkpt>
      <trkpt lat="45.97121" lon="4.59411">
        <ele>698.4</ele>
        <time>2020-06-06T13:46:58Z</time>
      </trkpt>
      <trkpt lat="45.97113" lon="4.59407">
        <ele>699.8</ele>
        <time>2020-06-06T13:47:02Z</time>
      </trkpt>
      <trkpt lat="45.97103" lon="4.59402">
        <ele>700</ele>
        <time>2020-06-06T13:47:06Z</time>
      </trkpt>
      <trkpt lat="45.97093" lon="4.59397">
        <ele>701</ele>
        <time>2020-06-06T13:47:10Z</time>
      </trkpt>
      <trkpt lat="45.97084" lon="4.59391">
        <ele>701.4</ele>
        <time>2020-06-06T13:47:14Z</time>
      </trkpt>
      <trkpt lat="45.97075" lon="4.59387">
        <ele>702</ele>
        <time>2020-06-06T13:47:18Z</time>
      </trkpt>
      <trkpt lat="45.97068" lon="4.59382">
        <ele>702.6</ele>
        <time>2020-06-06T13:47:22Z</time>
      </trkpt>
      <trkpt lat="45.9706" lon="4.59377">
        <ele>703.2</ele>
        <time>2020-06-06T13:47:26Z</time>
      </trkpt>
      <trkpt lat="45.97052" lon="4.59373">
        <ele>704</ele>
        <time>2020-06-06T13:47:30Z</time>
      </trkpt>
      <trkpt lat="45.97044" lon="4.59368">
        <ele>705</ele>
        <time>2020-06-06T13:47:34Z</time>
      </trkpt>
      <trkpt lat="45.97036" lon="4.59364">
        <ele>705.2</ele>
        <time>2020-06-06T13:47:38Z</time>
      </trkpt>
      <trkpt lat="45.97028" lon="4.59359">
        <ele>705.6</ele>
        <time>2020-06-06T13:47:42Z</time>
      </trkpt>
      <trkpt lat="45.9702" lon="4.59355">
        <ele>707</ele>
        <time>2020-06-06T13:47:46Z</time>
      </trkpt>
      <trkpt lat="45.97013" lon="4.59351">
        <ele>708.4</ele>
        <time>2020-06-06T13:47:50Z</time>
      </trkpt>
      <trkpt lat="45.97006" lon="4.59347">
        <ele>708.4</ele>
        <time>2020-06-06T13:47:54Z</time>
      </trkpt>
      <trkpt lat="45.97002" lon="4.59344">
        <ele>709.4</ele>
        <time>2020-06-06T13:47:58Z</time>
      </trkpt>
      <trkpt lat="45.9699" lon="4.59347">
        <ele>709</ele>
        <time>2020-06-06T13:49:33Z</time>
      </trkpt>
      <trkpt lat="45.96978" lon="4.59351">
        <ele>709.2</ele>
        <time>2020-06-06T13:49:37Z</time>
      </trkpt>
      <trkpt lat="45.96965" lon="4.59355">
        <ele>709.8</ele>
        <time>2020-06-06T13:49:41Z</time>
      </trkpt>
      <trkpt lat="45.96952" lon="4.59359">
        <ele>710.2</ele>
        <time>2020-06-06T13:49:45Z</time>
      </trkpt>
      <trkpt lat="45.96939" lon="4.59362">
        <ele>711.2</ele>
        <time>2020-06-06T13:49:49Z</time>
      </trkpt>
      <trkpt lat="45.96927" lon="4.59366">
        <ele>711.2</ele>
        <time>2020-06-06T13:49:53Z</time>
      </trkpt>
      <trkpt lat="45.96915" lon="4.59371">
        <ele>711.8</ele>
        <time>2020-06-06T13:49:57Z</time>
      </trkpt>
      <trkpt lat="45.96904" lon="4.59378">
        <ele>712</ele>
        <time>2020-06-06T13:50:01Z</time>
      </trkpt>
      <trkpt lat="45.96894" lon="4.59388">
        <ele>711.8</ele>
        <time>2020-06-06T13:50:05Z</time>
      </trkpt>
      <trkpt lat="45.96885" lon="4.59399">
        <ele>712.4</ele>
        <time>2020-06-06T13:50:09Z</time>
      </trkpt>
      <trkpt lat="45.96877" lon="4.59411">
        <ele>712.4</ele>
        <time>2020-06-06T13:50:13Z</time>
      </trkpt>
      <trkpt lat="45.96868" lon="4.59424">
        <ele>712.6</ele>
        <time>2020-06-06T13:50:17Z</time>
      </trkpt>
      <trkpt lat="45.96861" lon="4.59436">
        <ele>713.4</ele>
        <time>2020-06-06T13:50:21Z</time>
      </trkpt>
      <trkpt lat="45.96854" lon="4.59449">
        <ele>714.2</ele>
        <time>2020-06-06T13:50:25Z</time>
      </trkpt>
      <trkpt lat="45.96847" lon="4.59462">
        <ele>714.4</ele>
        <time>2020-06-06T13:50:29Z</time>
      </trkpt>
      <trkpt lat="45.9684" lon="4.59477">
        <ele>714.8</ele>
        <time>2020-06-06T13:50:33Z</time>
      </trkpt>
      <trkpt lat="45.96832" lon="4.59491">
        <ele>715.4</ele>
        <time>2020-06-06T13:50:37Z</time>
      </trkpt>
      <trkpt lat="45.96824" lon="4.59506">
        <ele>715.2</ele>
        <time>2020-06-06T13:50:41Z</time>
      </trkpt>
      <trkpt lat="45.96817" lon="4.5952">
        <ele>715.2</ele>
        <time>2020-06-06T13:50:45Z</time>
      </trkpt>
      <trkpt lat="45.9681" lon="4.59533">
        <ele>716</ele>
        <time>2020-06-06T13:50:49Z</time>
      </trkpt>
      <trkpt lat="45.96803" lon="4.59545">
        <ele>716.4</ele>
        <time>2020-06-06T13:50:53Z</time>
      </trkpt>
      <trkpt lat="45.96798" lon="4.59559">
        <ele>717.2</ele>
        <time>2020-06-06T13:50:57Z</time>
      </trkpt>
      <trkpt lat="45.96792" lon="4.59571">
        <ele>718.4</ele>
        <time>2020-06-06T13:51:01Z</time>
      </trkpt>
      <trkpt lat="45.96788" lon="4.59582">
        <ele>718.2</ele>
        <time>2020-06-06T13:51:05Z</time>
      </trkpt>
      <trkpt lat="45.96784" lon="4.59593">
        <ele>719.8</ele>
        <time>2020-06-06T13:51:09Z</time>
      </trkpt>
      <trkpt lat="45.96778" lon="4.59607">
        <ele>720</ele>
        <time>2020-06-06T13:51:13Z</time>
      </trkpt>
      <trkpt lat="45.96773" lon="4.59622">
        <ele>720</ele>
        <time>2020-06-06T13:51:17Z</time>
      </trkpt>
      <trkpt lat="45.96767" lon="4.59636">
        <ele>720.6</ele>
        <time>2020-06-06T13:51:21Z</time>
      </trkpt>
      <trkpt lat="45.96762" lon="4.59651">
        <ele>722</ele>
        <time>2020-06-06T13:51:25Z</time>
      </trkpt>
      <trkpt lat="45.96758" lon="4.59665">
        <ele>722.6</ele>
        <time>2020-06-06T13:51:29Z</time>
      </trkpt>
      <trkpt lat="45.96754" lon="4.5968">
        <ele>723.8</ele>
        <time>2020-06-06T13:51:33Z</time>
      </trkpt>
      <trkpt lat="45.9675" lon="4.59694">
        <ele>724.6</ele>
        <time>2020-06-06T13:51:37Z</time>
      </trkpt>
      <trkpt lat="45.96747" lon="4.59708">
        <ele>725.2</ele>
        <time>2020-06-06T13:51:41Z</time>
      </trkpt>
      <trkpt lat="45.96743" lon="4.59722">
        <ele>726.4</ele>
        <time>2020-06-06T13:51:45Z</time>
      </trkpt>
      <trkpt lat="45.96739" lon="4.59736">
        <ele>727.4</ele>
        <time>2020-06-06T13:51:49Z</time>
      </trkpt>
      <trkpt lat="45.96735" lon="4.59749">
        <ele>728.2</ele>
        <time>2020-06-06T13:51:53Z</time>
      </trkpt>
      <trkpt lat="45.96731" lon="4.59762">
        <ele>728.6</ele>
        <time>2020-06-06T13:51:57Z</time>
      </trkpt>
      <trkpt lat="45.96725" lon="4.59774">
        <ele>730.2</ele>
        <time>2020-06-06T13:52:01Z</time>
      </trkpt>
      <trkpt lat="45.96718" lon="4.59784">
        <ele>730.2</ele>
        <time>2020-06-06T13:52:05Z</time>
      </trkpt>
      <trkpt lat="45.9671" lon="4.59792">
        <ele>731.6</ele>
        <time>2020-06-06T13:52:09Z</time>
      </trkpt>
      <trkpt lat="45.96701" lon="4.59797">
        <ele>732.4</ele>
        <time>2020-06-06T13:52:13Z</time>
      </trkpt>
      <trkpt lat="45.96691" lon="4.59801">
        <ele>732.8</ele>
        <time>2020-06-06T13:52:17Z</time>
      </trkpt>
      <trkpt lat="45.9668" lon="4.59804">
        <ele>732.8</ele>
        <time>2020-06-06T13:52:21Z</time>
      </trkpt>
      <trkpt lat="45.96669" lon="4.59807">
        <ele>733.6</ele>
        <time>2020-06-06T13:52:25Z</time>
      </trkpt>
      <trkpt lat="45.96657" lon="4.59808">
        <ele>734.2</ele>
        <time>2020-06-06T13:52:29Z</time>
      </trkpt>
      <trkpt lat="45.96646" lon="4.59806">
        <ele>733.2</ele>
        <time>2020-06-06T13:52:33Z</time>
      </trkpt>
      <trkpt lat="45.96635" lon="4.59801">
        <ele>734</ele>
        <time>2020-06-06T13:52:37Z</time>
      </trkpt>
      <trkpt lat="45.96624" lon="4.59795">
        <ele>734.2</ele>
        <time>2020-06-06T13:52:41Z</time>
      </trkpt>
      <trkpt lat="45.96613" lon="4.59788">
        <ele>733.6</ele>
        <time>2020-06-06T13:52:45Z</time>
      </trkpt>
      <trkpt lat="45.96602" lon="4.59782">
        <ele>733.6</ele>
        <time>2020-06-06T13:52:49Z</time>
      </trkpt>
      <trkpt lat="45.96587" lon="4.59774">
        <ele>732.4</ele>
        <time>2020-06-06T13:52:53Z</time>
      </trkpt>
      <trkpt lat="45.96569" lon="4.59764">
        <ele>731.4</ele>
        <time>2020-06-06T13:52:57Z</time>
      </trkpt>
      <trkpt lat="45.96548" lon="4.59752">
        <ele>728.8</ele>
        <time>2020-06-06T13:53:01Z</time>
      </trkpt>
      <trkpt lat="45.96528" lon="4.59726">
        <ele>726.8</ele>
        <time>2020-06-06T13:53:05Z</time>
      </trkpt>
      <trkpt lat="45.96503" lon="4.59698">
        <ele>723.6</ele>
        <time>2020-06-06T13:53:09Z</time>
      </trkpt>
      <trkpt lat="45.96474" lon="4.59676">
        <ele>723.8</ele>
        <time>2020-06-06T13:53:13Z</time>
      </trkpt>
      <trkpt lat="45.96449" lon="4.5966">
        <ele>724.4</ele>
        <time>2020-06-06T13:53:17Z</time>
      </trkpt>
      <trkpt lat="45.9643" lon="4.59648">
        <ele>725.6</ele>
        <time>2020-06-06T13:53:21Z</time>
      </trkpt>
      <trkpt lat="45.96415" lon="4.59638">
        <ele>727</ele>
        <time>2020-06-06T13:53:25Z</time>
      </trkpt>
      <trkpt lat="45.96402" lon="4.5963">
        <ele>728.6</ele>
        <time>2020-06-06T13:53:29Z</time>
      </trkpt>
      <trkpt lat="45.9639" lon="4.59621">
        <ele>729.2</ele>
        <time>2020-06-06T13:53:33Z</time>
      </trkpt>
      <trkpt lat="45.96378" lon="4.59614">
        <ele>730.8</ele>
        <time>2020-06-06T13:53:37Z</time>
      </trkpt>
      <trkpt lat="45.96367" lon="4.59612">
        <ele>731.8</ele>
        <time>2020-06-06T13:53:41Z</time>
      </trkpt>
      <trkpt lat="45.96356" lon="4.59613">
        <ele>731.8</ele>
        <time>2020-06-06T13:53:45Z</time>
      </trkpt>
      <trkpt lat="45.96341" lon="4.5962">
        <ele>731</ele>
        <time>2020-06-06T13:53:49Z</time>
      </trkpt>
      <trkpt lat="45.9632" lon="4.59629">
        <ele>728.4</ele>
        <time>2020-06-06T13:53:53Z</time>
      </trkpt>
      <trkpt lat="45.96294" lon="4.59632">
        <ele>726.2</ele>
        <time>2020-06-06T13:53:57Z</time>
      </trkpt>
      <trkpt lat="45.96265" lon="4.59625">
        <ele>724.2</ele>
        <time>2020-06-06T13:54:01Z</time>
      </trkpt>
      <trkpt lat="45.96234" lon="4.59608">
        <ele>721.4</ele>
        <time>2020-06-06T13:54:05Z</time>
      </trkpt>
      <trkpt lat="45.96207" lon="4.59594">
        <ele>721.6</ele>
        <time>2020-06-06T13:54:09Z</time>
      </trkpt>
      <trkpt lat="45.96186" lon="4.59579">
        <ele>724.2</ele>
        <time>2020-06-06T13:54:13Z</time>
      </trkpt>
      <trkpt lat="45.96169" lon="4.59567">
        <ele>725.6</ele>
        <time>2020-06-06T13:54:17Z</time>
      </trkpt>
      <trkpt lat="45.96154" lon="4.59556">
        <ele>727.2</ele>
        <time>2020-06-06T13:54:21Z</time>
      </trkpt>
      <trkpt lat="45.96141" lon="4.59545">
        <ele>728</ele>
        <time>2020-06-06T13:54:25Z</time>
      </trkpt>
      <trkpt lat="45.96127" lon="4.59535">
        <ele>727.8</ele>
        <time>2020-06-06T13:54:29Z</time>
      </trkpt>
      <trkpt lat="45.9611" lon="4.59521">
        <ele>727.8</ele>
        <time>2020-06-06T13:54:33Z</time>
      </trkpt>
      <trkpt lat="45.9609" lon="4.59508">
        <ele>726.2</ele>
        <time>2020-06-06T13:54:37Z</time>
      </trkpt>
      <trkpt lat="45.96072" lon="4.59499">
        <ele>726.8</ele>
        <time>2020-06-06T13:54:41Z</time>
      </trkpt>
      <trkpt lat="45.96055" lon="4.59496">
        <ele>726.2</ele>
        <time>2020-06-06T13:54:45Z</time>
      </trkpt>
      <trkpt lat="45.96036" lon="4.59493">
        <ele>726</ele>
        <time>2020-06-06T13:54:49Z</time>
      </trkpt>
      <trkpt lat="45.96011" lon="4.59486">
        <ele>723.2</ele>
        <time>2020-06-06T13:54:53Z</time>
      </trkpt>
      <trkpt lat="45.95989" lon="4.59474">
        <ele>722.6</ele>
        <time>2020-06-06T13:54:57Z</time>
      </trkpt>
      <trkpt lat="45.95975" lon="4.59461">
        <ele>726</ele>
        <time>2020-06-06T13:55:01Z</time>
      </trkpt>
      <trkpt lat="45.95959" lon="4.59454">
        <ele>726.8</ele>
        <time>2020-06-06T13:55:05Z</time>
      </trkpt>
      <trkpt lat="45.95946" lon="4.5945">
        <ele>727.2</ele>
        <time>2020-06-06T13:55:09Z</time>
      </trkpt>
      <trkpt lat="45.95933" lon="4.59451">
        <ele>729.2</ele>
        <time>2020-06-06T13:55:13Z</time>
      </trkpt>
      <trkpt lat="45.95919" lon="4.59456">
        <ele>729.6</ele>
        <time>2020-06-06T13:55:17Z</time>
      </trkpt>
      <trkpt lat="45.95906" lon="4.59463">
        <ele>730.2</ele>
        <time>2020-06-06T13:55:21Z</time>
      </trkpt>
      <trkpt lat="45.95895" lon="4.59468">
        <ele>730.8</ele>
        <time>2020-06-06T13:55:25Z</time>
      </trkpt>
      <trkpt lat="45.95884" lon="4.59478">
        <ele>729.2</ele>
        <time>2020-06-06T13:55:29Z</time>
      </trkpt>
      <trkpt lat="45.95869" lon="4.59493">
        <ele>727.8</ele>
        <time>2020-06-06T13:55:33Z</time>
      </trkpt>
      <trkpt lat="45.95851" lon="4.59512">
        <ele>724.8</ele>
        <time>2020-06-06T13:55:37Z</time>
      </trkpt>
      <trkpt lat="45.95829" lon="4.59543">
        <ele>724</ele>
        <time>2020-06-06T13:55:41Z</time>
      </trkpt>
      <trkpt lat="45.9581" lon="4.59567">
        <ele>725.6</ele>
        <time>2020-06-06T13:55:45Z</time>
      </trkpt>
      <trkpt lat="45.95796" lon="4.5958">
        <ele>727.2</ele>
        <time>2020-06-06T13:55:49Z</time>
      </trkpt>
      <trkpt lat="45.95786" lon="4.59586">
        <ele>728.8</ele>
        <time>2020-06-06T13:55:53Z</time>
      </trkpt>
      <trkpt lat="45.95777" lon="4.59593">
        <ele>730.2</ele>
        <time>2020-06-06T13:55:57Z</time>
      </trkpt>
      <trkpt lat="45.95767" lon="4.59605">
        <ele>731.8</ele>
        <time>2020-06-06T13:56:01Z</time>
      </trkpt>
      <trkpt lat="45.95757" lon="4.59616">
        <ele>731.6</ele>
        <time>2020-06-06T13:56:05Z</time>
      </trkpt>
      <trkpt lat="45.95749" lon="4.59628">
        <ele>731.6</ele>
        <time>2020-06-06T13:56:09Z</time>
      </trkpt>
      <trkpt lat="45.9574" lon="4.59637">
        <ele>732.2</ele>
        <time>2020-06-06T13:56:13Z</time>
      </trkpt>
      <trkpt lat="45.95729" lon="4.5965">
        <ele>732.2</ele>
        <time>2020-06-06T13:56:17Z</time>
      </trkpt>
      <trkpt lat="45.95719" lon="4.59662">
        <ele>732.6</ele>
        <time>2020-06-06T13:56:21Z</time>
      </trkpt>
      <trkpt lat="45.95711" lon="4.59671">
        <ele>733.6</ele>
        <time>2020-06-06T13:56:25Z</time>
      </trkpt>
      <trkpt lat="45.95705" lon="4.5968">
        <ele>733.8</ele>
        <time>2020-06-06T13:56:29Z</time>
      </trkpt>
      <trkpt lat="45.95698" lon="4.59689">
        <ele>736</ele>
        <time>2020-06-06T13:56:33Z</time>
      </trkpt>
      <trkpt lat="45.95691" lon="4.59698">
        <ele>737</ele>
        <time>2020-06-06T13:56:37Z</time>
      </trkpt>
      <trkpt lat="45.95686" lon="4.59707">
        <ele>738</ele>
        <time>2020-06-06T13:56:41Z</time>
      </trkpt>
      <trkpt lat="45.9568" lon="4.59717">
        <ele>738.6</ele>
        <time>2020-06-06T13:56:45Z</time>
      </trkpt>
      <trkpt lat="45.95675" lon="4.59728">
        <ele>739.6</ele>
        <time>2020-06-06T13:56:49Z</time>
      </trkpt>
      <trkpt lat="45.95669" lon="4.59742">
        <ele>739.6</ele>
        <time>2020-06-06T13:56:53Z</time>
      </trkpt>
      <trkpt lat="45.95664" lon="4.59755">
        <ele>740</ele>
        <time>2020-06-06T13:56:57Z</time>
      </trkpt>
      <trkpt lat="45.9566" lon="4.59767">
        <ele>739.8</ele>
        <time>2020-06-06T13:57:01Z</time>
      </trkpt>
      <trkpt lat="45.95656" lon="4.59782">
        <ele>739.4</ele>
        <time>2020-06-06T13:57:05Z</time>
      </trkpt>
      <trkpt lat="45.95651" lon="4.59794">
        <ele>739.8</ele>
        <time>2020-06-06T13:57:09Z</time>
      </trkpt>
      <trkpt lat="45.95648" lon="4.59808">
        <ele>739.6</ele>
        <time>2020-06-06T13:57:13Z</time>
      </trkpt>
      <trkpt lat="45.95644" lon="4.59822">
        <ele>739.6</ele>
        <time>2020-06-06T13:57:17Z</time>
      </trkpt>
      <trkpt lat="45.95639" lon="4.59838">
        <ele>739.4</ele>
        <time>2020-06-06T13:57:21Z</time>
      </trkpt>
      <trkpt lat="45.95637" lon="4.59855">
        <ele>738.8</ele>
        <time>2020-06-06T13:57:25Z</time>
      </trkpt>
      <trkpt lat="45.95634" lon="4.59875">
        <ele>738.4</ele>
        <time>2020-06-06T13:57:29Z</time>
      </trkpt>
      <trkpt lat="45.9563" lon="4.59892">
        <ele>737.6</ele>
        <time>2020-06-06T13:57:33Z</time>
      </trkpt>
      <trkpt lat="45.95626" lon="4.59915">
        <ele>737.6</ele>
        <time>2020-06-06T13:57:37Z</time>
      </trkpt>
      <trkpt lat="45.95624" lon="4.59937">
        <ele>738.6</ele>
        <time>2020-06-06T13:57:41Z</time>
      </trkpt>
      <trkpt lat="45.95623" lon="4.59956">
        <ele>739</ele>
        <time>2020-06-06T13:57:45Z</time>
      </trkpt>
      <trkpt lat="45.95623" lon="4.5998">
        <ele>740.2</ele>
        <time>2020-06-06T13:57:49Z</time>
      </trkpt>
      <trkpt lat="45.95622" lon="4.60004">
        <ele>741.6</ele>
        <time>2020-06-06T13:57:53Z</time>
      </trkpt>
      <trkpt lat="45.95622" lon="4.60031">
        <ele>742</ele>
        <time>2020-06-06T13:57:57Z</time>
      </trkpt>
      <trkpt lat="45.9562" lon="4.60051">
        <ele>741.8</ele>
        <time>2020-06-06T13:58:01Z</time>
      </trkpt>
      <trkpt lat="45.95617" lon="4.60074">
        <ele>739.2</ele>
        <time>2020-06-06T13:58:05Z</time>
      </trkpt>
      <trkpt lat="45.95616" lon="4.60104">
        <ele>738</ele>
        <time>2020-06-06T13:58:09Z</time>
      </trkpt>
      <trkpt lat="45.95609" lon="4.60137">
        <ele>736.2</ele>
        <time>2020-06-06T13:58:13Z</time>
      </trkpt>
      <trkpt lat="45.95596" lon="4.60161">
        <ele>735.8</ele>
        <time>2020-06-06T13:58:17Z</time>
      </trkpt>
      <trkpt lat="45.95577" lon="4.6018">
        <ele>735</ele>
        <time>2020-06-06T13:58:21Z</time>
      </trkpt>
      <trkpt lat="45.95558" lon="4.602">
        <ele>735</ele>
        <time>2020-06-06T13:58:25Z</time>
      </trkpt>
      <trkpt lat="45.95536" lon="4.60206">
        <ele>735.8</ele>
        <time>2020-06-06T13:58:29Z</time>
      </trkpt>
      <trkpt lat="45.9552" lon="4.60206">
        <ele>737.2</ele>
        <time>2020-06-06T13:58:33Z</time>
      </trkpt>
      <trkpt lat="45.95512" lon="4.60206">
        <ele>738</ele>
        <time>2020-06-06T13:58:37Z</time>
      </trkpt>
      <trkpt lat="45.95503" lon="4.60206">
        <ele>739</ele>
        <time>2020-06-06T13:58:41Z</time>
      </trkpt>
      <trkpt lat="45.95492" lon="4.60204">
        <ele>739.4</ele>
        <time>2020-06-06T13:58:45Z</time>
      </trkpt>
      <trkpt lat="45.95482" lon="4.60204">
        <ele>740.4</ele>
        <time>2020-06-06T13:58:49Z</time>
      </trkpt>
      <trkpt lat="45.9547" lon="4.60205">
        <ele>740.8</ele>
        <time>2020-06-06T13:58:53Z</time>
      </trkpt>
      <trkpt lat="45.95458" lon="4.60206">
        <ele>740.8</ele>
        <time>2020-06-06T13:58:57Z</time>
      </trkpt>
      <trkpt lat="45.95445" lon="4.60206">
        <ele>740.8</ele>
        <time>2020-06-06T13:59:01Z</time>
      </trkpt>
      <trkpt lat="45.95434" lon="4.60208">
        <ele>741.2</ele>
        <time>2020-06-06T13:59:05Z</time>
      </trkpt>
      <trkpt lat="45.95421" lon="4.60209">
        <ele>741</ele>
        <time>2020-06-06T13:59:09Z</time>
      </trkpt>
      <trkpt lat="45.95408" lon="4.60211">
        <ele>740</ele>
        <time>2020-06-06T13:59:13Z</time>
      </trkpt>
      <trkpt lat="45.95392" lon="4.60214">
        <ele>738.8</ele>
        <time>2020-06-06T13:59:17Z</time>
      </trkpt>
      <trkpt lat="45.95372" lon="4.6022">
        <ele>737.2</ele>
        <time>2020-06-06T13:59:21Z</time>
      </trkpt>
      <trkpt lat="45.9535" lon="4.60223">
        <ele>736.4</ele>
        <time>2020-06-06T13:59:25Z</time>
      </trkpt>
      <trkpt lat="45.95327" lon="4.60226">
        <ele>736.8</ele>
        <time>2020-06-06T13:59:29Z</time>
      </trkpt>
      <trkpt lat="45.95306" lon="4.60223">
        <ele>738.4</ele>
        <time>2020-06-06T13:59:33Z</time>
      </trkpt>
      <trkpt lat="45.95289" lon="4.60224">
        <ele>739.4</ele>
        <time>2020-06-06T13:59:37Z</time>
      </trkpt>
      <trkpt lat="45.95275" lon="4.6022">
        <ele>739.8</ele>
        <time>2020-06-06T13:59:41Z</time>
      </trkpt>
      <trkpt lat="45.95262" lon="4.60218">
        <ele>741.2</ele>
        <time>2020-06-06T13:59:45Z</time>
      </trkpt>
      <trkpt lat="45.95248" lon="4.60217">
        <ele>742.4</ele>
        <time>2020-06-06T13:59:49Z</time>
      </trkpt>
      <trkpt lat="45.95233" lon="4.60215">
        <ele>743.4</ele>
        <time>2020-06-06T13:59:53Z</time>
      </trkpt>
      <trkpt lat="45.95218" lon="4.60212">
        <ele>744.4</ele>
        <time>2020-06-06T13:59:57Z</time>
      </trkpt>
      <trkpt lat="45.95203" lon="4.6021">
        <ele>744.8</ele>
        <time>2020-06-06T14:00:01Z</time>
      </trkpt>
      <trkpt lat="45.9519" lon="4.6021">
        <ele>745</ele>
        <time>2020-06-06T14:00:05Z</time>
      </trkpt>
      <trkpt lat="45.9518" lon="4.60212">
        <ele>745.2</ele>
        <time>2020-06-06T14:00:09Z</time>
      </trkpt>
      <trkpt lat="45.95151" lon="4.60211">
        <ele>743.4</ele>
        <time>2020-06-06T14:00:26Z</time>
      </trkpt>
      <trkpt lat="45.95136" lon="4.60215">
        <ele>741.6</ele>
        <time>2020-06-06T14:00:30Z</time>
      </trkpt>
      <trkpt lat="45.95112" lon="4.60218">
        <ele>738.6</ele>
        <time>2020-06-06T14:00:34Z</time>
      </trkpt>
      <trkpt lat="45.95078" lon="4.60228">
        <ele>733.2</ele>
        <time>2020-06-06T14:00:38Z</time>
      </trkpt>
      <trkpt lat="45.95043" lon="4.60251">
        <ele>732.2</ele>
        <time>2020-06-06T14:00:42Z</time>
      </trkpt>
      <trkpt lat="45.95023" lon="4.60265">
        <ele>733.8</ele>
        <time>2020-06-06T14:00:46Z</time>
      </trkpt>
      <trkpt lat="45.95023" lon="4.60266">
        <ele>733.6</ele>
        <time>2020-06-06T14:00:50Z</time>
      </trkpt>
      <trkpt lat="45.95025" lon="4.60266">
        <ele>733.6</ele>
        <time>2020-06-06T14:00:54Z</time>
      </trkpt>
      <trkpt lat="45.95017" lon="4.60272">
        <ele>733</ele>
        <time>2020-06-06T14:02:50Z</time>
      </trkpt>
      <trkpt lat="45.95006" lon="4.60274">
        <ele>732.4</ele>
        <time>2020-06-06T14:02:54Z</time>
      </trkpt>
      <trkpt lat="45.94995" lon="4.60271">
        <ele>734</ele>
        <time>2020-06-06T14:02:58Z</time>
      </trkpt>
      <trkpt lat="45.94984" lon="4.6027">
        <ele>733.8</ele>
        <time>2020-06-06T14:03:02Z</time>
      </trkpt>
      <trkpt lat="45.94972" lon="4.60271">
        <ele>732.2</ele>
        <time>2020-06-06T14:03:06Z</time>
      </trkpt>
      <trkpt lat="45.94956" lon="4.60275">
        <ele>731.6</ele>
        <time>2020-06-06T14:03:10Z</time>
      </trkpt>
      <trkpt lat="45.94944" lon="4.60282">
        <ele>730.2</ele>
        <time>2020-06-06T14:03:14Z</time>
      </trkpt>
      <trkpt lat="45.94933" lon="4.6029">
        <ele>728.4</ele>
        <time>2020-06-06T14:03:18Z</time>
      </trkpt>
      <trkpt lat="45.94919" lon="4.60302">
        <ele>725.8</ele>
        <time>2020-06-06T14:03:22Z</time>
      </trkpt>
      <trkpt lat="45.94903" lon="4.60315">
        <ele>721.2</ele>
        <time>2020-06-06T14:03:26Z</time>
      </trkpt>
      <trkpt lat="45.94883" lon="4.60331">
        <ele>717.4</ele>
        <time>2020-06-06T14:03:30Z</time>
      </trkpt>
      <trkpt lat="45.9486" lon="4.60348">
        <ele>711.2</ele>
        <time>2020-06-06T14:03:34Z</time>
      </trkpt>
      <trkpt lat="45.94832" lon="4.60367">
        <ele>704</ele>
        <time>2020-06-06T14:03:38Z</time>
      </trkpt>
      <trkpt lat="45.94799" lon="4.60387">
        <ele>701.8</ele>
        <time>2020-06-06T14:03:42Z</time>
      </trkpt>
      <trkpt lat="45.94768" lon="4.60408">
        <ele>697.2</ele>
        <time>2020-06-06T14:03:46Z</time>
      </trkpt>
      <trkpt lat="45.94745" lon="4.60415">
        <ele>691.6</ele>
        <time>2020-06-06T14:03:50Z</time>
      </trkpt>
      <trkpt lat="45.94748" lon="4.60383">
        <ele>688.2</ele>
        <time>2020-06-06T14:03:54Z</time>
      </trkpt>
      <trkpt lat="45.94742" lon="4.6035">
        <ele>680.8</ele>
        <time>2020-06-06T14:03:58Z</time>
      </trkpt>
      <trkpt lat="45.94717" lon="4.60317">
        <ele>680.2</ele>
        <time>2020-06-06T14:04:02Z</time>
      </trkpt>
      <trkpt lat="45.94702" lon="4.60296">
        <ele>681</ele>
        <time>2020-06-06T14:04:06Z</time>
      </trkpt>
      <trkpt lat="45.94688" lon="4.60299">
        <ele>679.8</ele>
        <time>2020-06-06T14:05:16Z</time>
      </trkpt>
      <trkpt lat="45.94675" lon="4.60316">
        <ele>678.8</ele>
        <time>2020-06-06T14:05:20Z</time>
      </trkpt>
      <trkpt lat="45.9466" lon="4.60335">
        <ele>677.8</ele>
        <time>2020-06-06T14:05:24Z</time>
      </trkpt>
      <trkpt lat="45.94644" lon="4.60356">
        <ele>676</ele>
        <time>2020-06-06T14:05:28Z</time>
      </trkpt>
      <trkpt lat="45.94626" lon="4.60379">
        <ele>676</ele>
        <time>2020-06-06T14:05:32Z</time>
      </trkpt>
      <trkpt lat="45.94608" lon="4.60404">
        <ele>674.4</ele>
        <time>2020-06-06T14:05:36Z</time>
      </trkpt>
      <trkpt lat="45.94587" lon="4.60428">
        <ele>672.2</ele>
        <time>2020-06-06T14:05:40Z</time>
      </trkpt>
      <trkpt lat="45.94563" lon="4.60449">
        <ele>670.4</ele>
        <time>2020-06-06T14:05:44Z</time>
      </trkpt>
      <trkpt lat="45.94537" lon="4.6047">
        <ele>670.6</ele>
        <time>2020-06-06T14:05:48Z</time>
      </trkpt>
      <trkpt lat="45.9451" lon="4.60493">
        <ele>668.8</ele>
        <time>2020-06-06T14:05:52Z</time>
      </trkpt>
      <trkpt lat="45.9448" lon="4.60519">
        <ele>666</ele>
        <time>2020-06-06T14:05:56Z</time>
      </trkpt>
      <trkpt lat="45.94449" lon="4.60546">
        <ele>664.2</ele>
        <time>2020-06-06T14:06:00Z</time>
      </trkpt>
      <trkpt lat="45.94416" lon="4.60574">
        <ele>661.8</ele>
        <time>2020-06-06T14:06:04Z</time>
      </trkpt>
      <trkpt lat="45.94381" lon="4.60603">
        <ele>660</ele>
        <time>2020-06-06T14:06:08Z</time>
      </trkpt>
      <trkpt lat="45.94348" lon="4.60637">
        <ele>657</ele>
        <time>2020-06-06T14:06:12Z</time>
      </trkpt>
      <trkpt lat="45.94315" lon="4.60676">
        <ele>654</ele>
        <time>2020-06-06T14:06:16Z</time>
      </trkpt>
      <trkpt lat="45.94282" lon="4.60716">
        <ele>651.4</ele>
        <time>2020-06-06T14:06:20Z</time>
      </trkpt>
      <trkpt lat="45.94249" lon="4.60756">
        <ele>649</ele>
        <time>2020-06-06T14:06:24Z</time>
      </trkpt>
      <trkpt lat="45.94214" lon="4.60797">
        <ele>646.2</ele>
        <time>2020-06-06T14:06:28Z</time>
      </trkpt>
      <trkpt lat="45.9418" lon="4.60839">
        <ele>642.8</ele>
        <time>2020-06-06T14:06:32Z</time>
      </trkpt>
      <trkpt lat="45.94145" lon="4.60882">
        <ele>641.4</ele>
        <time>2020-06-06T14:06:36Z</time>
      </trkpt>
      <trkpt lat="45.9411" lon="4.6093">
        <ele>637.2</ele>
        <time>2020-06-06T14:06:40Z</time>
      </trkpt>
      <trkpt lat="45.94074" lon="4.6098">
        <ele>633.4</ele>
        <time>2020-06-06T14:06:44Z</time>
      </trkpt>
      <trkpt lat="45.94041" lon="4.61028">
        <ele>630.2</ele>
        <time>2020-06-06T14:06:48Z</time>
      </trkpt>
      <trkpt lat="45.94024" lon="4.61086">
        <ele>627.2</ele>
        <time>2020-06-06T14:06:52Z</time>
      </trkpt>
      <trkpt lat="45.94032" lon="4.61148">
        <ele>624.2</ele>
        <time>2020-06-06T14:06:56Z</time>
      </trkpt>
      <trkpt lat="45.9404" lon="4.6121">
        <ele>622.8</ele>
        <time>2020-06-06T14:07:00Z</time>
      </trkpt>
      <trkpt lat="45.94044" lon="4.61269">
        <ele>622</ele>
        <time>2020-06-06T14:07:04Z</time>
      </trkpt>
      <trkpt lat="45.9403" lon="4.61324">
        <ele>619.2</ele>
        <time>2020-06-06T14:07:08Z</time>
      </trkpt>
      <trkpt lat="45.94007" lon="4.61374">
        <ele>616.6</ele>
        <time>2020-06-06T14:07:12Z</time>
      </trkpt>
      <trkpt lat="45.93989" lon="4.61413">
        <ele>616.6</ele>
        <time>2020-06-06T14:07:16Z</time>
      </trkpt>
      <trkpt lat="45.93979" lon="4.61439">
        <ele>616.8</ele>
        <time>2020-06-06T14:07:20Z</time>
      </trkpt>
      <trkpt lat="45.93977" lon="4.61455">
        <ele>616.6</ele>
        <time>2020-06-06T14:07:24Z</time>
      </trkpt>
      <trkpt lat="45.93984" lon="4.6147">
        <ele>616.8</ele>
        <time>2020-06-06T14:07:28Z</time>
      </trkpt>
      <trkpt lat="45.93985" lon="4.61488">
        <ele>616.4</ele>
        <time>2020-06-06T14:07:32Z</time>
      </trkpt>
      <trkpt lat="45.93987" lon="4.61508">
        <ele>617</ele>
        <time>2020-06-06T14:07:36Z</time>
      </trkpt>
      <trkpt lat="45.93989" lon="4.6153">
        <ele>616.8</ele>
        <time>2020-06-06T14:07:40Z</time>
      </trkpt>
      <trkpt lat="45.9399" lon="4.61551">
        <ele>617.4</ele>
        <time>2020-06-06T14:07:44Z</time>
      </trkpt>
      <trkpt lat="45.93989" lon="4.61571">
        <ele>618.2</ele>
        <time>2020-06-06T14:07:48Z</time>
      </trkpt>
      <trkpt lat="45.93984" lon="4.61589">
        <ele>617.4</ele>
        <time>2020-06-06T14:07:52Z</time>
      </trkpt>
      <trkpt lat="45.93976" lon="4.61606">
        <ele>617.4</ele>
        <time>2020-06-06T14:07:56Z</time>
      </trkpt>
      <trkpt lat="45.93968" lon="4.61621">
        <ele>617.6</ele>
        <time>2020-06-06T14:08:00Z</time>
      </trkpt>
      <trkpt lat="45.93966" lon="4.61627">
        <ele>616.8</ele>
        <time>2020-06-06T14:08:04Z</time>
      </trkpt>
      <trkpt lat="45.9396" lon="4.61624">
        <ele>616.4</ele>
        <time>2020-06-06T14:08:08Z</time>
      </trkpt>
      <trkpt lat="45.93954" lon="4.61615">
        <ele>613.8</ele>
        <time>2020-06-06T14:08:12Z</time>
      </trkpt>
      <trkpt lat="45.93939" lon="4.61602">
        <ele>611.4</ele>
        <time>2020-06-06T14:08:16Z</time>
      </trkpt>
      <trkpt lat="45.93932" lon="4.61592">
        <ele>611.6</ele>
        <time>2020-06-06T14:08:20Z</time>
      </trkpt>
      <trkpt lat="45.93924" lon="4.61599">
        <ele>611.2</ele>
        <time>2020-06-06T14:08:24Z</time>
      </trkpt>
      <trkpt lat="45.93916" lon="4.61621">
        <ele>610.4</ele>
        <time>2020-06-06T14:08:28Z</time>
      </trkpt>
      <trkpt lat="45.93906" lon="4.61648">
        <ele>608.4</ele>
        <time>2020-06-06T14:08:32Z</time>
      </trkpt>
      <trkpt lat="45.93896" lon="4.61681">
        <ele>606.8</ele>
        <time>2020-06-06T14:08:36Z</time>
      </trkpt>
      <trkpt lat="45.93888" lon="4.61721">
        <ele>605.2</ele>
        <time>2020-06-06T14:08:40Z</time>
      </trkpt>
      <trkpt lat="45.93885" lon="4.61761">
        <ele>603.2</ele>
        <time>2020-06-06T14:08:44Z</time>
      </trkpt>
      <trkpt lat="45.93887" lon="4.6179">
        <ele>602.6</ele>
        <time>2020-06-06T14:08:48Z</time>
      </trkpt>
      <trkpt lat="45.93893" lon="4.61812">
        <ele>601.6</ele>
        <time>2020-06-06T14:08:52Z</time>
      </trkpt>
      <trkpt lat="45.93899" lon="4.6183">
        <ele>601</ele>
        <time>2020-06-06T14:08:56Z</time>
      </trkpt>
      <trkpt lat="45.93902" lon="4.61845">
        <ele>600.8</ele>
        <time>2020-06-06T14:09:00Z</time>
      </trkpt>
      <trkpt lat="45.93905" lon="4.61862">
        <ele>599.8</ele>
        <time>2020-06-06T14:09:04Z</time>
      </trkpt>
      <trkpt lat="45.9391" lon="4.61875">
        <ele>599</ele>
        <time>2020-06-06T14:09:08Z</time>
      </trkpt>
      <trkpt lat="45.93912" lon="4.61878">
        <ele>598.8</ele>
        <time>2020-06-06T14:09:12Z</time>
      </trkpt>
      <trkpt lat="45.93918" lon="4.6189">
        <ele>598.2</ele>
        <time>2020-06-06T14:09:16Z</time>
      </trkpt>
      <trkpt lat="45.93928" lon="4.61911">
        <ele>596.4</ele>
        <time>2020-06-06T14:09:20Z</time>
      </trkpt>
      <trkpt lat="45.9394" lon="4.61934">
        <ele>594.4</ele>
        <time>2020-06-06T14:09:24Z</time>
      </trkpt>
      <trkpt lat="45.93961" lon="4.61956">
        <ele>592.4</ele>
        <time>2020-06-06T14:09:28Z</time>
      </trkpt>
      <trkpt lat="45.93985" lon="4.61976">
        <ele>590.4</ele>
        <time>2020-06-06T14:09:32Z</time>
      </trkpt>
      <trkpt lat="45.94008" lon="4.61992">
        <ele>589.2</ele>
        <time>2020-06-06T14:09:36Z</time>
      </trkpt>
      <trkpt lat="45.9403" lon="4.62003">
        <ele>587</ele>
        <time>2020-06-06T14:09:40Z</time>
      </trkpt>
      <trkpt lat="45.94058" lon="4.62015">
        <ele>585.4</ele>
        <time>2020-06-06T14:09:44Z</time>
      </trkpt>
      <trkpt lat="45.94081" lon="4.62023">
        <ele>584.4</ele>
        <time>2020-06-06T14:09:48Z</time>
      </trkpt>
      <trkpt lat="45.94104" lon="4.62033">
        <ele>582.6</ele>
        <time>2020-06-06T14:09:52Z</time>
      </trkpt>
      <trkpt lat="45.9413" lon="4.62043">
        <ele>581.8</ele>
        <time>2020-06-06T14:09:56Z</time>
      </trkpt>
      <trkpt lat="45.94158" lon="4.62056">
        <ele>579.4</ele>
        <time>2020-06-06T14:10:00Z</time>
      </trkpt>
      <trkpt lat="45.94187" lon="4.62072">
        <ele>578</ele>
        <time>2020-06-06T14:10:04Z</time>
      </trkpt>
      <trkpt lat="45.94215" lon="4.62095">
        <ele>576.2</ele>
        <time>2020-06-06T14:10:08Z</time>
      </trkpt>
      <trkpt lat="45.94245" lon="4.62121">
        <ele>575.4</ele>
        <time>2020-06-06T14:10:12Z</time>
      </trkpt>
      <trkpt lat="45.94277" lon="4.62149">
        <ele>571.6</ele>
        <time>2020-06-06T14:10:16Z</time>
      </trkpt>
      <trkpt lat="45.94313" lon="4.62171">
        <ele>569.2</ele>
        <time>2020-06-06T14:10:20Z</time>
      </trkpt>
      <trkpt lat="45.9435" lon="4.62191">
        <ele>566.6</ele>
        <time>2020-06-06T14:10:24Z</time>
      </trkpt>
      <trkpt lat="45.94385" lon="4.62216">
        <ele>563.2</ele>
        <time>2020-06-06T14:10:28Z</time>
      </trkpt>
      <trkpt lat="45.94416" lon="4.6224">
        <ele>563.4</ele>
        <time>2020-06-06T14:10:32Z</time>
      </trkpt>
      <trkpt lat="45.94445" lon="4.62252">
        <ele>564.2</ele>
        <time>2020-06-06T14:10:36Z</time>
      </trkpt>
      <trkpt lat="45.94459" lon="4.62266">
        <ele>565</ele>
        <time>2020-06-06T14:10:40Z</time>
      </trkpt>
      <trkpt lat="45.94469" lon="4.62272">
        <ele>565</ele>
        <time>2020-06-06T14:10:44Z</time>
      </trkpt>
      <trkpt lat="45.94484" lon="4.62267">
        <ele>564.8</ele>
        <time>2020-06-06T14:10:48Z</time>
      </trkpt>
      <trkpt lat="45.94501" lon="4.62261">
        <ele>564.6</ele>
        <time>2020-06-06T14:10:52Z</time>
      </trkpt>
      <trkpt lat="45.94517" lon="4.62251">
        <ele>564.2</ele>
        <time>2020-06-06T14:10:56Z</time>
      </trkpt>
      <trkpt lat="45.94535" lon="4.62235">
        <ele>563.6</ele>
        <time>2020-06-06T14:11:00Z</time>
      </trkpt>
      <trkpt lat="45.94549" lon="4.62211">
        <ele>563</ele>
        <time>2020-06-06T14:11:04Z</time>
      </trkpt>
      <trkpt lat="45.94563" lon="4.62187">
        <ele>562.8</ele>
        <time>2020-06-06T14:11:08Z</time>
      </trkpt>
      <trkpt lat="45.94576" lon="4.62163">
        <ele>562.8</ele>
        <time>2020-06-06T14:11:12Z</time>
      </trkpt>
      <trkpt lat="45.94588" lon="4.62143">
        <ele>563</ele>
        <time>2020-06-06T14:11:16Z</time>
      </trkpt>
      <trkpt lat="45.94601" lon="4.62125">
        <ele>562.6</ele>
        <time>2020-06-06T14:11:20Z</time>
      </trkpt>
      <trkpt lat="45.94616" lon="4.62112">
        <ele>563</ele>
        <time>2020-06-06T14:11:24Z</time>
      </trkpt>
      <trkpt lat="45.9463" lon="4.621">
        <ele>564</ele>
        <time>2020-06-06T14:11:28Z</time>
      </trkpt>
      <trkpt lat="45.94643" lon="4.6209">
        <ele>564.6</ele>
        <time>2020-06-06T14:11:32Z</time>
      </trkpt>
      <trkpt lat="45.94656" lon="4.62081">
        <ele>565.2</ele>
        <time>2020-06-06T14:11:36Z</time>
      </trkpt>
      <trkpt lat="45.9467" lon="4.62072">
        <ele>565.4</ele>
        <time>2020-06-06T14:11:40Z</time>
      </trkpt>
      <trkpt lat="45.94686" lon="4.62065">
        <ele>565.4</ele>
        <time>2020-06-06T14:11:44Z</time>
      </trkpt>
      <trkpt lat="45.94701" lon="4.62058">
        <ele>565.4</ele>
        <time>2020-06-06T14:11:48Z</time>
      </trkpt>
      <trkpt lat="45.94717" lon="4.6205">
        <ele>565</ele>
        <time>2020-06-06T14:11:52Z</time>
      </trkpt>
      <trkpt lat="45.94732" lon="4.62043">
        <ele>565.8</ele>
        <time>2020-06-06T14:11:56Z</time>
      </trkpt>
      <trkpt lat="45.94749" lon="4.62037">
        <ele>565.8</ele>
        <time>2020-06-06T14:12:00Z</time>
      </trkpt>
      <trkpt lat="45.94765" lon="4.62035">
        <ele>565.6</ele>
        <time>2020-06-06T14:12:04Z</time>
      </trkpt>
      <trkpt lat="45.94781" lon="4.62039">
        <ele>566</ele>
        <time>2020-06-06T14:12:08Z</time>
      </trkpt>
      <trkpt lat="45.94794" lon="4.62048">
        <ele>566.2</ele>
        <time>2020-06-06T14:12:12Z</time>
      </trkpt>
      <trkpt lat="45.94807" lon="4.62058">
        <ele>567.2</ele>
        <time>2020-06-06T14:12:16Z</time>
      </trkpt>
      <trkpt lat="45.94821" lon="4.62061">
        <ele>567.8</ele>
        <time>2020-06-06T14:12:20Z</time>
      </trkpt>
      <trkpt lat="45.94836" lon="4.62062">
        <ele>567.8</ele>
        <time>2020-06-06T14:12:24Z</time>
      </trkpt>
      <trkpt lat="45.94851" lon="4.62062">
        <ele>568.4</ele>
        <time>2020-06-06T14:12:28Z</time>
      </trkpt>
      <trkpt lat="45.94866" lon="4.62062">
        <ele>569</ele>
        <time>2020-06-06T14:12:32Z</time>
      </trkpt>
      <trkpt lat="45.94883" lon="4.62063">
        <ele>569.2</ele>
        <time>2020-06-06T14:12:36Z</time>
      </trkpt>
      <trkpt lat="45.94898" lon="4.62064">
        <ele>569.8</ele>
        <time>2020-06-06T14:12:40Z</time>
      </trkpt>
      <trkpt lat="45.94913" lon="4.62061">
        <ele>570.2</ele>
        <time>2020-06-06T14:12:44Z</time>
      </trkpt>
      <trkpt lat="45.94927" lon="4.62057">
        <ele>571.2</ele>
        <time>2020-06-06T14:12:48Z</time>
      </trkpt>
      <trkpt lat="45.94941" lon="4.6205">
        <ele>571.8</ele>
        <time>2020-06-06T14:12:52Z</time>
      </trkpt>
      <trkpt lat="45.94955" lon="4.62043">
        <ele>572.4</ele>
        <time>2020-06-06T14:12:56Z</time>
      </trkpt>
      <trkpt lat="45.94967" lon="4.62036">
        <ele>572.8</ele>
        <time>2020-06-06T14:13:00Z</time>
      </trkpt>
      <trkpt lat="45.94979" lon="4.62029">
        <ele>573.4</ele>
        <time>2020-06-06T14:13:04Z</time>
      </trkpt>
      <trkpt lat="45.9499" lon="4.62024">
        <ele>574.2</ele>
        <time>2020-06-06T14:13:08Z</time>
      </trkpt>
      <trkpt lat="45.95001" lon="4.62019">
        <ele>574.4</ele>
        <time>2020-06-06T14:13:12Z</time>
      </trkpt>
      <trkpt lat="45.95013" lon="4.62012">
        <ele>575.8</ele>
        <time>2020-06-06T14:13:16Z</time>
      </trkpt>
      <trkpt lat="45.95025" lon="4.62007">
        <ele>576.2</ele>
        <time>2020-06-06T14:13:20Z</time>
      </trkpt>
      <trkpt lat="45.95037" lon="4.62">
        <ele>576.2</ele>
        <time>2020-06-06T14:13:24Z</time>
      </trkpt>
      <trkpt lat="45.95049" lon="4.61993">
        <ele>576.8</ele>
        <time>2020-06-06T14:13:28Z</time>
      </trkpt>
      <trkpt lat="45.95061" lon="4.61985">
        <ele>577.4</ele>
        <time>2020-06-06T14:13:32Z</time>
      </trkpt>
      <trkpt lat="45.95074" lon="4.61978">
        <ele>577.4</ele>
        <time>2020-06-06T14:13:36Z</time>
      </trkpt>
      <trkpt lat="45.95087" lon="4.61972">
        <ele>578.8</ele>
        <time>2020-06-06T14:13:40Z</time>
      </trkpt>
      <trkpt lat="45.95101" lon="4.61965">
        <ele>578.8</ele>
        <time>2020-06-06T14:13:44Z</time>
      </trkpt>
      <trkpt lat="45.95113" lon="4.61958">
        <ele>580</ele>
        <time>2020-06-06T14:13:48Z</time>
      </trkpt>
      <trkpt lat="45.95126" lon="4.61951">
        <ele>579.6</ele>
        <time>2020-06-06T14:13:52Z</time>
      </trkpt>
      <trkpt lat="45.95139" lon="4.61944">
        <ele>580.2</ele>
        <time>2020-06-06T14:13:56Z</time>
      </trkpt>
      <trkpt lat="45.95151" lon="4.61937">
        <ele>579.8</ele>
        <time>2020-06-06T14:14:00Z</time>
      </trkpt>
      <trkpt lat="45.95164" lon="4.61928">
        <ele>579.8</ele>
        <time>2020-06-06T14:14:04Z</time>
      </trkpt>
      <trkpt lat="45.95177" lon="4.61916">
        <ele>579.8</ele>
        <time>2020-06-06T14:14:08Z</time>
      </trkpt>
      <trkpt lat="45.95189" lon="4.619">
        <ele>579.8</ele>
        <time>2020-06-06T14:14:12Z</time>
      </trkpt>
      <trkpt lat="45.95202" lon="4.61883">
        <ele>579</ele>
        <time>2020-06-06T14:14:16Z</time>
      </trkpt>
      <trkpt lat="45.95214" lon="4.61864">
        <ele>578.8</ele>
        <time>2020-06-06T14:14:20Z</time>
      </trkpt>
      <trkpt lat="45.95228" lon="4.61843">
        <ele>578.6</ele>
        <time>2020-06-06T14:14:24Z</time>
      </trkpt>
      <trkpt lat="45.95241" lon="4.61823">
        <ele>577.6</ele>
        <time>2020-06-06T14:14:28Z</time>
      </trkpt>
      <trkpt lat="45.95253" lon="4.61802">
        <ele>578</ele>
        <time>2020-06-06T14:14:32Z</time>
      </trkpt>
      <trkpt lat="45.95264" lon="4.61778">
        <ele>577.6</ele>
        <time>2020-06-06T14:14:36Z</time>
      </trkpt>
      <trkpt lat="45.95272" lon="4.61754">
        <ele>577.4</ele>
        <time>2020-06-06T14:14:40Z</time>
      </trkpt>
      <trkpt lat="45.95282" lon="4.61731">
        <ele>577.4</ele>
        <time>2020-06-06T14:14:44Z</time>
      </trkpt>
      <trkpt lat="45.95295" lon="4.61715">
        <ele>578</ele>
        <time>2020-06-06T14:14:48Z</time>
      </trkpt>
      <trkpt lat="45.95311" lon="4.61707">
        <ele>578.4</ele>
        <time>2020-06-06T14:14:52Z</time>
      </trkpt>
      <trkpt lat="45.95326" lon="4.61702">
        <ele>578.8</ele>
        <time>2020-06-06T14:14:56Z</time>
      </trkpt>
      <trkpt lat="45.95341" lon="4.61699">
        <ele>579.6</ele>
        <time>2020-06-06T14:15:00Z</time>
      </trkpt>
      <trkpt lat="45.95356" lon="4.61696">
        <ele>579.6</ele>
        <time>2020-06-06T14:15:04Z</time>
      </trkpt>
      <trkpt lat="45.95371" lon="4.61695">
        <ele>579.8</ele>
        <time>2020-06-06T14:15:08Z</time>
      </trkpt>
      <trkpt lat="45.95385" lon="4.61695">
        <ele>581</ele>
        <time>2020-06-06T14:15:12Z</time>
      </trkpt>
      <trkpt lat="45.95398" lon="4.61697">
        <ele>581</ele>
        <time>2020-06-06T14:15:16Z</time>
      </trkpt>
      <trkpt lat="45.95411" lon="4.61698">
        <ele>581</ele>
        <time>2020-06-06T14:15:20Z</time>
      </trkpt>
      <trkpt lat="45.95423" lon="4.617">
        <ele>581.8</ele>
        <time>2020-06-06T14:15:24Z</time>
      </trkpt>
      <trkpt lat="45.95435" lon="4.61702">
        <ele>582</ele>
        <time>2020-06-06T14:15:28Z</time>
      </trkpt>
      <trkpt lat="45.95447" lon="4.61703">
        <ele>583.2</ele>
        <time>2020-06-06T14:15:32Z</time>
      </trkpt>
      <trkpt lat="45.95459" lon="4.61704">
        <ele>584.2</ele>
        <time>2020-06-06T14:15:36Z</time>
      </trkpt>
      <trkpt lat="45.95471" lon="4.61702">
        <ele>584.8</ele>
        <time>2020-06-06T14:15:40Z</time>
      </trkpt>
      <trkpt lat="45.95483" lon="4.61698">
        <ele>585</ele>
        <time>2020-06-06T14:15:44Z</time>
      </trkpt>
      <trkpt lat="45.95494" lon="4.6169">
        <ele>585.2</ele>
        <time>2020-06-06T14:15:48Z</time>
      </trkpt>
      <trkpt lat="45.95503" lon="4.61682">
        <ele>586.8</ele>
        <time>2020-06-06T14:15:52Z</time>
      </trkpt>
      <trkpt lat="45.95511" lon="4.61672">
        <ele>587.2</ele>
        <time>2020-06-06T14:15:56Z</time>
      </trkpt>
      <trkpt lat="45.95519" lon="4.61663">
        <ele>587.8</ele>
        <time>2020-06-06T14:16:00Z</time>
      </trkpt>
      <trkpt lat="45.95526" lon="4.61652">
        <ele>588.2</ele>
        <time>2020-06-06T14:16:04Z</time>
      </trkpt>
      <trkpt lat="45.95532" lon="4.6164">
        <ele>588.8</ele>
        <time>2020-06-06T14:16:08Z</time>
      </trkpt>
      <trkpt lat="45.95538" lon="4.61627">
        <ele>589.4</ele>
        <time>2020-06-06T14:16:12Z</time>
      </trkpt>
      <trkpt lat="45.95544" lon="4.61614">
        <ele>590</ele>
        <time>2020-06-06T14:16:16Z</time>
      </trkpt>
      <trkpt lat="45.9555" lon="4.61601">
        <ele>590.6</ele>
        <time>2020-06-06T14:16:20Z</time>
      </trkpt>
      <trkpt lat="45.95555" lon="4.61588">
        <ele>590.6</ele>
        <time>2020-06-06T14:16:24Z</time>
      </trkpt>
      <trkpt lat="45.9556" lon="4.61573">
        <ele>591.8</ele>
        <time>2020-06-06T14:16:28Z</time>
      </trkpt>
      <trkpt lat="45.95564" lon="4.61557">
        <ele>591.8</ele>
        <time>2020-06-06T14:16:32Z</time>
      </trkpt>
      <trkpt lat="45.95566" lon="4.6154">
        <ele>592.4</ele>
        <time>2020-06-06T14:16:36Z</time>
      </trkpt>
      <trkpt lat="45.95567" lon="4.61523">
        <ele>592.4</ele>
        <time>2020-06-06T14:16:40Z</time>
      </trkpt>
      <trkpt lat="45.95568" lon="4.61506">
        <ele>593.2</ele>
        <time>2020-06-06T14:16:44Z</time>
      </trkpt>
      <trkpt lat="45.95569" lon="4.61489">
        <ele>593.8</ele>
        <time>2020-06-06T14:16:48Z</time>
      </trkpt>
      <trkpt lat="45.95569" lon="4.61472">
        <ele>594.2</ele>
        <time>2020-06-06T14:16:52Z</time>
      </trkpt>
      <trkpt lat="45.95569" lon="4.61454">
        <ele>595.4</ele>
        <time>2020-06-06T14:16:56Z</time>
      </trkpt>
      <trkpt lat="45.95569" lon="4.61437">
        <ele>595</ele>
        <time>2020-06-06T14:17:00Z</time>
      </trkpt>
      <trkpt lat="45.95568" lon="4.61419">
        <ele>594.6</ele>
        <time>2020-06-06T14:17:04Z</time>
      </trkpt>
      <trkpt lat="45.95567" lon="4.61402">
        <ele>595</ele>
        <time>2020-06-06T14:17:08Z</time>
      </trkpt>
      <trkpt lat="45.95565" lon="4.61386">
        <ele>595</ele>
        <time>2020-06-06T14:17:12Z</time>
      </trkpt>
      <trkpt lat="45.95563" lon="4.61372">
        <ele>595.4</ele>
        <time>2020-06-06T14:17:16Z</time>
      </trkpt>
      <trkpt lat="45.9556" lon="4.61358">
        <ele>595.6</ele>
        <time>2020-06-06T14:17:20Z</time>
      </trkpt>
      <trkpt lat="45.95554" lon="4.6134">
        <ele>594.4</ele>
        <time>2020-06-06T14:17:24Z</time>
      </trkpt>
      <trkpt lat="45.95543" lon="4.61319">
        <ele>593.6</ele>
        <time>2020-06-06T14:17:28Z</time>
      </trkpt>
      <trkpt lat="45.9553" lon="4.61294">
        <ele>591.6</ele>
        <time>2020-06-06T14:17:32Z</time>
      </trkpt>
      <trkpt lat="45.95519" lon="4.6126">
        <ele>589.2</ele>
        <time>2020-06-06T14:17:36Z</time>
      </trkpt>
      <trkpt lat="45.95517" lon="4.61218">
        <ele>586.4</ele>
        <time>2020-06-06T14:17:40Z</time>
      </trkpt>
      <trkpt lat="45.9552" lon="4.61172">
        <ele>584.4</ele>
        <time>2020-06-06T14:17:44Z</time>
      </trkpt>
      <trkpt lat="45.95525" lon="4.61126">
        <ele>584.4</ele>
        <time>2020-06-06T14:17:48Z</time>
      </trkpt>
      <trkpt lat="45.95536" lon="4.61084">
        <ele>582.4</ele>
        <time>2020-06-06T14:17:52Z</time>
      </trkpt>
      <trkpt lat="45.95552" lon="4.6105">
        <ele>583</ele>
        <time>2020-06-06T14:17:56Z</time>
      </trkpt>
      <trkpt lat="45.95576" lon="4.6103">
        <ele>581.8</ele>
        <time>2020-06-06T14:18:00Z</time>
      </trkpt>
      <trkpt lat="45.95594" lon="4.60998">
        <ele>579.8</ele>
        <time>2020-06-06T14:18:04Z</time>
      </trkpt>
      <trkpt lat="45.95599" lon="4.60955">
        <ele>578.8</ele>
        <time>2020-06-06T14:18:08Z</time>
      </trkpt>
      <trkpt lat="45.95611" lon="4.60916">
        <ele>578.4</ele>
        <time>2020-06-06T14:18:12Z</time>
      </trkpt>
      <trkpt lat="45.95635" lon="4.60901">
        <ele>579.8</ele>
        <time>2020-06-06T14:18:16Z</time>
      </trkpt>
      <trkpt lat="45.95655" lon="4.60901">
        <ele>581</ele>
        <time>2020-06-06T14:18:20Z</time>
      </trkpt>
      <trkpt lat="45.95673" lon="4.60903">
        <ele>580.8</ele>
        <time>2020-06-06T14:18:24Z</time>
      </trkpt>
      <trkpt lat="45.9569" lon="4.60907">
        <ele>581.4</ele>
        <time>2020-06-06T14:18:28Z</time>
      </trkpt>
      <trkpt lat="45.95707" lon="4.60912">
        <ele>582</ele>
        <time>2020-06-06T14:18:32Z</time>
      </trkpt>
      <trkpt lat="45.95725" lon="4.60918">
        <ele>582</ele>
        <time>2020-06-06T14:18:36Z</time>
      </trkpt>
      <trkpt lat="45.95743" lon="4.60924">
        <ele>582.4</ele>
        <time>2020-06-06T14:18:40Z</time>
      </trkpt>
      <trkpt lat="45.9576" lon="4.60928">
        <ele>582.4</ele>
        <time>2020-06-06T14:18:44Z</time>
      </trkpt>
      <trkpt lat="45.95777" lon="4.60929">
        <ele>582.8</ele>
        <time>2020-06-06T14:18:48Z</time>
      </trkpt>
      <trkpt lat="45.95793" lon="4.60929">
        <ele>583.6</ele>
        <time>2020-06-06T14:18:52Z</time>
      </trkpt>
      <trkpt lat="45.95808" lon="4.6093">
        <ele>583.8</ele>
        <time>2020-06-06T14:18:56Z</time>
      </trkpt>
      <trkpt lat="45.95822" lon="4.6093">
        <ele>584.6</ele>
        <time>2020-06-06T14:19:00Z</time>
      </trkpt>
      <trkpt lat="45.95835" lon="4.6093">
        <ele>584.8</ele>
        <time>2020-06-06T14:19:04Z</time>
      </trkpt>
      <trkpt lat="45.95846" lon="4.60932">
        <ele>586</ele>
        <time>2020-06-06T14:19:08Z</time>
      </trkpt>
      <trkpt lat="45.95858" lon="4.60931">
        <ele>586.6</ele>
        <time>2020-06-06T14:19:12Z</time>
      </trkpt>
      <trkpt lat="45.95869" lon="4.6093">
        <ele>587.2</ele>
        <time>2020-06-06T14:19:16Z</time>
      </trkpt>
      <trkpt lat="45.9588" lon="4.60928">
        <ele>587.8</ele>
        <time>2020-06-06T14:19:20Z</time>
      </trkpt>
      <trkpt lat="45.9589" lon="4.60925">
        <ele>589.2</ele>
        <time>2020-06-06T14:19:24Z</time>
      </trkpt>
      <trkpt lat="45.959" lon="4.60922">
        <ele>589.4</ele>
        <time>2020-06-06T14:19:28Z</time>
      </trkpt>
      <trkpt lat="45.9591" lon="4.6092">
        <ele>590.2</ele>
        <time>2020-06-06T14:19:32Z</time>
      </trkpt>
      <trkpt lat="45.9592" lon="4.60919">
        <ele>590.4</ele>
        <time>2020-06-06T14:19:36Z</time>
      </trkpt>
      <trkpt lat="45.95931" lon="4.60916">
        <ele>591.4</ele>
        <time>2020-06-06T14:19:40Z</time>
      </trkpt>
      <trkpt lat="45.95941" lon="4.60913">
        <ele>592</ele>
        <time>2020-06-06T14:19:44Z</time>
      </trkpt>
      <trkpt lat="45.95952" lon="4.60909">
        <ele>592.8</ele>
        <time>2020-06-06T14:19:48Z</time>
      </trkpt>
      <trkpt lat="45.95963" lon="4.60904">
        <ele>593</ele>
        <time>2020-06-06T14:19:52Z</time>
      </trkpt>
      <trkpt lat="45.95974" lon="4.60898">
        <ele>593</ele>
        <time>2020-06-06T14:19:56Z</time>
      </trkpt>
      <trkpt lat="45.95986" lon="4.60894">
        <ele>591.8</ele>
        <time>2020-06-06T14:20:00Z</time>
      </trkpt>
      <trkpt lat="45.96003" lon="4.60893">
        <ele>590.6</ele>
        <time>2020-06-06T14:20:04Z</time>
      </trkpt>
      <trkpt lat="45.96026" lon="4.60893">
        <ele>586.8</ele>
        <time>2020-06-06T14:20:08Z</time>
      </trkpt>
      <trkpt lat="45.96054" lon="4.60898">
        <ele>585</ele>
        <time>2020-06-06T14:20:12Z</time>
      </trkpt>
      <trkpt lat="45.96083" lon="4.60904">
        <ele>584</ele>
        <time>2020-06-06T14:20:16Z</time>
      </trkpt>
      <trkpt lat="45.96098" lon="4.60898">
        <ele>583.8</ele>
        <time>2020-06-06T14:20:20Z</time>
      </trkpt>
      <trkpt lat="45.96099" lon="4.60876">
        <ele>582.8</ele>
        <time>2020-06-06T14:20:24Z</time>
      </trkpt>
    </trkseg>
  </trk>
</gpx>